<?xml version='1.0' encoding='UTF-8'?><gpx version="1.1" creator="JPX - https://github.com/jenetics/jpx" xmlns="http://www.topografix.com/GPX/1/1"><trk><trkseg><trkpt lat="45.93614165659438" lon="10.26336025100708"><ele>255.99999999999997</ele><time>2026-05-02T12:39:28.998Z</time></trkpt><trkpt lat="45.936105751057966" lon="10.263277551880693"><ele>256.0</ele><time>2026-05-02T12:39:29.998Z</time></trkpt><trkpt lat="45.936047623117254" lon="10.263117110015953"><ele>256.0</ele><time>2026-05-02T12:39:31.998Z</time></trkpt><trkpt lat="45.93603713327122" lon="10.262994674490825"><ele>256.0</ele><time>2026-05-02T12:39:32.998Z</time></trkpt><trkpt lat="45.9359966005751" lon="10.262912075115587"><ele>255.99999999999997</ele><time>2026-05-02T12:39:33.998Z</time></trkpt><trkpt lat="45.9359611030473" lon="10.262813178564013"><ele>256.0</ele><time>2026-05-02T12:39:34.999Z</time></trkpt><trkpt lat="45.93592502054803" lon="10.262711482080535"><ele>255.99999999999997</ele><time>2026-05-02T12:39:35.999Z</time></trkpt><trkpt lat="45.935888066589364" lon="10.262610773222953"><ele>256.0</ele><time>2026-05-02T12:39:36.999Z</time></trkpt><trkpt lat="45.93585131741011" lon="10.262515456955349"><ele>256.0</ele><time>2026-05-02T12:39:37.999Z</time></trkpt><trkpt lat="45.935817930508335" lon="10.262414982781223"><ele>256.0</ele><time>2026-05-02T12:39:38.999Z</time></trkpt><trkpt lat="45.93578444046329" lon="10.262316332796916"><ele>255.99999999999997</ele><time>2026-05-02T12:39:39.999Z</time></trkpt><trkpt lat="45.93575025700907" lon="10.262214762159028"><ele>256.0</ele><time>2026-05-02T12:39:40.999Z</time></trkpt><trkpt lat="45.93571713537832" lon="10.262112918826173"><ele>256.3333333333333</ele><time>2026-05-02T12:39:41.999Z</time></trkpt><trkpt lat="45.93568530098275" lon="10.262011573171632"><ele>256.66666666666663</ele><time>2026-05-02T12:39:42.999Z</time></trkpt><trkpt lat="45.93564522816516" lon="10.261909553267849"><ele>257.0</ele><time>2026-05-02T12:39:43.999Z</time></trkpt><trkpt lat="45.935613869289156" lon="10.261806013860275"><ele>257.3333333333333</ele><time>2026-05-02T12:39:45Z</time></trkpt><trkpt lat="45.935579422466304" lon="10.261702507147877"><ele>257.6666666666667</ele><time>2026-05-02T12:39:46Z</time></trkpt><trkpt lat="45.9355410345064" lon="10.261601328034192"><ele>258.0</ele><time>2026-05-02T12:39:47Z</time></trkpt><trkpt lat="45.935511398152734" lon="10.2615097654809"><ele>257.6</ele><time>2026-05-02T12:39:48Z</time></trkpt><trkpt lat="45.93546132219269" lon="10.261369324005377"><ele>257.20000000000005</ele><time>2026-05-02T12:39:50Z</time></trkpt><trkpt lat="45.93542200577714" lon="10.2612904553669"><ele>256.8</ele><time>2026-05-02T12:39:52Z</time></trkpt><trkpt lat="45.93527882175025" lon="10.261362375368867"><ele>256.40000000000003</ele><time>2026-05-02T12:39:53Z</time></trkpt><trkpt lat="45.935204203047505" lon="10.261401621178582"><ele>256.0</ele><time>2026-05-02T12:39:54Z</time></trkpt><trkpt lat="45.93513105321838" lon="10.261446105023293"><ele>255.99999999999997</ele><time>2026-05-02T12:39:55Z</time></trkpt><trkpt lat="45.935064713707916" lon="10.261488734913002"><ele>256.0</ele><time>2026-05-02T12:39:56Z</time></trkpt><trkpt lat="45.93500418492971" lon="10.261526185125957"><ele>256.0</ele><time>2026-05-02T12:39:57Z</time></trkpt><trkpt lat="45.93493551705275" lon="10.26156591637433"><ele>256.0</ele><time>2026-05-02T12:39:59Z</time></trkpt><trkpt lat="45.93486915008463" lon="10.26161729520178"><ele>255.99999999999997</ele><time>2026-05-02T12:40:01Z</time></trkpt><trkpt lat="45.93479126962861" lon="10.261650866965594"><ele>256.0</ele><time>2026-05-02T12:40:03Z</time></trkpt><trkpt lat="45.934673700394285" lon="10.261671330298697"><ele>256.0</ele><time>2026-05-02T12:40:05Z</time></trkpt><trkpt lat="45.934849157276744" lon="10.261446596770691"><ele>256.0</ele><time>2026-05-02T12:40:06Z</time></trkpt><trkpt lat="45.93481644261515" lon="10.261337566444977"><ele>256.0</ele><time>2026-05-02T12:40:07Z</time></trkpt><trkpt lat="45.934787964627255" lon="10.261242655980588"><ele>256.0</ele><time>2026-05-02T12:40:08Z</time></trkpt><trkpt lat="45.93475729580049" lon="10.261141167928319"><ele>255.99999999999997</ele><time>2026-05-02T12:40:09Z</time></trkpt><trkpt lat="45.93472871873795" lon="10.26104678276882"><ele>256.0</ele><time>2026-05-02T12:40:10Z</time></trkpt><trkpt lat="45.93469993033212" lon="10.26095169958315"><ele>256.0</ele><time>2026-05-02T12:40:11Z</time></trkpt><trkpt lat="45.934665252058046" lon="10.260837163168011"><ele>256.0</ele><time>2026-05-02T12:40:12Z</time></trkpt><trkpt lat="45.93463289817308" lon="10.260730303845316"><ele>255.99999999999997</ele><time>2026-05-02T12:40:13Z</time></trkpt><trkpt lat="45.93459433278085" lon="10.260605551172903"><ele>256.0</ele><time>2026-05-02T12:40:14Z</time></trkpt><trkpt lat="45.934542648045195" lon="10.260441302874119"><ele>256.0</ele><time>2026-05-02T12:40:15Z</time></trkpt><trkpt lat="45.93449821964935" lon="10.260300114412937"><ele>256.0</ele><time>2026-05-02T12:40:16Z</time></trkpt><trkpt lat="45.93444739621855" lon="10.26018011603169"><ele>256.0</ele><time>2026-05-02T12:40:17Z</time></trkpt><trkpt lat="45.93439399428575" lon="10.260064919342247"><ele>256.0</ele><time>2026-05-02T12:40:18Z</time></trkpt><trkpt lat="45.93433558303875" lon="10.25995393882703"><ele>256.0</ele><time>2026-05-02T12:40:19Z</time></trkpt><trkpt lat="45.93355825208558" lon="10.26031614751913"><ele>257.0</ele><time>2026-05-02T12:40:20Z</time></trkpt><trkpt lat="45.93340144348505" lon="10.260287633028394"><ele>258.0</ele><time>2026-05-02T12:40:21Z</time></trkpt><trkpt lat="45.933292091262004" lon="10.260298434414283"><ele>259.0</ele><time>2026-05-02T12:40:22Z</time></trkpt><trkpt lat="45.933161193705544" lon="10.260256983233903"><ele>260.0</ele><time>2026-05-02T12:40:23Z</time></trkpt><trkpt lat="45.9330142499095" lon="10.26020573330531"><ele>263.0</ele><time>2026-05-02T12:40:24Z</time></trkpt><trkpt lat="45.932881618808366" lon="10.260206967378394"><ele>266.0</ele><time>2026-05-02T12:40:25Z</time></trkpt><trkpt lat="45.932784645696614" lon="10.260232243039649"><ele>269.0</ele><time>2026-05-02T12:40:26Z</time></trkpt><trkpt lat="45.93280670108794" lon="10.260434487399053"><ele>272.0</ele><time>2026-05-02T12:40:28Z</time></trkpt><trkpt lat="45.932823594264235" lon="10.260537635862166"><ele>275.0</ele><time>2026-05-02T12:40:29Z</time></trkpt><trkpt lat="45.93272880954364" lon="10.260483473743694"><ele>275.0</ele><time>2026-05-02T12:40:32Z</time></trkpt><trkpt lat="45.93264744032389" lon="10.260327231083247"><ele>275.0</ele><time>2026-05-02T12:40:34.001Z</time></trkpt><trkpt lat="45.93264018336146" lon="10.260154280229687"><ele>275.0</ele><time>2026-05-02T12:40:36.001Z</time></trkpt><trkpt lat="45.93261100481164" lon="10.260040261772696"><ele>275.0</ele><time>2026-05-02T12:40:37.001Z</time></trkpt><trkpt lat="45.9325144445862" lon="10.260022668274095"><ele>275.0</ele><time>2026-05-02T12:40:38.001Z</time></trkpt><trkpt lat="45.932453258998706" lon="10.260080340942917"><ele>279.8</ele><time>2026-05-02T12:40:39.001Z</time></trkpt><trkpt lat="45.93240978798603" lon="10.260227982480904"><ele>284.6</ele><time>2026-05-02T12:40:40.001Z</time></trkpt><trkpt lat="45.932371521043116" lon="10.260337580923904"><ele>289.4</ele><time>2026-05-02T12:40:41.001Z</time></trkpt><trkpt lat="45.9322928926917" lon="10.260281822842193"><ele>294.2</ele><time>2026-05-02T12:40:43.001Z</time></trkpt><trkpt lat="45.93221663163729" lon="10.260228701058509"><ele>299.0</ele><time>2026-05-02T12:40:44.001Z</time></trkpt><trkpt lat="45.932111015188376" lon="10.26016322300452"><ele>299.0</ele><time>2026-05-02T12:40:45.001Z</time></trkpt><trkpt lat="45.93194398855243" lon="10.260156684942224"><ele>299.0</ele><time>2026-05-02T12:40:47.001Z</time></trkpt><trkpt lat="45.93191181796935" lon="10.260045219500652"><ele>299.0</ele><time>2026-05-02T12:40:48.001Z</time></trkpt><trkpt lat="45.93179322328924" lon="10.260049554701112"><ele>299.0</ele><time>2026-05-02T12:40:49.001Z</time></trkpt><trkpt lat="45.93172885526216" lon="10.260058560892597"><ele>299.0</ele><time>2026-05-02T12:40:50.001Z</time></trkpt><trkpt lat="45.93163864230748" lon="10.260136547579302"><ele>304.4</ele><time>2026-05-02T12:40:52.001Z</time></trkpt><trkpt lat="45.93149829478833" lon="10.260152613672345"><ele>309.79999999999995</ele><time>2026-05-02T12:40:54.001Z</time></trkpt><trkpt lat="45.93142178073536" lon="10.26021685629265"><ele>315.20000000000005</ele><time>2026-05-02T12:40:56.001Z</time></trkpt><trkpt lat="45.93135248162235" lon="10.260174043698681"><ele>320.6</ele><time>2026-05-02T12:40:59.001Z</time></trkpt><trkpt lat="45.93128871328575" lon="10.260107700544335"><ele>326.0</ele><time>2026-05-02T12:41:02.001Z</time></trkpt><trkpt lat="45.931383590485034" lon="10.260151413930988"><ele>326.0</ele><time>2026-05-02T12:41:07.001Z</time></trkpt><trkpt lat="45.931439551506884" lon="10.26019329610969"><ele>326.0</ele><time>2026-05-02T12:41:11Z</time></trkpt><trkpt lat="45.931450662234234" lon="10.260296521013919"><ele>326.0</ele><time>2026-05-02T12:41:13Z</time></trkpt><trkpt lat="45.93138779981552" lon="10.260308536774213"><ele>326.0</ele><time>2026-05-02T12:41:19Z</time></trkpt><trkpt lat="45.93146956564768" lon="10.260228100031384"><ele>326.0</ele><time>2026-05-02T12:41:23Z</time></trkpt><trkpt lat="45.93155787009405" lon="10.260183199924866"><ele>326.0</ele><time>2026-05-02T12:41:24Z</time></trkpt><trkpt lat="45.93156713781673" lon="10.260088720606912"><ele>326.0</ele><time>2026-05-02T12:41:26Z</time></trkpt><trkpt lat="45.93156527384354" lon="10.259995449834948"><ele>326.0</ele><time>2026-05-02T12:41:27Z</time></trkpt><trkpt lat="45.931561324231346" lon="10.259888629096215"><ele>326.0</ele><time>2026-05-02T12:41:28Z</time></trkpt><trkpt lat="45.93153135188833" lon="10.25980714255617"><ele>326.0</ele><time>2026-05-02T12:41:29Z</time></trkpt><trkpt lat="45.93149703021511" lon="10.259707901194382"><ele>326.0</ele><time>2026-05-02T12:41:30Z</time></trkpt><trkpt lat="45.93145666140681" lon="10.259612731703848"><ele>326.0</ele><time>2026-05-02T12:41:31Z</time></trkpt><trkpt lat="45.93142594635006" lon="10.259514534356555"><ele>326.0</ele><time>2026-05-02T12:41:32Z</time></trkpt><trkpt lat="45.93141255737549" lon="10.259411290143348"><ele>324.33333333333337</ele><time>2026-05-02T12:41:33Z</time></trkpt><trkpt lat="45.931378138931386" lon="10.259308455116015"><ele>322.6666666666667</ele><time>2026-05-02T12:41:34Z</time></trkpt><trkpt lat="45.93133993126519" lon="10.259211243467288"><ele>321.0</ele><time>2026-05-02T12:41:35Z</time></trkpt><trkpt lat="45.93129154582529" lon="10.259102086884553"><ele>319.3333333333333</ele><time>2026-05-02T12:41:36Z</time></trkpt><trkpt lat="45.93122415196684" lon="10.258998950783402"><ele>317.66666666666663</ele><time>2026-05-02T12:41:37Z</time></trkpt><trkpt lat="45.93119081518807" lon="10.258906817511999"><ele>316.0</ele><time>2026-05-02T12:41:38Z</time></trkpt><trkpt lat="45.931146331479106" lon="10.258840472861126"><ele>313.6</ele><time>2026-05-02T12:41:39Z</time></trkpt><trkpt lat="45.931021542575756" lon="10.258828976588806"><ele>311.20000000000005</ele><time>2026-05-02T12:41:41Z</time></trkpt><trkpt lat="45.93092286405781" lon="10.25879936785536"><ele>308.79999999999995</ele><time>2026-05-02T12:41:43Z</time></trkpt><trkpt lat="45.93086392431097" lon="10.25874491877318"><ele>306.4</ele><time>2026-05-02T12:41:44Z</time></trkpt><trkpt lat="45.930775473116036" lon="10.258676921994656"><ele>304.0</ele><time>2026-05-02T12:41:45Z</time></trkpt><trkpt lat="45.930675929912425" lon="10.258626608145022"><ele>311.4</ele><time>2026-05-02T12:41:46Z</time></trkpt><trkpt lat="45.93058994534131" lon="10.258619858729913"><ele>318.79999999999995</ele><time>2026-05-02T12:41:47Z</time></trkpt><trkpt lat="45.9305069620486" lon="10.258620027151483"><ele>326.20000000000005</ele><time>2026-05-02T12:41:48Z</time></trkpt><trkpt lat="45.930391858049234" lon="10.258589943933917"><ele>333.6</ele><time>2026-05-02T12:41:50Z</time></trkpt><trkpt lat="45.930305197102534" lon="10.258512764015284"><ele>341.0</ele><time>2026-05-02T12:41:51Z</time></trkpt><trkpt lat="45.930210021684374" lon="10.25839511301173"><ele>341.0</ele><time>2026-05-02T12:41:52Z</time></trkpt><trkpt lat="45.93013589037736" lon="10.258270407071004"><ele>341.0</ele><time>2026-05-02T12:41:54Z</time></trkpt><trkpt lat="45.930039161288164" lon="10.25816625312069"><ele>341.0</ele><time>2026-05-02T12:41:55Z</time></trkpt><trkpt lat="45.930334516821105" lon="10.25849310176437"><ele>341.0</ele><time>2026-05-02T12:41:56Z</time></trkpt><trkpt lat="45.930303493694865" lon="10.25840616601874"><ele>341.0</ele><time>2026-05-02T12:41:57Z</time></trkpt><trkpt lat="45.93027849723897" lon="10.258296962476681"><ele>341.0</ele><time>2026-05-02T12:41:59Z</time></trkpt><trkpt lat="45.93019974874294" lon="10.258165133820723"><ele>341.0</ele><time>2026-05-02T12:42:01Z</time></trkpt><trkpt lat="45.930124766552254" lon="10.258027401020016"><ele>341.0</ele><time>2026-05-02T12:42:03Z</time></trkpt><trkpt lat="45.92999180001168" lon="10.258013102267686"><ele>346.6</ele><time>2026-05-02T12:42:11Z</time></trkpt><trkpt lat="45.92996074037662" lon="10.25813303970185"><ele>352.20000000000005</ele><time>2026-05-02T12:42:12Z</time></trkpt><trkpt lat="45.929923393923666" lon="10.25824281732769"><ele>357.79999999999995</ele><time>2026-05-02T12:42:13Z</time></trkpt><trkpt lat="45.92993968704429" lon="10.258457745353729"><ele>363.4</ele><time>2026-05-02T12:42:15Z</time></trkpt><trkpt lat="45.929963962909525" lon="10.258609200397027"><ele>369.0</ele><time>2026-05-02T12:42:16Z</time></trkpt><trkpt lat="45.9299337245391" lon="10.258767635915657"><ele>369.0</ele><time>2026-05-02T12:42:17Z</time></trkpt><trkpt lat="45.92993333968081" lon="10.25889568186567"><ele>369.0</ele><time>2026-05-02T12:42:18Z</time></trkpt><trkpt lat="45.92996570435526" lon="10.259020186700717"><ele>369.0</ele><time>2026-05-02T12:42:19Z</time></trkpt><trkpt lat="45.93001247928488" lon="10.259171589962119"><ele>369.0</ele><time>2026-05-02T12:42:20Z</time></trkpt><trkpt lat="45.93004415294817" lon="10.259325009252715"><ele>369.0</ele><time>2026-05-02T12:42:21Z</time></trkpt><trkpt lat="45.93004626310661" lon="10.259444590417713"><ele>367.5</ele><time>2026-05-02T12:42:22Z</time></trkpt><trkpt lat="45.930073216177135" lon="10.25953961096122"><ele>366.0</ele><time>2026-05-02T12:42:23Z</time></trkpt><trkpt lat="45.930102184244774" lon="10.259665749263698"><ele>364.5</ele><time>2026-05-02T12:42:24Z</time></trkpt><trkpt lat="45.93010583776783" lon="10.259797943226987"><ele>363.0</ele><time>2026-05-02T12:42:25Z</time></trkpt><trkpt lat="45.93012402237754" lon="10.25991718164357"><ele>361.5</ele><time>2026-05-02T12:42:26Z</time></trkpt><trkpt lat="45.93018109316556" lon="10.260037667279116"><ele>360.0</ele><time>2026-05-02T12:42:27Z</time></trkpt><trkpt lat="45.930216818890045" lon="10.260156153428978"><ele>360.0</ele><time>2026-05-02T12:42:28Z</time></trkpt><trkpt lat="45.93022981125118" lon="10.26027315563915"><ele>360.0</ele><time>2026-05-02T12:42:29Z</time></trkpt><trkpt lat="45.93028603123704" lon="10.26038528866036"><ele>360.0</ele><time>2026-05-02T12:42:30Z</time></trkpt><trkpt lat="45.93033642869236" lon="10.260494581336824"><ele>360.0</ele><time>2026-05-02T12:42:31Z</time></trkpt><trkpt lat="45.930383322175906" lon="10.260611420569761"><ele>360.0</ele><time>2026-05-02T12:42:32Z</time></trkpt><trkpt lat="45.93046017546057" lon="10.260713583134036"><ele>360.8</ele><time>2026-05-02T12:42:33Z</time></trkpt><trkpt lat="45.930559043002155" lon="10.260820195304865"><ele>361.6</ele><time>2026-05-02T12:42:34Z</time></trkpt><trkpt lat="45.93061212238678" lon="10.260912426021243"><ele>362.4</ele><time>2026-05-02T12:42:35Z</time></trkpt><trkpt lat="45.930638386370184" lon="10.261045182773179"><ele>363.2</ele><time>2026-05-02T12:42:36Z</time></trkpt><trkpt lat="45.93067049735956" lon="10.26123565429643"><ele>364.0</ele><time>2026-05-02T12:42:37Z</time></trkpt><trkpt lat="45.930703110819984" lon="10.261444727760221"><ele>364.0</ele><time>2026-05-02T12:42:38Z</time></trkpt><trkpt lat="45.93073541184082" lon="10.261609504058276"><ele>364.0</ele><time>2026-05-02T12:42:39Z</time></trkpt><trkpt lat="45.93078463618899" lon="10.26178083221365"><ele>364.0</ele><time>2026-05-02T12:42:40Z</time></trkpt><trkpt lat="45.93082795437226" lon="10.261940429350435"><ele>364.0</ele><time>2026-05-02T12:42:41Z</time></trkpt><trkpt lat="45.930878898827515" lon="10.262127017740646"><ele>361.5</ele><time>2026-05-02T12:42:42Z</time></trkpt><trkpt lat="45.930959767208606" lon="10.262314337357285"><ele>359.0</ele><time>2026-05-02T12:42:43Z</time></trkpt><trkpt lat="45.931041641107164" lon="10.262481751581056"><ele>356.5</ele><time>2026-05-02T12:42:44Z</time></trkpt><trkpt lat="45.93110951454367" lon="10.262631738107808"><ele>354.0</ele><time>2026-05-02T12:42:45Z</time></trkpt><trkpt lat="45.931219665919706" lon="10.262726324885906"><ele>354.0</ele><time>2026-05-02T12:42:46Z</time></trkpt><trkpt lat="45.93136384243018" lon="10.262790830793744"><ele>354.0</ele><time>2026-05-02T12:42:47Z</time></trkpt><trkpt lat="45.93150286541291" lon="10.26283862174873"><ele>354.0</ele><time>2026-05-02T12:42:48Z</time></trkpt><trkpt lat="45.93155602470749" lon="10.26292136217356"><ele>354.0</ele><time>2026-05-02T12:42:49Z</time></trkpt><trkpt lat="45.931577935484626" lon="10.263025922630668"><ele>354.0</ele><time>2026-05-02T12:42:50Z</time></trkpt><trkpt lat="45.93161169995249" lon="10.263181969057298"><ele>357.0</ele><time>2026-05-02T12:42:51Z</time></trkpt><trkpt lat="45.931538571116015" lon="10.263369040891027"><ele>360.0</ele><time>2026-05-02T12:42:52Z</time></trkpt><trkpt lat="45.931559723620104" lon="10.263582103365632"><ele>363.0</ele><time>2026-05-02T12:42:53Z</time></trkpt><trkpt lat="45.931585622395566" lon="10.26377040740258"><ele>366.0</ele><time>2026-05-02T12:42:54Z</time></trkpt><trkpt lat="45.93162631798142" lon="10.263924074972728"><ele>366.20000000000005</ele><time>2026-05-02T12:42:55Z</time></trkpt><trkpt lat="45.931629210131106" lon="10.26406344388272"><ele>366.40000000000003</ele><time>2026-05-02T12:42:56Z</time></trkpt><trkpt lat="45.93163127186494" lon="10.264222315455532"><ele>366.6</ele><time>2026-05-02T12:42:57Z</time></trkpt><trkpt lat="45.93161309037932" lon="10.264367148705126"><ele>366.8</ele><time>2026-05-02T12:42:58Z</time></trkpt><trkpt lat="45.93156312834281" lon="10.264516213464852"><ele>367.0</ele><time>2026-05-02T12:42:59Z</time></trkpt><trkpt lat="45.9315394055391" lon="10.264705829741034"><ele>367.8</ele><time>2026-05-02T12:43:00Z</time></trkpt><trkpt lat="45.93154304593441" lon="10.264869871546102"><ele>368.6</ele><time>2026-05-02T12:43:01Z</time></trkpt><trkpt lat="45.93155475693111" lon="10.265014871380929"><ele>369.40000000000003</ele><time>2026-05-02T12:43:02Z</time></trkpt><trkpt lat="45.931554483516784" lon="10.26517328132099"><ele>370.20000000000005</ele><time>2026-05-02T12:43:03Z</time></trkpt><trkpt lat="45.93156133926393" lon="10.265310224844775"><ele>371.0</ele><time>2026-05-02T12:43:04Z</time></trkpt><trkpt lat="45.931568157332045" lon="10.26544641585456"><ele>371.0</ele><time>2026-05-02T12:43:05Z</time></trkpt><trkpt lat="45.931590813497586" lon="10.265579514908291"><ele>371.0</ele><time>2026-05-02T12:43:06Z</time></trkpt><trkpt lat="45.9315933820421" lon="10.265707700250019"><ele>371.0</ele><time>2026-05-02T12:43:07Z</time></trkpt><trkpt lat="45.93158155676247" lon="10.265835690896948"><ele>371.0</ele><time>2026-05-02T12:43:08Z</time></trkpt><trkpt lat="45.93156795491424" lon="10.265975263046718"><ele>371.0</ele><time>2026-05-02T12:43:09Z</time></trkpt><trkpt lat="45.93152943759087" lon="10.266095580417614"><ele>370.0</ele><time>2026-05-02T12:43:10Z</time></trkpt><trkpt lat="45.93148734135363" lon="10.266186116216867"><ele>369.0</ele><time>2026-05-02T12:43:11Z</time></trkpt><trkpt lat="45.931418959766496" lon="10.266256197776876"><ele>368.0</ele><time>2026-05-02T12:43:12Z</time></trkpt><trkpt lat="45.931335453793196" lon="10.266360303129384"><ele>367.0</ele><time>2026-05-02T12:43:13Z</time></trkpt><trkpt lat="45.93125746670953" lon="10.26649002344683"><ele>366.0</ele><time>2026-05-02T12:43:14Z</time></trkpt><trkpt lat="45.93120820660963" lon="10.266666952444652"><ele>363.5</ele><time>2026-05-02T12:43:15Z</time></trkpt><trkpt lat="45.93122788630754" lon="10.26682207050969"><ele>361.0</ele><time>2026-05-02T12:43:16Z</time></trkpt><trkpt lat="45.93123002510778" lon="10.266984397911209"><ele>358.5</ele><time>2026-05-02T12:43:17Z</time></trkpt><trkpt lat="45.93124805437493" lon="10.267169285215624"><ele>356.0</ele><time>2026-05-02T12:43:18Z</time></trkpt><trkpt lat="45.93126594898714" lon="10.267352791646896"><ele>356.0</ele><time>2026-05-02T12:43:19Z</time></trkpt><trkpt lat="45.93130108175321" lon="10.267558431252274"><ele>356.0</ele><time>2026-05-02T12:43:20Z</time></trkpt><trkpt lat="45.93131857398628" lon="10.267783855015114"><ele>356.0</ele><time>2026-05-02T12:43:21Z</time></trkpt><trkpt lat="45.93135423001526" lon="10.268016952424519"><ele>356.0</ele><time>2026-05-02T12:43:22Z</time></trkpt><trkpt lat="45.93138268368374" lon="10.26826225362022"><ele>356.0</ele><time>2026-05-02T12:43:23Z</time></trkpt><trkpt lat="45.9313833647322" lon="10.268477759813853"><ele>356.0</ele><time>2026-05-02T12:43:24Z</time></trkpt><trkpt lat="45.93141603017761" lon="10.268664964109144"><ele>356.0</ele><time>2026-05-02T12:43:25Z</time></trkpt><trkpt lat="45.93142627084791" lon="10.268847083566918"><ele>356.0</ele><time>2026-05-02T12:43:26Z</time></trkpt><trkpt lat="45.93144949335426" lon="10.268987139476286"><ele>356.0</ele><time>2026-05-02T12:43:27Z</time></trkpt><trkpt lat="45.93147585943252" lon="10.269125707393602"><ele>356.0</ele><time>2026-05-02T12:43:28Z</time></trkpt><trkpt lat="45.93151649373178" lon="10.269259971263459"><ele>356.0</ele><time>2026-05-02T12:43:29Z</time></trkpt><trkpt lat="45.93157405182971" lon="10.269387810512358"><ele>355.20000000000005</ele><time>2026-05-02T12:43:30Z</time></trkpt><trkpt lat="45.93163202619906" lon="10.269506158951643"><ele>354.40000000000003</ele><time>2026-05-02T12:43:31Z</time></trkpt><trkpt lat="45.93169712194803" lon="10.269616883511157"><ele>353.6</ele><time>2026-05-02T12:43:32Z</time></trkpt><trkpt lat="45.93178064455904" lon="10.269708133249074"><ele>352.8</ele><time>2026-05-02T12:43:33Z</time></trkpt><trkpt lat="45.93185061635931" lon="10.269798566407294"><ele>352.0</ele><time>2026-05-02T12:43:34Z</time></trkpt><trkpt lat="45.93190049409146" lon="10.269895909295176"><ele>351.20000000000005</ele><time>2026-05-02T12:43:35Z</time></trkpt><trkpt lat="45.931915808889634" lon="10.270015759325254"><ele>350.4</ele><time>2026-05-02T12:43:36Z</time></trkpt><trkpt lat="45.9319179085395" lon="10.270148162784535"><ele>349.6</ele><time>2026-05-02T12:43:37Z</time></trkpt><trkpt lat="45.931956108277724" lon="10.270277151596781"><ele>348.79999999999995</ele><time>2026-05-02T12:43:38Z</time></trkpt><trkpt lat="45.931986802762864" lon="10.27041310094536"><ele>348.0</ele><time>2026-05-02T12:43:39Z</time></trkpt><trkpt lat="45.93203386317228" lon="10.270558123284"><ele>347.75</ele><time>2026-05-02T12:43:40Z</time></trkpt><trkpt lat="45.932097500557965" lon="10.27071498377145"><ele>347.5</ele><time>2026-05-02T12:43:41Z</time></trkpt><trkpt lat="45.93216145908525" lon="10.270858827141815"><ele>347.25</ele><time>2026-05-02T12:43:42Z</time></trkpt><trkpt lat="45.93222630864668" lon="10.27102470351127"><ele>347.0</ele><time>2026-05-02T12:43:43Z</time></trkpt><trkpt lat="45.93228432309438" lon="10.271189649849942"><ele>347.0</ele><time>2026-05-02T12:43:44Z</time></trkpt><trkpt lat="45.93233686957055" lon="10.271337108281259"><ele>347.0</ele><time>2026-05-02T12:43:45Z</time></trkpt><trkpt lat="45.93240237504765" lon="10.271471662565327"><ele>347.0</ele><time>2026-05-02T12:43:46Z</time></trkpt><trkpt lat="45.932472549928185" lon="10.271586592018203"><ele>347.0</ele><time>2026-05-02T12:43:47Z</time></trkpt><trkpt lat="45.93254945756648" lon="10.271695539430526"><ele>347.0</ele><time>2026-05-02T12:43:48Z</time></trkpt><trkpt lat="45.93263128430906" lon="10.27178390220967"><ele>346.40000000000003</ele><time>2026-05-02T12:43:49Z</time></trkpt><trkpt lat="45.93271541071733" lon="10.271858693575254"><ele>345.8</ele><time>2026-05-02T12:43:50Z</time></trkpt><trkpt lat="45.93275440567766" lon="10.271936008164488"><ele>345.2</ele><time>2026-05-02T12:43:51Z</time></trkpt><trkpt lat="45.93283414331821" lon="10.272035986088438"><ele>344.6</ele><time>2026-05-02T12:43:53Z</time></trkpt><trkpt lat="45.932783392385055" lon="10.272182993931782"><ele>344.0</ele><time>2026-05-02T12:43:54Z</time></trkpt><trkpt lat="45.932786084106674" lon="10.272309430089143"><ele>343.79999999999995</ele><time>2026-05-02T12:43:55Z</time></trkpt><trkpt lat="45.93280269108684" lon="10.272439146942139"><ele>343.59999999999997</ele><time>2026-05-02T12:43:56Z</time></trkpt><trkpt lat="45.9328532724428" lon="10.272546980825235"><ele>343.4</ele><time>2026-05-02T12:43:57Z</time></trkpt><trkpt lat="45.9329131090548" lon="10.272679858705233"><ele>343.2</ele><time>2026-05-02T12:43:58Z</time></trkpt><trkpt lat="45.93299011866334" lon="10.272801504201105"><ele>343.0</ele><time>2026-05-02T12:43:59Z</time></trkpt><trkpt lat="45.93305414298431" lon="10.272928229553072"><ele>343.0</ele><time>2026-05-02T12:44:00Z</time></trkpt><trkpt lat="45.93313539693171" lon="10.273035840995009"><ele>343.0</ele><time>2026-05-02T12:44:01Z</time></trkpt><trkpt lat="45.933211953511424" lon="10.273137377407933"><ele>343.0</ele><time>2026-05-02T12:44:02Z</time></trkpt><trkpt lat="45.933270559479176" lon="10.273239370645113"><ele>343.0</ele><time>2026-05-02T12:44:03Z</time></trkpt><trkpt lat="45.933266169867025" lon="10.273379066354195"><ele>343.0</ele><time>2026-05-02T12:44:04Z</time></trkpt><trkpt lat="45.93330413953449" lon="10.273527181854677"><ele>343.5</ele><time>2026-05-02T12:44:05Z</time></trkpt><trkpt lat="45.93336124068056" lon="10.273670436470391"><ele>344.0</ele><time>2026-05-02T12:44:06Z</time></trkpt><trkpt lat="45.933396572770555" lon="10.273839858706136"><ele>344.5</ele><time>2026-05-02T12:44:07Z</time></trkpt><trkpt lat="45.93344566964532" lon="10.274001413121084"><ele>345.0</ele><time>2026-05-02T12:44:08Z</time></trkpt><trkpt lat="45.933497085375286" lon="10.27415502406319"><ele>348.2</ele><time>2026-05-02T12:44:09Z</time></trkpt><trkpt lat="45.93354685210763" lon="10.2743006723722"><ele>351.4</ele><time>2026-05-02T12:44:10Z</time></trkpt><trkpt lat="45.93360827802305" lon="10.27441302747497"><ele>354.6</ele><time>2026-05-02T12:44:11Z</time></trkpt><trkpt lat="45.93366951050248" lon="10.27454319935107"><ele>357.8</ele><time>2026-05-02T12:44:12Z</time></trkpt><trkpt lat="45.933709326259894" lon="10.274682938032699"><ele>361.0</ele><time>2026-05-02T12:44:13Z</time></trkpt><trkpt lat="45.933760877670615" lon="10.27482291561228"><ele>362.8</ele><time>2026-05-02T12:44:14Z</time></trkpt><trkpt lat="45.93377534889185" lon="10.274987422540493"><ele>364.6</ele><time>2026-05-02T12:44:15Z</time></trkpt><trkpt lat="45.93380832231631" lon="10.27512931950261"><ele>366.4</ele><time>2026-05-02T12:44:16Z</time></trkpt><trkpt lat="45.933817636970296" lon="10.275246284365402"><ele>368.2</ele><time>2026-05-02T12:44:17Z</time></trkpt><trkpt lat="45.93382487414717" lon="10.275345606292516"><ele>370.0</ele><time>2026-05-02T12:44:18Z</time></trkpt><trkpt lat="45.933839158932976" lon="10.275458962696051"><ele>370.0</ele><time>2026-05-02T12:44:19Z</time></trkpt><trkpt lat="45.9338349953609" lon="10.275562045427183"><ele>370.0</ele><time>2026-05-02T12:44:20Z</time></trkpt><trkpt lat="45.93379938363662" lon="10.275721748149522"><ele>370.0</ele><time>2026-05-02T12:44:22Z</time></trkpt><trkpt lat="45.933732322094286" lon="10.27582728543498"><ele>370.0</ele><time>2026-05-02T12:44:24Z</time></trkpt><trkpt lat="45.93366149369222" lon="10.275987547925075"><ele>370.0</ele><time>2026-05-02T12:44:27Z</time></trkpt><trkpt lat="45.933593995562404" lon="10.2760701373251"><ele>370.16666666666663</ele><time>2026-05-02T12:44:30Z</time></trkpt><trkpt lat="45.933534234203904" lon="10.27611021330212"><ele>370.3333333333333</ele><time>2026-05-02T12:44:33Z</time></trkpt><trkpt lat="45.93343837722636" lon="10.276221913806722"><ele>370.5</ele><time>2026-05-02T12:44:37Z</time></trkpt><trkpt lat="45.93338197869101" lon="10.276264926601831"><ele>370.6666666666667</ele><time>2026-05-02T12:44:38Z</time></trkpt><trkpt lat="45.9333312958123" lon="10.276344571705506"><ele>370.83333333333337</ele><time>2026-05-02T12:44:39Z</time></trkpt><trkpt lat="45.933273693649866" lon="10.276399740615684"><ele>371.0</ele><time>2026-05-02T12:44:40Z</time></trkpt><trkpt lat="45.93320905412741" lon="10.276459222159415"><ele>369.7142857142857</ele><time>2026-05-02T12:44:41Z</time></trkpt><trkpt lat="45.933142385236096" lon="10.276492986164458"><ele>368.42857142857144</ele><time>2026-05-02T12:44:42Z</time></trkpt><trkpt lat="45.93309595857703" lon="10.276566538452263"><ele>367.1428571428571</ele><time>2026-05-02T12:44:43Z</time></trkpt><trkpt lat="45.93304283049845" lon="10.27662123035703"><ele>365.8571428571429</ele><time>2026-05-02T12:44:44Z</time></trkpt><trkpt lat="45.93298115953147" lon="10.276664368663102"><ele>364.57142857142856</ele><time>2026-05-02T12:44:45Z</time></trkpt><trkpt lat="45.93293142527446" lon="10.276720971829732"><ele>363.2857142857143</ele><time>2026-05-02T12:44:47Z</time></trkpt><trkpt lat="45.93286391147566" lon="10.276764322197437"><ele>362.0</ele><time>2026-05-02T12:44:50Z</time></trkpt><trkpt lat="45.93285951828174" lon="10.276954443722213"><ele>362.0</ele><time>2026-05-02T12:44:51Z</time></trkpt><trkpt lat="45.93280362659941" lon="10.277032687057714"><ele>362.0</ele><time>2026-05-02T12:44:52Z</time></trkpt><trkpt lat="45.93271311717424" lon="10.277073005706571"><ele>362.0</ele><time>2026-05-02T12:44:53Z</time></trkpt><trkpt lat="45.93262254603279" lon="10.277117265482332"><ele>362.0</ele><time>2026-05-02T12:44:54Z</time></trkpt><trkpt lat="45.932540077219" lon="10.277154030610102"><ele>362.0</ele><time>2026-05-02T12:44:55Z</time></trkpt><trkpt lat="45.932458197393196" lon="10.277205151858682"><ele>362.0</ele><time>2026-05-02T12:44:56Z</time></trkpt><trkpt lat="45.93239382759433" lon="10.27719992502757"><ele>361.0</ele><time>2026-05-02T12:44:57Z</time></trkpt><trkpt lat="45.932330063410596" lon="10.277240643882006"><ele>360.0</ele><time>2026-05-02T12:44:59Z</time></trkpt><trkpt lat="45.932270549685825" lon="10.277575933360858"><ele>359.0</ele><time>2026-05-02T12:45:00Z</time></trkpt><trkpt lat="45.93213776694767" lon="10.277594251950287"><ele>358.0</ele><time>2026-05-02T12:45:01Z</time></trkpt><trkpt lat="45.93196839722411" lon="10.277570225047997"><ele>358.0</ele><time>2026-05-02T12:45:02Z</time></trkpt><trkpt lat="45.93182389370129" lon="10.277408460301128"><ele>358.0</ele><time>2026-05-02T12:45:03Z</time></trkpt><trkpt lat="45.93169510043554" lon="10.27738091398313"><ele>358.0</ele><time>2026-05-02T12:45:04Z</time></trkpt><trkpt lat="45.93159391829778" lon="10.277290884303019"><ele>358.0</ele><time>2026-05-02T12:45:05Z</time></trkpt><trkpt lat="45.93153471575193" lon="10.277199049556696"><ele>355.75</ele><time>2026-05-02T12:45:06Z</time></trkpt><trkpt lat="45.931457938035585" lon="10.277095863946005"><ele>353.5</ele><time>2026-05-02T12:45:07Z</time></trkpt><trkpt lat="45.931355996564996" lon="10.27697596646078"><ele>351.25</ele><time>2026-05-02T12:45:08Z</time></trkpt><trkpt lat="45.93126213902786" lon="10.276902733070154"><ele>349.0</ele><time>2026-05-02T12:45:09Z</time></trkpt><trkpt lat="45.9311522273593" lon="10.276870393815226"><ele>349.0</ele><time>2026-05-02T12:45:10Z</time></trkpt><trkpt lat="45.93103697938043" lon="10.276845073939336"><ele>349.0</ele><time>2026-05-02T12:45:11Z</time></trkpt><trkpt lat="45.930904164869006" lon="10.276903975320977"><ele>349.0</ele><time>2026-05-02T12:45:12Z</time></trkpt><trkpt lat="45.93078171552189" lon="10.276949218231424"><ele>349.0</ele><time>2026-05-02T12:45:13Z</time></trkpt><trkpt lat="45.93065297988824" lon="10.276948403467312"><ele>348.25</ele><time>2026-05-02T12:45:14Z</time></trkpt><trkpt lat="45.93052080568053" lon="10.276977692668417"><ele>347.5</ele><time>2026-05-02T12:45:15Z</time></trkpt><trkpt lat="45.93038612515104" lon="10.277003567310642"><ele>346.75</ele><time>2026-05-02T12:45:16Z</time></trkpt><trkpt lat="45.93025528849634" lon="10.277015680444137"><ele>346.0</ele><time>2026-05-02T12:45:17Z</time></trkpt><trkpt lat="45.93011827046333" lon="10.277029271973763"><ele>345.5</ele><time>2026-05-02T12:45:18Z</time></trkpt><trkpt lat="45.92999789204084" lon="10.27704055107098"><ele>345.0</ele><time>2026-05-02T12:45:19Z</time></trkpt><trkpt lat="45.92987567155588" lon="10.27706681308982"><ele>344.5</ele><time>2026-05-02T12:45:20Z</time></trkpt><trkpt lat="45.92975524978164" lon="10.277140226023533"><ele>344.0</ele><time>2026-05-02T12:45:21Z</time></trkpt><trkpt lat="45.929623806484635" lon="10.277195826565102"><ele>344.0</ele><time>2026-05-02T12:45:22Z</time></trkpt><trkpt lat="45.92949313700788" lon="10.277268000614"><ele>344.0</ele><time>2026-05-02T12:45:23Z</time></trkpt><trkpt lat="45.929362766243045" lon="10.277342470850305"><ele>344.0</ele><time>2026-05-02T12:45:24Z</time></trkpt><trkpt lat="45.92923869763639" lon="10.277435843571503"><ele>344.0</ele><time>2026-05-02T12:45:25Z</time></trkpt><trkpt lat="45.92911732991917" lon="10.27750851811054"><ele>344.4</ele><time>2026-05-02T12:45:26Z</time></trkpt><trkpt lat="45.929007992754" lon="10.277573035287613"><ele>344.79999999999995</ele><time>2026-05-02T12:45:27Z</time></trkpt><trkpt lat="45.928905859651756" lon="10.277627059139316"><ele>345.20000000000005</ele><time>2026-05-02T12:45:28Z</time></trkpt><trkpt lat="45.92880904011709" lon="10.277672405921786"><ele>345.6</ele><time>2026-05-02T12:45:29Z</time></trkpt><trkpt lat="45.92872162526252" lon="10.277718484140973"><ele>346.0</ele><time>2026-05-02T12:45:30Z</time></trkpt><trkpt lat="45.92862851726129" lon="10.277728333626586"><ele>346.0</ele><time>2026-05-02T12:45:31Z</time></trkpt><trkpt lat="45.92853580265379" lon="10.277788447097361"><ele>346.0</ele><time>2026-05-02T12:45:32Z</time></trkpt><trkpt lat="45.92842571509669" lon="10.277776337138096"><ele>346.0</ele><time>2026-05-02T12:45:33Z</time></trkpt><trkpt lat="45.928285238044765" lon="10.277772399931031"><ele>346.0</ele><time>2026-05-02T12:45:34Z</time></trkpt><trkpt lat="45.928138083290264" lon="10.277795721099812"><ele>345.5</ele><time>2026-05-02T12:45:35Z</time></trkpt><trkpt lat="45.928011995185685" lon="10.277828864004082"><ele>345.0</ele><time>2026-05-02T12:45:36Z</time></trkpt><trkpt lat="45.92789185518921" lon="10.277867036165697"><ele>344.5</ele><time>2026-05-02T12:45:37Z</time></trkpt><trkpt lat="45.92775526364569" lon="10.277919841521575"><ele>344.0</ele><time>2026-05-02T12:45:38Z</time></trkpt><trkpt lat="45.927628482020026" lon="10.277986812968864"><ele>344.0</ele><time>2026-05-02T12:45:39Z</time></trkpt><trkpt lat="45.92751009890722" lon="10.278064556018144"><ele>344.0</ele><time>2026-05-02T12:45:40Z</time></trkpt><trkpt lat="45.92741218940924" lon="10.278164841494268"><ele>344.0</ele><time>2026-05-02T12:45:41Z</time></trkpt><trkpt lat="45.92731298970943" lon="10.278252190477962"><ele>344.0</ele><time>2026-05-02T12:45:42Z</time></trkpt><trkpt lat="45.927251019994834" lon="10.27833553066486"><ele>344.0</ele><time>2026-05-02T12:45:43Z</time></trkpt><trkpt lat="45.927228284808486" lon="10.278472457100328"><ele>344.0</ele><time>2026-05-02T12:45:44Z</time></trkpt><trkpt lat="45.92721055316696" lon="10.278684637310388"><ele>344.0</ele><time>2026-05-02T12:45:45Z</time></trkpt><trkpt lat="45.927185940089934" lon="10.278868985483761"><ele>344.0</ele><time>2026-05-02T12:45:46Z</time></trkpt><trkpt lat="45.92712139570898" lon="10.278984861179408"><ele>344.6</ele><time>2026-05-02T12:45:47Z</time></trkpt><trkpt lat="45.92706407357218" lon="10.279098165200413"><ele>345.2</ele><time>2026-05-02T12:45:48Z</time></trkpt><trkpt lat="45.92704954030613" lon="10.279210393851903"><ele>345.8</ele><time>2026-05-02T12:45:49Z</time></trkpt><trkpt lat="45.92707822010681" lon="10.279364013000883"><ele>346.40000000000003</ele><time>2026-05-02T12:45:50Z</time></trkpt><trkpt lat="45.927123584655035" lon="10.279546378785549"><ele>347.0</ele><time>2026-05-02T12:45:51Z</time></trkpt><trkpt lat="45.92715745110731" lon="10.279743557843513"><ele>348.33333333333337</ele><time>2026-05-02T12:45:52Z</time></trkpt><trkpt lat="45.927192313350766" lon="10.279956910894029"><ele>349.6666666666667</ele><time>2026-05-02T12:45:53Z</time></trkpt><trkpt lat="45.92723501714475" lon="10.28016791056903"><ele>351.0</ele><time>2026-05-02T12:45:54Z</time></trkpt><trkpt lat="45.927278457936374" lon="10.280379966542892"><ele>351.0</ele><time>2026-05-02T12:45:55Z</time></trkpt><trkpt lat="45.92732084966825" lon="10.2805626824391"><ele>351.0</ele><time>2026-05-02T12:45:56Z</time></trkpt><trkpt lat="45.92736247142534" lon="10.280723213919705"><ele>351.0</ele><time>2026-05-02T12:45:57Z</time></trkpt><trkpt lat="45.927396221470595" lon="10.280874856712106"><ele>351.0</ele><time>2026-05-02T12:45:58Z</time></trkpt><trkpt lat="45.927418363125476" lon="10.281020261193497"><ele>352.20000000000005</ele><time>2026-05-02T12:45:59Z</time></trkpt><trkpt lat="45.927367599747555" lon="10.28117356051943"><ele>353.40000000000003</ele><time>2026-05-02T12:46:00Z</time></trkpt><trkpt lat="45.927349271338" lon="10.281292284715008"><ele>354.6</ele><time>2026-05-02T12:46:02Z</time></trkpt><trkpt lat="45.927270305595165" lon="10.281328247840761"><ele>355.8</ele><time>2026-05-02T12:46:03Z</time></trkpt><trkpt lat="45.92716411421557" lon="10.281374529945243"><ele>357.0</ele><time>2026-05-02T12:46:04Z</time></trkpt><trkpt lat="45.92704862911806" lon="10.281402659662664"><ele>357.20000000000005</ele><time>2026-05-02T12:46:05Z</time></trkpt><trkpt lat="45.92693937741728" lon="10.281484917052234"><ele>357.4</ele><time>2026-05-02T12:46:06Z</time></trkpt><trkpt lat="45.92684956825524" lon="10.281557223075387"><ele>357.6</ele><time>2026-05-02T12:46:07Z</time></trkpt><trkpt lat="45.92677354601937" lon="10.281639626560125"><ele>357.79999999999995</ele><time>2026-05-02T12:46:08Z</time></trkpt><trkpt lat="45.92670443071835" lon="10.281720736806069"><ele>358.0</ele><time>2026-05-02T12:46:09Z</time></trkpt><trkpt lat="45.926643488245894" lon="10.281792555159377"><ele>357.5714285714286</ele><time>2026-05-02T12:46:10Z</time></trkpt><trkpt lat="45.92658554497779" lon="10.281852853325523"><ele>357.14285714285717</ele><time>2026-05-02T12:46:12Z</time></trkpt><trkpt lat="45.926541774124374" lon="10.281919488554998"><ele>356.7142857142857</ele><time>2026-05-02T12:46:14Z</time></trkpt><trkpt lat="45.926493589658484" lon="10.281984252671357"><ele>356.28571428571433</ele><time>2026-05-02T12:46:15Z</time></trkpt><trkpt lat="45.92642938589104" lon="10.282052315749802"><ele>355.8571428571429</ele><time>2026-05-02T12:46:16Z</time></trkpt><trkpt lat="45.92636998868375" lon="10.282133480277588"><ele>355.42857142857144</ele><time>2026-05-02T12:46:17Z</time></trkpt><trkpt lat="45.926305705088694" lon="10.282191880954814"><ele>355.0</ele><time>2026-05-02T12:46:18Z</time></trkpt><trkpt lat="45.92624079387379" lon="10.28224636531839"><ele>355.16666666666663</ele><time>2026-05-02T12:46:19Z</time></trkpt><trkpt lat="45.92617724157816" lon="10.282306948513687"><ele>355.3333333333333</ele><time>2026-05-02T12:46:20Z</time></trkpt><trkpt lat="45.926113272025745" lon="10.282338885337854"><ele>355.5</ele><time>2026-05-02T12:46:21Z</time></trkpt><trkpt lat="45.926045144294164" lon="10.282383818597406"><ele>355.6666666666667</ele><time>2026-05-02T12:46:23Z</time></trkpt><trkpt lat="45.92600073265297" lon="10.282289694610919"><ele>355.83333333333337</ele><time>2026-05-02T12:46:25Z</time></trkpt><trkpt lat="45.92588174384013" lon="10.282200366333285"><ele>356.0</ele><time>2026-05-02T12:46:27Z</time></trkpt><trkpt lat="45.92583919775495" lon="10.2820591009821"><ele>355.4</ele><time>2026-05-02T12:46:28Z</time></trkpt><trkpt lat="45.92577603453842" lon="10.28197376757532"><ele>354.8</ele><time>2026-05-02T12:46:29Z</time></trkpt><trkpt lat="45.92570413335119" lon="10.281897212187403"><ele>354.2</ele><time>2026-05-02T12:46:30Z</time></trkpt><trkpt lat="45.92561928721469" lon="10.281832702974114"><ele>353.59999999999997</ele><time>2026-05-02T12:46:31Z</time></trkpt><trkpt lat="45.92552711348095" lon="10.28176770257911"><ele>353.0</ele><time>2026-05-02T12:46:32Z</time></trkpt><trkpt lat="45.92544836442266" lon="10.281669346862685"><ele>353.0</ele><time>2026-05-02T12:46:33Z</time></trkpt><trkpt lat="45.92536521022752" lon="10.281569164699137"><ele>353.0</ele><time>2026-05-02T12:46:34Z</time></trkpt><trkpt lat="45.92527589048159" lon="10.28145642129855"><ele>353.0</ele><time>2026-05-02T12:46:35Z</time></trkpt><trkpt lat="45.92519341290735" lon="10.281352945918634"><ele>353.0</ele><time>2026-05-02T12:46:36Z</time></trkpt><trkpt lat="45.92512276994809" lon="10.281244490988254"><ele>353.0</ele><time>2026-05-02T12:46:37Z</time></trkpt><trkpt lat="45.92504295413809" lon="10.28115535881494"><ele>353.4</ele><time>2026-05-02T12:46:38Z</time></trkpt><trkpt lat="45.92498497605405" lon="10.281033895116641"><ele>353.79999999999995</ele><time>2026-05-02T12:46:39Z</time></trkpt><trkpt lat="45.92491601233581" lon="10.280928983146303"><ele>354.2</ele><time>2026-05-02T12:46:40Z</time></trkpt><trkpt lat="45.92485844550938" lon="10.280812593294527"><ele>354.6</ele><time>2026-05-02T12:46:41Z</time></trkpt><trkpt lat="45.924808738670734" lon="10.28069591848496"><ele>355.0</ele><time>2026-05-02T12:46:42Z</time></trkpt><trkpt lat="45.924754465899966" lon="10.280583326552271"><ele>353.66666666666663</ele><time>2026-05-02T12:46:43Z</time></trkpt><trkpt lat="45.92471297583114" lon="10.28045441791646"><ele>352.3333333333333</ele><time>2026-05-02T12:46:44Z</time></trkpt><trkpt lat="45.92466977656294" lon="10.280337897090073"><ele>351.0</ele><time>2026-05-02T12:46:45Z</time></trkpt><trkpt lat="45.924634764863434" lon="10.28023377879789"><ele>349.6666666666667</ele><time>2026-05-02T12:46:46Z</time></trkpt><trkpt lat="45.92459892635676" lon="10.280121821092967"><ele>348.33333333333337</ele><time>2026-05-02T12:46:47Z</time></trkpt><trkpt lat="45.92456443156386" lon="10.280000208062006"><ele>347.0</ele><time>2026-05-02T12:46:48Z</time></trkpt><trkpt lat="45.92453503496108" lon="10.279886610115426"><ele>347.0</ele><time>2026-05-02T12:46:49Z</time></trkpt><trkpt lat="45.92450899425962" lon="10.279776502948932"><ele>347.0</ele><time>2026-05-02T12:46:50Z</time></trkpt><trkpt lat="45.924481189850795" lon="10.2796675523557"><ele>347.0</ele><time>2026-05-02T12:46:51Z</time></trkpt><trkpt lat="45.924460791581495" lon="10.279553754814813"><ele>347.0</ele><time>2026-05-02T12:46:52Z</time></trkpt><trkpt lat="45.92444232080638" lon="10.279440762860766"><ele>347.0</ele><time>2026-05-02T12:46:53Z</time></trkpt><trkpt lat="45.92443098769935" lon="10.279328304527409"><ele>347.0</ele><time>2026-05-02T12:46:54Z</time></trkpt><trkpt lat="45.924410853907474" lon="10.279221044079405"><ele>346.1666666666667</ele><time>2026-05-02T12:46:55Z</time></trkpt><trkpt lat="45.92440767358377" lon="10.279112935716215"><ele>345.33333333333337</ele><time>2026-05-02T12:46:56Z</time></trkpt><trkpt lat="45.92440009979559" lon="10.278995023015709"><ele>344.5</ele><time>2026-05-02T12:46:57Z</time></trkpt><trkpt lat="45.924391729729535" lon="10.27887222177081"><ele>343.6666666666667</ele><time>2026-05-02T12:46:58Z</time></trkpt><trkpt lat="45.92439714495257" lon="10.27874664370623"><ele>342.8333333333333</ele><time>2026-05-02T12:46:59Z</time></trkpt><trkpt lat="45.92442426726344" lon="10.27860982113452"><ele>342.0</ele><time>2026-05-02T12:47:00Z</time></trkpt><trkpt lat="45.9244628768399" lon="10.278499960060193"><ele>341.20000000000005</ele><time>2026-05-02T12:47:01Z</time></trkpt><trkpt lat="45.92450555315652" lon="10.27838619238846"><ele>340.4</ele><time>2026-05-02T12:47:02Z</time></trkpt><trkpt lat="45.924529998645426" lon="10.278270701559668"><ele>339.6</ele><time>2026-05-02T12:47:03Z</time></trkpt><trkpt lat="45.92451312779334" lon="10.278152674045552"><ele>338.79999999999995</ele><time>2026-05-02T12:47:04Z</time></trkpt><trkpt lat="45.92445993940782" lon="10.278041750754435"><ele>338.0</ele><time>2026-05-02T12:47:05Z</time></trkpt><trkpt lat="45.92439735087407" lon="10.277926365809288"><ele>337.59999999999997</ele><time>2026-05-02T12:47:06Z</time></trkpt><trkpt lat="45.92433773319167" lon="10.277800871681778"><ele>337.2</ele><time>2026-05-02T12:47:07Z</time></trkpt><trkpt lat="45.92427100351946" lon="10.2776884329681"><ele>336.8</ele><time>2026-05-02T12:47:08Z</time></trkpt><trkpt lat="45.92422288884379" lon="10.277568451581276"><ele>336.4</ele><time>2026-05-02T12:47:09Z</time></trkpt><trkpt lat="45.924179264358216" lon="10.277457248153997"><ele>336.0</ele><time>2026-05-02T12:47:10Z</time></trkpt><trkpt lat="45.92412933173762" lon="10.277350812708452"><ele>336.6666666666667</ele><time>2026-05-02T12:47:11Z</time></trkpt><trkpt lat="45.92408663034988" lon="10.277244854697294"><ele>337.3333333333333</ele><time>2026-05-02T12:47:12Z</time></trkpt><trkpt lat="45.924048031384" lon="10.277138655108875"><ele>338.0</ele><time>2026-05-02T12:47:13Z</time></trkpt><trkpt lat="45.92399831814507" lon="10.27704148795376"><ele>338.66666666666663</ele><time>2026-05-02T12:47:14Z</time></trkpt><trkpt lat="45.92393863518506" lon="10.27694985687037"><ele>339.3333333333333</ele><time>2026-05-02T12:47:15Z</time></trkpt><trkpt lat="45.92385258601283" lon="10.276886460206285"><ele>340.0</ele><time>2026-05-02T12:47:16Z</time></trkpt><trkpt lat="45.923759262110615" lon="10.276836821818899"><ele>340.0</ele><time>2026-05-02T12:47:17Z</time></trkpt><trkpt lat="45.92368591167178" lon="10.27674022736043"><ele>340.0</ele><time>2026-05-02T12:47:18Z</time></trkpt><trkpt lat="45.923610972728724" lon="10.276654778724195"><ele>340.0</ele><time>2026-05-02T12:47:19Z</time></trkpt><trkpt lat="45.9235420243836" lon="10.276566067476185"><ele>340.0</ele><time>2026-05-02T12:47:20Z</time></trkpt><trkpt lat="45.92347357685718" lon="10.276479333083017"><ele>340.0</ele><time>2026-05-02T12:47:21Z</time></trkpt><trkpt lat="45.923392498808234" lon="10.276405393762008"><ele>340.5</ele><time>2026-05-02T12:47:22Z</time></trkpt><trkpt lat="45.923311230816026" lon="10.276337873374771"><ele>341.0</ele><time>2026-05-02T12:47:23Z</time></trkpt><trkpt lat="45.92324034534955" lon="10.27631309304349"><ele>341.5</ele><time>2026-05-02T12:47:24Z</time></trkpt><trkpt lat="45.92318308582866" lon="10.276269418450266"><ele>342.0</ele><time>2026-05-02T12:47:25Z</time></trkpt><trkpt lat="45.92313001909255" lon="10.276198583007108"><ele>342.5</ele><time>2026-05-02T12:47:26Z</time></trkpt><trkpt lat="45.92307738009978" lon="10.276086187145745"><ele>343.0</ele><time>2026-05-02T12:47:27Z</time></trkpt><trkpt lat="45.92302420298227" lon="10.275978852609038"><ele>343.0</ele><time>2026-05-02T12:47:28Z</time></trkpt><trkpt lat="45.9229685118952" lon="10.27587161232282"><ele>343.0</ele><time>2026-05-02T12:47:29Z</time></trkpt><trkpt lat="45.92290214599839" lon="10.27576344803002"><ele>343.0</ele><time>2026-05-02T12:47:30Z</time></trkpt><trkpt lat="45.92283302802413" lon="10.27565111475357"><ele>343.0</ele><time>2026-05-02T12:47:31Z</time></trkpt><trkpt lat="45.92275818959839" lon="10.275554647713024"><ele>343.0</ele><time>2026-05-02T12:47:32Z</time></trkpt><trkpt lat="45.92269897297514" lon="10.2754545831908"><ele>343.59999999999997</ele><time>2026-05-02T12:47:33Z</time></trkpt><trkpt lat="45.922637937237" lon="10.275360085566504"><ele>344.2</ele><time>2026-05-02T12:47:34Z</time></trkpt><trkpt lat="45.92256306192955" lon="10.275270098960453"><ele>344.8</ele><time>2026-05-02T12:47:35Z</time></trkpt><trkpt lat="45.922502064548056" lon="10.275162669847342"><ele>345.4</ele><time>2026-05-02T12:47:36Z</time></trkpt><trkpt lat="45.922428963469876" lon="10.275058426091404"><ele>346.0</ele><time>2026-05-02T12:47:37Z</time></trkpt><trkpt lat="45.92233990212894" lon="10.274973942270252"><ele>346.0</ele><time>2026-05-02T12:47:38Z</time></trkpt><trkpt lat="45.922238328703735" lon="10.274903192174214"><ele>346.0</ele><time>2026-05-02T12:47:39Z</time></trkpt><trkpt lat="45.922148001386205" lon="10.274805419065279"><ele>346.0</ele><time>2026-05-02T12:47:40Z</time></trkpt><trkpt lat="45.92203932681476" lon="10.27473460837436"><ele>346.0</ele><time>2026-05-02T12:47:41Z</time></trkpt><trkpt lat="45.92192924409914" lon="10.274664352675735"><ele>346.5</ele><time>2026-05-02T12:47:42Z</time></trkpt><trkpt lat="45.921821210038914" lon="10.27459371752944"><ele>347.0</ele><time>2026-05-02T12:47:43Z</time></trkpt><trkpt lat="45.92171165283553" lon="10.27451850839541"><ele>347.5</ele><time>2026-05-02T12:47:44Z</time></trkpt><trkpt lat="45.92161787812922" lon="10.274431075928645"><ele>348.0</ele><time>2026-05-02T12:47:45Z</time></trkpt><trkpt lat="45.921533281294664" lon="10.274338126748049"><ele>348.0</ele><time>2026-05-02T12:47:46Z</time></trkpt><trkpt lat="45.92145021198711" lon="10.274236471589534"><ele>348.0</ele><time>2026-05-02T12:47:47Z</time></trkpt><trkpt lat="45.92138429828049" lon="10.274132226432531"><ele>348.0</ele><time>2026-05-02T12:47:48Z</time></trkpt><trkpt lat="45.92133134613268" lon="10.274035935216457"><ele>348.0</ele><time>2026-05-02T12:47:49Z</time></trkpt><trkpt lat="45.92127918708846" lon="10.273950321154905"><ele>348.0</ele><time>2026-05-02T12:47:50Z</time></trkpt><trkpt lat="45.921214566742" lon="10.27388242432741"><ele>347.5</ele><time>2026-05-02T12:47:51Z</time></trkpt><trkpt lat="45.921172333056376" lon="10.273793976093568"><ele>347.0</ele><time>2026-05-02T12:47:52Z</time></trkpt><trkpt lat="45.92109400933497" lon="10.273713405084427"><ele>346.5</ele><time>2026-05-02T12:47:54Z</time></trkpt><trkpt lat="45.921039254910006" lon="10.273635033941627"><ele>346.0</ele><time>2026-05-02T12:47:57Z</time></trkpt><trkpt lat="45.920970498271004" lon="10.273626170116232"><ele>345.5</ele><time>2026-05-02T12:47:59Z</time></trkpt><trkpt lat="45.920876983036145" lon="10.273614114531805"><ele>345.0</ele><time>2026-05-02T12:48:01Z</time></trkpt><trkpt lat="45.92081378862594" lon="10.27360596777069"><ele>361.5</ele><time>2026-05-02T12:48:02Z</time></trkpt><trkpt lat="45.92069149860533" lon="10.274124992569694"><ele>378.0</ele><time>2026-05-02T12:48:04Z</time></trkpt><trkpt lat="45.920608306830886" lon="10.27416494514884"><ele>378.0</ele><time>2026-05-02T12:48:06Z</time></trkpt><trkpt lat="45.92054167017039" lon="10.274158560658254"><ele>378.0</ele><time>2026-05-02T12:48:09Z</time></trkpt><trkpt lat="45.9204726570122" lon="10.274155461043316"><ele>378.0</ele><time>2026-05-02T12:48:14Z</time></trkpt><trkpt lat="45.920436085728376" lon="10.274040612946655"><ele>378.0</ele><time>2026-05-02T12:48:30Z</time></trkpt><trkpt lat="45.920426735829714" lon="10.274135437000274"><ele>378.0</ele><time>2026-05-02T12:48:39Z</time></trkpt><trkpt lat="45.92037766986037" lon="10.274193743242536"><ele>378.0</ele><time>2026-05-02T12:48:46Z</time></trkpt><trkpt lat="45.92035869532047" lon="10.274310170710535"><ele>378.0</ele><time>2026-05-02T12:48:50Z</time></trkpt><trkpt lat="45.920315482150194" lon="10.274404770670547"><ele>378.0</ele><time>2026-05-02T12:48:55Z</time></trkpt><trkpt lat="45.92031245423126" lon="10.27451809962915"><ele>378.0</ele><time>2026-05-02T12:48:57Z</time></trkpt><trkpt lat="45.92023335532191" lon="10.274547159045467"><ele>378.0</ele><time>2026-05-02T12:49:01Z</time></trkpt><trkpt lat="45.920169875264364" lon="10.27455415975608"><ele>378.0</ele><time>2026-05-02T12:49:03Z</time></trkpt><trkpt lat="45.9200853967317" lon="10.274537448094547"><ele>378.0</ele><time>2026-05-02T12:49:06Z</time></trkpt><trkpt lat="45.92001092785021" lon="10.274535624366226"><ele>378.0</ele><time>2026-05-02T12:49:09Z</time></trkpt><trkpt lat="45.91994509858336" lon="10.274539764203022"><ele>384.2</ele><time>2026-05-02T12:49:16Z</time></trkpt><trkpt lat="45.91988155078427" lon="10.274461168168864"><ele>390.4</ele><time>2026-05-02T12:49:18Z</time></trkpt><trkpt lat="45.91983382283016" lon="10.274369737309346"><ele>396.59999999999997</ele><time>2026-05-02T12:49:20Z</time></trkpt><trkpt lat="45.919785568870346" lon="10.274240915648312"><ele>402.79999999999995</ele><time>2026-05-02T12:49:22Z</time></trkpt><trkpt lat="45.91972648770927" lon="10.274094049185406"><ele>409.0</ele><time>2026-05-02T12:49:24Z</time></trkpt><trkpt lat="45.91964221617408" lon="10.273956918914164"><ele>405.0</ele><time>2026-05-02T12:49:26Z</time></trkpt><trkpt lat="45.91959479720397" lon="10.273885757070818"><ele>401.0</ele><time>2026-05-02T12:49:27Z</time></trkpt><trkpt lat="45.919534192846285" lon="10.27381958917708"><ele>397.0</ele><time>2026-05-02T12:49:28Z</time></trkpt><trkpt lat="45.91947677419834" lon="10.27377478401257"><ele>393.0</ele><time>2026-05-02T12:49:29Z</time></trkpt><trkpt lat="45.91936810931389" lon="10.273721424132061"><ele>389.0</ele><time>2026-05-02T12:49:31Z</time></trkpt><trkpt lat="45.919253715759595" lon="10.273634159001103"><ele>395.16666666666663</ele><time>2026-05-02T12:49:33Z</time></trkpt><trkpt lat="45.91917908325992" lon="10.273600141227734"><ele>401.3333333333333</ele><time>2026-05-02T12:49:34Z</time></trkpt><trkpt lat="45.91911447253671" lon="10.273546629467525"><ele>407.5</ele><time>2026-05-02T12:49:35Z</time></trkpt><trkpt lat="45.919040158694465" lon="10.273516377506633"><ele>413.66666666666663</ele><time>2026-05-02T12:49:36Z</time></trkpt><trkpt lat="45.91894234788687" lon="10.273461944215926"><ele>419.8333333333333</ele><time>2026-05-02T12:49:38Z</time></trkpt><trkpt lat="45.9188817236257" lon="10.273403453847992"><ele>426.0</ele><time>2026-05-02T12:49:41Z</time></trkpt><trkpt lat="45.91879629122363" lon="10.273340072174792"><ele>426.0</ele><time>2026-05-02T12:49:43Z</time></trkpt><trkpt lat="45.91868484225508" lon="10.273254097698699"><ele>426.0</ele><time>2026-05-02T12:49:45Z</time></trkpt><trkpt lat="45.91862356831018" lon="10.27322332135616"><ele>426.0</ele><time>2026-05-02T12:49:46Z</time></trkpt><trkpt lat="45.91855200004125" lon="10.273215266070148"><ele>426.0</ele><time>2026-05-02T12:49:47Z</time></trkpt><trkpt lat="45.91844548383962" lon="10.273153166488955"><ele>426.0</ele><time>2026-05-02T12:49:49Z</time></trkpt><trkpt lat="45.91833253156704" lon="10.273098531003367"><ele>426.0</ele><time>2026-05-02T12:49:51Z</time></trkpt><trkpt lat="45.91825671361238" lon="10.273076967500199"><ele>426.0</ele><time>2026-05-02T12:49:52Z</time></trkpt><trkpt lat="45.918188976155854" lon="10.273083613211508"><ele>426.0</ele><time>2026-05-02T12:49:53Z</time></trkpt><trkpt lat="45.91811939553695" lon="10.273087005607707"><ele>426.0</ele><time>2026-05-02T12:49:54Z</time></trkpt><trkpt lat="45.918001436163735" lon="10.273068391735539"><ele>426.0</ele><time>2026-05-02T12:49:56Z</time></trkpt><trkpt lat="45.91790109704904" lon="10.273073389713842"><ele>426.0</ele><time>2026-05-02T12:49:58Z</time></trkpt><trkpt lat="45.91779990121084" lon="10.273055861848707"><ele>426.0</ele><time>2026-05-02T12:50:00Z</time></trkpt><trkpt lat="45.917730203258756" lon="10.273068040942164"><ele>426.0</ele><time>2026-05-02T12:50:01Z</time></trkpt><trkpt lat="45.91762673528356" lon="10.273134767199588"><ele>426.0</ele><time>2026-05-02T12:50:03Z</time></trkpt><trkpt lat="45.917569906615256" lon="10.273183001747547"><ele>426.0</ele><time>2026-05-02T12:50:05Z</time></trkpt><trkpt lat="45.917486733769074" lon="10.273179411606975"><ele>426.0</ele><time>2026-05-02T12:50:07Z</time></trkpt><trkpt lat="45.91738139441123" lon="10.273131251435414"><ele>426.0</ele><time>2026-05-02T12:50:10Z</time></trkpt><trkpt lat="45.917323040682284" lon="10.273064151558852"><ele>429.8</ele><time>2026-05-02T12:50:12Z</time></trkpt><trkpt lat="45.91725942455655" lon="10.273066280584311"><ele>433.6</ele><time>2026-05-02T12:50:13Z</time></trkpt><trkpt lat="45.91716304922789" lon="10.273007991002414"><ele>437.4</ele><time>2026-05-02T12:50:15Z</time></trkpt><trkpt lat="45.917050539575094" lon="10.272974774822151"><ele>441.2</ele><time>2026-05-02T12:50:17Z</time></trkpt><trkpt lat="45.91702113897043" lon="10.272893541301187"><ele>445.0</ele><time>2026-05-02T12:50:18Z</time></trkpt><trkpt lat="45.91695722299121" lon="10.272758741344555"><ele>445.00000000000006</ele><time>2026-05-02T12:50:20Z</time></trkpt><trkpt lat="45.91693036251125" lon="10.272627764476061"><ele>445.0</ele><time>2026-05-02T12:50:22Z</time></trkpt><trkpt lat="45.916933978371326" lon="10.27250282862592"><ele>445.0</ele><time>2026-05-02T12:50:24Z</time></trkpt><trkpt lat="45.9168933790373" lon="10.272425036363922"><ele>445.0</ele><time>2026-05-02T12:50:27Z</time></trkpt><trkpt lat="45.91682094211595" lon="10.272402085920104"><ele>445.00000000000006</ele><time>2026-05-02T12:50:31Z</time></trkpt><trkpt lat="45.91673457653721" lon="10.272409441543592"><ele>445.0</ele><time>2026-05-02T12:50:34Z</time></trkpt><trkpt lat="45.91666145271817" lon="10.272480180157142"><ele>451.50000000000006</ele><time>2026-05-02T12:50:36Z</time></trkpt><trkpt lat="45.916611557459845" lon="10.272558550384392"><ele>458.0</ele><time>2026-05-02T12:50:38Z</time></trkpt><trkpt lat="45.91654806712764" lon="10.272654739204226"><ele>464.5</ele><time>2026-05-02T12:50:40Z</time></trkpt><trkpt lat="45.91650924331998" lon="10.272727091526182"><ele>471.0</ele><time>2026-05-02T12:50:42Z</time></trkpt><trkpt lat="45.916417222845325" lon="10.272729538883743"><ele>477.50000000000006</ele><time>2026-05-02T12:50:44Z</time></trkpt><trkpt lat="45.91635272208981" lon="10.272704771575501"><ele>484.0</ele><time>2026-05-02T12:50:46Z</time></trkpt><trkpt lat="45.91624371573201" lon="10.272722892830275"><ele>484.00000000000006</ele><time>2026-05-02T12:50:49Z</time></trkpt><trkpt lat="45.91617248638335" lon="10.272728643482619"><ele>484.0</ele><time>2026-05-02T12:50:51Z</time></trkpt><trkpt lat="45.91607649619872" lon="10.272733353073395"><ele>484.0</ele><time>2026-05-02T12:50:53Z</time></trkpt><trkpt lat="45.9159900256744" lon="10.272765975179531"><ele>484.0</ele><time>2026-05-02T12:51:10Z</time></trkpt><trkpt lat="45.91593237039333" lon="10.272882114163732"><ele>484.00000000000006</ele><time>2026-05-02T12:51:12Z</time></trkpt><trkpt lat="45.91594133376197" lon="10.27298121149267"><ele>484.0</ele><time>2026-05-02T12:51:14Z</time></trkpt><trkpt lat="45.91596145240277" lon="10.273092808238687"><ele>484.0</ele><time>2026-05-02T12:51:16Z</time></trkpt><trkpt lat="45.916011487019865" lon="10.273024853363697"><ele>483.99999999999994</ele><time>2026-05-02T12:51:48Z</time></trkpt><trkpt lat="45.91600952818817" lon="10.273133249490941"><ele>484.0</ele><time>2026-05-02T12:51:54Z</time></trkpt><trkpt lat="45.91598389574317" lon="10.27321697642462"><ele>484.0</ele><time>2026-05-02T12:52:02Z</time></trkpt><trkpt lat="45.915966630508194" lon="10.273312340232357"><ele>483.99999999999994</ele><time>2026-05-02T12:52:18Z</time></trkpt><trkpt lat="45.91591597810696" lon="10.273415644773491"><ele>484.0</ele><time>2026-05-02T12:52:20Z</time></trkpt><trkpt lat="45.91594449025266" lon="10.27351092383807"><ele>484.0</ele><time>2026-05-02T12:52:23Z</time></trkpt><trkpt lat="45.915979140077276" lon="10.273594267820403"><ele>487.71428571428567</ele><time>2026-05-02T12:52:32Z</time></trkpt><trkpt lat="45.91600115152583" lon="10.273690966211326"><ele>491.4285714285714</ele><time>2026-05-02T12:52:47Z</time></trkpt><trkpt lat="45.91601235962021" lon="10.273592047326773"><ele>495.1428571428571</ele><time>2026-05-02T12:53:15Z</time></trkpt><trkpt lat="45.916001926708184" lon="10.273497446376862"><ele>498.8571428571429</ele><time>2026-05-02T12:53:18Z</time></trkpt><trkpt lat="45.91599466567273" lon="10.273404715313106"><ele>502.5714285714286</ele><time>2026-05-02T12:53:33Z</time></trkpt><trkpt lat="45.91601379377174" lon="10.273314050016685"><ele>506.28571428571433</ele><time>2026-05-02T12:53:42Z</time></trkpt><trkpt lat="45.915922461240086" lon="10.273361313231828"><ele>510.0</ele><time>2026-05-02T12:55:45Z</time></trkpt><trkpt lat="45.91590209236921" lon="10.273487984600141"><ele>510.0</ele><time>2026-05-02T12:55:47Z</time></trkpt><trkpt lat="45.91593722633225" lon="10.273572543137751"><ele>510.0</ele><time>2026-05-02T12:55:49Z</time></trkpt><trkpt lat="45.91596507060744" lon="10.273744326389659"><ele>510.0</ele><time>2026-05-02T12:55:51Z</time></trkpt><trkpt lat="45.915988860978224" lon="10.27389265090588"><ele>510.0</ele><time>2026-05-02T12:55:53Z</time></trkpt><trkpt lat="45.915987358453066" lon="10.274000195794008"><ele>510.0</ele><time>2026-05-02T12:55:56Z</time></trkpt><trkpt lat="45.91601438105072" lon="10.274095008425368"><ele>510.0</ele><time>2026-05-02T12:55:59Z</time></trkpt><trkpt lat="45.916005875558774" lon="10.274189350178693"><ele>516.0</ele><time>2026-05-02T12:56:02Z</time></trkpt><trkpt lat="45.916059043515" lon="10.274249662467229"><ele>522.0</ele><time>2026-05-02T12:57:16Z</time></trkpt><trkpt lat="45.91599853968367" lon="10.274326387376457"><ele>528.0</ele><time>2026-05-02T12:57:21Z</time></trkpt><trkpt lat="45.91594537218824" lon="10.274425149485337"><ele>534.0</ele><time>2026-05-02T12:57:23Z</time></trkpt><trkpt lat="45.91596891326047" lon="10.274518868406348"><ele>540.0</ele><time>2026-05-02T12:57:25Z</time></trkpt><trkpt lat="45.915875813136445" lon="10.274582444051415"><ele>546.0</ele><time>2026-05-02T12:57:28Z</time></trkpt><trkpt lat="45.91582168935708" lon="10.274670334103988"><ele>552.2857142857143</ele><time>2026-05-02T12:57:32Z</time></trkpt><trkpt lat="45.91581373367288" lon="10.274775365043672"><ele>558.5714285714286</ele><time>2026-05-02T12:57:35Z</time></trkpt><trkpt lat="45.91578299345745" lon="10.274873895408044"><ele>564.8571428571429</ele><time>2026-05-02T12:57:39Z</time></trkpt><trkpt lat="45.91580484919087" lon="10.274961252565541"><ele>571.1428571428571</ele><time>2026-05-02T12:57:43Z</time></trkpt><trkpt lat="45.91579745789945" lon="10.275060617301158"><ele>577.4285714285714</ele><time>2026-05-02T12:57:47Z</time></trkpt><trkpt lat="45.91581286298296" lon="10.275149121636547"><ele>583.7142857142858</ele><time>2026-05-02T12:57:50Z</time></trkpt><trkpt lat="45.91584167440218" lon="10.275273929869998"><ele>590.0</ele><time>2026-05-02T12:57:53Z</time></trkpt><trkpt lat="45.9158711086171" lon="10.275363790776304"><ele>590.0</ele><time>2026-05-02T12:57:56Z</time></trkpt><trkpt lat="45.91587068830613" lon="10.275465596641698"><ele>590.0</ele><time>2026-05-02T12:57:59Z</time></trkpt><trkpt lat="45.915902487215746" lon="10.275583434169866"><ele>590.0</ele><time>2026-05-02T12:58:01Z</time></trkpt><trkpt lat="45.915913880507915" lon="10.275681556000492"><ele>590.0</ele><time>2026-05-02T12:58:04Z</time></trkpt><trkpt lat="45.915976951511695" lon="10.275748506605657"><ele>590.0</ele><time>2026-05-02T12:58:06Z</time></trkpt><trkpt lat="45.916031734163234" lon="10.275836946035236"><ele>590.0</ele><time>2026-05-02T12:58:07Z</time></trkpt><trkpt lat="45.91605453510244" lon="10.275929186397436"><ele>591.6666666666666</ele><time>2026-05-02T12:58:08Z</time></trkpt><trkpt lat="45.916129804022624" lon="10.276050359556674"><ele>593.3333333333333</ele><time>2026-05-02T12:58:10Z</time></trkpt><trkpt lat="45.91616169463356" lon="10.276131382827717"><ele>595.0</ele><time>2026-05-02T12:58:11Z</time></trkpt><trkpt lat="45.916178744232944" lon="10.276251030059457"><ele>596.6666666666666</ele><time>2026-05-02T12:58:13Z</time></trkpt><trkpt lat="45.916242822277155" lon="10.276221365789933"><ele>598.3333333333334</ele><time>2026-05-02T12:58:19Z</time></trkpt><trkpt lat="45.91631445004043" lon="10.276245103326897"><ele>600.0</ele><time>2026-05-02T12:59:41Z</time></trkpt><trkpt lat="45.91629653529144" lon="10.276375453333573"><ele>603.1666666666666</ele><time>2026-05-02T12:59:54Z</time></trkpt><trkpt lat="45.916262881328315" lon="10.276467915886506"><ele>606.3333333333334</ele><time>2026-05-02T12:59:56Z</time></trkpt><trkpt lat="45.91626014250234" lon="10.276585253154796"><ele>609.5</ele><time>2026-05-02T12:59:58Z</time></trkpt><trkpt lat="45.91625152752773" lon="10.27670298905482"><ele>612.6666666666667</ele><time>2026-05-02T13:00:00Z</time></trkpt><trkpt lat="45.91620909417276" lon="10.27681948141647"><ele>615.8333333333334</ele><time>2026-05-02T13:00:02Z</time></trkpt><trkpt lat="45.916143387724496" lon="10.276913343906976"><ele>619.0</ele><time>2026-05-02T13:00:04Z</time></trkpt><trkpt lat="45.9160716474336" lon="10.276974237135011"><ele>619.0</ele><time>2026-05-02T13:00:07Z</time></trkpt><trkpt lat="45.91602569239538" lon="10.277038469364587"><ele>619.0</ele><time>2026-05-02T13:00:10Z</time></trkpt><trkpt lat="45.91598490376507" lon="10.277110908179084"><ele>619.0</ele><time>2026-05-02T13:00:12Z</time></trkpt><trkpt lat="45.91592640475517" lon="10.277176597573822"><ele>619.0</ele><time>2026-05-02T13:00:15Z</time></trkpt><trkpt lat="45.91584879381071" lon="10.277250842183477"><ele>619.0</ele><time>2026-05-02T13:00:17Z</time></trkpt><trkpt lat="45.91577457151529" lon="10.277296353796846"><ele>619.0</ele><time>2026-05-02T13:00:19Z</time></trkpt><trkpt lat="45.91571271258298" lon="10.277348791061009"><ele>619.0</ele><time>2026-05-02T13:00:21Z</time></trkpt><trkpt lat="45.91563857318933" lon="10.277331212460796"><ele>620.8571428571429</ele><time>2026-05-02T13:00:24Z</time></trkpt><trkpt lat="45.91560523711328" lon="10.27724541816948"><ele>622.7142857142858</ele><time>2026-05-02T13:00:26Z</time></trkpt><trkpt lat="45.91556356021708" lon="10.277169567018477"><ele>624.5714285714287</ele><time>2026-05-02T13:00:28Z</time></trkpt><trkpt lat="45.91551729380144" lon="10.277081852320698"><ele>626.4285714285714</ele><time>2026-05-02T13:00:32Z</time></trkpt><trkpt lat="45.91545182985946" lon="10.277076661084228"><ele>628.2857142857143</ele><time>2026-05-02T13:00:36Z</time></trkpt><trkpt lat="45.91543438000016" lon="10.27716912952699"><ele>630.1428571428572</ele><time>2026-05-02T13:00:48Z</time></trkpt><trkpt lat="45.9154626525689" lon="10.277265034551686"><ele>632.0</ele><time>2026-05-02T13:01:12Z</time></trkpt><trkpt lat="45.915425252910104" lon="10.277364972171526"><ele>636.5714285714287</ele><time>2026-05-02T13:01:15Z</time></trkpt><trkpt lat="45.91536086152412" lon="10.277338009953134"><ele>641.1428571428571</ele><time>2026-05-02T13:02:08Z</time></trkpt><trkpt lat="45.9152885820711" lon="10.277326464475095"><ele>645.7142857142858</ele><time>2026-05-02T13:02:15Z</time></trkpt><trkpt lat="45.91526839285894" lon="10.277424720151677"><ele>650.2857142857143</ele><time>2026-05-02T13:02:19Z</time></trkpt><trkpt lat="45.91528888651353" lon="10.277516307514208"><ele>654.8571428571429</ele><time>2026-05-02T13:02:22Z</time></trkpt><trkpt lat="45.91527819742332" lon="10.277621189094857"><ele>659.4285714285714</ele><time>2026-05-02T13:02:26Z</time></trkpt><trkpt lat="45.91521190481253" lon="10.277607754757724"><ele>664.0</ele><time>2026-05-02T13:03:17Z</time></trkpt><trkpt lat="45.91516600062024" lon="10.277678375111146"><ele>664.0</ele><time>2026-05-02T13:03:24Z</time></trkpt><trkpt lat="45.91521642972406" lon="10.27781191403696"><ele>664.0</ele><time>2026-05-02T13:03:31Z</time></trkpt><trkpt lat="45.91520381670989" lon="10.277917371191538"><ele>664.0</ele><time>2026-05-02T13:03:39Z</time></trkpt><trkpt lat="45.91520774973342" lon="10.278018438812978"><ele>664.0</ele><time>2026-05-02T13:03:42Z</time></trkpt><trkpt lat="45.915270543768024" lon="10.278115253962865"><ele>664.0</ele><time>2026-05-02T13:03:45Z</time></trkpt><trkpt lat="45.91530324332652" lon="10.278244739216936"><ele>664.0</ele><time>2026-05-02T13:03:47Z</time></trkpt><trkpt lat="45.915363281042616" lon="10.278281240317312"><ele>664.0</ele><time>2026-05-02T13:03:48Z</time></trkpt><trkpt lat="45.915369417786415" lon="10.27846455167557"><ele>664.0</ele><time>2026-05-02T13:03:52Z</time></trkpt><trkpt lat="45.91537203941797" lon="10.278329879321957"><ele>664.0</ele><time>2026-05-02T13:03:56Z</time></trkpt><trkpt lat="45.91533050094636" lon="10.278188242462289"><ele>664.0</ele><time>2026-05-02T13:04:01Z</time></trkpt><trkpt lat="45.91530739533845" lon="10.278086735539633"><ele>664.0</ele><time>2026-05-02T13:04:02Z</time></trkpt><trkpt lat="45.91531075793224" lon="10.278185290285908"><ele>664.0</ele><time>2026-05-02T13:04:05Z</time></trkpt><trkpt lat="45.91524214200497" lon="10.278199142126008"><ele>664.0</ele><time>2026-05-02T13:04:08Z</time></trkpt><trkpt lat="45.91521122875754" lon="10.278112378546552"><ele>664.0</ele><time>2026-05-02T13:04:09Z</time></trkpt><trkpt lat="45.915134729551774" lon="10.278072972484093"><ele>664.0</ele><time>2026-05-02T13:11:41Z</time></trkpt><trkpt lat="45.91517572748046" lon="10.278196596641168"><ele>664.0</ele><time>2026-05-02T13:12:03.001Z</time></trkpt><trkpt lat="45.915108180568694" lon="10.278246368807283"><ele>664.0</ele><time>2026-05-02T13:12:06.001Z</time></trkpt><trkpt lat="45.91512144258016" lon="10.278354082345738"><ele>667.3333333333334</ele><time>2026-05-02T13:12:11.001Z</time></trkpt><trkpt lat="45.91505535339644" lon="10.278416741215576"><ele>670.6666666666667</ele><time>2026-05-02T13:12:14.001Z</time></trkpt><trkpt lat="45.91505210953685" lon="10.278561970060004"><ele>674.0</ele><time>2026-05-02T13:12:16.001Z</time></trkpt><trkpt lat="45.91496713544887" lon="10.278575661485746"><ele>677.3333333333334</ele><time>2026-05-02T13:12:20.001Z</time></trkpt><trkpt lat="45.914933861619616" lon="10.27866302807945"><ele>680.6666666666666</ele><time>2026-05-02T13:12:23.001Z</time></trkpt><trkpt lat="45.914902019848476" lon="10.278742321008858"><ele>684.0</ele><time>2026-05-02T13:12:26.001Z</time></trkpt><trkpt lat="45.91486199372615" lon="10.27882416295076"><ele>684.0</ele><time>2026-05-02T13:12:29.001Z</time></trkpt><trkpt lat="45.91485061149641" lon="10.278925994095369"><ele>684.0</ele><time>2026-05-02T13:12:32.001Z</time></trkpt><trkpt lat="45.91484475994915" lon="10.279031953637132"><ele>684.0</ele><time>2026-05-02T13:12:35.001Z</time></trkpt><trkpt lat="45.91481663012994" lon="10.27917507866168"><ele>684.0</ele><time>2026-05-02T13:12:45Z</time></trkpt><trkpt lat="45.91485068754573" lon="10.2792669248584"><ele>684.0</ele><time>2026-05-02T13:12:51Z</time></trkpt><trkpt lat="45.914878352157665" lon="10.279361965705164"><ele>684.0</ele><time>2026-05-02T13:12:57Z</time></trkpt><trkpt lat="45.91491348558983" lon="10.279483123177322"><ele>689.1666666666666</ele><time>2026-05-02T13:13:15Z</time></trkpt><trkpt lat="45.914974003262685" lon="10.279536719748462"><ele>694.3333333333334</ele><time>2026-05-02T13:13:18Z</time></trkpt><trkpt lat="45.91508138107165" lon="10.279538248692312"><ele>699.5</ele><time>2026-05-02T13:13:20Z</time></trkpt><trkpt lat="45.91517412276951" lon="10.279563816671859"><ele>704.6666666666667</ele><time>2026-05-02T13:13:22Z</time></trkpt><trkpt lat="45.91524341876135" lon="10.279606666271201"><ele>709.8333333333334</ele><time>2026-05-02T13:13:24Z</time></trkpt><trkpt lat="45.91529240713301" lon="10.279697935554102"><ele>715.0</ele><time>2026-05-02T13:13:25Z</time></trkpt><trkpt lat="45.91541733162553" lon="10.27973325038781"><ele>718.3333333333334</ele><time>2026-05-02T13:13:34Z</time></trkpt><trkpt lat="45.91547915389951" lon="10.279817980808389"><ele>721.6666666666667</ele><time>2026-05-02T13:13:46Z</time></trkpt><trkpt lat="45.91551480023787" lon="10.279934368752542"><ele>725.0</ele><time>2026-05-02T13:13:49Z</time></trkpt><trkpt lat="45.915455073276625" lon="10.27998249405837"><ele>728.3333333333334</ele><time>2026-05-02T13:14:03Z</time></trkpt><trkpt lat="45.91550804960142" lon="10.280045861769997"><ele>731.6666666666666</ele><time>2026-05-02T13:14:15Z</time></trkpt><trkpt lat="45.91554570655925" lon="10.280120253160366"><ele>735.0</ele><time>2026-05-02T13:14:21.001Z</time></trkpt><trkpt lat="45.915574534568634" lon="10.280249056503068"><ele>735.0</ele><time>2026-05-02T13:14:24.001Z</time></trkpt><trkpt lat="45.915566556037284" lon="10.280351550813398"><ele>735.0</ele><time>2026-05-02T13:14:27.001Z</time></trkpt><trkpt lat="45.91558349456055" lon="10.28044305519574"><ele>735.0</ele><time>2026-05-02T13:14:30.001Z</time></trkpt><trkpt lat="45.915595366947784" lon="10.280566307294889"><ele>735.0</ele><time>2026-05-02T13:14:34.001Z</time></trkpt><trkpt lat="45.91561306176651" lon="10.280472519473205"><ele>735.0</ele><time>2026-05-02T13:15:28Z</time></trkpt><trkpt lat="45.91559726017326" lon="10.280375412119893"><ele>735.0</ele><time>2026-05-02T13:15:35Z</time></trkpt><trkpt lat="45.91559428978417" lon="10.28026294872"><ele>735.0</ele><time>2026-05-02T13:15:42Z</time></trkpt><trkpt lat="45.91552774211729" lon="10.28024431965904"><ele>735.0</ele><time>2026-05-02T13:15:48Z</time></trkpt><trkpt lat="45.91546742757575" lon="10.280276141236742"><ele>735.0</ele><time>2026-05-02T13:15:53Z</time></trkpt><trkpt lat="45.91540338708648" lon="10.280213566783633"><ele>735.0</ele><time>2026-05-02T13:15:57Z</time></trkpt><trkpt lat="45.915346003391086" lon="10.28015967128992"><ele>735.0</ele><time>2026-05-02T13:16:01Z</time></trkpt><trkpt lat="45.915269042204464" lon="10.280168396765607"><ele>735.0</ele><time>2026-05-02T13:16:04Z</time></trkpt><trkpt lat="45.91522318104414" lon="10.280254872313046"><ele>735.0</ele><time>2026-05-02T13:16:07Z</time></trkpt><trkpt lat="45.915155458649785" lon="10.280365607282203"><ele>735.0</ele><time>2026-05-02T13:16:09Z</time></trkpt><trkpt lat="45.91508771028141" lon="10.280369650633348"><ele>735.0</ele><time>2026-05-02T13:16:12Z</time></trkpt><trkpt lat="45.91498515561626" lon="10.280373077361013"><ele>735.0</ele><time>2026-05-02T13:16:15Z</time></trkpt><trkpt lat="45.91492305668989" lon="10.280341053882632"><ele>735.0</ele><time>2026-05-02T13:16:18Z</time></trkpt><trkpt lat="45.91484602012044" lon="10.280389417923738"><ele>735.0</ele><time>2026-05-02T13:16:21Z</time></trkpt><trkpt lat="45.91477510453958" lon="10.280397167364834"><ele>735.0</ele><time>2026-05-02T13:16:24.001Z</time></trkpt><trkpt lat="45.91469768386326" lon="10.28039511026215"><ele>736.5714285714286</ele><time>2026-05-02T13:16:27.001Z</time></trkpt><trkpt lat="45.91463421126603" lon="10.280389289322478"><ele>738.1428571428571</ele><time>2026-05-02T13:16:30.001Z</time></trkpt><trkpt lat="45.914593230610656" lon="10.280488255060611"><ele>739.7142857142858</ele><time>2026-05-02T13:16:34.001Z</time></trkpt><trkpt lat="45.91456622245456" lon="10.280577837650432"><ele>741.2857142857142</ele><time>2026-05-02T13:16:47.001Z</time></trkpt><trkpt lat="45.914570860523554" lon="10.280669456955309"><ele>742.8571428571429</ele><time>2026-05-02T13:16:53.999Z</time></trkpt><trkpt lat="45.91456807700194" lon="10.28075997675625"><ele>744.4285714285714</ele><time>2026-05-02T13:16:56.999Z</time></trkpt><trkpt lat="45.91455005448823" lon="10.280858988292893"><ele>746.0</ele><time>2026-05-02T13:16:59.999Z</time></trkpt><trkpt lat="45.91457531928674" lon="10.280964799915184"><ele>751.1666666666666</ele><time>2026-05-02T13:17:01.999Z</time></trkpt><trkpt lat="45.914585788159584" lon="10.281089039402461"><ele>756.3333333333333</ele><time>2026-05-02T13:17:04.999Z</time></trkpt><trkpt lat="45.91457745883993" lon="10.281188922588198"><ele>761.5</ele><time>2026-05-02T13:17:15Z</time></trkpt><trkpt lat="45.914544671692" lon="10.28128496780356"><ele>766.6666666666666</ele><time>2026-05-02T13:17:19Z</time></trkpt><trkpt lat="45.91452581518193" lon="10.281389630088372"><ele>771.8333333333334</ele><time>2026-05-02T13:17:22Z</time></trkpt><trkpt lat="45.914496450370514" lon="10.28151379526489"><ele>777.0</ele><time>2026-05-02T13:17:25Z</time></trkpt><trkpt lat="45.91447360452886" lon="10.281624939928198"><ele>778.8333333333334</ele><time>2026-05-02T13:17:28Z</time></trkpt><trkpt lat="45.91442510816427" lon="10.28172032058314"><ele>780.6666666666667</ele><time>2026-05-02T13:17:32Z</time></trkpt><trkpt lat="45.9143669123882" lon="10.281820658039729"><ele>782.5</ele><time>2026-05-02T13:17:36Z</time></trkpt><trkpt lat="45.91432282441591" lon="10.281892867782348"><ele>784.3333333333334</ele><time>2026-05-02T13:17:42Z</time></trkpt><trkpt lat="45.91428809494096" lon="10.281976642881357"><ele>786.1666666666667</ele><time>2026-05-02T13:17:58Z</time></trkpt><trkpt lat="45.91429359972869" lon="10.28209311584877"><ele>788.0</ele><time>2026-05-02T13:18:01Z</time></trkpt><trkpt lat="45.91427426203553" lon="10.282230183863538"><ele>790.5000000000001</ele><time>2026-05-02T13:18:03Z</time></trkpt><trkpt lat="45.91421220915984" lon="10.282252313939903"><ele>793.0</ele><time>2026-05-02T13:18:10Z</time></trkpt><trkpt lat="45.91415220940112" lon="10.282288698963905"><ele>795.5</ele><time>2026-05-02T13:18:13Z</time></trkpt><trkpt lat="45.914104815023265" lon="10.282407113495"><ele>798.0</ele><time>2026-05-02T13:18:16Z</time></trkpt><trkpt lat="45.914052455970086" lon="10.282493338637236"><ele>800.5000000000001</ele><time>2026-05-02T13:18:18Z</time></trkpt><trkpt lat="45.91401704808567" lon="10.282608252422607"><ele>803.0</ele><time>2026-05-02T13:18:21Z</time></trkpt><trkpt lat="45.91398323898608" lon="10.282713252562809"><ele>803.0000000000001</ele><time>2026-05-02T13:18:23Z</time></trkpt><trkpt lat="45.91395453155742" lon="10.282810750007629"><ele>803.0</ele><time>2026-05-02T13:18:25Z</time></trkpt><trkpt lat="45.91388687653264" lon="10.282874112789544"><ele>803.0</ele><time>2026-05-02T13:18:28Z</time></trkpt><trkpt lat="45.91384187655702" lon="10.282938441957949"><ele>803.0</ele><time>2026-05-02T13:18:34.001Z</time></trkpt><trkpt lat="45.91388639536085" lon="10.282872508176808"><ele>803.0000000000001</ele><time>2026-05-02T13:18:51.001Z</time></trkpt><trkpt lat="45.913940417552006" lon="10.282733541378589"><ele>803.0</ele><time>2026-05-02T13:18:54.001Z</time></trkpt><trkpt lat="45.9140052051524" lon="10.28258214030885"><ele>803.0000000000001</ele><time>2026-05-02T13:18:56Z</time></trkpt><trkpt lat="45.914040163852235" lon="10.2824929231618"><ele>803.0</ele><time>2026-05-02T13:18:57Z</time></trkpt><trkpt lat="45.914071683455475" lon="10.282408491091331"><ele>803.0</ele><time>2026-05-02T13:18:58Z</time></trkpt><trkpt lat="45.91409584479665" lon="10.282321157741386"><ele>803.0</ele><time>2026-05-02T13:18:59Z</time></trkpt><trkpt lat="45.91413314950087" lon="10.28223756839204"><ele>803.0000000000001</ele><time>2026-05-02T13:19:00Z</time></trkpt><trkpt lat="45.914177223252466" lon="10.28215234437872"><ele>803.0</ele><time>2026-05-02T13:19:01Z</time></trkpt><trkpt lat="45.91427290441941" lon="10.282094928378708"><ele>800.5999999999999</ele><time>2026-05-02T13:19:05Z</time></trkpt><trkpt lat="45.914369270155554" lon="10.282159703145338"><ele>798.1999999999999</ele><time>2026-05-02T13:19:07Z</time></trkpt><trkpt lat="45.91444475664563" lon="10.282240930021876"><ele>795.8</ele><time>2026-05-02T13:19:09Z</time></trkpt><trkpt lat="45.91453351983301" lon="10.282309478529616"><ele>793.4</ele><time>2026-05-02T13:19:11Z</time></trkpt><trkpt lat="45.91463285444098" lon="10.282325118717031"><ele>791.0</ele><time>2026-05-02T13:19:13Z</time></trkpt><trkpt lat="45.9147284939828" lon="10.282378509725493"><ele>791.0000000000001</ele><time>2026-05-02T13:19:15Z</time></trkpt><trkpt lat="45.91479791847885" lon="10.282458500355812"><ele>791.0</ele><time>2026-05-02T13:19:17Z</time></trkpt><trkpt lat="45.91484336629924" lon="10.28252520019454"><ele>791.0</ele><time>2026-05-02T13:19:19Z</time></trkpt><trkpt lat="45.91484775429582" lon="10.282622234132381"><ele>791.0</ele><time>2026-05-02T13:19:21Z</time></trkpt><trkpt lat="45.91488130608205" lon="10.282737146058725"><ele>791.0000000000001</ele><time>2026-05-02T13:19:23Z</time></trkpt><trkpt lat="45.914942896470414" lon="10.28284229000885"><ele>791.0</ele><time>2026-05-02T13:19:25Z</time></trkpt><trkpt lat="45.91500984671384" lon="10.28302268130777"><ele>780.3333333333334</ele><time>2026-05-02T13:19:27Z</time></trkpt><trkpt lat="45.915074543531425" lon="10.283132021544787"><ele>769.6666666666667</ele><time>2026-05-02T13:19:29Z</time></trkpt><trkpt lat="45.91509037300434" lon="10.283298114562697"><ele>759.0</ele><time>2026-05-02T13:19:31Z</time></trkpt><trkpt lat="45.91510035858238" lon="10.283416299680404"><ele>748.3333333333334</ele><time>2026-05-02T13:19:32Z</time></trkpt><trkpt lat="45.91509507316237" lon="10.283517212516617"><ele>737.6666666666667</ele><time>2026-05-02T13:19:33Z</time></trkpt><trkpt lat="45.9150953118946" lon="10.283616892845286"><ele>727.0</ele><time>2026-05-02T13:19:34Z</time></trkpt><trkpt lat="45.915113196821345" lon="10.28371753475761"><ele>727.0</ele><time>2026-05-02T13:19:35Z</time></trkpt><trkpt lat="45.91514527281176" lon="10.283804351728312"><ele>727.0</ele><time>2026-05-02T13:19:36Z</time></trkpt><trkpt lat="45.91519507726945" lon="10.283978967029467"><ele>727.0</ele><time>2026-05-02T13:19:38Z</time></trkpt><trkpt lat="45.915196739790666" lon="10.284121133051132"><ele>727.0</ele><time>2026-05-02T13:19:40Z</time></trkpt><trkpt lat="45.91522986800633" lon="10.284242244221943"><ele>727.0</ele><time>2026-05-02T13:19:42Z</time></trkpt><trkpt lat="45.91522878852936" lon="10.284360592094496"><ele>726.3333333333334</ele><time>2026-05-02T13:19:45Z</time></trkpt><trkpt lat="45.915253579364034" lon="10.28444753491635"><ele>725.6666666666667</ele><time>2026-05-02T13:19:47Z</time></trkpt><trkpt lat="45.91533171812924" lon="10.284506294604702"><ele>725.0</ele><time>2026-05-02T13:19:50Z</time></trkpt><trkpt lat="45.915405334522944" lon="10.284574025319335"><ele>724.3333333333334</ele><time>2026-05-02T13:19:53Z</time></trkpt><trkpt lat="45.915441873654075" lon="10.284673277225934"><ele>723.6666666666666</ele><time>2026-05-02T13:19:55Z</time></trkpt><trkpt lat="45.91552403520614" lon="10.284631922157867"><ele>723.0</ele><time>2026-05-02T13:19:57Z</time></trkpt><trkpt lat="45.91548389299196" lon="10.284548705547888"><ele>723.0</ele><time>2026-05-02T13:20:00Z</time></trkpt><trkpt lat="45.915370061629964" lon="10.284495237683391"><ele>723.0</ele><time>2026-05-02T13:20:01Z</time></trkpt><trkpt lat="45.91526170139615" lon="10.284503846424847"><ele>723.0</ele><time>2026-05-02T13:20:03Z</time></trkpt><trkpt lat="45.9151813947184" lon="10.284588297889917"><ele>723.0</ele><time>2026-05-02T13:20:06Z</time></trkpt><trkpt lat="45.91512030113066" lon="10.28466833266504"><ele>723.0</ele><time>2026-05-02T13:20:08Z</time></trkpt><trkpt lat="45.91516893366214" lon="10.284813228304747"><ele>724.1666666666666</ele><time>2026-05-02T13:20:10Z</time></trkpt><trkpt lat="45.91510728467397" lon="10.284833906243316"><ele>725.3333333333334</ele><time>2026-05-02T13:20:12.001Z</time></trkpt><trkpt lat="45.915037912990975" lon="10.284897583035397"><ele>726.5</ele><time>2026-05-02T13:20:15.001Z</time></trkpt><trkpt lat="45.91503544159232" lon="10.285022707003673"><ele>727.6666666666667</ele><time>2026-05-02T13:20:17.001Z</time></trkpt><trkpt lat="45.91496763542329" lon="10.285138917163517"><ele>728.8333333333334</ele><time>2026-05-02T13:20:19.001Z</time></trkpt><trkpt lat="45.91491558762062" lon="10.28525984682806"><ele>730.0</ele><time>2026-05-02T13:20:21.001Z</time></trkpt><trkpt lat="45.91492054540251" lon="10.285373120481927"><ele>731.0</ele><time>2026-05-02T13:20:24.001Z</time></trkpt><trkpt lat="45.91501808482995" lon="10.285467783381113"><ele>732.0</ele><time>2026-05-02T13:20:39.001Z</time></trkpt><trkpt lat="45.91502130998536" lon="10.285637612587204"><ele>733.0</ele><time>2026-05-02T13:20:41.001Z</time></trkpt><trkpt lat="45.91500846015702" lon="10.285791006879004"><ele>734.0</ele><time>2026-05-02T13:20:43.001Z</time></trkpt><trkpt lat="45.91503827182991" lon="10.285901495216017"><ele>735.0</ele><time>2026-05-02T13:20:45.001Z</time></trkpt><trkpt lat="45.91509343307245" lon="10.286058776313787"><ele>735.0</ele><time>2026-05-02T13:20:47.001Z</time></trkpt><trkpt lat="45.91514972244942" lon="10.286198839673224"><ele>735.0</ele><time>2026-05-02T13:20:49.001Z</time></trkpt><trkpt lat="45.915158128174475" lon="10.286300554484827"><ele>735.0</ele><time>2026-05-02T13:20:50.001Z</time></trkpt><trkpt lat="45.91514341293068" lon="10.286469105534296"><ele>735.0</ele><time>2026-05-02T13:20:52.001Z</time></trkpt><trkpt lat="45.915118275402335" lon="10.286567415219737"><ele>735.0</ele><time>2026-05-02T13:20:54.001Z</time></trkpt><trkpt lat="45.91502667804715" lon="10.286609852726244"><ele>749.2</ele><time>2026-05-02T13:20:57.001Z</time></trkpt><trkpt lat="45.91500843732376" lon="10.286494701425394"><ele>763.4</ele><time>2026-05-02T13:21:02Z</time></trkpt><trkpt lat="45.914976922794644" lon="10.286392274107863"><ele>777.5999999999999</ele><time>2026-05-02T13:21:04Z</time></trkpt><trkpt lat="45.9149186148224" lon="10.28619120389211"><ele>791.8</ele><time>2026-05-02T13:21:06Z</time></trkpt><trkpt lat="45.91486271965208" lon="10.286035696936503"><ele>806.0</ele><time>2026-05-02T13:21:07Z</time></trkpt><trkpt lat="45.91478191425972" lon="10.286037824219067"><ele>807.0</ele><time>2026-05-02T13:21:09Z</time></trkpt><trkpt lat="45.91468642987978" lon="10.285924049310523"><ele>808.0</ele><time>2026-05-02T13:21:10Z</time></trkpt><trkpt lat="45.91458274053134" lon="10.28582865324501"><ele>809.0</ele><time>2026-05-02T13:21:11Z</time></trkpt><trkpt lat="45.91448894148796" lon="10.285727563643068"><ele>810.0</ele><time>2026-05-02T13:21:12Z</time></trkpt><trkpt lat="45.91439929597864" lon="10.28563002409758"><ele>807.4</ele><time>2026-05-02T13:21:13Z</time></trkpt><trkpt lat="45.91429551722765" lon="10.285517284839235"><ele>804.8</ele><time>2026-05-02T13:21:14Z</time></trkpt><trkpt lat="45.914240463696714" lon="10.285423861981993"><ele>802.2</ele><time>2026-05-02T13:21:15Z</time></trkpt><trkpt lat="45.91418390892747" lon="10.285333505289351"><ele>799.6</ele><time>2026-05-02T13:21:19Z</time></trkpt><trkpt lat="45.91413268455511" lon="10.285240849025573"><ele>797.0</ele><time>2026-05-02T13:21:33Z</time></trkpt><trkpt lat="45.914058103327136" lon="10.285194814504939"><ele>808.4000000000001</ele><time>2026-05-02T13:21:36Z</time></trkpt><trkpt lat="45.91400272422262" lon="10.285110480617488"><ele>819.8000000000001</ele><time>2026-05-02T13:21:39Z</time></trkpt><trkpt lat="45.913951656125526" lon="10.28502266808882"><ele>831.2</ele><time>2026-05-02T13:21:42Z</time></trkpt><trkpt lat="45.913821309661955" lon="10.284911887393305"><ele>842.6</ele><time>2026-05-02T13:21:46Z</time></trkpt><trkpt lat="45.913739108652095" lon="10.284827959943653"><ele>854.0</ele><time>2026-05-02T13:21:48Z</time></trkpt><trkpt lat="45.91364313267939" lon="10.284809820268455"><ele>854.0</ele><time>2026-05-02T13:21:51Z</time></trkpt><trkpt lat="45.91349918493073" lon="10.284799541082926"><ele>854.0000000000001</ele><time>2026-05-02T13:21:54Z</time></trkpt><trkpt lat="45.9134247591253" lon="10.284783644845865"><ele>854.0000000000001</ele><time>2026-05-02T13:21:56Z</time></trkpt><trkpt lat="45.91346778645902" lon="10.284866889369447"><ele>854.0</ele><time>2026-05-02T13:22:17.001Z</time></trkpt><trkpt lat="45.913498083922754" lon="10.284963969893596"><ele>854.0</ele><time>2026-05-02T13:22:19.001Z</time></trkpt><trkpt lat="45.91355976719619" lon="10.285047643301809"><ele>854.0000000000001</ele><time>2026-05-02T13:22:22.001Z</time></trkpt><trkpt lat="45.91351077377018" lon="10.285136547101459"><ele>854.0</ele><time>2026-05-02T13:22:27.001Z</time></trkpt><trkpt lat="45.91354784806995" lon="10.285287784871361"><ele>854.0</ele><time>2026-05-02T13:22:55.001Z</time></trkpt><trkpt lat="45.913531146217515" lon="10.285388852577716"><ele>854.0</ele><time>2026-05-02T13:25:10.001Z</time></trkpt><trkpt lat="45.91351444528259" lon="10.285501483513132"><ele>854.0000000000001</ele><time>2026-05-02T13:25:12.001Z</time></trkpt><trkpt lat="45.913486983814714" lon="10.285411200305042"><ele>854.0</ele><time>2026-05-02T13:25:22Z</time></trkpt><trkpt lat="45.91345313912169" lon="10.285298407923976"><ele>854.0</ele><time>2026-05-02T13:25:26Z</time></trkpt><trkpt lat="45.91345355603429" lon="10.285201689380026"><ele>854.0</ele><time>2026-05-02T13:25:30Z</time></trkpt><trkpt lat="45.913386228286605" lon="10.28515948629475"><ele>854.0</ele><time>2026-05-02T13:25:34Z</time></trkpt><trkpt lat="45.91332649301324" lon="10.285115991247924"><ele>854.0</ele><time>2026-05-02T13:25:39Z</time></trkpt><trkpt lat="45.913329157787445" lon="10.285210935530227"><ele>854.0</ele><time>2026-05-02T13:27:09.001Z</time></trkpt><trkpt lat="45.91330984945002" lon="10.285323834565464"><ele>854.0</ele><time>2026-05-02T13:27:11.001Z</time></trkpt><trkpt lat="45.91333354013027" lon="10.285432838903596"><ele>854.0</ele><time>2026-05-02T13:27:14.001Z</time></trkpt><trkpt lat="45.91336847176564" lon="10.285522565301573"><ele>854.0</ele><time>2026-05-02T13:27:28Z</time></trkpt><trkpt lat="45.91335850229178" lon="10.285614396286844"><ele>854.0</ele><time>2026-05-02T13:27:31Z</time></trkpt><trkpt lat="45.91335954164044" lon="10.285712954380873"><ele>854.0</ele><time>2026-05-02T13:27:35Z</time></trkpt><trkpt lat="45.91336327329341" lon="10.285591650720209"><ele>854.0</ele><time>2026-05-02T13:28:58.001Z</time></trkpt><trkpt lat="45.91338267306803" lon="10.285493743625516"><ele>854.0</ele><time>2026-05-02T13:29:03.001Z</time></trkpt><trkpt lat="45.913372172265305" lon="10.285392742391336"><ele>854.0</ele><time>2026-05-02T13:29:06.001Z</time></trkpt><trkpt lat="45.91341481709653" lon="10.285292745006915"><ele>854.0</ele><time>2026-05-02T13:29:13.001Z</time></trkpt><trkpt lat="45.913481106909245" lon="10.285296988071474"><ele>854.0</ele><time>2026-05-02T13:29:23.001Z</time></trkpt><trkpt lat="45.91350406450126" lon="10.285197411448138"><ele>854.0000000000001</ele><time>2026-05-02T13:29:35.999Z</time></trkpt><trkpt lat="45.91352330641214" lon="10.285110368006295"><ele>854.0000000000001</ele><time>2026-05-02T13:29:40.999Z</time></trkpt><trkpt lat="45.91372513417326" lon="10.285067826701926"><ele>854.0</ele><time>2026-05-02T13:29:55Z</time></trkpt><trkpt lat="45.91378696735829" lon="10.285143451611457"><ele>854.0</ele><time>2026-05-02T13:29:57Z</time></trkpt><trkpt lat="45.91386953592321" lon="10.28520984274956"><ele>854.0000000000001</ele><time>2026-05-02T13:29:59Z</time></trkpt><trkpt lat="45.91393208828159" lon="10.285302815789485"><ele>854.0</ele><time>2026-05-02T13:30:02Z</time></trkpt><trkpt lat="45.91400375138709" lon="10.285321488495638"><ele>854.0</ele><time>2026-05-02T13:30:04Z</time></trkpt><trkpt lat="45.91406286062401" lon="10.285365995430524"><ele>854.0</ele><time>2026-05-02T13:30:06Z</time></trkpt><trkpt lat="45.9141318282563" lon="10.285382419316784"><ele>854.0000000000001</ele><time>2026-05-02T13:30:10Z</time></trkpt><trkpt lat="45.91421858302976" lon="10.285421058283307"><ele>854.0</ele><time>2026-05-02T13:30:16Z</time></trkpt><trkpt lat="45.91429309463251" lon="10.285508144459007"><ele>846.6666666666667</ele><time>2026-05-02T13:30:20Z</time></trkpt><trkpt lat="45.91431612379201" lon="10.285616068100234"><ele>839.3333333333334</ele><time>2026-05-02T13:30:24Z</time></trkpt><trkpt lat="45.91437997869974" lon="10.28569115593223"><ele>832.0</ele><time>2026-05-02T13:30:27Z</time></trkpt><trkpt lat="45.9144399148165" lon="10.285814271822735"><ele>824.6666666666667</ele><time>2026-05-02T13:30:29Z</time></trkpt><trkpt lat="45.91449023083567" lon="10.285894843491748"><ele>817.3333333333334</ele><time>2026-05-02T13:30:30Z</time></trkpt><trkpt lat="45.91456366039501" lon="10.286004763217768"><ele>810.0</ele><time>2026-05-02T13:30:32Z</time></trkpt><trkpt lat="45.91462150797692" lon="10.286109714486981"><ele>810.0</ele><time>2026-05-02T13:30:34Z</time></trkpt><trkpt lat="45.914693617877056" lon="10.286209419804493"><ele>810.0</ele><time>2026-05-02T13:30:38Z</time></trkpt><trkpt lat="45.91477324464361" lon="10.286349019446055"><ele>810.0</ele><time>2026-05-02T13:30:42Z</time></trkpt><trkpt lat="45.914874144050465" lon="10.286401458678087"><ele>810.0</ele><time>2026-05-02T13:30:46Z</time></trkpt><trkpt lat="45.91496917508037" lon="10.286473701167523"><ele>810.0</ele><time>2026-05-02T13:30:49Z</time></trkpt><trkpt lat="45.91506750493703" lon="10.286543840882013"><ele>809.4285714285713</ele><time>2026-05-02T13:30:51Z</time></trkpt><trkpt lat="45.915020441578285" lon="10.286645157882543"><ele>808.8571428571429</ele><time>2026-05-02T13:30:55Z</time></trkpt><trkpt lat="45.914959666848056" lon="10.286703740423558"><ele>808.2857142857142</ele><time>2026-05-02T13:30:57Z</time></trkpt><trkpt lat="45.914952802806525" lon="10.286807691345453"><ele>807.7142857142857</ele><time>2026-05-02T13:30:59Z</time></trkpt><trkpt lat="45.914916804651185" lon="10.286883747367876"><ele>807.1428571428571</ele><time>2026-05-02T13:31:01Z</time></trkpt><trkpt lat="45.9148648349121" lon="10.28693972065757"><ele>806.5714285714286</ele><time>2026-05-02T13:31:05Z</time></trkpt><trkpt lat="45.91489017483247" lon="10.2868512636991"><ele>806.0</ele><time>2026-05-02T13:31:30.001Z</time></trkpt><trkpt lat="45.91494271091429" lon="10.286777500863291"><ele>806.0000000000001</ele><time>2026-05-02T13:31:32Z</time></trkpt><trkpt lat="45.91497072050743" lon="10.286634815067139"><ele>806.0</ele><time>2026-05-02T13:31:34Z</time></trkpt><trkpt lat="45.9149992868306" lon="10.286546892628865"><ele>806.0</ele><time>2026-05-02T13:31:36Z</time></trkpt><trkpt lat="45.915024066250446" lon="10.286425076813952"><ele>806.0</ele><time>2026-05-02T13:31:38Z</time></trkpt><trkpt lat="45.915075865599604" lon="10.286341857591104"><ele>806.0000000000001</ele><time>2026-05-02T13:31:45Z</time></trkpt><trkpt lat="45.91509338737094" lon="10.286218722999415"><ele>806.0</ele><time>2026-05-02T13:31:48Z</time></trkpt><trkpt lat="45.915093221581934" lon="10.286125353252084"><ele>806.6666666666667</ele><time>2026-05-02T13:31:51Z</time></trkpt><trkpt lat="45.91506056296624" lon="10.28603040664992"><ele>807.3333333333334</ele><time>2026-05-02T13:31:53Z</time></trkpt><trkpt lat="45.91503696125893" lon="10.285887368120783"><ele>808.0</ele><time>2026-05-02T13:31:56Z</time></trkpt><trkpt lat="45.91501831024928" lon="10.285771856121835"><ele>808.6666666666667</ele><time>2026-05-02T13:32:01Z</time></trkpt><trkpt lat="45.91500674017581" lon="10.285670840648246"><ele>809.3333333333334</ele><time>2026-05-02T13:32:04Z</time></trkpt><trkpt lat="45.91503983084838" lon="10.285507627812335"><ele>810.0</ele><time>2026-05-02T13:32:07Z</time></trkpt><trkpt lat="45.91500686938145" lon="10.285390305074532"><ele>807.8333333333334</ele><time>2026-05-02T13:32:09Z</time></trkpt><trkpt lat="45.91498587306092" lon="10.285257833788886"><ele>805.6666666666667</ele><time>2026-05-02T13:32:12Z</time></trkpt><trkpt lat="45.91500549775341" lon="10.28516612012334"><ele>803.5</ele><time>2026-05-02T13:32:16Z</time></trkpt><trkpt lat="45.91507600799481" lon="10.285067078266849"><ele>801.3333333333334</ele><time>2026-05-02T13:32:19Z</time></trkpt><trkpt lat="45.915094578124965" lon="10.284925890731907"><ele>799.1666666666667</ele><time>2026-05-02T13:32:21Z</time></trkpt><trkpt lat="45.915133394889715" lon="10.284848956229007"><ele>797.0</ele><time>2026-05-02T13:32:23Z</time></trkpt><trkpt lat="45.91516329640322" lon="10.284756347537078"><ele>786.4285714285714</ele><time>2026-05-02T13:32:26Z</time></trkpt><trkpt lat="45.91521337560188" lon="10.28470094209693"><ele>775.8571428571429</ele><time>2026-05-02T13:32:28Z</time></trkpt><trkpt lat="45.915252585540735" lon="10.284604516291605"><ele>765.2857142857143</ele><time>2026-05-02T13:32:30Z</time></trkpt><trkpt lat="45.91528204259054" lon="10.284478605834847"><ele>754.7142857142858</ele><time>2026-05-02T13:32:32Z</time></trkpt><trkpt lat="45.915281400817115" lon="10.28438152818424"><ele>744.1428571428571</ele><time>2026-05-02T13:32:34Z</time></trkpt><trkpt lat="45.91525260081367" lon="10.284296685562719"><ele>733.5714285714287</ele><time>2026-05-02T13:32:36Z</time></trkpt><trkpt lat="45.91522547120775" lon="10.284195674553828"><ele>723.0</ele><time>2026-05-02T13:32:38Z</time></trkpt><trkpt lat="45.91518538299997" lon="10.284081756180274"><ele>723.8</ele><time>2026-05-02T13:32:40Z</time></trkpt><trkpt lat="45.91518394190872" lon="10.28391661586857"><ele>724.5999999999999</ele><time>2026-05-02T13:32:42Z</time></trkpt><trkpt lat="45.91519148593713" lon="10.283783604631207"><ele>725.4000000000001</ele><time>2026-05-02T13:32:44Z</time></trkpt><trkpt lat="45.915256925641586" lon="10.283688582529532"><ele>726.2</ele><time>2026-05-02T13:32:46Z</time></trkpt><trkpt lat="45.91531439091995" lon="10.283602016060417"><ele>727.0</ele><time>2026-05-02T13:32:48Z</time></trkpt><trkpt lat="45.915343624850145" lon="10.283498227203138"><ele>727.0</ele><time>2026-05-02T13:32:50Z</time></trkpt><trkpt lat="45.915397809466214" lon="10.283396483454434"><ele>727.0</ele><time>2026-05-02T13:32:52Z</time></trkpt><trkpt lat="45.91545998933458" lon="10.283286654806552"><ele>727.0</ele><time>2026-05-02T13:32:54Z</time></trkpt><trkpt lat="45.91549584642551" lon="10.283179597909918"><ele>727.0</ele><time>2026-05-02T13:32:56Z</time></trkpt><trkpt lat="45.91554715316786" lon="10.283060956014165"><ele>727.0</ele><time>2026-05-02T13:32:58Z</time></trkpt><trkpt lat="45.91561312468963" lon="10.282943297062488"><ele>729.8</ele><time>2026-05-02T13:33:00Z</time></trkpt><trkpt lat="45.915683377433275" lon="10.282807842479613"><ele>732.6</ele><time>2026-05-02T13:33:02Z</time></trkpt><trkpt lat="45.91577303402637" lon="10.282663079800805"><ele>735.4</ele><time>2026-05-02T13:33:04Z</time></trkpt><trkpt lat="45.91582785055572" lon="10.282568610514078"><ele>738.1999999999999</ele><time>2026-05-02T13:33:05Z</time></trkpt><trkpt lat="45.91588841265167" lon="10.282497237780516"><ele>741.0</ele><time>2026-05-02T13:33:06Z</time></trkpt><trkpt lat="45.915935840276866" lon="10.282364600479886"><ele>735.8333333333334</ele><time>2026-05-02T13:33:08.001Z</time></trkpt><trkpt lat="45.91602666140701" lon="10.28233539107118"><ele>730.6666666666666</ele><time>2026-05-02T13:33:10.001Z</time></trkpt><trkpt lat="45.9160923257859" lon="10.282311756390627"><ele>725.5</ele><time>2026-05-02T13:33:12.001Z</time></trkpt><trkpt lat="45.916156152206845" lon="10.282291587170146"><ele>720.3333333333333</ele><time>2026-05-02T13:33:14.001Z</time></trkpt><trkpt lat="45.91626089555096" lon="10.282275541051863"><ele>715.1666666666666</ele><time>2026-05-02T13:33:17.001Z</time></trkpt><trkpt lat="45.91629376652347" lon="10.28219344831054"><ele>710.0</ele><time>2026-05-02T13:33:19.001Z</time></trkpt><trkpt lat="45.91635996672786" lon="10.28209986769365"><ele>710.0</ele><time>2026-05-02T13:33:22.001Z</time></trkpt><trkpt lat="45.916433736118506" lon="10.282025995440947"><ele>710.0</ele><time>2026-05-02T13:33:26.001Z</time></trkpt><trkpt lat="45.91648107987591" lon="10.281934160037412"><ele>710.0</ele><time>2026-05-02T13:33:28.001Z</time></trkpt><trkpt lat="45.91651645179497" lon="10.28183526085395"><ele>710.0</ele><time>2026-05-02T13:33:30.001Z</time></trkpt><trkpt lat="45.91654582698298" lon="10.281748455246339"><ele>710.0</ele><time>2026-05-02T13:33:32.001Z</time></trkpt><trkpt lat="45.91659064793718" lon="10.281635332291815"><ele>710.0</ele><time>2026-05-02T13:33:35.001Z</time></trkpt><trkpt lat="45.916616569012675" lon="10.281543428080603"><ele>710.0</ele><time>2026-05-02T13:33:37Z</time></trkpt><trkpt lat="45.916631119791326" lon="10.281434224226953"><ele>710.0</ele><time>2026-05-02T13:33:39Z</time></trkpt><trkpt lat="45.916638559836414" lon="10.281326749268532"><ele>710.0</ele><time>2026-05-02T13:33:41Z</time></trkpt><trkpt lat="45.916624812239675" lon="10.281207126493902"><ele>710.0</ele><time>2026-05-02T13:33:43Z</time></trkpt><trkpt lat="45.91661779284796" lon="10.281088005656546"><ele>710.0</ele><time>2026-05-02T13:33:45Z</time></trkpt><trkpt lat="45.91661531138281" lon="10.280989839675982"><ele>710.0</ele><time>2026-05-02T13:33:47Z</time></trkpt><trkpt lat="45.91658146379756" lon="10.28088366794635"><ele>708.3333333333333</ele><time>2026-05-02T13:33:49Z</time></trkpt><trkpt lat="45.91655090807865" lon="10.280799814611438"><ele>706.6666666666666</ele><time>2026-05-02T13:33:51Z</time></trkpt><trkpt lat="45.91649951518721" lon="10.280722946497134"><ele>705.0</ele><time>2026-05-02T13:33:53Z</time></trkpt><trkpt lat="45.91647155777931" lon="10.280626070619304"><ele>703.3333333333334</ele><time>2026-05-02T13:33:56Z</time></trkpt><trkpt lat="45.91646093421444" lon="10.28053632316217"><ele>701.6666666666667</ele><time>2026-05-02T13:33:58Z</time></trkpt><trkpt lat="45.91641949773866" lon="10.2804020968694"><ele>700.0</ele><time>2026-05-02T13:34:00Z</time></trkpt><trkpt lat="45.91642086641025" lon="10.280266816828238"><ele>696.4</ele><time>2026-05-02T13:34:02Z</time></trkpt><trkpt lat="45.916376381027675" lon="10.280108622642473"><ele>692.8</ele><time>2026-05-02T13:34:04Z</time></trkpt><trkpt lat="45.91638682968042" lon="10.279939884363241"><ele>689.2</ele><time>2026-05-02T13:34:06Z</time></trkpt><trkpt lat="45.91638559781707" lon="10.279750380177095"><ele>685.6</ele><time>2026-05-02T13:34:08Z</time></trkpt><trkpt lat="45.91640727201873" lon="10.279644735460074"><ele>682.0</ele><time>2026-05-02T13:34:09Z</time></trkpt><trkpt lat="45.9163956663503" lon="10.27949627841113"><ele>679.2</ele><time>2026-05-02T13:34:11Z</time></trkpt><trkpt lat="45.91643169445742" lon="10.279366896789384"><ele>676.4000000000001</ele><time>2026-05-02T13:34:14Z</time></trkpt><trkpt lat="45.916477824169085" lon="10.279232687284454"><ele>673.5999999999999</ele><time>2026-05-02T13:34:16Z</time></trkpt><trkpt lat="45.916522263265115" lon="10.279071635393283"><ele>670.8</ele><time>2026-05-02T13:34:18Z</time></trkpt><trkpt lat="45.916521440167664" lon="10.278948381490705"><ele>668.0</ele><time>2026-05-02T13:34:20Z</time></trkpt><trkpt lat="45.916509373105" lon="10.278825024157301"><ele>665.4</ele><time>2026-05-02T13:34:22Z</time></trkpt><trkpt lat="45.91653716633469" lon="10.278681454148462"><ele>662.8</ele><time>2026-05-02T13:34:24Z</time></trkpt><trkpt lat="45.91652548461625" lon="10.278519549309937"><ele>660.2</ele><time>2026-05-02T13:34:26Z</time></trkpt><trkpt lat="45.916549783526335" lon="10.278343328951948"><ele>657.6</ele><time>2026-05-02T13:34:28Z</time></trkpt><trkpt lat="45.91656253060487" lon="10.278242903031359"><ele>655.0</ele><time>2026-05-02T13:34:29Z</time></trkpt><trkpt lat="45.91656017608932" lon="10.278149730671185"><ele>651.4</ele><time>2026-05-02T13:34:30Z</time></trkpt><trkpt lat="45.91656215304279" lon="10.278052132566808"><ele>647.8</ele><time>2026-05-02T13:34:31Z</time></trkpt><trkpt lat="45.91655859540343" lon="10.27795724319433"><ele>644.2</ele><time>2026-05-02T13:34:32Z</time></trkpt><trkpt lat="45.91652737708372" lon="10.277861904149852"><ele>640.6</ele><time>2026-05-02T13:34:33Z</time></trkpt><trkpt lat="45.91649347880583" lon="10.277685277012349"><ele>637.0</ele><time>2026-05-02T13:34:35Z</time></trkpt><trkpt lat="45.91646522244921" lon="10.277514320397353"><ele>637.0</ele><time>2026-05-02T13:34:37Z</time></trkpt><trkpt lat="45.91641215280795" lon="10.277350433389373"><ele>637.0</ele><time>2026-05-02T13:34:39Z</time></trkpt><trkpt lat="45.91634269999278" lon="10.277202703556084"><ele>637.0</ele><time>2026-05-02T13:34:41Z</time></trkpt><trkpt lat="45.91631290785541" lon="10.27706044355195"><ele>637.0</ele><time>2026-05-02T13:34:43Z</time></trkpt><trkpt lat="45.916272152700756" lon="10.276940535965997"><ele>637.0</ele><time>2026-05-02T13:34:45Z</time></trkpt><trkpt lat="45.91629993561097" lon="10.276773613573818"><ele>633.4</ele><time>2026-05-02T13:34:47Z</time></trkpt><trkpt lat="45.91631633963775" lon="10.276661267875626"><ele>629.8000000000001</ele><time>2026-05-02T13:34:48Z</time></trkpt><trkpt lat="45.9163150458538" lon="10.276554598734895"><ele>626.2</ele><time>2026-05-02T13:34:49Z</time></trkpt><trkpt lat="45.91629247902227" lon="10.276405176073983"><ele>622.6</ele><time>2026-05-02T13:34:51Z</time></trkpt><trkpt lat="45.916298882313214" lon="10.276282191867098"><ele>619.0</ele><time>2026-05-02T13:34:53Z</time></trkpt><trkpt lat="45.91648577837192" lon="10.27627375454162"><ele>619.0</ele><time>2026-05-02T13:34:59Z</time></trkpt><trkpt lat="45.91655314360272" lon="10.276451470669723"><ele>619.0</ele><time>2026-05-02T13:35:01Z</time></trkpt><trkpt lat="45.916608932199495" lon="10.276566025664826"><ele>619.0</ele><time>2026-05-02T13:35:02Z</time></trkpt><trkpt lat="45.91666507517464" lon="10.276722175626128"><ele>619.0</ele><time>2026-05-02T13:35:04.001Z</time></trkpt><trkpt lat="45.916708529578365" lon="10.276807019093537"><ele>619.0</ele><time>2026-05-02T13:35:05.001Z</time></trkpt><trkpt lat="45.9167405656179" lon="10.276933927573449"><ele>613.6666666666667</ele><time>2026-05-02T13:35:07.002Z</time></trkpt><trkpt lat="45.91673762813946" lon="10.277093425888317"><ele>608.3333333333334</ele><time>2026-05-02T13:35:09.002Z</time></trkpt><trkpt lat="45.916790295539386" lon="10.277166356488827"><ele>603.0</ele><time>2026-05-02T13:35:10.002Z</time></trkpt><trkpt lat="45.916801997461796" lon="10.277264184675305"><ele>597.6666666666666</ele><time>2026-05-02T13:35:11.002Z</time></trkpt><trkpt lat="45.916795100941734" lon="10.277399571831094"><ele>592.3333333333333</ele><time>2026-05-02T13:35:12.002Z</time></trkpt><trkpt lat="45.91681419931207" lon="10.27754122171949"><ele>587.0</ele><time>2026-05-02T13:35:13.002Z</time></trkpt><trkpt lat="45.916829862261395" lon="10.277629599453128"><ele>587.0</ele><time>2026-05-02T13:35:14.002Z</time></trkpt><trkpt lat="45.91692677829237" lon="10.277709546613428"><ele>587.0</ele><time>2026-05-02T13:35:15.002Z</time></trkpt><trkpt lat="45.91697475954213" lon="10.27777258735844"><ele>587.0</ele><time>2026-05-02T13:35:16.002Z</time></trkpt><trkpt lat="45.91701644092828" lon="10.27791914894912"><ele>587.0</ele><time>2026-05-02T13:35:18.002Z</time></trkpt><trkpt lat="45.91711478776667" lon="10.278057893917769"><ele>587.0</ele><time>2026-05-02T13:35:20.002Z</time></trkpt><trkpt lat="45.91713824279371" lon="10.278145953583296"><ele>590.2</ele><time>2026-05-02T13:35:21.002Z</time></trkpt><trkpt lat="45.91719460771063" lon="10.278289071356388"><ele>593.4000000000001</ele><time>2026-05-02T13:35:23.002Z</time></trkpt><trkpt lat="45.91722239650696" lon="10.278375122351072"><ele>596.5999999999999</ele><time>2026-05-02T13:35:24.002Z</time></trkpt><trkpt lat="45.917295671978145" lon="10.278493014938316"><ele>599.8</ele><time>2026-05-02T13:35:26.002Z</time></trkpt><trkpt lat="45.91738091357897" lon="10.278590001631395"><ele>603.0</ele><time>2026-05-02T13:35:28.002Z</time></trkpt><trkpt lat="45.91739539644867" lon="10.278694120867534"><ele>603.0</ele><time>2026-05-02T13:35:31.002Z</time></trkpt><trkpt lat="45.91752669654975" lon="10.278650312026688"><ele>603.0</ele><time>2026-05-02T13:35:33.002Z</time></trkpt><trkpt lat="45.91754823116695" lon="10.278493645780374"><ele>603.0</ele><time>2026-05-02T13:35:35.002Z</time></trkpt><trkpt lat="45.917595598317156" lon="10.278390559533479"><ele>603.0</ele><time>2026-05-02T13:35:36.002Z</time></trkpt><trkpt lat="45.917642746525026" lon="10.278210597785725"><ele>596.1999999999999</ele><time>2026-05-02T13:35:38.034Z</time></trkpt><trkpt lat="45.917641269943196" lon="10.278057677643025"><ele>589.4</ele><time>2026-05-02T13:35:40.036Z</time></trkpt><trkpt lat="45.91766371021128" lon="10.277869364323204"><ele>582.5999999999999</ele><time>2026-05-02T13:35:42.034Z</time></trkpt><trkpt lat="45.91767422315769" lon="10.277773542381317"><ele>575.8</ele><time>2026-05-02T13:35:43.034Z</time></trkpt><trkpt lat="45.91762173337888" lon="10.277650875120406"><ele>569.0</ele><time>2026-05-02T13:35:44.035Z</time></trkpt><trkpt lat="45.91757425127362" lon="10.277466865495471"><ele>569.1666666666666</ele><time>2026-05-02T13:35:45.034Z</time></trkpt><trkpt lat="45.917537015012265" lon="10.2773392561151"><ele>569.3333333333333</ele><time>2026-05-02T13:35:46.04Z</time></trkpt><trkpt lat="45.91752292372871" lon="10.277236521430815"><ele>569.5</ele><time>2026-05-02T13:35:47.038Z</time></trkpt><trkpt lat="45.91749057645367" lon="10.277124415794779"><ele>569.6666666666666</ele><time>2026-05-02T13:35:48.037Z</time></trkpt><trkpt lat="45.917456774499804" lon="10.277036615796739"><ele>569.8333333333334</ele><time>2026-05-02T13:35:49.039Z</time></trkpt><trkpt lat="45.917429460086524" lon="10.276928532770478"><ele>570.0</ele><time>2026-05-02T13:35:50.038Z</time></trkpt><trkpt lat="45.917379782624614" lon="10.27683793664601"><ele>570.0</ele><time>2026-05-02T13:35:51.033Z</time></trkpt><trkpt lat="45.917414934618684" lon="10.276725486655668"><ele>570.0</ele><time>2026-05-02T13:35:53.036Z</time></trkpt><trkpt lat="45.91734955098811" lon="10.276572008846884"><ele>570.0</ele><time>2026-05-02T13:35:55.037Z</time></trkpt><trkpt lat="45.91736353272565" lon="10.276361305347148"><ele>570.0</ele><time>2026-05-02T13:35:56.036Z</time></trkpt><trkpt lat="45.91737564263466" lon="10.276268909571668"><ele>570.0</ele><time>2026-05-02T13:35:57.036Z</time></trkpt><trkpt lat="45.917359558815335" lon="10.27611351040275"><ele>567.4</ele><time>2026-05-02T13:35:59.033Z</time></trkpt><trkpt lat="45.91736636530834" lon="10.275998335588504"><ele>564.8</ele><time>2026-05-02T13:36:01.034Z</time></trkpt><trkpt lat="45.91735991644341" lon="10.275872582702918"><ele>562.2</ele><time>2026-05-02T13:36:03.032Z</time></trkpt><trkpt lat="45.917412463459385" lon="10.27580482435574"><ele>559.6</ele><time>2026-05-02T13:36:04.032Z</time></trkpt><trkpt lat="45.91751305016455" lon="10.275698011526275"><ele>557.0</ele><time>2026-05-02T13:36:08.032Z</time></trkpt><trkpt lat="45.91760109363545" lon="10.275620143973738"><ele>551.2</ele><time>2026-05-02T13:36:09.031Z</time></trkpt><trkpt lat="45.91766020087654" lon="10.275567383028081"><ele>545.4000000000001</ele><time>2026-05-02T13:36:10.033Z</time></trkpt><trkpt lat="45.917763027769766" lon="10.275518182048803"><ele>539.5999999999999</ele><time>2026-05-02T13:36:13.03Z</time></trkpt><trkpt lat="45.917824402817345" lon="10.27535627698355"><ele>533.8</ele><time>2026-05-02T13:36:15.025Z</time></trkpt><trkpt lat="45.91783754400575" lon="10.27520811096275"><ele>528.0</ele><time>2026-05-02T13:36:17.027Z</time></trkpt><trkpt lat="45.917886513630826" lon="10.275069781059894"><ele>528.0</ele><time>2026-05-02T13:36:18.025Z</time></trkpt><trkpt lat="45.917940385409004" lon="10.27497398162979"><ele>528.0</ele><time>2026-05-02T13:36:19.021Z</time></trkpt><trkpt lat="45.917977168171795" lon="10.274842584236017"><ele>528.0</ele><time>2026-05-02T13:36:20.022Z</time></trkpt><trkpt lat="45.91794353719996" lon="10.275105869247396"><ele>528.0</ele><time>2026-05-02T13:36:21.021Z</time></trkpt><trkpt lat="45.917971233531034" lon="10.275024519850431"><ele>528.0</ele><time>2026-05-02T13:36:22.02Z</time></trkpt><trkpt lat="45.918015463961815" lon="10.274867748606198"><ele>521.5</ele><time>2026-05-02T13:36:24.021Z</time></trkpt><trkpt lat="45.918072572895305" lon="10.274732746452836"><ele>515.0</ele><time>2026-05-02T13:36:26.019Z</time></trkpt><trkpt lat="45.9181307442412" lon="10.274618653072537"><ele>508.5</ele><time>2026-05-02T13:36:28.02Z</time></trkpt><trkpt lat="45.918176452314405" lon="10.274520133390032"><ele>502.0</ele><time>2026-05-02T13:36:30.018Z</time></trkpt><trkpt lat="45.91821951642915" lon="10.274450428348421"><ele>495.5</ele><time>2026-05-02T13:36:32.015Z</time></trkpt><trkpt lat="45.918205776141434" lon="10.274346230296532"><ele>489.0</ele><time>2026-05-02T13:36:34.015Z</time></trkpt><trkpt lat="45.91825438527423" lon="10.274285641292249"><ele>489.0</ele><time>2026-05-02T13:36:37.015Z</time></trkpt><trkpt lat="45.91831830724166" lon="10.27447432443945"><ele>489.0</ele><time>2026-05-02T13:36:42.016Z</time></trkpt><trkpt lat="45.9183411173909" lon="10.274579725860448"><ele>489.0</ele><time>2026-05-02T13:36:43.016Z</time></trkpt><trkpt lat="45.91836562219702" lon="10.27468467746636"><ele>489.0</ele><time>2026-05-02T13:36:44.016Z</time></trkpt><trkpt lat="45.918398802271824" lon="10.274763574705277"><ele>489.0</ele><time>2026-05-02T13:36:45.016Z</time></trkpt><trkpt lat="45.91846441154944" lon="10.274813065929028"><ele>489.0</ele><time>2026-05-02T13:36:47.016Z</time></trkpt><trkpt lat="45.91855362343515" lon="10.274835459689651"><ele>486.1666666666667</ele><time>2026-05-02T13:36:50.016Z</time></trkpt><trkpt lat="45.91860162640407" lon="10.274899628692296"><ele>483.33333333333337</ele><time>2026-05-02T13:36:53.016Z</time></trkpt><trkpt lat="45.918643275583136" lon="10.274976700115799"><ele>480.5</ele><time>2026-05-02T13:36:55.017Z</time></trkpt><trkpt lat="45.91869441320381" lon="10.275046214474802"><ele>477.6666666666667</ele><time>2026-05-02T13:36:57.017Z</time></trkpt><trkpt lat="45.91873637589534" lon="10.275153714202176"><ele>474.83333333333337</ele><time>2026-05-02T13:37:01.016Z</time></trkpt><trkpt lat="45.918790581001375" lon="10.275225618454638"><ele>472.0</ele><time>2026-05-02T13:37:03.016Z</time></trkpt><trkpt lat="45.91888861205307" lon="10.2753939193098"><ele>472.0</ele><time>2026-05-02T13:37:04.016Z</time></trkpt><trkpt lat="45.91894008821015" lon="10.275491800915582"><ele>472.0</ele><time>2026-05-02T13:37:05.016Z</time></trkpt><trkpt lat="45.91898708743855" lon="10.27556335407612"><ele>472.0</ele><time>2026-05-02T13:37:06.016Z</time></trkpt><trkpt lat="45.919080146575354" lon="10.275753194972575"><ele>472.0</ele><time>2026-05-02T13:37:07.019Z</time></trkpt><trkpt lat="45.919140392303945" lon="10.27593917461532"><ele>474.00000000000006</ele><time>2026-05-02T13:37:08.017Z</time></trkpt><trkpt lat="45.91917599571337" lon="10.276038765150284"><ele>476.0</ele><time>2026-05-02T13:37:09.017Z</time></trkpt><trkpt lat="45.91919973717096" lon="10.276139075458216"><ele>478.0</ele><time>2026-05-02T13:37:10.017Z</time></trkpt><trkpt lat="45.91921400198253" lon="10.27622996421077"><ele>480.0</ele><time>2026-05-02T13:37:11.016Z</time></trkpt><trkpt lat="45.919238087106855" lon="10.276356203314789"><ele>482.00000000000006</ele><time>2026-05-02T13:37:12.017Z</time></trkpt><trkpt lat="45.91925820316466" lon="10.276520230226724"><ele>484.0</ele><time>2026-05-02T13:37:13.016Z</time></trkpt><trkpt lat="45.919274223714964" lon="10.276631333223504"><ele>479.83333333333337</ele><time>2026-05-02T13:37:14.015Z</time></trkpt><trkpt lat="45.91928300738418" lon="10.276774939316587"><ele>475.6666666666667</ele><time>2026-05-02T13:37:16.016Z</time></trkpt><trkpt lat="45.91929392241953" lon="10.276884558695002"><ele>471.5</ele><time>2026-05-02T13:37:17.018Z</time></trkpt><trkpt lat="45.919308586733" lon="10.27701451966959"><ele>467.33333333333337</ele><time>2026-05-02T13:37:19.019Z</time></trkpt><trkpt lat="45.91931781625522" lon="10.277111968086116"><ele>463.1666666666667</ele><time>2026-05-02T13:37:21.017Z</time></trkpt><trkpt lat="45.91934509816563" lon="10.277257214225463"><ele>459.0</ele><time>2026-05-02T13:37:23.019Z</time></trkpt><trkpt lat="45.91939482709594" lon="10.277378094243328"><ele>459.0</ele><time>2026-05-02T13:37:25.018Z</time></trkpt><trkpt lat="45.919436166790845" lon="10.277467226053155"><ele>459.0</ele><time>2026-05-02T13:37:26.018Z</time></trkpt><trkpt lat="45.919505072291564" lon="10.277621331812513"><ele>459.0</ele><time>2026-05-02T13:37:28.018Z</time></trkpt><trkpt lat="45.91954519289594" lon="10.277704255790937"><ele>459.0</ele><time>2026-05-02T13:37:29.018Z</time></trkpt><trkpt lat="45.91958669721282" lon="10.277784178942767"><ele>459.0</ele><time>2026-05-02T13:37:30.019Z</time></trkpt><trkpt lat="45.91965195529618" lon="10.27792247288408"><ele>459.0</ele><time>2026-05-02T13:37:32.021Z</time></trkpt><trkpt lat="45.91973104060183" lon="10.278012967248154"><ele>459.0</ele><time>2026-05-02T13:37:34.018Z</time></trkpt><trkpt lat="45.919802144363786" lon="10.278076051355157"><ele>459.0</ele><time>2026-05-02T13:37:36.019Z</time></trkpt><trkpt lat="45.91985077475522" lon="10.278192738152788"><ele>459.0</ele><time>2026-05-02T13:37:38.021Z</time></trkpt><trkpt lat="45.91987025890138" lon="10.278316311004584"><ele>459.0</ele><time>2026-05-02T13:37:40.003Z</time></trkpt><trkpt lat="45.919912865749325" lon="10.27844236254878"><ele>459.8333333333333</ele><time>2026-05-02T13:37:42.003Z</time></trkpt><trkpt lat="45.91997462287207" lon="10.278582757291478"><ele>460.66666666666663</ele><time>2026-05-02T13:37:44.003Z</time></trkpt><trkpt lat="45.92001759393863" lon="10.278664968407368"><ele>461.5</ele><time>2026-05-02T13:37:45.003Z</time></trkpt><trkpt lat="45.92004522222203" lon="10.278747902530258"><ele>462.3333333333333</ele><time>2026-05-02T13:37:46.002Z</time></trkpt><trkpt lat="45.920075208379316" lon="10.27884522107291"><ele>463.16666666666663</ele><time>2026-05-02T13:37:47.002Z</time></trkpt><trkpt lat="45.92009531119145" lon="10.278936971072584"><ele>464.0</ele><time>2026-05-02T13:37:48.002Z</time></trkpt><trkpt lat="45.92011997017373" lon="10.279042764691077"><ele>459.66666666666663</ele><time>2026-05-02T13:37:49.002Z</time></trkpt><trkpt lat="45.92015908661257" lon="10.279191020517212"><ele>455.3333333333333</ele><time>2026-05-02T13:37:51.002Z</time></trkpt><trkpt lat="45.920178649393506" lon="10.279303584382314"><ele>451.0</ele><time>2026-05-02T13:37:53.001Z</time></trkpt><trkpt lat="45.920192729884526" lon="10.279395299995905"><ele>446.66666666666663</ele><time>2026-05-02T13:37:55.001Z</time></trkpt><trkpt lat="45.92024561321565" lon="10.279506928320343"><ele>442.3333333333333</ele><time>2026-05-02T13:37:58.001Z</time></trkpt><trkpt lat="45.92030177426221" lon="10.27957801731397"><ele>438.0</ele><time>2026-05-02T13:38:00.001Z</time></trkpt><trkpt lat="45.92031546255294" lon="10.279826787448906"><ele>437.6666666666667</ele><time>2026-05-02T13:38:01.001Z</time></trkpt><trkpt lat="45.92039412004827" lon="10.279892135695881"><ele>437.33333333333337</ele><time>2026-05-02T13:38:04.001Z</time></trkpt><trkpt lat="45.920468954473044" lon="10.279948993484075"><ele>437.0</ele><time>2026-05-02T13:38:05.001Z</time></trkpt><trkpt lat="45.9205126635969" lon="10.280042918514315"><ele>436.6666666666667</ele><time>2026-05-02T13:38:06.001Z</time></trkpt><trkpt lat="45.92053428450604" lon="10.280172855744928"><ele>436.33333333333337</ele><time>2026-05-02T13:38:07.001Z</time></trkpt><trkpt lat="45.920490101661336" lon="10.280255937345636"><ele>436.0</ele><time>2026-05-02T13:38:09.001Z</time></trkpt><trkpt lat="45.92045568530567" lon="10.280371215453057"><ele>436.0</ele><time>2026-05-02T13:38:11.001Z</time></trkpt><trkpt lat="45.920411444696555" lon="10.280437380348536"><ele>436.0</ele><time>2026-05-02T13:38:12.065Z</time></trkpt><trkpt lat="45.9203878060484" lon="10.280565209329744"><ele>436.0</ele><time>2026-05-02T13:38:14.042Z</time></trkpt><trkpt lat="45.92044872191037" lon="10.28058899738424"><ele>436.0</ele><time>2026-05-02T13:38:15.044Z</time></trkpt><trkpt lat="45.920321136694724" lon="10.28092914025904"><ele>433.8</ele><time>2026-05-02T13:38:16.035Z</time></trkpt><trkpt lat="45.92031331796487" lon="10.28105930656843"><ele>431.6</ele><time>2026-05-02T13:38:17.034Z</time></trkpt><trkpt lat="45.920294907613034" lon="10.281225992556829"><ele>429.4</ele><time>2026-05-02T13:38:18.03Z</time></trkpt><trkpt lat="45.920304615396795" lon="10.281327959576242"><ele>427.2</ele><time>2026-05-02T13:38:19.031Z</time></trkpt><trkpt lat="45.920330419930615" lon="10.281445280157762"><ele>425.0</ele><time>2026-05-02T13:38:20.027Z</time></trkpt><trkpt lat="45.9203260609802" lon="10.281569161240046"><ele>425.0</ele><time>2026-05-02T13:38:21.03Z</time></trkpt><trkpt lat="45.92035375362884" lon="10.281326812921794"><ele>425.0</ele><time>2026-05-02T13:38:22.028Z</time></trkpt><trkpt lat="45.92024310339905" lon="10.281511791569416"><ele>425.0</ele><time>2026-05-02T13:38:23.03Z</time></trkpt><trkpt lat="45.92026752931442" lon="10.281638205222148"><ele>425.0</ele><time>2026-05-02T13:38:24.028Z</time></trkpt><trkpt lat="45.92041868034488" lon="10.281768600328052"><ele>424.6</ele><time>2026-05-02T13:38:25.001Z</time></trkpt><trkpt lat="45.92049835679422" lon="10.281866792049357"><ele>424.2</ele><time>2026-05-02T13:38:26.001Z</time></trkpt><trkpt lat="45.92057540862893" lon="10.281958116782286"><ele>423.79999999999995</ele><time>2026-05-02T13:38:27.001Z</time></trkpt><trkpt lat="45.92063963866198" lon="10.282062907032275"><ele>423.4</ele><time>2026-05-02T13:38:28.001Z</time></trkpt><trkpt lat="45.92073309616892" lon="10.282135683954507"><ele>423.0</ele><time>2026-05-02T13:38:29.001Z</time></trkpt><trkpt lat="45.92081220668548" lon="10.282196121612456"><ele>425.0</ele><time>2026-05-02T13:38:30.001Z</time></trkpt><trkpt lat="45.92099456008436" lon="10.282257310301127"><ele>427.0</ele><time>2026-05-02T13:38:34.001Z</time></trkpt><trkpt lat="45.921097529121006" lon="10.282366991334419"><ele>429.0</ele><time>2026-05-02T13:38:35.001Z</time></trkpt><trkpt lat="45.92113020112062" lon="10.282456115043805"><ele>431.0</ele><time>2026-05-02T13:38:36.001Z</time></trkpt><trkpt lat="45.92125304416331" lon="10.282511309546507"><ele>431.0</ele><time>2026-05-02T13:38:37.001Z</time></trkpt><trkpt lat="45.921416081971145" lon="10.282664052020994"><ele>431.0</ele><time>2026-05-02T13:38:38.001Z</time></trkpt><trkpt lat="45.92153905543756" lon="10.282755756785917"><ele>431.0</ele><time>2026-05-02T13:38:39.001Z</time></trkpt><trkpt lat="45.92167004260647" lon="10.28279333015746"><ele>426.5</ele><time>2026-05-02T13:38:40.001Z</time></trkpt><trkpt lat="45.92180053404159" lon="10.282803204927138"><ele>422.0</ele><time>2026-05-02T13:38:41.001Z</time></trkpt><trkpt lat="45.92189767194423" lon="10.282831834215974"><ele>417.5</ele><time>2026-05-02T13:38:42.001Z</time></trkpt><trkpt lat="45.92200841424231" lon="10.28277366850226"><ele>413.0</ele><time>2026-05-02T13:38:43.001Z</time></trkpt><trkpt lat="45.92211699575032" lon="10.282745078536422"><ele>413.0</ele><time>2026-05-02T13:38:44.001Z</time></trkpt><trkpt lat="45.92230879548708" lon="10.28253960034453"><ele>413.0</ele><time>2026-05-02T13:38:45.001Z</time></trkpt><trkpt lat="45.92245074707742" lon="10.282423621054058"><ele>413.0</ele><time>2026-05-02T13:38:46.001Z</time></trkpt><trkpt lat="45.9225831519082" lon="10.28233042153383"><ele>409.0</ele><time>2026-05-02T13:38:47.001Z</time></trkpt><trkpt lat="45.922678942259516" lon="10.282301403339886"><ele>405.0</ele><time>2026-05-02T13:38:48.001Z</time></trkpt><trkpt lat="45.92282848656344" lon="10.282275062400346"><ele>401.0</ele><time>2026-05-02T13:38:50.001Z</time></trkpt><trkpt lat="45.923059214089704" lon="10.282307729816303"><ele>400.99999999999994</ele><time>2026-05-02T13:38:53.001Z</time></trkpt><trkpt lat="45.9231376234031" lon="10.282316964172397"><ele>401.0</ele><time>2026-05-02T13:38:54.001Z</time></trkpt><trkpt lat="45.92324043853075" lon="10.282321280699836"><ele>401.0</ele><time>2026-05-02T13:38:55.001Z</time></trkpt><trkpt lat="45.92332005711026" lon="10.28234743020688"><ele>401.0</ele><time>2026-05-02T13:38:56.001Z</time></trkpt><trkpt lat="45.923386468501526" lon="10.282362259721582"><ele>400.99999999999994</ele><time>2026-05-02T13:38:57.001Z</time></trkpt><trkpt lat="45.923501279076305" lon="10.28234575512787"><ele>401.0</ele><time>2026-05-02T13:38:59.001Z</time></trkpt><trkpt lat="45.92361545355573" lon="10.282330142161584"><ele>398.99999999999994</ele><time>2026-05-02T13:39:01.001Z</time></trkpt><trkpt lat="45.923686295314006" lon="10.282295770166252"><ele>397.0</ele><time>2026-05-02T13:39:02.001Z</time></trkpt><trkpt lat="45.923808467525305" lon="10.282234177639902"><ele>395.0</ele><time>2026-05-02T13:39:04.001Z</time></trkpt><trkpt lat="45.92387097099183" lon="10.282218507149562"><ele>393.0</ele><time>2026-05-02T13:39:05.001Z</time></trkpt><trkpt lat="45.92393882908419" lon="10.282236298291547"><ele>390.99999999999994</ele><time>2026-05-02T13:39:06.001Z</time></trkpt><trkpt lat="45.924002222273565" lon="10.28222078249616"><ele>389.0</ele><time>2026-05-02T13:39:07.001Z</time></trkpt><trkpt lat="45.924114184943676" lon="10.282200499975561"><ele>386.66666666666663</ele><time>2026-05-02T13:39:09.001Z</time></trkpt><trkpt lat="45.924237550717855" lon="10.282198034487243"><ele>384.3333333333333</ele><time>2026-05-02T13:39:11.001Z</time></trkpt><trkpt lat="45.92430625420855" lon="10.282212962028598"><ele>382.0</ele><time>2026-05-02T13:39:12.001Z</time></trkpt><trkpt lat="45.924382831733745" lon="10.282245468823431"><ele>379.66666666666663</ele><time>2026-05-02T13:39:13.001Z</time></trkpt><trkpt lat="45.92445682188675" lon="10.282276328864528"><ele>377.3333333333333</ele><time>2026-05-02T13:39:14.001Z</time></trkpt><trkpt lat="45.92454111310904" lon="10.28229517384844"><ele>375.0</ele><time>2026-05-02T13:39:15.001Z</time></trkpt><trkpt lat="45.924620548899426" lon="10.282341398678176"><ele>375.0</ele><time>2026-05-02T13:39:16.001Z</time></trkpt><trkpt lat="45.924705979680155" lon="10.282396857464693"><ele>375.0</ele><time>2026-05-02T13:39:17.001Z</time></trkpt><trkpt lat="45.92481022918568" lon="10.28243049854265"><ele>375.0</ele><time>2026-05-02T13:39:18.001Z</time></trkpt><trkpt lat="45.92487669576891" lon="10.282435647074625"><ele>375.0</ele><time>2026-05-02T13:39:19.001Z</time></trkpt><trkpt lat="45.92494338468173" lon="10.282429338196033"><ele>375.0</ele><time>2026-05-02T13:39:20.001Z</time></trkpt><trkpt lat="45.92500388737532" lon="10.282398811768134"><ele>375.0</ele><time>2026-05-02T13:39:21.001Z</time></trkpt><trkpt lat="45.92512117654507" lon="10.282336668603799"><ele>373.0</ele><time>2026-05-02T13:39:23.001Z</time></trkpt><trkpt lat="45.925229658972675" lon="10.28229998202212"><ele>371.0</ele><time>2026-05-02T13:39:25.001Z</time></trkpt><trkpt lat="45.925267596513464" lon="10.282157342895806"><ele>369.0</ele><time>2026-05-02T13:39:26.001Z</time></trkpt><trkpt lat="45.925342493887726" lon="10.282103876643227"><ele>367.0</ele><time>2026-05-02T13:39:27.001Z</time></trkpt><trkpt lat="45.92549070987894" lon="10.282130748592804"><ele>365.16666666666663</ele><time>2026-05-02T13:39:29.002Z</time></trkpt><trkpt lat="45.92555489587021" lon="10.282141415384057"><ele>363.3333333333333</ele><time>2026-05-02T13:39:30.002Z</time></trkpt><trkpt lat="45.925671723794345" lon="10.282174822691918"><ele>361.5</ele><time>2026-05-02T13:39:32.002Z</time></trkpt><trkpt lat="45.92575060496227" lon="10.282205188515153"><ele>359.6666666666667</ele><time>2026-05-02T13:39:33.002Z</time></trkpt><trkpt lat="45.925835106599116" lon="10.282242914875145"><ele>357.83333333333337</ele><time>2026-05-02T13:39:34.002Z</time></trkpt><trkpt lat="45.925902285370945" lon="10.282301464088821"><ele>356.0</ele><time>2026-05-02T13:39:35.002Z</time></trkpt><trkpt lat="45.92598355262076" lon="10.282409211830828"><ele>356.0</ele><time>2026-05-02T13:39:36.002Z</time></trkpt><trkpt lat="45.92608155904408" lon="10.282459562905835"><ele>356.0</ele><time>2026-05-02T13:39:38.002Z</time></trkpt><trkpt lat="45.926261222792185" lon="10.282262776044718"><ele>356.0</ele><time>2026-05-02T13:39:41.002Z</time></trkpt><trkpt lat="45.926326930120645" lon="10.282202913804955"><ele>356.0</ele><time>2026-05-02T13:39:42.002Z</time></trkpt><trkpt lat="45.926406592456296" lon="10.282126220330023"><ele>355.8</ele><time>2026-05-02T13:39:44.002Z</time></trkpt><trkpt lat="45.926487141659464" lon="10.282051931179934"><ele>355.6</ele><time>2026-05-02T13:39:46.002Z</time></trkpt><trkpt lat="45.92654665861668" lon="10.281990815238256"><ele>355.4</ele><time>2026-05-02T13:39:48.002Z</time></trkpt><trkpt lat="45.926607135831965" lon="10.281918021726167"><ele>355.2</ele><time>2026-05-02T13:39:51.002Z</time></trkpt><trkpt lat="45.92668991316974" lon="10.281757526326166"><ele>355.0</ele><time>2026-05-02T13:39:53.001Z</time></trkpt><trkpt lat="45.92674037659324" lon="10.281699824465091"><ele>355.4</ele><time>2026-05-02T13:39:54.001Z</time></trkpt><trkpt lat="45.926815606614696" lon="10.281622051964614"><ele>355.8</ele><time>2026-05-02T13:39:56.001Z</time></trkpt><trkpt lat="45.92690532584749" lon="10.281529599112483"><ele>356.20000000000005</ele><time>2026-05-02T13:39:58.001Z</time></trkpt><trkpt lat="45.927012241710194" lon="10.281485196996725"><ele>356.6</ele><time>2026-05-02T13:40:00.001Z</time></trkpt><trkpt lat="45.92707236424133" lon="10.281454702043375"><ele>357.0</ele><time>2026-05-02T13:40:01.001Z</time></trkpt><trkpt lat="45.92718454501383" lon="10.281413286902353"><ele>357.0</ele><time>2026-05-02T13:40:03.001Z</time></trkpt><trkpt lat="45.9272451274758" lon="10.28138535823536"><ele>357.0</ele><time>2026-05-02T13:40:04.001Z</time></trkpt><trkpt lat="45.92735189682255" lon="10.28132786531381"><ele>357.0</ele><time>2026-05-02T13:40:06.001Z</time></trkpt><trkpt lat="45.927454298956015" lon="10.281255731139886"><ele>357.0</ele><time>2026-05-02T13:40:08.001Z</time></trkpt><trkpt lat="45.927553638071515" lon="10.281159409377361"><ele>357.0</ele><time>2026-05-02T13:40:10.001Z</time></trkpt><trkpt lat="45.92763925309453" lon="10.28105214980135"><ele>357.6</ele><time>2026-05-02T13:40:12.001Z</time></trkpt><trkpt lat="45.92773758925697" lon="10.280948437071022"><ele>358.20000000000005</ele><time>2026-05-02T13:40:14.001Z</time></trkpt><trkpt lat="45.92783006834635" lon="10.28084369918581"><ele>358.8</ele><time>2026-05-02T13:40:16.001Z</time></trkpt><trkpt lat="45.927910644254155" lon="10.280752694636366"><ele>359.4</ele><time>2026-05-02T13:40:18.001Z</time></trkpt><trkpt lat="45.92799090492637" lon="10.280675563700578"><ele>360.0</ele><time>2026-05-02T13:40:20.001Z</time></trkpt><trkpt lat="45.92808392666368" lon="10.280601375205672"><ele>359.5</ele><time>2026-05-02T13:40:22.001Z</time></trkpt><trkpt lat="45.92819008015057" lon="10.280525934939558"><ele>359.0</ele><time>2026-05-02T13:40:24.001Z</time></trkpt><trkpt lat="45.92829591888609" lon="10.280470979938025"><ele>358.5</ele><time>2026-05-02T13:40:26.001Z</time></trkpt><trkpt lat="45.92840511920592" lon="10.280426585577022"><ele>358.0</ele><time>2026-05-02T13:40:28.001Z</time></trkpt><trkpt lat="45.928517079720116" lon="10.280375802743643"><ele>358.0</ele><time>2026-05-02T13:40:30.001Z</time></trkpt><trkpt lat="45.928628925462576" lon="10.280325475650013"><ele>358.0</ele><time>2026-05-02T13:40:32.001Z</time></trkpt><trkpt lat="45.928735311119915" lon="10.280280514969231"><ele>358.0</ele><time>2026-05-02T13:40:34.001Z</time></trkpt><trkpt lat="45.928843004051316" lon="10.280234750740235"><ele>358.0</ele><time>2026-05-02T13:40:36.001Z</time></trkpt><trkpt lat="45.92895752630287" lon="10.280181616594108"><ele>358.0</ele><time>2026-05-02T13:40:38.001Z</time></trkpt><trkpt lat="45.92906308616275" lon="10.280133767541681"><ele>358.0</ele><time>2026-05-02T13:40:40.001Z</time></trkpt><trkpt lat="45.92917210139666" lon="10.280091210044304"><ele>358.0</ele><time>2026-05-02T13:40:42.001Z</time></trkpt><trkpt lat="45.92928489525368" lon="10.280042603874337"><ele>358.0</ele><time>2026-05-02T13:40:44.001Z</time></trkpt><trkpt lat="45.92940081678116" lon="10.27999656492684"><ele>359.0</ele><time>2026-05-02T13:40:46.001Z</time></trkpt><trkpt lat="45.92951660921325" lon="10.279943001856397"><ele>360.0</ele><time>2026-05-02T13:40:48.001Z</time></trkpt><trkpt lat="45.929629129783066" lon="10.27989878677055"><ele>361.0</ele><time>2026-05-02T13:40:50.001Z</time></trkpt><trkpt lat="45.929735081988845" lon="10.279851073524068"><ele>362.0</ele><time>2026-05-02T13:40:52.001Z</time></trkpt><trkpt lat="45.92984439468526" lon="10.279805258123254"><ele>361.40000000000003</ele><time>2026-05-02T13:40:54.001Z</time></trkpt><trkpt lat="45.92995675610915" lon="10.279757493700439"><ele>360.8</ele><time>2026-05-02T13:40:56.001Z</time></trkpt><trkpt lat="45.93006741453928" lon="10.279706776972025"><ele>360.2</ele><time>2026-05-02T13:40:58.001Z</time></trkpt><trkpt lat="45.93018476339522" lon="10.2796568695119"><ele>359.6</ele><time>2026-05-02T13:41:00.001Z</time></trkpt><trkpt lat="45.93024560180415" lon="10.279629585612831"><ele>359.0</ele><time>2026-05-02T13:41:01.001Z</time></trkpt><trkpt lat="45.93036178579999" lon="10.279578373612063"><ele>359.0</ele><time>2026-05-02T13:41:03.001Z</time></trkpt><trkpt lat="45.930472550171125" lon="10.279538850920185"><ele>359.0</ele><time>2026-05-02T13:41:05.001Z</time></trkpt><trkpt lat="45.93058209175381" lon="10.279488576696425"><ele>359.0</ele><time>2026-05-02T13:41:07.001Z</time></trkpt><trkpt lat="45.930693375038736" lon="10.279442611473876"><ele>359.0</ele><time>2026-05-02T13:41:09.001Z</time></trkpt><trkpt lat="45.930811836114756" lon="10.279392055207433"><ele>359.4</ele><time>2026-05-02T13:41:11.001Z</time></trkpt><trkpt lat="45.93092449058463" lon="10.27933193497531"><ele>359.79999999999995</ele><time>2026-05-02T13:41:13.001Z</time></trkpt><trkpt lat="45.930988638186825" lon="10.279309664315743"><ele>360.20000000000005</ele><time>2026-05-02T13:41:14.001Z</time></trkpt><trkpt lat="45.93105065996306" lon="10.279286295608134"><ele>360.6</ele><time>2026-05-02T13:41:15.001Z</time></trkpt><trkpt lat="45.93117031524246" lon="10.27924090401247"><ele>361.0</ele><time>2026-05-02T13:41:17.001Z</time></trkpt><trkpt lat="45.9312723071115" lon="10.279195032969742"><ele>361.0</ele><time>2026-05-02T13:41:19.001Z</time></trkpt><trkpt lat="45.93138171356468" lon="10.279149262283191"><ele>361.0</ele><time>2026-05-02T13:41:21.001Z</time></trkpt><trkpt lat="45.931492405849426" lon="10.279103907129901"><ele>361.0</ele><time>2026-05-02T13:41:23.001Z</time></trkpt><trkpt lat="45.93159743763152" lon="10.279058189084203"><ele>361.0</ele><time>2026-05-02T13:41:25.001Z</time></trkpt><trkpt lat="45.931707066053626" lon="10.279014615697587"><ele>361.0</ele><time>2026-05-02T13:41:27.001Z</time></trkpt><trkpt lat="45.93181854471355" lon="10.278975158944165"><ele>361.0</ele><time>2026-05-02T13:41:29.001Z</time></trkpt><trkpt lat="45.93191984822316" lon="10.278931423657852"><ele>361.0</ele><time>2026-05-02T13:41:31.001Z</time></trkpt><trkpt lat="45.932022035631704" lon="10.278907059398716"><ele>361.0</ele><time>2026-05-02T13:41:33.001Z</time></trkpt><trkpt lat="45.93212381301591" lon="10.278914809247391"><ele>361.0</ele><time>2026-05-02T13:41:35.001Z</time></trkpt><trkpt lat="45.93217983347838" lon="10.278970915037355"><ele>361.0</ele><time>2026-05-02T13:41:38.001Z</time></trkpt><trkpt lat="45.93224486381983" lon="10.279012774366082"><ele>361.0</ele><time>2026-05-02T13:41:42.001Z</time></trkpt><trkpt lat="45.932316892169176" lon="10.279087371456551"><ele>361.0</ele><time>2026-05-02T13:41:44.001Z</time></trkpt><trkpt lat="45.93240518865717" lon="10.278977093401409"><ele>361.0</ele><time>2026-05-02T13:41:46.001Z</time></trkpt><trkpt lat="45.93247777426482" lon="10.278843755196606"><ele>361.0</ele><time>2026-05-02T13:41:48.001Z</time></trkpt><trkpt lat="45.932539239254" lon="10.278691338533266"><ele>362.14285714285717</ele><time>2026-05-02T13:41:50.001Z</time></trkpt><trkpt lat="45.93256278285311" lon="10.278593505835186"><ele>363.2857142857143</ele><time>2026-05-02T13:41:51.001Z</time></trkpt><trkpt lat="45.93258309209826" lon="10.278489759893269"><ele>364.42857142857144</ele><time>2026-05-02T13:41:52.001Z</time></trkpt><trkpt lat="45.93260487110348" lon="10.278391593701244"><ele>365.57142857142856</ele><time>2026-05-02T13:41:53.001Z</time></trkpt><trkpt lat="45.932627258015955" lon="10.278296620722616"><ele>366.71428571428567</ele><time>2026-05-02T13:41:54.001Z</time></trkpt><trkpt lat="45.932643721036634" lon="10.278203677022267"><ele>367.85714285714283</ele><time>2026-05-02T13:41:55.001Z</time></trkpt><trkpt lat="45.932660827991036" lon="10.278112523461107"><ele>369.0</ele><time>2026-05-02T13:41:56.001Z</time></trkpt><trkpt lat="45.93267727782867" lon="10.278017460737827"><ele>369.3333333333333</ele><time>2026-05-02T13:41:57.001Z</time></trkpt><trkpt lat="45.93270927610131" lon="10.277919612992694"><ele>369.6666666666667</ele><time>2026-05-02T13:41:58.001Z</time></trkpt><trkpt lat="45.932735511832725" lon="10.27781138544218"><ele>370.0</ele><time>2026-05-02T13:41:59.001Z</time></trkpt><trkpt lat="45.93275688299829" lon="10.277698177344583"><ele>370.33333333333337</ele><time>2026-05-02T13:42:00.001Z</time></trkpt><trkpt lat="45.93277915841963" lon="10.2775774246026"><ele>370.6666666666667</ele><time>2026-05-02T13:42:01.001Z</time></trkpt><trkpt lat="45.932803001598984" lon="10.277462171589837"><ele>371.0</ele><time>2026-05-02T13:42:02.001Z</time></trkpt><trkpt lat="45.9328197045885" lon="10.277353383189347"><ele>369.7142857142857</ele><time>2026-05-02T13:42:03.001Z</time></trkpt><trkpt lat="45.932842089062085" lon="10.277255734421564"><ele>368.42857142857144</ele><time>2026-05-02T13:42:04.001Z</time></trkpt><trkpt lat="45.93286625424973" lon="10.27716355442424"><ele>367.1428571428571</ele><time>2026-05-02T13:42:05.001Z</time></trkpt><trkpt lat="45.93288471390989" lon="10.277071111621682"><ele>365.8571428571429</ele><time>2026-05-02T13:42:06.001Z</time></trkpt><trkpt lat="45.932908770006364" lon="10.2769858133862"><ele>364.57142857142856</ele><time>2026-05-02T13:42:07.001Z</time></trkpt><trkpt lat="45.932936087868875" lon="10.276901838718286"><ele>363.2857142857143</ele><time>2026-05-02T13:42:08.001Z</time></trkpt><trkpt lat="45.932959914925426" lon="10.276816649664577"><ele>362.0</ele><time>2026-05-02T13:42:09.001Z</time></trkpt><trkpt lat="45.932985611731546" lon="10.276731692523434"><ele>362.0</ele><time>2026-05-02T13:42:10.001Z</time></trkpt><trkpt lat="45.93298416684137" lon="10.276638778555137"><ele>362.0</ele><time>2026-05-02T13:42:11.001Z</time></trkpt><trkpt lat="45.933089683517444" lon="10.276611648880303"><ele>362.0</ele><time>2026-05-02T13:42:12.001Z</time></trkpt><trkpt lat="45.933139286063785" lon="10.276554806512616"><ele>362.0</ele><time>2026-05-02T13:42:13.001Z</time></trkpt><trkpt lat="45.93325252609205" lon="10.276453056347595"><ele>362.0</ele><time>2026-05-02T13:42:15.001Z</time></trkpt><trkpt lat="45.93331703849952" lon="10.276407094235042"><ele>362.0</ele><time>2026-05-02T13:42:16.001Z</time></trkpt><trkpt lat="45.933375778165335" lon="10.27635678570557"><ele>363.5</ele><time>2026-05-02T13:42:17.001Z</time></trkpt><trkpt lat="45.933437125337534" lon="10.27629108740236"><ele>365.0</ele><time>2026-05-02T13:42:18.001Z</time></trkpt><trkpt lat="45.9334940585263" lon="10.276220985981503"><ele>366.5</ele><time>2026-05-02T13:42:19.001Z</time></trkpt><trkpt lat="45.933540441280044" lon="10.276133786412428"><ele>368.0</ele><time>2026-05-02T13:42:20.001Z</time></trkpt><trkpt lat="45.933612304693554" lon="10.276096257821306"><ele>369.5</ele><time>2026-05-02T13:42:21.001Z</time></trkpt><trkpt lat="45.93365466032139" lon="10.276002798516165"><ele>371.0</ele><time>2026-05-02T13:42:22.001Z</time></trkpt><trkpt lat="45.93370340452583" lon="10.275927429952455"><ele>371.0</ele><time>2026-05-02T13:42:23.001Z</time></trkpt><trkpt lat="45.93374836024741" lon="10.275848098036587"><ele>371.0</ele><time>2026-05-02T13:42:24.001Z</time></trkpt><trkpt lat="45.93379721226406" lon="10.275771308723856"><ele>371.0</ele><time>2026-05-02T13:42:25.001Z</time></trkpt><trkpt lat="45.933836795296145" lon="10.27568154680833"><ele>371.0</ele><time>2026-05-02T13:42:26.001Z</time></trkpt><trkpt lat="45.93385771874816" lon="10.275583037720732"><ele>371.0</ele><time>2026-05-02T13:42:27.001Z</time></trkpt><trkpt lat="45.93385656089675" lon="10.275478476819154"><ele>371.0</ele><time>2026-05-02T13:42:28.001Z</time></trkpt><trkpt lat="45.93384212221237" lon="10.275372909889558"><ele>371.0</ele><time>2026-05-02T13:42:29.001Z</time></trkpt><trkpt lat="45.93384579867797" lon="10.27526463699415"><ele>370.83333333333337</ele><time>2026-05-02T13:42:30.001Z</time></trkpt><trkpt lat="45.93383279960369" lon="10.275156667788226"><ele>370.6666666666667</ele><time>2026-05-02T13:42:31.001Z</time></trkpt><trkpt lat="45.9338122439484" lon="10.275051587400696"><ele>370.5</ele><time>2026-05-02T13:42:32.001Z</time></trkpt><trkpt lat="45.933808562445385" lon="10.274950546319428"><ele>370.3333333333333</ele><time>2026-05-02T13:42:33.001Z</time></trkpt><trkpt lat="45.93380540652397" lon="10.274859202541457"><ele>370.16666666666663</ele><time>2026-05-02T13:42:34.001Z</time></trkpt><trkpt lat="45.93377859014334" lon="10.27473986146297"><ele>370.0</ele><time>2026-05-02T13:42:36.001Z</time></trkpt><trkpt lat="45.93376535293514" lon="10.274610086750647"><ele>368.2</ele><time>2026-05-02T13:42:39.001Z</time></trkpt><trkpt lat="45.933696815370794" lon="10.274469750989864"><ele>366.4</ele><time>2026-05-02T13:42:41.001Z</time></trkpt><trkpt lat="45.93367499413926" lon="10.274380456688903"><ele>364.6</ele><time>2026-05-02T13:42:42.001Z</time></trkpt><trkpt lat="45.93359626870047" lon="10.274257868329247"><ele>362.8</ele><time>2026-05-02T13:42:44.001Z</time></trkpt><trkpt lat="45.933545645168415" lon="10.274158038619056"><ele>361.0</ele><time>2026-05-02T13:42:46.001Z</time></trkpt><trkpt lat="45.933506395063745" lon="10.27405464394511"><ele>361.0</ele><time>2026-05-02T13:42:52.001Z</time></trkpt><trkpt lat="45.93348049233186" lon="10.273971061808965"><ele>361.0</ele><time>2026-05-02T13:42:53.001Z</time></trkpt><trkpt lat="45.93345727309938" lon="10.27386541431621"><ele>361.0</ele><time>2026-05-02T13:42:55.001Z</time></trkpt><trkpt lat="45.93343013526773" lon="10.273765650759302"><ele>361.0</ele><time>2026-05-02T13:42:58.001Z</time></trkpt><trkpt lat="45.93371748506875" lon="10.273522221369586"><ele>361.0</ele><time>2026-05-02T13:43:05.001Z</time></trkpt><trkpt lat="45.933802370332344" lon="10.273543901527123"><ele>361.0</ele><time>2026-05-02T13:43:09.001Z</time></trkpt><trkpt lat="45.93383956705872" lon="10.273625729179555"><ele>361.0</ele><time>2026-05-02T13:43:11.001Z</time></trkpt><trkpt lat="45.93388790352251" lon="10.273743679452693"><ele>361.0</ele><time>2026-05-02T13:43:14.001Z</time></trkpt><trkpt lat="45.93394285599326" lon="10.273833760940194"><ele>361.0</ele><time>2026-05-02T13:43:17.001Z</time></trkpt><trkpt lat="45.93399704763168" lon="10.273880987363574"><ele>361.0</ele><time>2026-05-02T13:43:20.001Z</time></trkpt><trkpt lat="45.93406964370145" lon="10.273948698301668"><ele>361.0</ele><time>2026-05-02T13:43:23.001Z</time></trkpt><trkpt lat="45.93412575288288" lon="10.274017481307187"><ele>361.0</ele><time>2026-05-02T13:43:26.001Z</time></trkpt><trkpt lat="45.93422062696139" lon="10.274017986227026"><ele>361.0</ele><time>2026-05-02T13:43:29.001Z</time></trkpt><trkpt lat="45.934311258164605" lon="10.274004771987167"><ele>361.0</ele><time>2026-05-02T13:43:31.001Z</time></trkpt><trkpt lat="45.9343957503509" lon="10.273976634252326"><ele>361.0</ele><time>2026-05-02T13:43:33.001Z</time></trkpt><trkpt lat="45.93447407258099" lon="10.273966676697361"><ele>361.0</ele><time>2026-05-02T13:43:35.001Z</time></trkpt><trkpt lat="45.93454813379323" lon="10.273987494204476"><ele>359.8333333333333</ele><time>2026-05-02T13:43:37.001Z</time></trkpt><trkpt lat="45.93461832576568" lon="10.273988092004258"><ele>358.66666666666663</ele><time>2026-05-02T13:43:39.001Z</time></trkpt><trkpt lat="45.93471455522584" lon="10.273998201436564"><ele>357.5</ele><time>2026-05-02T13:43:42.001Z</time></trkpt><trkpt lat="45.934782798447856" lon="10.274027019948951"><ele>356.3333333333333</ele><time>2026-05-02T13:43:44.001Z</time></trkpt><trkpt lat="45.93485244555204" lon="10.274085763039679"><ele>355.1666666666667</ele><time>2026-05-02T13:43:46.001Z</time></trkpt><trkpt lat="45.934909572348516" lon="10.274131730183703"><ele>354.0</ele><time>2026-05-02T13:43:48.001Z</time></trkpt><trkpt lat="45.93499206928378" lon="10.274192042817"><ele>349.5</ele><time>2026-05-02T13:43:51.001Z</time></trkpt><trkpt lat="45.93506148457615" lon="10.274222034839509"><ele>345.0</ele><time>2026-05-02T13:43:53.001Z</time></trkpt><trkpt lat="45.93512533066056" lon="10.274248759443376"><ele>340.5</ele><time>2026-05-02T13:43:55.001Z</time></trkpt><trkpt lat="45.93519311695925" lon="10.274288184023895"><ele>336.0</ele><time>2026-05-02T13:43:57.001Z</time></trkpt><trkpt lat="45.93526444534501" lon="10.274329489715306"><ele>331.5</ele><time>2026-05-02T13:43:59.001Z</time></trkpt><trkpt lat="45.9353388166521" lon="10.274383924652007"><ele>327.0</ele><time>2026-05-02T13:44:01.001Z</time></trkpt><trkpt lat="45.9354247598706" lon="10.274431651728248"><ele>327.0</ele><time>2026-05-02T13:44:03.001Z</time></trkpt><trkpt lat="45.935497467453764" lon="10.2744792816963"><ele>327.0</ele><time>2026-05-02T13:44:05.001Z</time></trkpt><trkpt lat="45.93556372741693" lon="10.274518706552541"><ele>327.0</ele><time>2026-05-02T13:44:07.001Z</time></trkpt><trkpt lat="45.935623630160364" lon="10.27457360213882"><ele>327.0</ele><time>2026-05-02T13:44:09.001Z</time></trkpt><trkpt lat="45.935701888673485" lon="10.274610260488338"><ele>327.0</ele><time>2026-05-02T13:44:11.001Z</time></trkpt><trkpt lat="45.93575673247985" lon="10.2746588288685"><ele>327.0</ele><time>2026-05-02T13:44:13.001Z</time></trkpt><trkpt lat="45.93584060071845" lon="10.274710163163316"><ele>327.1666666666667</ele><time>2026-05-02T13:44:16.001Z</time></trkpt><trkpt lat="45.93591711353121" lon="10.274761082229052"><ele>327.3333333333333</ele><time>2026-05-02T13:44:18.001Z</time></trkpt><trkpt lat="45.93598132215939" lon="10.274807466409277"><ele>327.5</ele><time>2026-05-02T13:44:20.001Z</time></trkpt><trkpt lat="45.93605493742732" lon="10.274870733569617"><ele>327.66666666666663</ele><time>2026-05-02T13:44:22.001Z</time></trkpt><trkpt lat="45.93612485317167" lon="10.274963021787583"><ele>327.8333333333333</ele><time>2026-05-02T13:44:24.001Z</time></trkpt><trkpt lat="45.93617997411529" lon="10.275020202836519"><ele>328.0</ele><time>2026-05-02T13:44:26.001Z</time></trkpt><trkpt lat="45.93622571417217" lon="10.27512942500427"><ele>328.0</ele><time>2026-05-02T13:44:29.001Z</time></trkpt><trkpt lat="45.936264975749715" lon="10.275235488116126"><ele>328.0</ele><time>2026-05-02T13:44:31.001Z</time></trkpt><trkpt lat="45.93630660531596" lon="10.275328808959431"><ele>328.0</ele><time>2026-05-02T13:44:33.001Z</time></trkpt><trkpt lat="45.936353015119735" lon="10.275414017899848"><ele>328.0</ele><time>2026-05-02T13:44:35.001Z</time></trkpt><trkpt lat="45.9363918660811" lon="10.275544217550156"><ele>328.0</ele><time>2026-05-02T13:44:38.001Z</time></trkpt><trkpt lat="45.93642035455943" lon="10.275635311684752"><ele>328.0</ele><time>2026-05-02T13:44:42.001Z</time></trkpt><trkpt lat="45.93644045489751" lon="10.275539294921828"><ele>328.0</ele><time>2026-05-02T13:44:44.001Z</time></trkpt><trkpt lat="45.936478766004555" lon="10.27541553475018"><ele>328.0</ele><time>2026-05-02T13:44:47.001Z</time></trkpt><trkpt lat="45.9365193265437" lon="10.275339789577917"><ele>328.0</ele><time>2026-05-02T13:44:49.001Z</time></trkpt><trkpt lat="45.936563065968755" lon="10.275274675836442"><ele>328.0</ele><time>2026-05-02T13:44:51.001Z</time></trkpt><trkpt lat="45.936606742177425" lon="10.275175363626202"><ele>328.0</ele><time>2026-05-02T13:44:53.001Z</time></trkpt><trkpt lat="45.93664635130621" lon="10.275090477925"><ele>328.0</ele><time>2026-05-02T13:44:55.001Z</time></trkpt><trkpt lat="45.936702825673365" lon="10.275021051998387"><ele>323.0</ele><time>2026-05-02T13:44:57.001Z</time></trkpt><trkpt lat="45.93676815174996" lon="10.274977749529215"><ele>318.0</ele><time>2026-05-02T13:45:00.001Z</time></trkpt><trkpt lat="45.93681061203116" lon="10.274900470240954"><ele>313.0</ele><time>2026-05-02T13:45:02.001Z</time></trkpt><trkpt lat="45.93683537218053" lon="10.274804634610136"><ele>308.0</ele><time>2026-05-02T13:45:04.001Z</time></trkpt><trkpt lat="45.9369098032275" lon="10.27475817608329"><ele>303.0</ele><time>2026-05-02T13:45:07.001Z</time></trkpt><trkpt lat="45.93697992102794" lon="10.274701175852819"><ele>298.0</ele><time>2026-05-02T13:45:09.001Z</time></trkpt><trkpt lat="45.93698438648582" lon="10.27457491458416"><ele>298.0</ele><time>2026-05-02T13:45:12.001Z</time></trkpt><trkpt lat="45.937067236783804" lon="10.274614882583977"><ele>298.0</ele><time>2026-05-02T13:45:15.001Z</time></trkpt><trkpt lat="45.93713355188772" lon="10.274718977026001"><ele>298.0</ele><time>2026-05-02T13:45:17.001Z</time></trkpt><trkpt lat="45.93720368210754" lon="10.274868379753501"><ele>298.0</ele><time>2026-05-02T13:45:19.001Z</time></trkpt><trkpt lat="45.93723181309628" lon="10.274960089813694"><ele>298.0</ele><time>2026-05-02T13:45:20.001Z</time></trkpt><trkpt lat="45.9372648749458" lon="10.2750507293944"><ele>298.0</ele><time>2026-05-02T13:45:21.001Z</time></trkpt><trkpt lat="45.937290843466926" lon="10.275141723466788"><ele>298.0</ele><time>2026-05-02T13:45:22.001Z</time></trkpt><trkpt lat="45.93731425745058" lon="10.275235516390083"><ele>298.0</ele><time>2026-05-02T13:45:23.001Z</time></trkpt><trkpt lat="45.937329996269504" lon="10.275327061523098"><ele>298.0</ele><time>2026-05-02T13:45:24.001Z</time></trkpt><trkpt lat="45.937342602465435" lon="10.275418857747162"><ele>298.0</ele><time>2026-05-02T13:45:25.001Z</time></trkpt><trkpt lat="45.937353971931174" lon="10.27550892843259"><ele>298.0</ele><time>2026-05-02T13:45:26.001Z</time></trkpt><trkpt lat="45.93738157970158" lon="10.27568151443865"><ele>299.3333333333333</ele><time>2026-05-02T13:45:28.001Z</time></trkpt><trkpt lat="45.93739104786731" lon="10.275775368927974"><ele>300.66666666666663</ele><time>2026-05-02T13:45:29.001Z</time></trkpt><trkpt lat="45.937425131878975" lon="10.275944547300481"><ele>302.0</ele><time>2026-05-02T13:45:31.001Z</time></trkpt><trkpt lat="45.93744640576563" lon="10.276030398156252"><ele>303.3333333333333</ele><time>2026-05-02T13:45:32.001Z</time></trkpt><trkpt lat="45.93749485946729" lon="10.27619938086927"><ele>304.6666666666667</ele><time>2026-05-02T13:45:34.001Z</time></trkpt><trkpt lat="45.937532932427686" lon="10.27627683575085"><ele>306.0</ele><time>2026-05-02T13:45:35.001Z</time></trkpt><trkpt lat="45.93758103739527" lon="10.276350874735696"><ele>302.57142857142856</ele><time>2026-05-02T13:45:36.001Z</time></trkpt><trkpt lat="45.93762320431857" lon="10.276426992310864"><ele>299.14285714285717</ele><time>2026-05-02T13:45:37.001Z</time></trkpt><trkpt lat="45.93765903345467" lon="10.276517082284435"><ele>295.7142857142857</ele><time>2026-05-02T13:45:38.001Z</time></trkpt><trkpt lat="45.93769083612175" lon="10.27660737730508"><ele>292.2857142857143</ele><time>2026-05-02T13:45:39.001Z</time></trkpt><trkpt lat="45.93772175879175" lon="10.276699499192189"><ele>288.85714285714283</ele><time>2026-05-02T13:45:40.001Z</time></trkpt><trkpt lat="45.93775370254559" lon="10.276791197084624"><ele>285.42857142857144</ele><time>2026-05-02T13:45:41.001Z</time></trkpt><trkpt lat="45.93778014507306" lon="10.27688436385864"><ele>282.0</ele><time>2026-05-02T13:45:42.001Z</time></trkpt><trkpt lat="45.93780441963303" lon="10.276973216736398"><ele>282.0</ele><time>2026-05-02T13:45:43.001Z</time></trkpt><trkpt lat="45.9378335266963" lon="10.277062918396323"><ele>282.0</ele><time>2026-05-02T13:45:44.001Z</time></trkpt><trkpt lat="45.93790333924786" lon="10.277219925858136"><ele>282.0</ele><time>2026-05-02T13:45:46.001Z</time></trkpt><trkpt lat="45.937959464951824" lon="10.277268749233391"><ele>282.0</ele><time>2026-05-02T13:45:47.001Z</time></trkpt><trkpt lat="45.93808080157391" lon="10.277294898480333"><ele>282.0</ele><time>2026-05-02T13:45:49.001Z</time></trkpt><trkpt lat="45.93819486105543" lon="10.277319882374032"><ele>281.3333333333333</ele><time>2026-05-02T13:45:51.001Z</time></trkpt><trkpt lat="45.938296671053244" lon="10.27736378097699"><ele>280.6666666666667</ele><time>2026-05-02T13:45:53.001Z</time></trkpt><trkpt lat="45.93835695865873" lon="10.27739174177347"><ele>280.0</ele><time>2026-05-02T13:45:54.001Z</time></trkpt><trkpt lat="45.93847419814519" lon="10.277466923623335"><ele>279.33333333333337</ele><time>2026-05-02T13:45:56.001Z</time></trkpt><trkpt lat="45.938540302303416" lon="10.277514105953884"><ele>278.6666666666667</ele><time>2026-05-02T13:45:57.001Z</time></trkpt><trkpt lat="45.93859941861212" lon="10.277559128700856"><ele>278.0</ele><time>2026-05-02T13:45:58.001Z</time></trkpt><trkpt lat="45.9386535459474" lon="10.277620238964762"><ele>278.0</ele><time>2026-05-02T13:45:59.001Z</time></trkpt><trkpt lat="45.938703083583135" lon="10.277686002780834"><ele>278.0</ele><time>2026-05-02T13:46:00.001Z</time></trkpt><trkpt lat="45.938739546505026" lon="10.2777634892166"><ele>278.0</ele><time>2026-05-02T13:46:01.001Z</time></trkpt><trkpt lat="45.93877979109595" lon="10.277836859785964"><ele>278.0</ele><time>2026-05-02T13:46:02.001Z</time></trkpt><trkpt lat="45.93882913911927" lon="10.277910476767266"><ele>278.0</ele><time>2026-05-02T13:46:03.001Z</time></trkpt><trkpt lat="45.93888528295822" lon="10.27796603255839"><ele>278.0</ele><time>2026-05-02T13:46:04.001Z</time></trkpt><trkpt lat="45.938945163767556" lon="10.278023059491149"><ele>278.0</ele><time>2026-05-02T13:46:05.001Z</time></trkpt><trkpt lat="45.93901354963858" lon="10.278067016486242"><ele>277.2857142857143</ele><time>2026-05-02T13:46:06.001Z</time></trkpt><trkpt lat="45.93907840154923" lon="10.27810803314537"><ele>276.57142857142856</ele><time>2026-05-02T13:46:07.001Z</time></trkpt><trkpt lat="45.939139154413155" lon="10.278158275493492"><ele>275.8571428571429</ele><time>2026-05-02T13:46:08.001Z</time></trkpt><trkpt lat="45.93919918519591" lon="10.278212694178448"><ele>275.1428571428571</ele><time>2026-05-02T13:46:09.001Z</time></trkpt><trkpt lat="45.939253886671565" lon="10.278274477677886"><ele>274.42857142857144</ele><time>2026-05-02T13:46:10Z</time></trkpt><trkpt lat="45.93930212281553" lon="10.278346658894549"><ele>273.7142857142857</ele><time>2026-05-02T13:46:11Z</time></trkpt><trkpt lat="45.93932989552368" lon="10.27844082558665"><ele>273.0</ele><time>2026-05-02T13:46:12Z</time></trkpt><trkpt lat="45.939349954434675" lon="10.278533933185303"><ele>273.0</ele><time>2026-05-02T13:46:13Z</time></trkpt><trkpt lat="45.939369940232076" lon="10.278620636758713"><ele>273.0</ele><time>2026-05-02T13:46:14Z</time></trkpt><trkpt lat="45.939392826535126" lon="10.27870760287228"><ele>273.0</ele><time>2026-05-02T13:46:15Z</time></trkpt><trkpt lat="45.93941466386568" lon="10.278795724523535"><ele>273.0</ele><time>2026-05-02T13:46:16Z</time></trkpt><trkpt lat="45.939439416442106" lon="10.278883013325919"><ele>273.0</ele><time>2026-05-02T13:46:17Z</time></trkpt><trkpt lat="45.93947322536426" lon="10.278968462878117"><ele>273.0</ele><time>2026-05-02T13:46:18Z</time></trkpt><trkpt lat="45.93952026616289" lon="10.279041554052641"><ele>273.0</ele><time>2026-05-02T13:46:19Z</time></trkpt><trkpt lat="45.93957701698757" lon="10.279105199650239"><ele>274.0</ele><time>2026-05-02T13:46:20Z</time></trkpt><trkpt lat="45.93963168431286" lon="10.279171648961569"><ele>275.0</ele><time>2026-05-02T13:46:21Z</time></trkpt><trkpt lat="45.93968386660373" lon="10.279241884880365"><ele>276.0</ele><time>2026-05-02T13:46:22Z</time></trkpt><trkpt lat="45.93973052214835" lon="10.279319473811103"><ele>277.0</ele><time>2026-05-02T13:46:23Z</time></trkpt><trkpt lat="45.93977854297364" lon="10.279393899895416"><ele>278.0</ele><time>2026-05-02T13:46:24Z</time></trkpt><trkpt lat="45.939820343777555" lon="10.279475132877325"><ele>279.0</ele><time>2026-05-02T13:46:25Z</time></trkpt><trkpt lat="45.93985523168562" lon="10.279561002993955"><ele>280.0</ele><time>2026-05-02T13:46:26Z</time></trkpt><trkpt lat="45.939889173433464" lon="10.279645220657342"><ele>280.0</ele><time>2026-05-02T13:46:27Z</time></trkpt><trkpt lat="45.939923948904" lon="10.279722758428672"><ele>280.0</ele><time>2026-05-02T13:46:28Z</time></trkpt><trkpt lat="45.940017887430734" lon="10.27981086991"><ele>280.0</ele><time>2026-05-02T13:46:30Z</time></trkpt><trkpt lat="45.93998453536035" lon="10.27996343704295"><ele>280.0</ele><time>2026-05-02T13:46:31Z</time></trkpt><trkpt lat="45.94002421910032" lon="10.280119376393634"><ele>280.0</ele><time>2026-05-02T13:46:33Z</time></trkpt><trkpt lat="45.94007060160013" lon="10.280283334809564"><ele>279.6</ele><time>2026-05-02T13:46:35Z</time></trkpt><trkpt lat="45.94009974644938" lon="10.28045738367606"><ele>279.2</ele><time>2026-05-02T13:46:37Z</time></trkpt><trkpt lat="45.94009122153387" lon="10.280554710948595"><ele>278.8</ele><time>2026-05-02T13:46:38Z</time></trkpt><trkpt lat="45.940120156060345" lon="10.280713934195985"><ele>278.4</ele><time>2026-05-02T13:46:40Z</time></trkpt><trkpt lat="45.94017288451338" lon="10.280866835346522"><ele>278.0</ele><time>2026-05-02T13:46:42Z</time></trkpt><trkpt lat="45.940231749616466" lon="10.281003070967918"><ele>278.0</ele><time>2026-05-02T13:46:44Z</time></trkpt><trkpt lat="45.94031859654507" lon="10.281116778217749"><ele>278.0</ele><time>2026-05-02T13:46:46Z</time></trkpt><trkpt lat="45.940382661652315" lon="10.281131955710316"><ele>278.0</ele><time>2026-05-02T13:46:47Z</time></trkpt><trkpt lat="45.940442232412686" lon="10.281169120027027"><ele>278.0</ele><time>2026-05-02T13:46:48Z</time></trkpt><trkpt lat="45.940532223513955" lon="10.281285410619569"><ele>278.0</ele><time>2026-05-02T13:46:50Z</time></trkpt><trkpt lat="45.94061162943204" lon="10.281393759419833"><ele>278.83333333333337</ele><time>2026-05-02T13:46:52Z</time></trkpt><trkpt lat="45.94069802941025" lon="10.281506408566537"><ele>279.6666666666667</ele><time>2026-05-02T13:46:54Z</time></trkpt><trkpt lat="45.94075257336372" lon="10.281588899807756"><ele>280.5</ele><time>2026-05-02T13:46:55Z</time></trkpt><trkpt lat="45.940798347942064" lon="10.281660508822226"><ele>281.3333333333333</ele><time>2026-05-02T13:46:56Z</time></trkpt><trkpt lat="45.94084597321592" lon="10.281731007340163"><ele>282.16666666666663</ele><time>2026-05-02T13:46:57Z</time></trkpt><trkpt lat="45.940896830028066" lon="10.281797573207461"><ele>283.0</ele><time>2026-05-02T13:46:58Z</time></trkpt><trkpt lat="45.940987724635356" lon="10.28193883436827"><ele>283.0</ele><time>2026-05-02T13:47:00Z</time></trkpt><trkpt lat="45.941037325507956" lon="10.282003485702027"><ele>283.0</ele><time>2026-05-02T13:47:01Z</time></trkpt><trkpt lat="45.94112557439054" lon="10.28211664934432"><ele>283.0</ele><time>2026-05-02T13:47:03Z</time></trkpt><trkpt lat="45.94122837817084" lon="10.282214923009581"><ele>283.0</ele><time>2026-05-02T13:47:05.001Z</time></trkpt><trkpt lat="45.941330194279516" lon="10.282288790566431"><ele>283.0</ele><time>2026-05-02T13:47:07.001Z</time></trkpt><trkpt lat="45.941449040373826" lon="10.282315386656027"><ele>288.5</ele><time>2026-05-02T13:47:09.001Z</time></trkpt><trkpt lat="45.94157507013422" lon="10.282352667316992"><ele>294.0</ele><time>2026-05-02T13:47:11.001Z</time></trkpt><trkpt lat="45.94163670740422" lon="10.282417204143718"><ele>299.5</ele><time>2026-05-02T13:47:12.001Z</time></trkpt><trkpt lat="45.94167975493219" lon="10.28249843015636"><ele>305.0</ele><time>2026-05-02T13:47:13.001Z</time></trkpt><trkpt lat="45.94169056747655" lon="10.282598158663541"><ele>310.5</ele><time>2026-05-02T13:47:14.001Z</time></trkpt><trkpt lat="45.94170007144574" lon="10.282693178585369"><ele>316.0</ele><time>2026-05-02T13:47:15.001Z</time></trkpt><trkpt lat="45.94164650614594" lon="10.282851027429238"><ele>316.0</ele><time>2026-05-02T13:47:17.001Z</time></trkpt><trkpt lat="45.941618270304126" lon="10.283024021293954"><ele>316.0</ele><time>2026-05-02T13:47:19.001Z</time></trkpt><trkpt lat="45.94157108652332" lon="10.28318889827558"><ele>316.0</ele><time>2026-05-02T13:47:21.001Z</time></trkpt><trkpt lat="45.94153923272928" lon="10.283350243813041"><ele>316.0</ele><time>2026-05-02T13:47:23.001Z</time></trkpt><trkpt lat="45.94154121172628" lon="10.283480957569424"><ele>319.0</ele><time>2026-05-02T13:47:26.001Z</time></trkpt><trkpt lat="45.94158959848595" lon="10.283602861315405"><ele>322.0</ele><time>2026-05-02T13:47:28.001Z</time></trkpt><trkpt lat="45.941640836818216" lon="10.28372176302512"><ele>325.0</ele><time>2026-05-02T13:47:30.001Z</time></trkpt><trkpt lat="45.94173827015954" lon="10.283806841494252"><ele>328.0</ele><time>2026-05-02T13:47:32.001Z</time></trkpt><trkpt lat="45.94185428091865" lon="10.283805218609407"><ele>331.0</ele><time>2026-05-02T13:47:34.001Z</time></trkpt><trkpt lat="45.941960465994356" lon="10.28376384751284"><ele>331.0</ele><time>2026-05-02T13:47:36.001Z</time></trkpt><trkpt lat="45.94205465634267" lon="10.283695552572047"><ele>331.0</ele><time>2026-05-02T13:47:38.001Z</time></trkpt><trkpt lat="45.94212423310255" lon="10.283615999945418"><ele>331.0</ele><time>2026-05-02T13:47:40.001Z</time></trkpt><trkpt lat="45.942075340912936" lon="10.283702415339159"><ele>331.0</ele><time>2026-05-02T13:47:48.001Z</time></trkpt><trkpt lat="45.94201144706414" lon="10.28378609781966"><ele>331.0</ele><time>2026-05-02T13:47:50.001Z</time></trkpt><trkpt lat="45.9419248729151" lon="10.283862883253345"><ele>331.0</ele><time>2026-05-02T13:47:52.001Z</time></trkpt><trkpt lat="45.94186358562824" lon="10.283888963379667"><ele>331.0</ele><time>2026-05-02T13:47:53.001Z</time></trkpt><trkpt lat="45.941781211074826" lon="10.283898624129208"><ele>331.0</ele><time>2026-05-02T13:47:54.001Z</time></trkpt><trkpt lat="45.94169229710634" lon="10.28393744481448"><ele>331.0</ele><time>2026-05-02T13:47:56.001Z</time></trkpt><trkpt lat="45.94169482843815" lon="10.284091134964868"><ele>331.0</ele><time>2026-05-02T13:47:58.001Z</time></trkpt><trkpt lat="45.94178135958453" lon="10.28413140604031"><ele>331.0</ele><time>2026-05-02T13:48:00.001Z</time></trkpt><trkpt lat="45.941873087560325" lon="10.284107767015932"><ele>336.5</ele><time>2026-05-02T13:48:01.001Z</time></trkpt><trkpt lat="45.941962446552125" lon="10.28406594965288"><ele>342.0</ele><time>2026-05-02T13:48:02.001Z</time></trkpt><trkpt lat="45.942063232437135" lon="10.284035772825549"><ele>347.5</ele><time>2026-05-02T13:48:03.001Z</time></trkpt><trkpt lat="45.94216488492276" lon="10.284017334745483"><ele>353.0</ele><time>2026-05-02T13:48:04.001Z</time></trkpt><trkpt lat="45.942238552785184" lon="10.284043732392275"><ele>358.5</ele><time>2026-05-02T13:48:05.001Z</time></trkpt><trkpt lat="45.94228341373184" lon="10.284107612507178"><ele>364.0</ele><time>2026-05-02T13:48:07.001Z</time></trkpt><trkpt lat="45.9421636833685" lon="10.284140251122146"><ele>364.0</ele><time>2026-05-02T13:48:12.001Z</time></trkpt><trkpt lat="45.942089589674076" lon="10.284135855732067"><ele>364.0</ele><time>2026-05-02T13:48:13.001Z</time></trkpt><trkpt lat="45.94202102362101" lon="10.28413428683299"><ele>364.0</ele><time>2026-05-02T13:48:14.001Z</time></trkpt><trkpt lat="45.942059466428745" lon="10.284216981066322"><ele>364.0</ele><time>2026-05-02T13:48:18Z</time></trkpt><trkpt lat="45.942208113050626" lon="10.284208727319186"><ele>364.0</ele><time>2026-05-02T13:48:21Z</time></trkpt><trkpt lat="45.94227725428784" lon="10.284186054242063"><ele>364.0</ele><time>2026-05-02T13:48:22Z</time></trkpt><trkpt lat="45.9423560992112" lon="10.284162461879903"><ele>364.0</ele><time>2026-05-02T13:48:23Z</time></trkpt><trkpt lat="45.94242713865502" lon="10.284125325429612"><ele>364.0</ele><time>2026-05-02T13:48:24Z</time></trkpt><trkpt lat="45.942493691043936" lon="10.284121499151714"><ele>364.0</ele><time>2026-05-02T13:48:25Z</time></trkpt><trkpt lat="45.94262233780427" lon="10.284101872615567"><ele>364.0</ele><time>2026-05-02T13:48:27Z</time></trkpt><trkpt lat="45.9426932186217" lon="10.284112985967722"><ele>364.0</ele><time>2026-05-02T13:48:28Z</time></trkpt><trkpt lat="45.94277771275129" lon="10.28407939229293"><ele>364.0</ele><time>2026-05-02T13:48:29Z</time></trkpt><trkpt lat="45.94284391817028" lon="10.284078513798972"><ele>362.8333333333333</ele><time>2026-05-02T13:48:30Z</time></trkpt><trkpt lat="45.94290272684502" lon="10.284017899394142"><ele>361.66666666666663</ele><time>2026-05-02T13:48:31Z</time></trkpt><trkpt lat="45.942953496160264" lon="10.28396216368653"><ele>360.5</ele><time>2026-05-02T13:48:32Z</time></trkpt><trkpt lat="45.943003922663515" lon="10.283874143582963"><ele>359.3333333333333</ele><time>2026-05-02T13:48:33Z</time></trkpt><trkpt lat="45.943108744606526" lon="10.283790023639426"><ele>358.1666666666667</ele><time>2026-05-02T13:48:35Z</time></trkpt><trkpt lat="45.94317289742744" lon="10.28374827011275"><ele>357.0</ele><time>2026-05-02T13:48:37Z</time></trkpt><trkpt lat="45.943250409888236" lon="10.283878259066118"><ele>364.75</ele><time>2026-05-02T13:48:39Z</time></trkpt><trkpt lat="45.943346834414285" lon="10.283980446392526"><ele>372.5</ele><time>2026-05-02T13:48:41Z</time></trkpt><trkpt lat="45.94345612602354" lon="10.284028782109036"><ele>380.25</ele><time>2026-05-02T13:48:43Z</time></trkpt><trkpt lat="45.943575042612174" lon="10.284002960847145"><ele>388.0</ele><time>2026-05-02T13:48:45Z</time></trkpt><trkpt lat="45.9436799057039" lon="10.283984771927797"><ele>385.4</ele><time>2026-05-02T13:48:47Z</time></trkpt><trkpt lat="45.9437360952805" lon="10.28392648437402"><ele>382.79999999999995</ele><time>2026-05-02T13:48:48Z</time></trkpt><trkpt lat="45.943825790446404" lon="10.283829230203743"><ele>380.2</ele><time>2026-05-02T13:48:50Z</time></trkpt><trkpt lat="45.9439272068483" lon="10.283737153107808"><ele>377.6</ele><time>2026-05-02T13:48:52Z</time></trkpt><trkpt lat="45.94395616243391" lon="10.283638881751992"><ele>375.0</ele><time>2026-05-02T13:48:54Z</time></trkpt><trkpt lat="45.943993564380584" lon="10.283751924444827"><ele>375.0</ele><time>2026-05-02T13:48:57Z</time></trkpt><trkpt lat="45.94403247096776" lon="10.283839226777328"><ele>375.0</ele><time>2026-05-02T13:48:58Z</time></trkpt><trkpt lat="45.94418494083567" lon="10.28387943552336"><ele>375.0</ele><time>2026-05-02T13:49:00Z</time></trkpt><trkpt lat="45.94427931670377" lon="10.283909747430116"><ele>375.0</ele><time>2026-05-02T13:49:01Z</time></trkpt><trkpt lat="45.944368838498356" lon="10.283926539366364"><ele>375.0</ele><time>2026-05-02T13:49:02Z</time></trkpt><trkpt lat="45.944454313265865" lon="10.283953162863469"><ele>384.4</ele><time>2026-05-02T13:49:03Z</time></trkpt><trkpt lat="45.94452487638159" lon="10.283954596647352"><ele>393.8</ele><time>2026-05-02T13:49:04Z</time></trkpt><trkpt lat="45.94460840148425" lon="10.283982634940527"><ele>403.20000000000005</ele><time>2026-05-02T13:49:06Z</time></trkpt><trkpt lat="45.94450232273135" lon="10.284040489937853"><ele>412.6</ele><time>2026-05-02T13:49:09Z</time></trkpt><trkpt lat="45.94439850915625" lon="10.284121157518085"><ele>422.0</ele><time>2026-05-02T13:49:11Z</time></trkpt><trkpt lat="45.944317901254905" lon="10.284208758112884"><ele>422.0</ele><time>2026-05-02T13:49:13Z</time></trkpt><trkpt lat="45.94428338164015" lon="10.28428616722025"><ele>422.0</ele><time>2026-05-02T13:49:16Z</time></trkpt><trkpt lat="45.94446382083576" lon="10.284241878709356"><ele>422.0</ele><time>2026-05-02T13:49:21Z</time></trkpt><trkpt lat="45.944575630806796" lon="10.284203325161974"><ele>422.0</ele><time>2026-05-02T13:49:23Z</time></trkpt><trkpt lat="45.94468940316975" lon="10.284220375005198"><ele>422.0</ele><time>2026-05-02T13:49:25Z</time></trkpt><trkpt lat="45.94480261437514" lon="10.284226725078893"><ele>422.0</ele><time>2026-05-02T13:49:27Z</time></trkpt><trkpt lat="45.944911196917396" lon="10.284214859251271"><ele>422.0</ele><time>2026-05-02T13:49:29Z</time></trkpt><trkpt lat="45.94502315920271" lon="10.284261098966732"><ele>422.0</ele><time>2026-05-02T13:49:31Z</time></trkpt><trkpt lat="45.9451048474909" lon="10.284250616224288"><ele>422.0</ele><time>2026-05-02T13:49:32Z</time></trkpt><trkpt lat="45.94519817558517" lon="10.284217150633982"><ele>420.49999999999994</ele><time>2026-05-02T13:49:33Z</time></trkpt><trkpt lat="45.945262906215504" lon="10.284241706790333"><ele>419.0</ele><time>2026-05-02T13:49:34Z</time></trkpt><trkpt lat="45.945331005087816" lon="10.284244110224167"><ele>417.5</ele><time>2026-05-02T13:49:35Z</time></trkpt><trkpt lat="45.945403572379945" lon="10.284280541767338"><ele>416.0</ele><time>2026-05-02T13:49:37Z</time></trkpt><trkpt lat="45.94538264208428" lon="10.284400877417111"><ele>414.49999999999994</ele><time>2026-05-02T13:49:39.001Z</time></trkpt><trkpt lat="45.94537016899097" lon="10.28451878017617"><ele>413.0</ele><time>2026-05-02T13:49:41.001Z</time></trkpt><trkpt lat="45.94522437604475" lon="10.284544118870325"><ele>413.0</ele><time>2026-05-02T13:49:43.001Z</time></trkpt><trkpt lat="45.9451715872048" lon="10.284614267176035"><ele>413.0</ele><time>2026-05-02T13:49:44.001Z</time></trkpt><trkpt lat="45.94512781188933" lon="10.284740079804253"><ele>413.0</ele><time>2026-05-02T13:49:45.001Z</time></trkpt><trkpt lat="45.94506459520884" lon="10.284887347648255"><ele>413.0</ele><time>2026-05-02T13:49:46.001Z</time></trkpt><trkpt lat="45.945024935469846" lon="10.285040407113568"><ele>413.0</ele><time>2026-05-02T13:49:47.001Z</time></trkpt><trkpt lat="45.94497093034215" lon="10.285225406479784"><ele>424.66666666666663</ele><time>2026-05-02T13:49:48.001Z</time></trkpt><trkpt lat="45.94493957005855" lon="10.285432642106517"><ele>436.33333333333337</ele><time>2026-05-02T13:49:49.001Z</time></trkpt><trkpt lat="45.94492086159102" lon="10.285639384365687"><ele>448.0</ele><time>2026-05-02T13:49:50.001Z</time></trkpt><trkpt lat="45.9449176548234" lon="10.28587835872352"><ele>450.2</ele><time>2026-05-02T13:49:51.001Z</time></trkpt><trkpt lat="45.94489706399646" lon="10.286049946774153"><ele>452.4</ele><time>2026-05-02T13:49:52.001Z</time></trkpt><trkpt lat="45.94480199269953" lon="10.286044587622413"><ele>454.59999999999997</ele><time>2026-05-02T13:49:54.001Z</time></trkpt><trkpt lat="45.94469580968296" lon="10.28605490766935"><ele>456.79999999999995</ele><time>2026-05-02T13:49:55.001Z</time></trkpt><trkpt lat="45.94459054014812" lon="10.286100262274333"><ele>459.0</ele><time>2026-05-02T13:49:56.001Z</time></trkpt><trkpt lat="45.94451992344977" lon="10.286117656590362"><ele>459.0</ele><time>2026-05-02T13:49:57.001Z</time></trkpt><trkpt lat="45.94448285405935" lon="10.286197134346464"><ele>459.0</ele><time>2026-05-02T13:50:03.001Z</time></trkpt><trkpt lat="45.94442394394293" lon="10.286149432517407"><ele>459.0</ele><time>2026-05-02T13:50:06.001Z</time></trkpt><trkpt lat="45.94435411812623" lon="10.28608563484712"><ele>459.0</ele><time>2026-05-02T13:50:08.001Z</time></trkpt><trkpt lat="45.944290523160895" lon="10.28600389002544"><ele>459.0</ele><time>2026-05-02T13:50:10.001Z</time></trkpt><trkpt lat="45.94420721851079" lon="10.285918685895684"><ele>459.0</ele><time>2026-05-02T13:50:12.001Z</time></trkpt><trkpt lat="45.944138673225744" lon="10.285819582267212"><ele>462.4</ele><time>2026-05-02T13:50:14.001Z</time></trkpt><trkpt lat="45.9440400790723" lon="10.285782133689562"><ele>465.79999999999995</ele><time>2026-05-02T13:50:16.001Z</time></trkpt><trkpt lat="45.94392561940064" lon="10.285815332019112"><ele>469.20000000000005</ele><time>2026-05-02T13:50:18.001Z</time></trkpt><trkpt lat="45.943843312841196" lon="10.285930791180364"><ele>472.6</ele><time>2026-05-02T13:50:20.001Z</time></trkpt><trkpt lat="45.943744451640825" lon="10.286014814318575"><ele>476.0</ele><time>2026-05-02T13:50:22Z</time></trkpt><trkpt lat="45.94365168090878" lon="10.286101092370533"><ele>476.0</ele><time>2026-05-02T13:50:24Z</time></trkpt><trkpt lat="45.94357488840955" lon="10.286201049533258"><ele>476.0</ele><time>2026-05-02T13:50:26Z</time></trkpt><trkpt lat="45.94354823857695" lon="10.286356172755944"><ele>476.0</ele><time>2026-05-02T13:50:28Z</time></trkpt><trkpt lat="45.94352614867204" lon="10.286496640824048"><ele>476.0</ele><time>2026-05-02T13:50:30Z</time></trkpt><trkpt lat="45.94351728793107" lon="10.28661968255972"><ele>476.0</ele><time>2026-05-02T13:50:32Z</time></trkpt><trkpt lat="45.94349848870162" lon="10.28673605526272"><ele>475.6</ele><time>2026-05-02T13:50:34Z</time></trkpt><trkpt lat="45.94345065273861" lon="10.286845908355767"><ele>475.20000000000005</ele><time>2026-05-02T13:50:36Z</time></trkpt><trkpt lat="45.94338050485201" lon="10.286934989728856"><ele>474.79999999999995</ele><time>2026-05-02T13:50:38Z</time></trkpt><trkpt lat="45.943316131822684" lon="10.287025981827046"><ele>474.4</ele><time>2026-05-02T13:50:40Z</time></trkpt><trkpt lat="45.94326264533679" lon="10.287148707038105"><ele>474.0</ele><time>2026-05-02T13:50:42Z</time></trkpt><trkpt lat="45.94323667856425" lon="10.287293038918163"><ele>471.79999999999995</ele><time>2026-05-02T13:50:44Z</time></trkpt><trkpt lat="45.94320199409098" lon="10.287434429545439"><ele>469.59999999999997</ele><time>2026-05-02T13:50:46Z</time></trkpt><trkpt lat="45.94319001538491" lon="10.287590370671753"><ele>467.4</ele><time>2026-05-02T13:50:48Z</time></trkpt><trkpt lat="45.943199559593566" lon="10.287733316252671"><ele>465.2</ele><time>2026-05-02T13:50:50Z</time></trkpt><trkpt lat="45.9432094570814" lon="10.2878804630841"><ele>463.0</ele><time>2026-05-02T13:50:52Z</time></trkpt><trkpt lat="45.94319583844873" lon="10.288043835733935"><ele>462.0</ele><time>2026-05-02T13:50:54Z</time></trkpt><trkpt lat="45.9431731364269" lon="10.288207101653926"><ele>460.99999999999994</ele><time>2026-05-02T13:50:56Z</time></trkpt><trkpt lat="45.943145842833296" lon="10.288363296489294"><ele>459.99999999999994</ele><time>2026-05-02T13:50:58Z</time></trkpt><trkpt lat="45.9431279976289" lon="10.288490781074389"><ele>459.0</ele><time>2026-05-02T13:51:00Z</time></trkpt><trkpt lat="45.94310873892446" lon="10.288593928298095"><ele>458.0</ele><time>2026-05-02T13:51:02Z</time></trkpt><trkpt lat="45.94320245352445" lon="10.288681332042488"><ele>458.0</ele><time>2026-05-02T13:51:07Z</time></trkpt><trkpt lat="45.94326834373443" lon="10.28860286398501"><ele>457.99999999999994</ele><time>2026-05-02T13:51:09Z</time></trkpt><trkpt lat="45.94330122629723" lon="10.288470147358312"><ele>457.99999999999994</ele><time>2026-05-02T13:51:11Z</time></trkpt><trkpt lat="45.94337552330785" lon="10.288324367072077"><ele>458.0</ele><time>2026-05-02T13:51:13Z</time></trkpt><trkpt lat="45.94341320212155" lon="10.28824112423942"><ele>458.0</ele><time>2026-05-02T13:51:14Z</time></trkpt><trkpt lat="45.94345566258088" lon="10.288148758301121"><ele>457.71428571428567</ele><time>2026-05-02T13:51:15Z</time></trkpt><trkpt lat="45.94348608572173" lon="10.288042908228755"><ele>457.42857142857144</ele><time>2026-05-02T13:51:16Z</time></trkpt><trkpt lat="45.94354115336842" lon="10.287953783569153"><ele>457.1428571428571</ele><time>2026-05-02T13:51:17Z</time></trkpt><trkpt lat="45.943593668764215" lon="10.287878745640304"><ele>456.85714285714283</ele><time>2026-05-02T13:51:18Z</time></trkpt><trkpt lat="45.94364198989215" lon="10.287803073870371"><ele>456.57142857142856</ele><time>2026-05-02T13:51:19Z</time></trkpt><trkpt lat="45.943685579744795" lon="10.287729367191034"><ele>456.2857142857143</ele><time>2026-05-02T13:51:20Z</time></trkpt><trkpt lat="45.94373969545787" lon="10.287672868664156"><ele>456.0</ele><time>2026-05-02T13:51:21Z</time></trkpt><trkpt lat="45.94380708174267" lon="10.287631961766593"><ele>456.0</ele><time>2026-05-02T13:51:22Z</time></trkpt><trkpt lat="45.94387264705118" lon="10.287602534326785"><ele>455.99999999999994</ele><time>2026-05-02T13:51:23Z</time></trkpt><trkpt lat="45.94393369187417" lon="10.287564175143682"><ele>456.0</ele><time>2026-05-02T13:51:24Z</time></trkpt><trkpt lat="45.94399140817834" lon="10.287519195893896"><ele>456.0</ele><time>2026-05-02T13:51:25Z</time></trkpt><trkpt lat="45.944055413127614" lon="10.28749550994354"><ele>455.99999999999994</ele><time>2026-05-02T13:51:26Z</time></trkpt><trkpt lat="45.94412144833171" lon="10.287502846373874"><ele>456.0</ele><time>2026-05-02T13:51:27Z</time></trkpt><trkpt lat="45.94418904263635" lon="10.287513517037498"><ele>456.0</ele><time>2026-05-02T13:51:28Z</time></trkpt><trkpt lat="45.944267937178196" lon="10.287547417416778"><ele>457.0</ele><time>2026-05-02T13:51:29Z</time></trkpt><trkpt lat="45.94434473643276" lon="10.287569942667686"><ele>458.0</ele><time>2026-05-02T13:51:30Z</time></trkpt><trkpt lat="45.944439479680945" lon="10.28758217982135"><ele>459.0</ele><time>2026-05-02T13:51:31Z</time></trkpt><trkpt lat="45.94452842231372" lon="10.2875750572314"><ele>460.0</ele><time>2026-05-02T13:51:32Z</time></trkpt><trkpt lat="45.944616162782" lon="10.287561825925772"><ele>461.0</ele><time>2026-05-02T13:51:33Z</time></trkpt><trkpt lat="45.94470349142685" lon="10.287575251334127"><ele>462.0</ele><time>2026-05-02T13:51:34Z</time></trkpt><trkpt lat="45.94478536958379" lon="10.287599427042725"><ele>462.0</ele><time>2026-05-02T13:51:35Z</time></trkpt><trkpt lat="45.944856547591215" lon="10.287632682443219"><ele>462.00000000000006</ele><time>2026-05-02T13:51:36Z</time></trkpt><trkpt lat="45.944919166088695" lon="10.287676072122427"><ele>462.00000000000006</ele><time>2026-05-02T13:51:37Z</time></trkpt><trkpt lat="45.94500860581727" lon="10.287797946616125"><ele>462.0</ele><time>2026-05-02T13:51:39Z</time></trkpt><trkpt lat="45.945087626585014" lon="10.287923260248444"><ele>462.0</ele><time>2026-05-02T13:51:41Z</time></trkpt><trkpt lat="45.94515841272945" lon="10.288026962616556"><ele>460.3333333333333</ele><time>2026-05-02T13:51:43Z</time></trkpt><trkpt lat="45.9452256239649" lon="10.288129740121299"><ele>458.66666666666663</ele><time>2026-05-02T13:51:45Z</time></trkpt><trkpt lat="45.945301175935576" lon="10.288206912011963"><ele>457.0</ele><time>2026-05-02T13:51:47Z</time></trkpt><trkpt lat="45.94537074649691" lon="10.288292529693715"><ele>455.3333333333333</ele><time>2026-05-02T13:51:49Z</time></trkpt><trkpt lat="45.94544310759326" lon="10.288350064938333"><ele>453.66666666666663</ele><time>2026-05-02T13:51:51Z</time></trkpt><trkpt lat="45.945518376970256" lon="10.28837657989675"><ele>452.0</ele><time>2026-05-02T13:51:53Z</time></trkpt><trkpt lat="45.945586529408004" lon="10.288388148201213"><ele>452.0</ele><time>2026-05-02T13:51:55Z</time></trkpt><trkpt lat="45.945685397509116" lon="10.288387929528122"><ele>452.00000000000006</ele><time>2026-05-02T13:51:58Z</time></trkpt><trkpt lat="45.94579503100208" lon="10.288360247774945"><ele>452.00000000000006</ele><time>2026-05-02T13:52:00Z</time></trkpt><trkpt lat="45.94589439484447" lon="10.288355650596056"><ele>452.0</ele><time>2026-05-02T13:52:02Z</time></trkpt><trkpt lat="45.945991583993944" lon="10.28832416081217"><ele>452.0</ele><time>2026-05-02T13:52:04Z</time></trkpt><trkpt lat="45.94606882938471" lon="10.288289856300759"><ele>449.66666666666663</ele><time>2026-05-02T13:52:06Z</time></trkpt><trkpt lat="45.94613886813809" lon="10.288267313828527"><ele>447.3333333333333</ele><time>2026-05-02T13:52:08.001Z</time></trkpt><trkpt lat="45.94623380093387" lon="10.288305824927772"><ele>445.0</ele><time>2026-05-02T13:52:11.001Z</time></trkpt><trkpt lat="45.94631264337169" lon="10.288305233250428"><ele>442.66666666666663</ele><time>2026-05-02T13:52:13.001Z</time></trkpt><trkpt lat="45.946398446255095" lon="10.28834416354347"><ele>440.3333333333333</ele><time>2026-05-02T13:52:15.001Z</time></trkpt><trkpt lat="45.946484939893466" lon="10.288353357143533"><ele>438.0</ele><time>2026-05-02T13:52:17.001Z</time></trkpt><trkpt lat="45.94655035396385" lon="10.288344141705442"><ele>438.0</ele><time>2026-05-02T13:52:19.001Z</time></trkpt><trkpt lat="45.94663729112175" lon="10.288314230543353"><ele>438.0</ele><time>2026-05-02T13:52:21.001Z</time></trkpt><trkpt lat="45.946702590035464" lon="10.288252029178343"><ele>438.0</ele><time>2026-05-02T13:52:23.001Z</time></trkpt><trkpt lat="45.94681886229054" lon="10.288214020189919"><ele>438.0</ele><time>2026-05-02T13:52:25.001Z</time></trkpt><trkpt lat="45.94687959989642" lon="10.288141949963057"><ele>438.0</ele><time>2026-05-02T13:52:26.001Z</time></trkpt><trkpt lat="45.946935991660204" lon="10.288091548147005"><ele>438.0</ele><time>2026-05-02T13:52:27.001Z</time></trkpt><trkpt lat="45.94701921549096" lon="10.287987407905897"><ele>436.3333333333333</ele><time>2026-05-02T13:52:29Z</time></trkpt><trkpt lat="45.94707905268858" lon="10.287901095127202"><ele>434.66666666666663</ele><time>2026-05-02T13:52:31Z</time></trkpt><trkpt lat="45.94713840814206" lon="10.28785082811069"><ele>433.0</ele><time>2026-05-02T13:52:33Z</time></trkpt><trkpt lat="45.9471856092866" lon="10.287927405854377"><ele>431.3333333333333</ele><time>2026-05-02T13:52:36Z</time></trkpt><trkpt lat="45.94715974256823" lon="10.288070167466858"><ele>429.66666666666663</ele><time>2026-05-02T13:52:38Z</time></trkpt><trkpt lat="45.94714575826604" lon="10.288158857105326"><ele>428.0</ele><time>2026-05-02T13:52:39Z</time></trkpt><trkpt lat="45.94718566597796" lon="10.28833352497961"><ele>426.8333333333333</ele><time>2026-05-02T13:52:41Z</time></trkpt><trkpt lat="45.94721699670478" lon="10.288416857617307"><ele>425.66666666666663</ele><time>2026-05-02T13:52:42Z</time></trkpt><trkpt lat="45.94727162451359" lon="10.28856122967848"><ele>424.5</ele><time>2026-05-02T13:52:44Z</time></trkpt><trkpt lat="45.947300473741656" lon="10.288713266851117"><ele>423.33333333333337</ele><time>2026-05-02T13:52:46Z</time></trkpt><trkpt lat="45.947312509113814" lon="10.288803267047298"><ele>422.1666666666667</ele><time>2026-05-02T13:52:47Z</time></trkpt><trkpt lat="45.94732485969257" lon="10.288900166957195"><ele>421.0</ele><time>2026-05-02T13:52:48Z</time></trkpt><trkpt lat="45.947341929671914" lon="10.288991125894572"><ele>420.8</ele><time>2026-05-02T13:52:49Z</time></trkpt><trkpt lat="45.947376978442826" lon="10.28916626603183"><ele>420.6</ele><time>2026-05-02T13:52:51Z</time></trkpt><trkpt lat="45.94737653912662" lon="10.289260154188435"><ele>420.4</ele><time>2026-05-02T13:52:52Z</time></trkpt><trkpt lat="45.947386846359905" lon="10.289433048820241"><ele>420.2</ele><time>2026-05-02T13:52:54Z</time></trkpt><trkpt lat="45.94739633452187" lon="10.289536920162977"><ele>420.0</ele><time>2026-05-02T13:52:55Z</time></trkpt><trkpt lat="45.94741954784511" lon="10.289626490972665"><ele>420.0</ele><time>2026-05-02T13:52:56Z</time></trkpt><trkpt lat="45.947438036506576" lon="10.2897202751564"><ele>420.0</ele><time>2026-05-02T13:52:57Z</time></trkpt><trkpt lat="45.94746617607884" lon="10.289888182651602"><ele>420.0</ele><time>2026-05-02T13:52:59Z</time></trkpt><trkpt lat="45.94748909892094" lon="10.290053205489892"><ele>420.0</ele><time>2026-05-02T13:53:01Z</time></trkpt><trkpt lat="45.94749736572746" lon="10.290194615910831"><ele>420.0</ele><time>2026-05-02T13:53:03Z</time></trkpt><trkpt lat="45.94752211247336" lon="10.290344780601444"><ele>420.0</ele><time>2026-05-02T13:53:05Z</time></trkpt><trkpt lat="45.94742723654442" lon="10.29049068473885"><ele>420.0</ele><time>2026-05-02T13:53:07Z</time></trkpt><trkpt lat="45.94752349096148" lon="10.290602304423206"><ele>420.0</ele><time>2026-05-02T13:53:10Z</time></trkpt><trkpt lat="45.947486053644525" lon="10.290692549223417"><ele>420.0</ele><time>2026-05-02T13:53:25Z</time></trkpt><trkpt lat="45.947478579662366" lon="10.290818865376467"><ele>420.0</ele><time>2026-05-02T13:53:28Z</time></trkpt><trkpt lat="45.947460441423374" lon="10.290938850642691"><ele>420.3333333333333</ele><time>2026-05-02T13:53:31Z</time></trkpt><trkpt lat="45.947455951736785" lon="10.291035224680693"><ele>420.66666666666663</ele><time>2026-05-02T13:53:33Z</time></trkpt><trkpt lat="45.9474414201447" lon="10.291141109252965"><ele>421.0</ele><time>2026-05-02T13:53:35Z</time></trkpt><trkpt lat="45.94742455571746" lon="10.29128060759752"><ele>421.3333333333333</ele><time>2026-05-02T13:53:37Z</time></trkpt><trkpt lat="45.94739842067289" lon="10.291399901038318"><ele>421.66666666666663</ele><time>2026-05-02T13:53:39Z</time></trkpt><trkpt lat="45.947372436018796" lon="10.291498341789017"><ele>422.0</ele><time>2026-05-02T13:53:41Z</time></trkpt><trkpt lat="45.94734424828511" lon="10.291603863688346"><ele>420.99999999999994</ele><time>2026-05-02T13:53:43Z</time></trkpt><trkpt lat="45.94731188089226" lon="10.291683507084652"><ele>420.0</ele><time>2026-05-02T13:53:45Z</time></trkpt><trkpt lat="45.94734377807824" lon="10.291767494467862"><ele>419.0</ele><time>2026-05-02T13:53:51Z</time></trkpt><trkpt lat="45.94744966269187" lon="10.291738450054051"><ele>418.0</ele><time>2026-05-02T13:53:53Z</time></trkpt><trkpt lat="45.94754521175179" lon="10.291717010913077"><ele>416.99999999999994</ele><time>2026-05-02T13:53:55Z</time></trkpt><trkpt lat="45.94763475717439" lon="10.291693800960118"><ele>416.0</ele><time>2026-05-02T13:53:57Z</time></trkpt><trkpt lat="45.94771434847518" lon="10.291616685216571"><ele>411.8</ele><time>2026-05-02T13:53:59Z</time></trkpt><trkpt lat="45.94776863284535" lon="10.291480261757162"><ele>407.6</ele><time>2026-05-02T13:54:01Z</time></trkpt><trkpt lat="45.947838683272956" lon="10.291362723254386"><ele>403.4</ele><time>2026-05-02T13:54:03Z</time></trkpt><trkpt lat="45.947910308713624" lon="10.291258460550047"><ele>399.2</ele><time>2026-05-02T13:54:05Z</time></trkpt><trkpt lat="45.94799100755634" lon="10.291181209929343"><ele>395.0</ele><time>2026-05-02T13:54:07Z</time></trkpt><trkpt lat="45.94807371295509" lon="10.291077939152"><ele>395.0</ele><time>2026-05-02T13:54:09Z</time></trkpt><trkpt lat="45.9481818173101" lon="10.291018228585028"><ele>395.0</ele><time>2026-05-02T13:54:11Z</time></trkpt><trkpt lat="45.948291426777246" lon="10.290949396974582"><ele>395.0</ele><time>2026-05-02T13:54:13Z</time></trkpt><trkpt lat="45.94839911973481" lon="10.290877082164153"><ele>395.0</ele><time>2026-05-02T13:54:15Z</time></trkpt><trkpt lat="45.94845491576962" lon="10.290834168068843"><ele>395.0</ele><time>2026-05-02T13:54:16Z</time></trkpt><trkpt lat="45.94854727219053" lon="10.290731721599913"><ele>392.4</ele><time>2026-05-02T13:54:18Z</time></trkpt><trkpt lat="45.94862135143363" lon="10.290595888526944"><ele>389.8</ele><time>2026-05-02T13:54:20Z</time></trkpt><trkpt lat="45.94868137597828" lon="10.290470927332366"><ele>387.20000000000005</ele><time>2026-05-02T13:54:22Z</time></trkpt><trkpt lat="45.94873125149916" lon="10.290385999501028"><ele>384.6</ele><time>2026-05-02T13:54:24Z</time></trkpt><trkpt lat="45.94882085941924" lon="10.290404812557371"><ele>382.0</ele><time>2026-05-02T13:54:26Z</time></trkpt><trkpt lat="45.94888114686131" lon="10.290431197626676"><ele>381.66666666666663</ele><time>2026-05-02T13:54:27Z</time></trkpt><trkpt lat="45.94894819435828" lon="10.290446067664599"><ele>381.3333333333333</ele><time>2026-05-02T13:54:28Z</time></trkpt><trkpt lat="45.94901137568182" lon="10.290454286358536"><ele>381.0</ele><time>2026-05-02T13:54:29Z</time></trkpt><trkpt lat="45.949071485310334" lon="10.290390113635628"><ele>380.6666666666667</ele><time>2026-05-02T13:54:30Z</time></trkpt><trkpt lat="45.94917036176502" lon="10.290308207067277"><ele>380.33333333333337</ele><time>2026-05-02T13:54:32Z</time></trkpt><trkpt lat="45.949255594139345" lon="10.290238674008368"><ele>380.0</ele><time>2026-05-02T13:54:34Z</time></trkpt><trkpt lat="45.949325828816434" lon="10.29015734902743"><ele>380.0</ele><time>2026-05-02T13:54:36Z</time></trkpt><trkpt lat="45.949382093674664" lon="10.290052971124977"><ele>380.0</ele><time>2026-05-02T13:54:38Z</time></trkpt><trkpt lat="45.94946237328198" lon="10.289943071775934"><ele>380.0</ele><time>2026-05-02T13:54:40Z</time></trkpt><trkpt lat="45.94949864141003" lon="10.289824620491135"><ele>380.0</ele><time>2026-05-02T13:54:42Z</time></trkpt><trkpt lat="45.94955284539817" lon="10.289688517471387"><ele>380.0</ele><time>2026-05-02T13:54:44Z</time></trkpt><trkpt lat="45.94961114136808" lon="10.289589792980209"><ele>378.2</ele><time>2026-05-02T13:54:46Z</time></trkpt><trkpt lat="45.9497205051238" lon="10.289541869033435"><ele>376.4</ele><time>2026-05-02T13:54:48Z</time></trkpt><trkpt lat="45.94980739007794" lon="10.289484496425919"><ele>374.6</ele><time>2026-05-02T13:54:50Z</time></trkpt><trkpt lat="45.94987307187439" lon="10.289457983341183"><ele>372.8</ele><time>2026-05-02T13:54:52Z</time></trkpt><trkpt lat="45.94993240852499" lon="10.289396377450881"><ele>371.0</ele><time>2026-05-02T13:54:54Z</time></trkpt><trkpt lat="45.949887243162884" lon="10.289211610288248"><ele>371.0</ele><time>2026-05-02T13:54:56Z</time></trkpt><trkpt lat="45.94985565382365" lon="10.28909069361882"><ele>371.0</ele><time>2026-05-02T13:54:58Z</time></trkpt><trkpt lat="45.94991881842118" lon="10.28905550886055"><ele>371.0</ele><time>2026-05-02T13:55:01Z</time></trkpt><trkpt lat="45.950011157809506" lon="10.289359670719461"><ele>371.0</ele><time>2026-05-02T13:55:02Z</time></trkpt><trkpt lat="45.95000434252106" lon="10.289095885764542"><ele>370.4</ele><time>2026-05-02T13:55:03Z</time></trkpt><trkpt lat="45.95005236343388" lon="10.288991789745733"><ele>369.8</ele><time>2026-05-02T13:55:07Z</time></trkpt><trkpt lat="45.95003016337148" lon="10.288870644394775"><ele>369.2</ele><time>2026-05-02T13:55:09Z</time></trkpt><trkpt lat="45.950020263002905" lon="10.288723461562952"><ele>368.59999999999997</ele><time>2026-05-02T13:55:11Z</time></trkpt><trkpt lat="45.950053995585556" lon="10.288579709278144"><ele>368.0</ele><time>2026-05-02T13:55:13Z</time></trkpt><trkpt lat="45.95008700721062" lon="10.288429064201758"><ele>364.6666666666667</ele><time>2026-05-02T13:55:15Z</time></trkpt><trkpt lat="45.95011480659081" lon="10.28830456279357"><ele>361.33333333333337</ele><time>2026-05-02T13:55:17Z</time></trkpt><trkpt lat="45.95013144082074" lon="10.288207093828522"><ele>358.0</ele><time>2026-05-02T13:55:19Z</time></trkpt><trkpt lat="45.950153835875234" lon="10.288071580646337"><ele>354.6666666666667</ele><time>2026-05-02T13:55:22Z</time></trkpt><trkpt lat="45.95014377381972" lon="10.287935247209726"><ele>351.3333333333333</ele><time>2026-05-02T13:55:25Z</time></trkpt><trkpt lat="45.95013334604003" lon="10.287801868070224"><ele>348.0</ele><time>2026-05-02T13:55:27Z</time></trkpt><trkpt lat="45.95013558490944" lon="10.287687636188666"><ele>347.59999999999997</ele><time>2026-05-02T13:55:29Z</time></trkpt><trkpt lat="45.95015551276287" lon="10.287542029186538"><ele>347.2</ele><time>2026-05-02T13:55:31Z</time></trkpt><trkpt lat="45.950178318555785" lon="10.287390914872251"><ele>346.8</ele><time>2026-05-02T13:55:33Z</time></trkpt><trkpt lat="45.950193031261556" lon="10.28725673085096"><ele>346.4</ele><time>2026-05-02T13:55:35Z</time></trkpt><trkpt lat="45.950202802586986" lon="10.287122399361955"><ele>346.0</ele><time>2026-05-02T13:55:37Z</time></trkpt><trkpt lat="45.950222205133635" lon="10.286994828241424"><ele>347.20000000000005</ele><time>2026-05-02T13:55:39Z</time></trkpt><trkpt lat="45.95024644102331" lon="10.286869741181924"><ele>348.40000000000003</ele><time>2026-05-02T13:55:41Z</time></trkpt><trkpt lat="45.95025392735424" lon="10.28672727791349"><ele>349.6</ele><time>2026-05-02T13:55:43Z</time></trkpt><trkpt lat="45.950263938982765" lon="10.2865902266755"><ele>350.8</ele><time>2026-05-02T13:55:45Z</time></trkpt><trkpt lat="45.950316859509826" lon="10.286470887006534"><ele>352.0</ele><time>2026-05-02T13:55:47Z</time></trkpt><trkpt lat="45.95037396911981" lon="10.28633018956865"><ele>353.8</ele><time>2026-05-02T13:55:49Z</time></trkpt><trkpt lat="45.95043045598712" lon="10.286208890956935"><ele>355.6</ele><time>2026-05-02T13:55:51Z</time></trkpt><trkpt lat="45.950470977047495" lon="10.286096294877622"><ele>357.40000000000003</ele><time>2026-05-02T13:55:53Z</time></trkpt><trkpt lat="45.950514034624014" lon="10.285977340929332"><ele>359.20000000000005</ele><time>2026-05-02T13:55:55Z</time></trkpt><trkpt lat="45.95052402088944" lon="10.28582157804764"><ele>361.0</ele><time>2026-05-02T13:55:57Z</time></trkpt><trkpt lat="45.950542413122555" lon="10.285663185466063"><ele>362.6</ele><time>2026-05-02T13:55:59Z</time></trkpt><trkpt lat="45.95054379693482" lon="10.285532503490217"><ele>364.20000000000005</ele><time>2026-05-02T13:56:01Z</time></trkpt><trkpt lat="45.95055340091074" lon="10.28539564668186"><ele>365.79999999999995</ele><time>2026-05-02T13:56:03Z</time></trkpt><trkpt lat="45.9505218104597" lon="10.285268373363193"><ele>367.4</ele><time>2026-05-02T13:56:05Z</time></trkpt><trkpt lat="45.95044722386706" lon="10.285158111426737"><ele>369.0</ele><time>2026-05-02T13:56:07Z</time></trkpt><trkpt lat="45.95041164175661" lon="10.285043109709436"><ele>369.0</ele><time>2026-05-02T13:56:09Z</time></trkpt><trkpt lat="45.95038748430188" lon="10.284911357990595"><ele>369.0</ele><time>2026-05-02T13:56:11Z</time></trkpt><trkpt lat="45.95038000917609" lon="10.28475785015395"><ele>369.0</ele><time>2026-05-02T13:56:13Z</time></trkpt><trkpt lat="45.95037644488319" lon="10.284615276662958"><ele>369.0</ele><time>2026-05-02T13:56:15Z</time></trkpt><trkpt lat="45.95038022672674" lon="10.28446626067648"><ele>369.0</ele><time>2026-05-02T13:56:17Z</time></trkpt><trkpt lat="45.950374646511456" lon="10.28431894826556"><ele>369.2</ele><time>2026-05-02T13:56:19Z</time></trkpt><trkpt lat="45.950361281687826" lon="10.28418031090069"><ele>369.4</ele><time>2026-05-02T13:56:21Z</time></trkpt><trkpt lat="45.95032998813265" lon="10.284051509189675"><ele>369.6</ele><time>2026-05-02T13:56:23Z</time></trkpt><trkpt lat="45.950301041355516" lon="10.283935790052954"><ele>369.8</ele><time>2026-05-02T13:56:25Z</time></trkpt><trkpt lat="45.95023027799985" lon="10.28383710156853"><ele>370.0</ele><time>2026-05-02T13:56:27Z</time></trkpt><trkpt lat="45.95013618394628" lon="10.283811388468186"><ele>369.0</ele><time>2026-05-02T13:56:29Z</time></trkpt><trkpt lat="45.95004700403211" lon="10.283838371312658"><ele>368.0</ele><time>2026-05-02T13:56:31Z</time></trkpt><trkpt lat="45.94998114995113" lon="10.283847852720907"><ele>367.0</ele><time>2026-05-02T13:56:32Z</time></trkpt><trkpt lat="45.94990934341455" lon="10.28385237329834"><ele>366.0</ele><time>2026-05-02T13:56:33Z</time></trkpt><trkpt lat="45.94984710065029" lon="10.283870327490016"><ele>365.0</ele><time>2026-05-02T13:56:34Z</time></trkpt><trkpt lat="45.94973845785383" lon="10.283885049505734"><ele>364.0</ele><time>2026-05-02T13:56:36Z</time></trkpt><trkpt lat="45.94965654911067" lon="10.283870733278222"><ele>364.0</ele><time>2026-05-02T13:56:38Z</time></trkpt><trkpt lat="45.94956533671918" lon="10.28379985046601"><ele>364.0</ele><time>2026-05-02T13:56:40Z</time></trkpt><trkpt lat="45.94951896463446" lon="10.28368480264981"><ele>364.0</ele><time>2026-05-02T13:56:42Z</time></trkpt><trkpt lat="45.94946759662889" lon="10.283585097935331"><ele>364.0</ele><time>2026-05-02T13:56:44Z</time></trkpt><trkpt lat="45.94942811130982" lon="10.283508941560969"><ele>364.0</ele><time>2026-05-02T13:56:46Z</time></trkpt><trkpt lat="45.94945912696081" lon="10.283406217681222"><ele>364.0</ele><time>2026-05-02T13:56:48Z</time></trkpt><trkpt lat="45.949497798140165" lon="10.283282966643517"><ele>364.0</ele><time>2026-05-02T13:56:50Z</time></trkpt><trkpt lat="45.949512438785646" lon="10.283157519032546"><ele>364.0</ele><time>2026-05-02T13:56:52Z</time></trkpt><trkpt lat="45.949470203844946" lon="10.283052620192986"><ele>364.0</ele><time>2026-05-02T13:56:54Z</time></trkpt><trkpt lat="45.94941063642937" lon="10.282917970222123"><ele>364.0</ele><time>2026-05-02T13:56:56Z</time></trkpt><trkpt lat="45.94935142301166" lon="10.28279458593758"><ele>364.0</ele><time>2026-05-02T13:56:58Z</time></trkpt><trkpt lat="45.94929963985425" lon="10.282681266333887"><ele>364.4</ele><time>2026-05-02T13:57:00Z</time></trkpt><trkpt lat="45.949217772129366" lon="10.282573851598151"><ele>364.79999999999995</ele><time>2026-05-02T13:57:02Z</time></trkpt><trkpt lat="45.949137031377646" lon="10.282467879617155"><ele>365.20000000000005</ele><time>2026-05-02T13:57:04Z</time></trkpt><trkpt lat="45.949070872510944" lon="10.282364572805186"><ele>365.6</ele><time>2026-05-02T13:57:06Z</time></trkpt><trkpt lat="45.94903389608697" lon="10.282286704958642"><ele>366.0</ele><time>2026-05-02T13:57:08Z</time></trkpt><trkpt lat="45.948910914443076" lon="10.282312093133049"><ele>366.0</ele><time>2026-05-02T13:57:10Z</time></trkpt><trkpt lat="45.94881885948539" lon="10.282328418699809"><ele>366.0</ele><time>2026-05-02T13:57:11Z</time></trkpt><trkpt lat="45.94873453485801" lon="10.282364035579153"><ele>366.0</ele><time>2026-05-02T13:57:12Z</time></trkpt><trkpt lat="45.94864815035624" lon="10.282387031588351"><ele>366.0</ele><time>2026-05-02T13:57:13Z</time></trkpt><trkpt lat="45.94855592607406" lon="10.282417346056498"><ele>366.0</ele><time>2026-05-02T13:57:14Z</time></trkpt><trkpt lat="45.94843557876427" lon="10.28240570179122"><ele>363.4</ele><time>2026-05-02T13:57:15Z</time></trkpt><trkpt lat="45.948326103425465" lon="10.282404658525394"><ele>360.8</ele><time>2026-05-02T13:57:16Z</time></trkpt><trkpt lat="45.948230856232335" lon="10.282388528641208"><ele>358.2</ele><time>2026-05-02T13:57:17Z</time></trkpt><trkpt lat="45.948138308597244" lon="10.28233727682363"><ele>355.59999999999997</ele><time>2026-05-02T13:57:18Z</time></trkpt><trkpt lat="45.94808216100695" lon="10.28228247651202"><ele>353.0</ele><time>2026-05-02T13:57:19Z</time></trkpt><trkpt lat="45.94801811952137" lon="10.28218978213358"><ele>353.0</ele><time>2026-05-02T13:57:20Z</time></trkpt><trkpt lat="45.94795181405574" lon="10.282138070731847"><ele>353.0</ele><time>2026-05-02T13:57:21Z</time></trkpt><trkpt lat="45.94787041382739" lon="10.28206198678607"><ele>353.0</ele><time>2026-05-02T13:57:22Z</time></trkpt><trkpt lat="45.94780559732952" lon="10.28198672255855"><ele>353.0</ele><time>2026-05-02T13:57:23Z</time></trkpt><trkpt lat="45.947748667379805" lon="10.281892278982946"><ele>353.0</ele><time>2026-05-02T13:57:24Z</time></trkpt><trkpt lat="45.94771644128302" lon="10.281796987737174"><ele>353.0</ele><time>2026-05-02T13:57:25Z</time></trkpt><trkpt lat="45.94770347012094" lon="10.281652197910304"><ele>353.0</ele><time>2026-05-02T13:57:26Z</time></trkpt><trkpt lat="45.94774973484709" lon="10.281517154540024"><ele>353.0</ele><time>2026-05-02T13:57:27Z</time></trkpt><trkpt lat="45.94775827665425" lon="10.281388959556635"><ele>353.0</ele><time>2026-05-02T13:57:28Z</time></trkpt><trkpt lat="45.947728256153155" lon="10.281292226288445"><ele>353.0</ele><time>2026-05-02T13:57:29Z</time></trkpt><trkpt lat="45.94768125474367" lon="10.281226918625993"><ele>353.0</ele><time>2026-05-02T13:57:30Z</time></trkpt><trkpt lat="45.94757082468925" lon="10.281128168129966"><ele>354.0</ele><time>2026-05-02T13:57:32Z</time></trkpt><trkpt lat="45.94750794873965" lon="10.281055146937383"><ele>355.0</ele><time>2026-05-02T13:57:33Z</time></trkpt><trkpt lat="45.94744876346845" lon="10.281002198980055"><ele>356.0</ele><time>2026-05-02T13:57:34Z</time></trkpt><trkpt lat="45.947383902863685" lon="10.280990230199388"><ele>357.0</ele><time>2026-05-02T13:57:35Z</time></trkpt><trkpt lat="45.94729057500846" lon="10.28101427055186"><ele>358.0</ele><time>2026-05-02T13:57:36Z</time></trkpt><trkpt lat="45.947189208222326" lon="10.281057026066376"><ele>359.0</ele><time>2026-05-02T13:57:37Z</time></trkpt><trkpt lat="45.94710175555108" lon="10.281097770049959"><ele>359.0</ele><time>2026-05-02T13:57:38Z</time></trkpt><trkpt lat="45.94700304024105" lon="10.28117478150969"><ele>359.0</ele><time>2026-05-02T13:57:39Z</time></trkpt><trkpt lat="45.946928110842265" lon="10.281204175727806"><ele>359.0</ele><time>2026-05-02T13:57:40Z</time></trkpt><trkpt lat="45.94680096648634" lon="10.28124953134456"><ele>359.0</ele><time>2026-05-02T13:57:42Z</time></trkpt><trkpt lat="45.94668951875156" lon="10.281178987709925"><ele>359.0</ele><time>2026-05-02T13:57:44Z</time></trkpt><trkpt lat="45.94662759204201" lon="10.281152701966077"><ele>357.0</ele><time>2026-05-02T13:57:45Z</time></trkpt><trkpt lat="45.94655687242041" lon="10.281136585463774"><ele>355.0</ele><time>2026-05-02T13:57:46Z</time></trkpt><trkpt lat="45.94644914355863" lon="10.281078184318027"><ele>353.0</ele><time>2026-05-02T13:57:48Z</time></trkpt><trkpt lat="45.94637070594774" lon="10.280978368675672"><ele>351.0</ele><time>2026-05-02T13:57:50Z</time></trkpt><trkpt lat="45.94625488340019" lon="10.280921491007708"><ele>349.0</ele><time>2026-05-02T13:57:52Z</time></trkpt><trkpt lat="45.94614492653796" lon="10.280938898483859"><ele>349.0</ele><time>2026-05-02T13:57:54Z</time></trkpt><trkpt lat="45.94603938568864" lon="10.280959552912702"><ele>349.0</ele><time>2026-05-02T13:57:56Z</time></trkpt><trkpt lat="45.94594415555877" lon="10.280971530229532"><ele>349.0</ele><time>2026-05-02T13:57:57Z</time></trkpt><trkpt lat="45.9458562617989" lon="10.280999408687704"><ele>349.0</ele><time>2026-05-02T13:57:58Z</time></trkpt><trkpt lat="45.945760344272784" lon="10.281100694751895"><ele>349.0</ele><time>2026-05-02T13:58:00Z</time></trkpt><trkpt lat="45.94572556467935" lon="10.281182524264903"><ele>346.3333333333333</ele><time>2026-05-02T13:58:01Z</time></trkpt><trkpt lat="45.94566308541298" lon="10.281238351196388"><ele>343.66666666666663</ele><time>2026-05-02T13:58:02Z</time></trkpt><trkpt lat="45.94561594891294" lon="10.281325386717175"><ele>341.0</ele><time>2026-05-02T13:58:03Z</time></trkpt><trkpt lat="45.94553525075931" lon="10.281344851917094"><ele>338.3333333333333</ele><time>2026-05-02T13:58:04Z</time></trkpt><trkpt lat="45.945461250662234" lon="10.281367159264034"><ele>335.6666666666667</ele><time>2026-05-02T13:58:05Z</time></trkpt><trkpt lat="45.94540171279019" lon="10.281405741248456"><ele>333.0</ele><time>2026-05-02T13:58:06Z</time></trkpt><trkpt lat="45.945287243890895" lon="10.28142988248246"><ele>333.8333333333333</ele><time>2026-05-02T13:58:08Z</time></trkpt><trkpt lat="45.945220036660714" lon="10.281578361491071"><ele>334.6666666666667</ele><time>2026-05-02T13:58:10Z</time></trkpt><trkpt lat="45.945163846658836" lon="10.281623684024513"><ele>335.5</ele><time>2026-05-02T13:58:11Z</time></trkpt><trkpt lat="45.945105158860834" lon="10.281660899751943"><ele>336.33333333333337</ele><time>2026-05-02T13:58:12Z</time></trkpt><trkpt lat="45.94505169347834" lon="10.28171473625442"><ele>337.1666666666667</ele><time>2026-05-02T13:58:13Z</time></trkpt><trkpt lat="45.94495561143187" lon="10.28183940336655"><ele>338.0</ele><time>2026-05-02T13:58:15Z</time></trkpt><trkpt lat="45.9448917734072" lon="10.281869725584137"><ele>338.0</ele><time>2026-05-02T13:58:16Z</time></trkpt><trkpt lat="45.94478962342917" lon="10.281928961089358"><ele>338.0</ele><time>2026-05-02T13:58:18Z</time></trkpt><trkpt lat="45.94467295545335" lon="10.281897770265743"><ele>338.0</ele><time>2026-05-02T13:58:20Z</time></trkpt><trkpt lat="45.944602327457986" lon="10.281893513687923"><ele>338.0</ele><time>2026-05-02T13:58:21Z</time></trkpt><trkpt lat="45.94451712530759" lon="10.281946048767502"><ele>338.0</ele><time>2026-05-02T13:58:22Z</time></trkpt><trkpt lat="45.94445519648403" lon="10.282023443821986"><ele>338.0</ele><time>2026-05-02T13:58:23Z</time></trkpt><trkpt lat="45.944409503286465" lon="10.28210326949085"><ele>338.0</ele><time>2026-05-02T13:58:24Z</time></trkpt><trkpt lat="45.944358794382836" lon="10.282162275495851"><ele>338.0</ele><time>2026-05-02T13:58:25Z</time></trkpt><trkpt lat="45.94432238765855" lon="10.282238163231115"><ele>338.0</ele><time>2026-05-02T13:58:26Z</time></trkpt><trkpt lat="45.94424239016434" lon="10.282344254956348"><ele>338.0</ele><time>2026-05-02T13:58:28Z</time></trkpt><trkpt lat="45.9442072636568" lon="10.282474861982655"><ele>338.0</ele><time>2026-05-02T13:58:30Z</time></trkpt><trkpt lat="45.944140053895865" lon="10.282514329390013"><ele>339.79999999999995</ele><time>2026-05-02T13:58:32Z</time></trkpt><trkpt lat="45.94406522136799" lon="10.28256481761262"><ele>341.6</ele><time>2026-05-02T13:58:35Z</time></trkpt><trkpt lat="45.944020310860914" lon="10.282462417475159"><ele>343.4</ele><time>2026-05-02T13:58:38Z</time></trkpt><trkpt lat="45.94390053347803" lon="10.282487742086174"><ele>345.20000000000005</ele><time>2026-05-02T13:58:40Z</time></trkpt><trkpt lat="45.94383213358565" lon="10.28248929363809"><ele>347.0</ele><time>2026-05-02T13:58:41Z</time></trkpt><trkpt lat="45.943733901827635" lon="10.282296646398256"><ele>347.0</ele><time>2026-05-02T13:58:42Z</time></trkpt><trkpt lat="45.94365474758992" lon="10.28231493526169"><ele>347.0</ele><time>2026-05-02T13:58:43Z</time></trkpt><trkpt lat="45.94357135187796" lon="10.282338597768637"><ele>347.0</ele><time>2026-05-02T13:58:44Z</time></trkpt><trkpt lat="45.943493167148276" lon="10.282363049208573"><ele>347.0</ele><time>2026-05-02T13:58:45Z</time></trkpt><trkpt lat="45.94340875757601" lon="10.282398789825496"><ele>347.0</ele><time>2026-05-02T13:58:46Z</time></trkpt><trkpt lat="45.94333512691278" lon="10.282437863816527"><ele>347.0</ele><time>2026-05-02T13:58:47Z</time></trkpt><trkpt lat="45.94326975516253" lon="10.282476956211816"><ele>340.6</ele><time>2026-05-02T13:58:48Z</time></trkpt><trkpt lat="45.94316392342047" lon="10.28254105238472"><ele>334.20000000000005</ele><time>2026-05-02T13:58:50Z</time></trkpt><trkpt lat="45.943073607505035" lon="10.282605064819164"><ele>327.8</ele><time>2026-05-02T13:58:52Z</time></trkpt><trkpt lat="45.94315818082401" lon="10.282499716160945"><ele>321.4</ele><time>2026-05-02T13:58:59Z</time></trkpt><trkpt lat="45.94323422049026" lon="10.282426616431689"><ele>315.0</ele><time>2026-05-02T13:59:01Z</time></trkpt><trkpt lat="45.94332156652979" lon="10.282336328278134"><ele>315.2</ele><time>2026-05-02T13:59:03Z</time></trkpt><trkpt lat="45.94341124576927" lon="10.282213101024562"><ele>315.4</ele><time>2026-05-02T13:59:05Z</time></trkpt><trkpt lat="45.94349140274235" lon="10.282071837037872"><ele>315.6</ele><time>2026-05-02T13:59:07Z</time></trkpt><trkpt lat="45.94352876940088" lon="10.281997876882393"><ele>315.8</ele><time>2026-05-02T13:59:08Z</time></trkpt><trkpt lat="45.94359774381804" lon="10.281872592498598"><ele>316.0</ele><time>2026-05-02T13:59:10Z</time></trkpt><trkpt lat="45.943656288821074" lon="10.281746111434071"><ele>316.0</ele><time>2026-05-02T13:59:12Z</time></trkpt><trkpt lat="45.94371723724238" lon="10.281655326528961"><ele>316.0</ele><time>2026-05-02T13:59:14Z</time></trkpt><trkpt lat="45.94377492684195" lon="10.281541977926608"><ele>316.0</ele><time>2026-05-02T13:59:16Z</time></trkpt><trkpt lat="45.94384280788724" lon="10.2814411173787"><ele>316.0</ele><time>2026-05-02T13:59:18Z</time></trkpt><trkpt lat="45.943924344825106" lon="10.281354720306874"><ele>316.0</ele><time>2026-05-02T13:59:20Z</time></trkpt><trkpt lat="45.9439965963512" lon="10.281275948986858"><ele>314.0</ele><time>2026-05-02T13:59:22Z</time></trkpt><trkpt lat="45.94407302050145" lon="10.281198839641666"><ele>312.0</ele><time>2026-05-02T13:59:24Z</time></trkpt><trkpt lat="45.94416185074453" lon="10.281098249493551"><ele>310.0</ele><time>2026-05-02T13:59:26Z</time></trkpt><trkpt lat="45.94426033183463" lon="10.28104479589939"><ele>308.0</ele><time>2026-05-02T13:59:28Z</time></trkpt><trkpt lat="45.94435247634613" lon="10.280983037670834"><ele>306.0</ele><time>2026-05-02T13:59:30Z</time></trkpt><trkpt lat="45.94438351274655" lon="10.28089099438203"><ele>306.0</ele><time>2026-05-02T13:59:32Z</time></trkpt><trkpt lat="45.94437298507917" lon="10.2807990502816"><ele>306.0</ele><time>2026-05-02T13:59:33Z</time></trkpt><trkpt lat="45.944441606468175" lon="10.28070421576457"><ele>306.0</ele><time>2026-05-02T13:59:35Z</time></trkpt><trkpt lat="45.944538014595686" lon="10.280591545653163"><ele>306.0</ele><time>2026-05-02T13:59:37Z</time></trkpt><trkpt lat="45.94459936823038" lon="10.280529620088135"><ele>306.0</ele><time>2026-05-02T13:59:38Z</time></trkpt><trkpt lat="45.94465431678258" lon="10.28045834086951"><ele>306.0</ele><time>2026-05-02T13:59:39Z</time></trkpt><trkpt lat="45.94470630587698" lon="10.280363559688293"><ele>301.6666666666667</ele><time>2026-05-02T13:59:40Z</time></trkpt><trkpt lat="45.9447424369353" lon="10.280265046081821"><ele>297.3333333333333</ele><time>2026-05-02T13:59:41Z</time></trkpt><trkpt lat="45.94477527531798" lon="10.280185409270134"><ele>293.0</ele><time>2026-05-02T13:59:42Z</time></trkpt><trkpt lat="45.94481446444697" lon="10.280052079833958"><ele>288.66666666666663</ele><time>2026-05-02T13:59:44Z</time></trkpt><trkpt lat="45.944830208728796" lon="10.279924921304412"><ele>284.3333333333333</ele><time>2026-05-02T13:59:46Z</time></trkpt><trkpt lat="45.94485119294005" lon="10.279807891754404"><ele>280.0</ele><time>2026-05-02T13:59:48Z</time></trkpt><trkpt lat="45.944890196173475" lon="10.27967632407691"><ele>279.3333333333333</ele><time>2026-05-02T13:59:50Z</time></trkpt><trkpt lat="45.944914685154615" lon="10.279537343431485"><ele>278.66666666666663</ele><time>2026-05-02T13:59:54Z</time></trkpt><trkpt lat="45.94492794920719" lon="10.279416577952297"><ele>278.0</ele><time>2026-05-02T13:59:55Z</time></trkpt><trkpt lat="45.944930871738514" lon="10.279318799517112"><ele>277.3333333333333</ele><time>2026-05-02T13:59:56Z</time></trkpt><trkpt lat="45.94493139284331" lon="10.279217771533173"><ele>276.6666666666667</ele><time>2026-05-02T13:59:57Z</time></trkpt><trkpt lat="45.94492212723876" lon="10.27911773578538"><ele>276.0</ele><time>2026-05-02T13:59:58Z</time></trkpt><trkpt lat="45.94490462458949" lon="10.278991989210907"><ele>275.8333333333333</ele><time>2026-05-02T13:59:59Z</time></trkpt><trkpt lat="45.94488483151775" lon="10.278885991381427"><ele>275.6666666666667</ele><time>2026-05-02T14:00:00Z</time></trkpt><trkpt lat="45.94486510137863" lon="10.278798592264591"><ele>275.5</ele><time>2026-05-02T14:00:01Z</time></trkpt><trkpt lat="45.944842867985265" lon="10.278677897168903"><ele>275.33333333333337</ele><time>2026-05-02T14:00:02Z</time></trkpt><trkpt lat="45.944824995713574" lon="10.278568580218266"><ele>275.1666666666667</ele><time>2026-05-02T14:00:05Z</time></trkpt><trkpt lat="45.94494787085372" lon="10.278507357757066"><ele>275.0</ele><time>2026-05-02T14:00:06Z</time></trkpt><trkpt lat="45.94506495144115" lon="10.278460325306012"><ele>274.5</ele><time>2026-05-02T14:00:09Z</time></trkpt><trkpt lat="45.945144781005496" lon="10.27841345579615"><ele>274.0</ele><time>2026-05-02T14:00:10Z</time></trkpt><trkpt lat="45.94519528868491" lon="10.278330404543626"><ele>273.5</ele><time>2026-05-02T14:00:11Z</time></trkpt><trkpt lat="45.94528015880036" lon="10.278281977077095"><ele>273.0</ele><time>2026-05-02T14:00:12Z</time></trkpt><trkpt lat="45.94534623143035" lon="10.278206397837147"><ele>272.5</ele><time>2026-05-02T14:00:13Z</time></trkpt><trkpt lat="45.945409102322614" lon="10.278140003586394"><ele>272.0</ele><time>2026-05-02T14:00:14Z</time></trkpt><trkpt lat="45.9454625335262" lon="10.278074836072232"><ele>271.71428571428567</ele><time>2026-05-02T14:00:15Z</time></trkpt><trkpt lat="45.94552715861365" lon="10.27801176276966"><ele>271.42857142857144</ele><time>2026-05-02T14:00:16Z</time></trkpt><trkpt lat="45.94558324250828" lon="10.27795396521531"><ele>271.1428571428571</ele><time>2026-05-02T14:00:17Z</time></trkpt><trkpt lat="45.945640446688365" lon="10.277901547963204"><ele>270.85714285714283</ele><time>2026-05-02T14:00:18Z</time></trkpt><trkpt lat="45.94569200241576" lon="10.277838511260574"><ele>270.57142857142856</ele><time>2026-05-02T14:00:19Z</time></trkpt><trkpt lat="45.94572697946433" lon="10.27775832204039"><ele>270.2857142857143</ele><time>2026-05-02T14:00:20Z</time></trkpt><trkpt lat="45.945737433128855" lon="10.27765691185016"><ele>270.0</ele><time>2026-05-02T14:00:21Z</time></trkpt><trkpt lat="45.945718669991976" lon="10.277550610297748"><ele>270.0</ele><time>2026-05-02T14:00:22Z</time></trkpt><trkpt lat="45.945693292921085" lon="10.277448553768135"><ele>270.0</ele><time>2026-05-02T14:00:23Z</time></trkpt><trkpt lat="45.94567493160474" lon="10.27730392675351"><ele>270.0</ele><time>2026-05-02T14:00:25Z</time></trkpt><trkpt lat="45.94575888895964" lon="10.277221474884435"><ele>270.0</ele><time>2026-05-02T14:00:26Z</time></trkpt><trkpt lat="45.94581256107088" lon="10.2771634032341"><ele>270.0</ele><time>2026-05-02T14:00:27Z</time></trkpt><trkpt lat="45.94597151543272" lon="10.277169639314964"><ele>271.1666666666667</ele><time>2026-05-02T14:00:29Z</time></trkpt><trkpt lat="45.94604746587678" lon="10.27719917127469"><ele>272.3333333333333</ele><time>2026-05-02T14:00:30Z</time></trkpt><trkpt lat="45.9461349304652" lon="10.277224101791862"><ele>273.5</ele><time>2026-05-02T14:00:31Z</time></trkpt><trkpt lat="45.94621859157647" lon="10.277228398986857"><ele>274.66666666666663</ele><time>2026-05-02T14:00:32Z</time></trkpt><trkpt lat="45.94629786818787" lon="10.277236696984279"><ele>275.8333333333333</ele><time>2026-05-02T14:00:33Z</time></trkpt><trkpt lat="45.94638737902433" lon="10.27722218206356"><ele>277.0</ele><time>2026-05-02T14:00:34Z</time></trkpt><trkpt lat="45.94648502683313" lon="10.277189702206492"><ele>277.0</ele><time>2026-05-02T14:00:35Z</time></trkpt><trkpt lat="45.946579858786706" lon="10.277157411124437"><ele>277.0</ele><time>2026-05-02T14:00:36Z</time></trkpt><trkpt lat="45.946670937018844" lon="10.277132652920038"><ele>277.0</ele><time>2026-05-02T14:00:37Z</time></trkpt><trkpt lat="45.94675661081893" lon="10.27711594950073"><ele>277.0</ele><time>2026-05-02T14:00:38Z</time></trkpt><trkpt lat="45.94684625952422" lon="10.277083929566718"><ele>277.0</ele><time>2026-05-02T14:00:39Z</time></trkpt><trkpt lat="45.946930152659974" lon="10.277053417707187"><ele>277.4</ele><time>2026-05-02T14:00:40Z</time></trkpt><trkpt lat="45.947017630300316" lon="10.277022473380814"><ele>277.79999999999995</ele><time>2026-05-02T14:00:41Z</time></trkpt><trkpt lat="45.947112929890274" lon="10.276999794655064"><ele>278.2</ele><time>2026-05-02T14:00:42Z</time></trkpt><trkpt lat="45.94720451409635" lon="10.2769721349566"><ele>278.59999999999997</ele><time>2026-05-02T14:00:43Z</time></trkpt><trkpt lat="45.94729620274827" lon="10.276939296803699"><ele>279.0</ele><time>2026-05-02T14:00:44Z</time></trkpt><trkpt lat="45.947390008919236" lon="10.276908420651717"><ele>279.0</ele><time>2026-05-02T14:00:45Z</time></trkpt><trkpt lat="45.94747848588051" lon="10.276884597378265"><ele>279.0</ele><time>2026-05-02T14:00:46Z</time></trkpt><trkpt lat="45.947570240935605" lon="10.276863365778743"><ele>279.0</ele><time>2026-05-02T14:00:47Z</time></trkpt><trkpt lat="45.94766208920738" lon="10.276854613379088"><ele>279.0</ele><time>2026-05-02T14:00:48Z</time></trkpt><trkpt lat="45.94775551432351" lon="10.276855496903513"><ele>279.0</ele><time>2026-05-02T14:00:49Z</time></trkpt><trkpt lat="45.947846368907086" lon="10.276872292214838"><ele>279.5</ele><time>2026-05-02T14:00:50Z</time></trkpt><trkpt lat="45.94793077475108" lon="10.276900661097459"><ele>280.0</ele><time>2026-05-02T14:00:51Z</time></trkpt><trkpt lat="45.94801872673715" lon="10.276946527026514"><ele>280.5</ele><time>2026-05-02T14:00:52Z</time></trkpt><trkpt lat="45.94809612325489" lon="10.276982185745679"><ele>281.0</ele><time>2026-05-02T14:00:53Z</time></trkpt><trkpt lat="45.948173876626164" lon="10.277022195150154"><ele>281.5</ele><time>2026-05-02T14:00:54Z</time></trkpt><trkpt lat="45.94825067281565" lon="10.277059895542509"><ele>282.0</ele><time>2026-05-02T14:00:55Z</time></trkpt><trkpt lat="45.94832162666882" lon="10.277090227462187"><ele>282.3333333333333</ele><time>2026-05-02T14:00:56Z</time></trkpt><trkpt lat="45.94840685862423" lon="10.2771081627883"><ele>282.6666666666667</ele><time>2026-05-02T14:00:57Z</time></trkpt><trkpt lat="45.94851785108214" lon="10.277146185468174"><ele>283.0</ele><time>2026-05-02T14:00:59Z</time></trkpt><trkpt lat="45.94859591795287" lon="10.277163176958586"><ele>283.33333333333337</ele><time>2026-05-02T14:01:00Z</time></trkpt><trkpt lat="45.94867676991475" lon="10.277182125101763"><ele>283.6666666666667</ele><time>2026-05-02T14:01:01Z</time></trkpt><trkpt lat="45.94874640983343" lon="10.27719318282615"><ele>284.0</ele><time>2026-05-02T14:01:02Z</time></trkpt><trkpt lat="45.94882076416735" lon="10.277218139832978"><ele>284.0</ele><time>2026-05-02T14:01:03Z</time></trkpt><trkpt lat="45.948877682613144" lon="10.277169397791909"><ele>284.0</ele><time>2026-05-02T14:01:04Z</time></trkpt><trkpt lat="45.94892206900219" lon="10.277085742419189"><ele>284.0</ele><time>2026-05-02T14:01:05Z</time></trkpt><trkpt lat="45.94897308454997" lon="10.276973687629306"><ele>284.0</ele><time>2026-05-02T14:01:06Z</time></trkpt><trkpt lat="45.94902897223596" lon="10.276898146318429"><ele>284.0</ele><time>2026-05-02T14:01:07Z</time></trkpt><trkpt lat="45.9490879651435" lon="10.27682562269012"><ele>284.0</ele><time>2026-05-02T14:01:08Z</time></trkpt><trkpt lat="45.94914809567741" lon="10.276758282808295"><ele>284.1666666666667</ele><time>2026-05-02T14:01:09Z</time></trkpt><trkpt lat="45.94921097038491" lon="10.27669182413328"><ele>284.33333333333337</ele><time>2026-05-02T14:01:10Z</time></trkpt><trkpt lat="45.94927379684869" lon="10.276627270499755"><ele>284.5</ele><time>2026-05-02T14:01:11Z</time></trkpt><trkpt lat="45.94934172854501" lon="10.276547382391756"><ele>284.6666666666667</ele><time>2026-05-02T14:01:12Z</time></trkpt><trkpt lat="45.94940556895248" lon="10.2764661497547"><ele>284.8333333333333</ele><time>2026-05-02T14:01:13Z</time></trkpt><trkpt lat="45.949468053427886" lon="10.276383349934003"><ele>285.0</ele><time>2026-05-02T14:01:14Z</time></trkpt><trkpt lat="45.94953687448284" lon="10.276297696236735"><ele>286.1666666666667</ele><time>2026-05-02T14:01:15Z</time></trkpt><trkpt lat="45.94960274489173" lon="10.276214902109086"><ele>287.3333333333333</ele><time>2026-05-02T14:01:16Z</time></trkpt><trkpt lat="45.94966676691424" lon="10.276134683402564"><ele>288.5</ele><time>2026-05-02T14:01:17Z</time></trkpt><trkpt lat="45.94973102616036" lon="10.276055206330204"><ele>289.66666666666663</ele><time>2026-05-02T14:01:18Z</time></trkpt><trkpt lat="45.94978744094964" lon="10.275966442686764"><ele>290.8333333333333</ele><time>2026-05-02T14:01:19Z</time></trkpt><trkpt lat="45.94984613321768" lon="10.275872570216988"><ele>292.0</ele><time>2026-05-02T14:01:20Z</time></trkpt><trkpt lat="45.949900879543215" lon="10.275776089762063"><ele>292.0</ele><time>2026-05-02T14:01:21Z</time></trkpt><trkpt lat="45.94995498612825" lon="10.275682710421925"><ele>292.0</ele><time>2026-05-02T14:01:22Z</time></trkpt><trkpt lat="45.95000650826633" lon="10.275586626230739"><ele>292.0</ele><time>2026-05-02T14:01:23Z</time></trkpt><trkpt lat="45.95005408809948" lon="10.275488384949982"><ele>292.0</ele><time>2026-05-02T14:01:24Z</time></trkpt><trkpt lat="45.95009223265049" lon="10.2753809885696"><ele>292.0</ele><time>2026-05-02T14:01:25Z</time></trkpt><trkpt lat="45.950131181021774" lon="10.275283590030227"><ele>292.0</ele><time>2026-05-02T14:01:26Z</time></trkpt><trkpt lat="45.95018314591149" lon="10.275186712079227"><ele>292.8333333333333</ele><time>2026-05-02T14:01:27Z</time></trkpt><trkpt lat="45.95023277835592" lon="10.275083623708847"><ele>293.66666666666663</ele><time>2026-05-02T14:01:28Z</time></trkpt><trkpt lat="45.950275081206236" lon="10.274972791924643"><ele>294.5</ele><time>2026-05-02T14:01:29Z</time></trkpt><trkpt lat="45.95032322769497" lon="10.274873406093395"><ele>295.3333333333333</ele><time>2026-05-02T14:01:30Z</time></trkpt><trkpt lat="45.950375837123715" lon="10.274787181611869"><ele>296.1666666666667</ele><time>2026-05-02T14:01:31Z</time></trkpt><trkpt lat="45.950426826470576" lon="10.274690153087553"><ele>297.0</ele><time>2026-05-02T14:01:32Z</time></trkpt><trkpt lat="45.95047151944204" lon="10.274590194109956"><ele>297.8333333333333</ele><time>2026-05-02T14:01:33Z</time></trkpt><trkpt lat="45.950519360496514" lon="10.274496811435652"><ele>298.6666666666667</ele><time>2026-05-02T14:01:34Z</time></trkpt><trkpt lat="45.95056336609414" lon="10.27440537088828"><ele>299.5</ele><time>2026-05-02T14:01:35Z</time></trkpt><trkpt lat="45.95060767644766" lon="10.274306688596257"><ele>300.33333333333337</ele><time>2026-05-02T14:01:36Z</time></trkpt><trkpt lat="45.950656791489656" lon="10.274213132357165"><ele>301.1666666666667</ele><time>2026-05-02T14:01:37Z</time></trkpt><trkpt lat="45.9507078464922" lon="10.274116245400423"><ele>302.0</ele><time>2026-05-02T14:01:38Z</time></trkpt><trkpt lat="45.95075505733128" lon="10.274014492336942"><ele>303.0</ele><time>2026-05-02T14:01:39Z</time></trkpt><trkpt lat="45.950800696327306" lon="10.273915635325366"><ele>304.0</ele><time>2026-05-02T14:01:40Z</time></trkpt><trkpt lat="45.95084758760916" lon="10.273818738876681"><ele>305.0</ele><time>2026-05-02T14:01:41Z</time></trkpt><trkpt lat="45.95089657198503" lon="10.273720832333348"><ele>306.0</ele><time>2026-05-02T14:01:42Z</time></trkpt><trkpt lat="45.95091110787046" lon="10.273608523006274"><ele>307.0</ele><time>2026-05-02T14:01:43Z</time></trkpt><trkpt lat="45.950965923463286" lon="10.273497767861063"><ele>308.0</ele><time>2026-05-02T14:01:44Z</time></trkpt><trkpt lat="45.95101516713326" lon="10.273408348570534"><ele>308.0</ele><time>2026-05-02T14:01:45Z</time></trkpt><trkpt lat="45.95106260350381" lon="10.27330922159557"><ele>308.0</ele><time>2026-05-02T14:01:46Z</time></trkpt><trkpt lat="45.95110224701753" lon="10.273211245170256"><ele>308.0</ele><time>2026-05-02T14:01:47Z</time></trkpt><trkpt lat="45.95113904270925" lon="10.273107881826869"><ele>308.0</ele><time>2026-05-02T14:01:48Z</time></trkpt><trkpt lat="45.95117200436501" lon="10.273007157851513"><ele>308.0</ele><time>2026-05-02T14:01:49Z</time></trkpt><trkpt lat="45.95120382143104" lon="10.272903051436097"><ele>308.0</ele><time>2026-05-02T14:01:50Z</time></trkpt><trkpt lat="45.95123542465171" lon="10.272798124581909"><ele>309.6</ele><time>2026-05-02T14:01:51Z</time></trkpt><trkpt lat="45.95126849505462" lon="10.2726883498631"><ele>311.20000000000005</ele><time>2026-05-02T14:01:52Z</time></trkpt><trkpt lat="45.95129847235271" lon="10.272588842457047"><ele>312.8</ele><time>2026-05-02T14:01:53Z</time></trkpt><trkpt lat="45.95133894163745" lon="10.272454507729352"><ele>314.40000000000003</ele><time>2026-05-02T14:01:55Z</time></trkpt><trkpt lat="45.951476190844396" lon="10.272527064130541"><ele>316.0</ele><time>2026-05-02T14:01:59Z</time></trkpt><trkpt lat="45.951576429392766" lon="10.272582956783419"><ele>316.0</ele><time>2026-05-02T14:02:01Z</time></trkpt><trkpt lat="45.951677286551764" lon="10.272635888621144"><ele>316.0</ele><time>2026-05-02T14:02:03Z</time></trkpt><trkpt lat="45.95178042813418" lon="10.27267687050719"><ele>316.0</ele><time>2026-05-02T14:02:05Z</time></trkpt><trkpt lat="45.9518865931014" lon="10.27266334532036"><ele>316.0</ele><time>2026-05-02T14:02:07Z</time></trkpt><trkpt lat="45.95196675865818" lon="10.272620094628579"><ele>316.0</ele><time>2026-05-02T14:02:09Z</time></trkpt><trkpt lat="45.952045811340355" lon="10.272554072861455"><ele>315.5</ele><time>2026-05-02T14:02:11Z</time></trkpt><trkpt lat="45.952109689959535" lon="10.27240340159103"><ele>315.0</ele><time>2026-05-02T14:02:13Z</time></trkpt><trkpt lat="45.952153186290694" lon="10.272330391310694"><ele>314.5</ele><time>2026-05-02T14:02:14Z</time></trkpt><trkpt lat="45.95220811353597" lon="10.272172242130557"><ele>314.0</ele><time>2026-05-02T14:02:16Z</time></trkpt><trkpt lat="45.95223856417407" lon="10.272086783327191"><ele>313.5</ele><time>2026-05-02T14:02:17Z</time></trkpt><trkpt lat="45.95225422942795" lon="10.271995497278418"><ele>313.0</ele><time>2026-05-02T14:02:18Z</time></trkpt><trkpt lat="45.952259597615445" lon="10.271900116589949"><ele>313.0</ele><time>2026-05-02T14:02:19Z</time></trkpt><trkpt lat="45.952304511300994" lon="10.271823032537311"><ele>313.0</ele><time>2026-05-02T14:02:20Z</time></trkpt><trkpt lat="45.952364492923685" lon="10.271757102855586"><ele>313.0</ele><time>2026-05-02T14:02:21Z</time></trkpt><trkpt lat="45.95242842203618" lon="10.271707607972804"><ele>313.0</ele><time>2026-05-02T14:02:22Z</time></trkpt><trkpt lat="45.95249412360918" lon="10.27167664693992"><ele>313.0</ele><time>2026-05-02T14:02:23Z</time></trkpt><trkpt lat="45.952559459903725" lon="10.271637011507968"><ele>313.0</ele><time>2026-05-02T14:02:24Z</time></trkpt><trkpt lat="45.952615909079746" lon="10.271585567504152"><ele>313.0</ele><time>2026-05-02T14:02:25Z</time></trkpt><trkpt lat="45.95266736538291" lon="10.271524027908333"><ele>316.4</ele><time>2026-05-02T14:02:26Z</time></trkpt><trkpt lat="45.95271523374454" lon="10.271459316262863"><ele>319.8</ele><time>2026-05-02T14:02:27Z</time></trkpt><trkpt lat="45.952776668490166" lon="10.271328444848782"><ele>323.2</ele><time>2026-05-02T14:02:29Z</time></trkpt><trkpt lat="45.95282166578892" lon="10.2711697980722"><ele>326.6</ele><time>2026-05-02T14:02:31Z</time></trkpt><trkpt lat="45.952828063962166" lon="10.271067242537363"><ele>330.0</ele><time>2026-05-02T14:02:33Z</time></trkpt><trkpt lat="45.952837412859274" lon="10.27092445040783"><ele>331.0</ele><time>2026-05-02T14:02:35Z</time></trkpt><trkpt lat="45.952828362081966" lon="10.270806359131512"><ele>332.0</ele><time>2026-05-02T14:02:37Z</time></trkpt><trkpt lat="45.95286333106507" lon="10.270721353747625"><ele>333.0</ele><time>2026-05-02T14:02:39Z</time></trkpt><trkpt lat="45.95294500351569" lon="10.270814845655046"><ele>334.0</ele><time>2026-05-02T14:02:41Z</time></trkpt><trkpt lat="45.95302102659228" lon="10.270811185560962"><ele>335.0</ele><time>2026-05-02T14:02:43Z</time></trkpt><trkpt lat="45.95310200785108" lon="10.270810616209083"><ele>336.0</ele><time>2026-05-02T14:02:46Z</time></trkpt><trkpt lat="45.95316500130679" lon="10.270878816202835"><ele>336.0</ele><time>2026-05-02T14:02:49Z</time></trkpt><trkpt lat="45.95322416328226" lon="10.270988636312628"><ele>336.0</ele><time>2026-05-02T14:02:51Z</time></trkpt><trkpt lat="45.95328547689298" lon="10.271106357625595"><ele>336.0</ele><time>2026-05-02T14:02:53Z</time></trkpt><trkpt lat="45.95335014971016" lon="10.271233310469116"><ele>336.0</ele><time>2026-05-02T14:02:55Z</time></trkpt><trkpt lat="45.95339659801808" lon="10.271367804859993"><ele>336.0</ele><time>2026-05-02T14:02:57Z</time></trkpt><trkpt lat="45.9533856579862" lon="10.271504281570538"><ele>335.0</ele><time>2026-05-02T14:02:59Z</time></trkpt><trkpt lat="45.953370080018935" lon="10.271597749355069"><ele>334.0</ele><time>2026-05-02T14:03:00Z</time></trkpt><trkpt lat="45.953353709206816" lon="10.271695974262625"><ele>333.0</ele><time>2026-05-02T14:03:01Z</time></trkpt><trkpt lat="45.9533376554245" lon="10.271794661217763"><ele>332.0</ele><time>2026-05-02T14:03:02Z</time></trkpt><trkpt lat="45.95331955102131" lon="10.271983441836337"><ele>331.0</ele><time>2026-05-02T14:03:04Z</time></trkpt><trkpt lat="45.953333755421546" lon="10.272094857606952"><ele>330.0</ele><time>2026-05-02T14:03:05Z</time></trkpt><trkpt lat="45.953360415203875" lon="10.272198572730835"><ele>338.5</ele><time>2026-05-02T14:03:06Z</time></trkpt><trkpt lat="45.95338864897777" lon="10.272296030289278"><ele>347.0</ele><time>2026-05-02T14:03:07Z</time></trkpt><trkpt lat="45.953415538260366" lon="10.272396122826736"><ele>355.5</ele><time>2026-05-02T14:03:08Z</time></trkpt><trkpt lat="45.95342977712099" lon="10.272487790178811"><ele>364.0</ele><time>2026-05-02T14:03:09Z</time></trkpt><trkpt lat="45.95344465269714" lon="10.272589702591999"><ele>372.5</ele><time>2026-05-02T14:03:10Z</time></trkpt><trkpt lat="45.953511979577144" lon="10.272674627009978"><ele>381.0</ele><time>2026-05-02T14:03:11Z</time></trkpt><trkpt lat="45.9535474921182" lon="10.272865837719507"><ele>381.0</ele><time>2026-05-02T14:03:13Z</time></trkpt><trkpt lat="45.953578518249515" lon="10.272970691319403"><ele>381.0</ele><time>2026-05-02T14:03:14Z</time></trkpt><trkpt lat="45.95361848473985" lon="10.273068109677494"><ele>381.0</ele><time>2026-05-02T14:03:15Z</time></trkpt><trkpt lat="45.95365288180667" lon="10.273146888618514"><ele>381.0</ele><time>2026-05-02T14:03:16Z</time></trkpt><trkpt lat="45.953682600121994" lon="10.273233545319357"><ele>381.0</ele><time>2026-05-02T14:03:17Z</time></trkpt><trkpt lat="45.95370885810174" lon="10.273321190996901"><ele>381.0</ele><time>2026-05-02T14:03:18Z</time></trkpt><trkpt lat="45.95373459616795" lon="10.273416335703198"><ele>381.0</ele><time>2026-05-02T14:03:19Z</time></trkpt><trkpt lat="45.953757234820216" lon="10.273501051345454"><ele>380.3333333333333</ele><time>2026-05-02T14:03:20Z</time></trkpt><trkpt lat="45.953779882804966" lon="10.273585798145865"><ele>379.6666666666667</ele><time>2026-05-02T14:03:21Z</time></trkpt><trkpt lat="45.95381995820363" lon="10.273669613663454"><ele>379.0</ele><time>2026-05-02T14:03:22Z</time></trkpt><trkpt lat="45.953842491358486" lon="10.273761523300887"><ele>378.33333333333337</ele><time>2026-05-02T14:03:23Z</time></trkpt><trkpt lat="45.95385338898081" lon="10.27385844558699"><ele>377.6666666666667</ele><time>2026-05-02T14:03:24Z</time></trkpt><trkpt lat="45.953877252776095" lon="10.273947050171747"><ele>377.0</ele><time>2026-05-02T14:03:25Z</time></trkpt><trkpt lat="45.95393025487328" lon="10.274098040216316"><ele>377.0</ele><time>2026-05-02T14:03:27Z</time></trkpt><trkpt lat="45.95397274577309" lon="10.27425742138927"><ele>377.0</ele><time>2026-05-02T14:03:29Z</time></trkpt><trkpt lat="45.95401878039965" lon="10.274418300645765"><ele>377.0</ele><time>2026-05-02T14:03:31Z</time></trkpt><trkpt lat="45.954053840285766" lon="10.27458067663788"><ele>377.0</ele><time>2026-05-02T14:03:33Z</time></trkpt><trkpt lat="45.95410051379325" lon="10.274728184063115"><ele>374.6</ele><time>2026-05-02T14:03:35Z</time></trkpt><trkpt lat="45.954131730341736" lon="10.274903689016254"><ele>372.20000000000005</ele><time>2026-05-02T14:03:37Z</time></trkpt><trkpt lat="45.95413457005934" lon="10.27499740646227"><ele>369.8</ele><time>2026-05-02T14:03:38Z</time></trkpt><trkpt lat="45.954135624303554" lon="10.27509169026335"><ele>367.4</ele><time>2026-05-02T14:03:39Z</time></trkpt><trkpt lat="45.95411975860443" lon="10.275260725554855"><ele>365.0</ele><time>2026-05-02T14:03:41Z</time></trkpt><trkpt lat="45.95408791348817" lon="10.275414381568025"><ele>365.0</ele><time>2026-05-02T14:03:43Z</time></trkpt><trkpt lat="45.95408719935851" lon="10.27556854362451"><ele>365.0</ele><time>2026-05-02T14:03:45Z</time></trkpt><trkpt lat="45.954110921369264" lon="10.275717599239732"><ele>365.0</ele><time>2026-05-02T14:03:47Z</time></trkpt><trkpt lat="45.95416982352348" lon="10.275856301440756"><ele>365.0</ele><time>2026-05-02T14:03:49Z</time></trkpt><trkpt lat="45.95423354041427" lon="10.275991737788964"><ele>365.0</ele><time>2026-05-02T14:03:51Z</time></trkpt><trkpt lat="45.954293435621814" lon="10.276129575512046"><ele>371.0</ele><time>2026-05-02T14:03:53Z</time></trkpt><trkpt lat="45.95436687970246" lon="10.276267844171928"><ele>377.0</ele><time>2026-05-02T14:03:55Z</time></trkpt><trkpt lat="45.95442401592066" lon="10.276326352881782"><ele>383.0</ele><time>2026-05-02T14:03:56Z</time></trkpt><trkpt lat="45.95448867059568" lon="10.276363910266316"><ele>389.0</ele><time>2026-05-02T14:03:57Z</time></trkpt><trkpt lat="45.95459454522569" lon="10.27640525905667"><ele>395.0</ele><time>2026-05-02T14:03:59Z</time></trkpt><trkpt lat="45.954682774940785" lon="10.276357599482566"><ele>395.0</ele><time>2026-05-02T14:04:01Z</time></trkpt><trkpt lat="45.95471260271252" lon="10.27620295945504"><ele>395.0</ele><time>2026-05-02T14:04:03Z</time></trkpt><trkpt lat="45.954633511430515" lon="10.276093177721513"><ele>395.0</ele><time>2026-05-02T14:04:05Z</time></trkpt><trkpt lat="45.95458073149595" lon="10.275960587231822"><ele>395.0</ele><time>2026-05-02T14:04:07Z</time></trkpt><trkpt lat="45.95460921347455" lon="10.275869663129152"><ele>395.0</ele><time>2026-05-02T14:04:08Z</time></trkpt><trkpt lat="45.954613139239015" lon="10.275777027696616"><ele>395.0</ele><time>2026-05-02T14:04:09Z</time></trkpt><trkpt lat="45.9545717265206" lon="10.275625628601224"><ele>395.0</ele><time>2026-05-02T14:04:11Z</time></trkpt><trkpt lat="45.954555794268856" lon="10.27548316003529"><ele>395.0</ele><time>2026-05-02T14:04:13Z</time></trkpt><trkpt lat="45.954521648057785" lon="10.275360278872608"><ele>395.0</ele><time>2026-05-02T14:04:15Z</time></trkpt><trkpt lat="45.9545037414271" lon="10.275223493644997"><ele>395.0</ele><time>2026-05-02T14:04:17Z</time></trkpt><trkpt lat="45.95449231438593" lon="10.275080083841786"><ele>399.8</ele><time>2026-05-02T14:04:19Z</time></trkpt><trkpt lat="45.954459551487915" lon="10.274948541305642"><ele>404.6</ele><time>2026-05-02T14:04:21Z</time></trkpt><trkpt lat="45.95442540214361" lon="10.27479868883194"><ele>409.4</ele><time>2026-05-02T14:04:23Z</time></trkpt><trkpt lat="45.9544021017294" lon="10.274645979724596"><ele>414.2</ele><time>2026-05-02T14:04:25Z</time></trkpt><trkpt lat="45.954384525710054" lon="10.274513173487925"><ele>419.0</ele><time>2026-05-02T14:04:27Z</time></trkpt><trkpt lat="45.95436367630687" lon="10.274374867098405"><ele>424.6</ele><time>2026-05-02T14:04:29Z</time></trkpt><trkpt lat="45.95435484479387" lon="10.274214136589851"><ele>430.2</ele><time>2026-05-02T14:04:31Z</time></trkpt><trkpt lat="45.95432523016859" lon="10.274053912387394"><ele>435.80000000000007</ele><time>2026-05-02T14:04:33Z</time></trkpt><trkpt lat="45.954316652365854" lon="10.273894708827237"><ele>441.40000000000003</ele><time>2026-05-02T14:04:35Z</time></trkpt><trkpt lat="45.95431578757561" lon="10.273740797048934"><ele>447.0</ele><time>2026-05-02T14:04:37Z</time></trkpt><trkpt lat="45.954324999921354" lon="10.27359916522519"><ele>449.40000000000003</ele><time>2026-05-02T14:04:39Z</time></trkpt><trkpt lat="45.95434451760996" lon="10.273451716805331"><ele>451.80000000000007</ele><time>2026-05-02T14:04:41Z</time></trkpt><trkpt lat="45.954361807552175" lon="10.273323349445837"><ele>454.2</ele><time>2026-05-02T14:04:43Z</time></trkpt><trkpt lat="45.954388039887924" lon="10.27323293843003"><ele>456.6</ele><time>2026-05-02T14:04:45Z</time></trkpt><trkpt lat="45.954375749700915" lon="10.273323383620644"><ele>459.0</ele><time>2026-05-02T14:04:48Z</time></trkpt><trkpt lat="45.95449719195179" lon="10.273452628644051"><ele>459.0</ele><time>2026-05-02T14:04:49Z</time></trkpt><trkpt lat="45.95455370607343" lon="10.273543315729077"><ele>459.0</ele><time>2026-05-02T14:04:51Z</time></trkpt><trkpt lat="45.954610019344194" lon="10.273631359974981"><ele>459.0</ele><time>2026-05-02T14:04:53Z</time></trkpt><trkpt lat="45.9546669723552" lon="10.273762198321716"><ele>459.0</ele><time>2026-05-02T14:04:55Z</time></trkpt><trkpt lat="45.95469758787707" lon="10.273848884544755"><ele>459.0</ele><time>2026-05-02T14:04:56Z</time></trkpt><trkpt lat="45.954728234867545" lon="10.273948144557467"><ele>459.0</ele><time>2026-05-02T14:04:57Z</time></trkpt><trkpt lat="45.954783509611836" lon="10.274058915217033"><ele>456.0</ele><time>2026-05-02T14:04:58Z</time></trkpt><trkpt lat="45.95486567419934" lon="10.274180254192634"><ele>453.0</ele><time>2026-05-02T14:04:59Z</time></trkpt><trkpt lat="45.95495704149006" lon="10.274302380243416"><ele>450.0</ele><time>2026-05-02T14:05:00Z</time></trkpt><trkpt lat="45.955041643567604" lon="10.274407425861536"><ele>447.0</ele><time>2026-05-02T14:05:01Z</time></trkpt><trkpt lat="45.95510780479941" lon="10.274511176575565"><ele>455.25</ele><time>2026-05-02T14:05:02Z</time></trkpt><trkpt lat="45.95518161462359" lon="10.274651029903461"><ele>463.5</ele><time>2026-05-02T14:05:03Z</time></trkpt><trkpt lat="45.955243008435026" lon="10.274811341661268"><ele>471.75</ele><time>2026-05-02T14:05:04Z</time></trkpt><trkpt lat="45.955345442053016" lon="10.27495504445327"><ele>480.0</ele><time>2026-05-02T14:05:05Z</time></trkpt><trkpt lat="45.9554349305319" lon="10.275094126120909"><ele>480.0</ele><time>2026-05-02T14:05:06Z</time></trkpt><trkpt lat="45.955511341395265" lon="10.27522492563054"><ele>480.0</ele><time>2026-05-02T14:05:07Z</time></trkpt><trkpt lat="45.955557725214476" lon="10.275358526485759"><ele>480.0</ele><time>2026-05-02T14:05:08Z</time></trkpt><trkpt lat="45.95561977652954" lon="10.275480637785543"><ele>480.0</ele><time>2026-05-02T14:05:09Z</time></trkpt><trkpt lat="45.95569123035628" lon="10.275598854275065"><ele>480.0</ele><time>2026-05-02T14:05:10Z</time></trkpt><trkpt lat="45.955771438840095" lon="10.275707998001211"><ele>474.6</ele><time>2026-05-02T14:05:11Z</time></trkpt><trkpt lat="45.95585536121331" lon="10.275818937894382"><ele>469.2</ele><time>2026-05-02T14:05:12Z</time></trkpt><trkpt lat="45.95592282558137" lon="10.275947556920984"><ele>463.79999999999995</ele><time>2026-05-02T14:05:13Z</time></trkpt><trkpt lat="45.95598166283522" lon="10.276086307717648"><ele>458.4</ele><time>2026-05-02T14:05:14Z</time></trkpt><trkpt lat="45.95601645968661" lon="10.276208657294337"><ele>453.0</ele><time>2026-05-02T14:05:15Z</time></trkpt><trkpt lat="45.95605845519559" lon="10.276317661077048"><ele>467.59999999999997</ele><time>2026-05-02T14:05:17Z</time></trkpt><trkpt lat="45.95613442908719" lon="10.276399953074808"><ele>482.19999999999993</ele><time>2026-05-02T14:05:19Z</time></trkpt><trkpt lat="45.95615214150344" lon="10.276284041188564"><ele>496.8</ele><time>2026-05-02T14:05:21Z</time></trkpt><trkpt lat="45.95614719194766" lon="10.276122275199556"><ele>511.4</ele><time>2026-05-02T14:05:23Z</time></trkpt><trkpt lat="45.956129316635895" lon="10.275976738921548"><ele>526.0</ele><time>2026-05-02T14:05:25Z</time></trkpt><trkpt lat="45.956116359689446" lon="10.275818205655854"><ele>526.0</ele><time>2026-05-02T14:05:27Z</time></trkpt><trkpt lat="45.95612304418978" lon="10.275684950932185"><ele>526.0</ele><time>2026-05-02T14:05:29Z</time></trkpt><trkpt lat="45.95613641675416" lon="10.275568503990035"><ele>526.0</ele><time>2026-05-02T14:05:31Z</time></trkpt><trkpt lat="45.956141046459415" lon="10.275452624948084"><ele>526.0</ele><time>2026-05-02T14:05:33Z</time></trkpt><trkpt lat="45.95610791048348" lon="10.27536281195621"><ele>526.0</ele><time>2026-05-02T14:05:35Z</time></trkpt><trkpt lat="45.95604533834407" lon="10.275267035300303"><ele>526.0</ele><time>2026-05-02T14:05:37Z</time></trkpt><trkpt lat="45.95594502598597" lon="10.27523669794827"><ele>523.1666666666667</ele><time>2026-05-02T14:05:38Z</time></trkpt><trkpt lat="45.955895673522406" lon="10.275167481626745"><ele>520.3333333333334</ele><time>2026-05-02T14:05:39Z</time></trkpt><trkpt lat="45.95584138282935" lon="10.275101005855326"><ele>517.5</ele><time>2026-05-02T14:05:40Z</time></trkpt><trkpt lat="45.955788725738195" lon="10.27502129904604"><ele>514.6666666666666</ele><time>2026-05-02T14:05:41Z</time></trkpt><trkpt lat="45.95574507996083" lon="10.274936850583023"><ele>511.8333333333333</ele><time>2026-05-02T14:05:42Z</time></trkpt><trkpt lat="45.95571517027983" lon="10.27485419841016"><ele>509.0</ele><time>2026-05-02T14:05:43Z</time></trkpt><trkpt lat="45.95569943795057" lon="10.274711549472222"><ele>508.99999999999994</ele><time>2026-05-02T14:05:44Z</time></trkpt><trkpt lat="45.9556411379775" lon="10.274645744564387"><ele>509.0</ele><time>2026-05-02T14:05:45Z</time></trkpt><trkpt lat="45.95558222523029" lon="10.274571254957635"><ele>509.0</ele><time>2026-05-02T14:05:46Z</time></trkpt><trkpt lat="45.95551443700247" lon="10.274489176507055"><ele>509.0</ele><time>2026-05-02T14:05:47Z</time></trkpt><trkpt lat="45.955459639454276" lon="10.274380076593873"><ele>508.99999999999994</ele><time>2026-05-02T14:05:48Z</time></trkpt><trkpt lat="45.95544650463178" lon="10.274257935071011"><ele>509.0</ele><time>2026-05-02T14:05:49Z</time></trkpt><trkpt lat="45.95544907930388" lon="10.274142175343469"><ele>509.0</ele><time>2026-05-02T14:05:50Z</time></trkpt><trkpt lat="45.95546256074802" lon="10.27403607304057"><ele>509.0</ele><time>2026-05-02T14:05:51Z</time></trkpt><trkpt lat="45.95549738842905" lon="10.273915438092372"><ele>509.0</ele><time>2026-05-02T14:05:52Z</time></trkpt><trkpt lat="45.955526747870344" lon="10.273781289865806"><ele>509.0</ele><time>2026-05-02T14:05:53Z</time></trkpt><trkpt lat="45.95555741511582" lon="10.273638798972835"><ele>509.0</ele><time>2026-05-02T14:05:55Z</time></trkpt><trkpt lat="45.95564799010738" lon="10.273545067275188"><ele>509.4</ele><time>2026-05-02T14:05:57Z</time></trkpt><trkpt lat="45.955690929295834" lon="10.273464550614792"><ele>509.79999999999995</ele><time>2026-05-02T14:05:58Z</time></trkpt><trkpt lat="45.95568723152155" lon="10.273290733023924"><ele>510.20000000000005</ele><time>2026-05-02T14:06:01Z</time></trkpt><trkpt lat="45.95574374995431" lon="10.2731979261216"><ele>510.6</ele><time>2026-05-02T14:06:02Z</time></trkpt><trkpt lat="45.95579562482011" lon="10.273080977634605"><ele>511.0</ele><time>2026-05-02T14:06:03Z</time></trkpt><trkpt lat="45.955871983002254" lon="10.27305261430038"><ele>514.8333333333334</ele><time>2026-05-02T14:06:04Z</time></trkpt><trkpt lat="45.95590849080265" lon="10.272970598391407"><ele>518.6666666666667</ele><time>2026-05-02T14:06:05Z</time></trkpt><trkpt lat="45.95590165720344" lon="10.273091195976072"><ele>522.5</ele><time>2026-05-02T14:06:09Z</time></trkpt><trkpt lat="45.9559404652756" lon="10.273201814327868"><ele>526.3333333333334</ele><time>2026-05-02T14:06:10Z</time></trkpt><trkpt lat="45.95598643506025" lon="10.273275950905258"><ele>530.1666666666666</ele><time>2026-05-02T14:06:13Z</time></trkpt><trkpt lat="45.95612005586477" lon="10.273269121608797"><ele>534.0</ele><time>2026-05-02T14:06:15Z</time></trkpt><trkpt lat="45.956195506979846" lon="10.273204297314074"><ele>534.0</ele><time>2026-05-02T14:06:16Z</time></trkpt><trkpt lat="45.95623433394986" lon="10.273087923954304"><ele>534.0</ele><time>2026-05-02T14:06:17Z</time></trkpt><trkpt lat="45.95628738289098" lon="10.27298558318089"><ele>534.0</ele><time>2026-05-02T14:06:19Z</time></trkpt><trkpt lat="45.95629285133515" lon="10.272838113291032"><ele>534.0</ele><time>2026-05-02T14:06:21Z</time></trkpt><trkpt lat="45.95634182305062" lon="10.272669688419226"><ele>534.0</ele><time>2026-05-02T14:06:23Z</time></trkpt><trkpt lat="45.95640752025086" lon="10.272690822671528"><ele>534.0</ele><time>2026-05-02T14:06:26Z</time></trkpt><trkpt lat="45.956504505405775" lon="10.272829624007422"><ele>534.0</ele><time>2026-05-02T14:06:28Z</time></trkpt><trkpt lat="45.956562650134074" lon="10.272931622964304"><ele>534.0</ele><time>2026-05-02T14:06:29Z</time></trkpt><trkpt lat="45.95663718798065" lon="10.273016337447151"><ele>534.0</ele><time>2026-05-02T14:06:30Z</time></trkpt><trkpt lat="45.95669016436537" lon="10.273076546662963"><ele>534.0</ele><time>2026-05-02T14:06:31Z</time></trkpt><trkpt lat="45.95675868125203" lon="10.273153686224399"><ele>540.0</ele><time>2026-05-02T14:06:33Z</time></trkpt><trkpt lat="45.956822194726996" lon="10.2732108371655"><ele>546.0</ele><time>2026-05-02T14:06:35Z</time></trkpt><trkpt lat="45.956875255699785" lon="10.273344422412233"><ele>552.0</ele><time>2026-05-02T14:06:37Z</time></trkpt><trkpt lat="45.95690225793946" lon="10.273468819494743"><ele>558.0</ele><time>2026-05-02T14:06:39.001Z</time></trkpt><trkpt lat="45.95695497534286" lon="10.27366942141618"><ele>564.0</ele><time>2026-05-02T14:06:40.001Z</time></trkpt><trkpt lat="45.95701264864613" lon="10.273825771155574"><ele>564.0</ele><time>2026-05-02T14:06:42.001Z</time></trkpt><trkpt lat="45.957078138466024" lon="10.273915000641056"><ele>564.0</ele><time>2026-05-02T14:06:44.001Z</time></trkpt><trkpt lat="45.957161677041924" lon="10.273803538889524"><ele>564.0</ele><time>2026-05-02T14:06:46.001Z</time></trkpt><trkpt lat="45.95724194175775" lon="10.27368033635168"><ele>564.0</ele><time>2026-05-02T14:06:48.001Z</time></trkpt><trkpt lat="45.957293890184594" lon="10.2735722337543"><ele>564.0</ele><time>2026-05-02T14:06:50.001Z</time></trkpt><trkpt lat="45.957372197713575" lon="10.27351106326135"><ele>564.0</ele><time>2026-05-02T14:06:52.001Z</time></trkpt><trkpt lat="45.9574353805761" lon="10.273521073099062"><ele>564.0</ele><time>2026-05-02T14:06:53.001Z</time></trkpt><trkpt lat="45.95750611475445" lon="10.273539186284882"><ele>564.0</ele><time>2026-05-02T14:06:54.001Z</time></trkpt><trkpt lat="45.95758097245644" lon="10.273553337253041"><ele>564.0</ele><time>2026-05-02T14:06:55.001Z</time></trkpt><trkpt lat="45.957669842982014" lon="10.273560724563085"><ele>564.0</ele><time>2026-05-02T14:06:56.001Z</time></trkpt><trkpt lat="45.957748758168975" lon="10.273561961846388"><ele>564.0</ele><time>2026-05-02T14:06:57.001Z</time></trkpt><trkpt lat="45.95780593799484" lon="10.273603447124971"><ele>564.0</ele><time>2026-05-02T14:06:58.001Z</time></trkpt><trkpt lat="45.95793418417104" lon="10.273715049419128"><ele>567.8333333333334</ele><time>2026-05-02T14:07:00.001Z</time></trkpt><trkpt lat="45.958014403690434" lon="10.273679281368233"><ele>571.6666666666666</ele><time>2026-05-02T14:07:02.001Z</time></trkpt><trkpt lat="45.958050785347716" lon="10.273604111555823"><ele>575.5</ele><time>2026-05-02T14:07:03.001Z</time></trkpt><trkpt lat="45.958103404797505" lon="10.27354931634946"><ele>579.3333333333333</ele><time>2026-05-02T14:07:04.001Z</time></trkpt><trkpt lat="45.958214785294466" lon="10.273497712191872"><ele>583.1666666666666</ele><time>2026-05-02T14:07:06.001Z</time></trkpt><trkpt lat="45.95824558895745" lon="10.27341509032857"><ele>587.0</ele><time>2026-05-02T14:07:08.001Z</time></trkpt><trkpt lat="45.95834112197483" lon="10.273359681027046"><ele>592.7142857142858</ele><time>2026-05-02T14:07:10.001Z</time></trkpt><trkpt lat="45.958397112939274" lon="10.273300656988988"><ele>598.4285714285714</ele><time>2026-05-02T14:07:12.001Z</time></trkpt><trkpt lat="45.95842337775286" lon="10.273403098611146"><ele>604.1428571428571</ele><time>2026-05-02T14:07:14.001Z</time></trkpt><trkpt lat="45.958417594264574" lon="10.273509046026614"><ele>609.8571428571429</ele><time>2026-05-02T14:07:15.001Z</time></trkpt><trkpt lat="45.95842195967365" lon="10.273619521542233"><ele>615.5714285714286</ele><time>2026-05-02T14:07:16.001Z</time></trkpt><trkpt lat="45.95844021205087" lon="10.273727972755628"><ele>621.2857142857143</ele><time>2026-05-02T14:07:17.001Z</time></trkpt><trkpt lat="45.95843403429998" lon="10.27382145729753"><ele>627.0</ele><time>2026-05-02T14:07:18.001Z</time></trkpt><trkpt lat="45.958435052775435" lon="10.273932580399652"><ele>625.0</ele><time>2026-05-02T14:07:19.001Z</time></trkpt><trkpt lat="45.95841717063046" lon="10.274040557656232"><ele>623.0</ele><time>2026-05-02T14:07:20.001Z</time></trkpt><trkpt lat="45.958409010153105" lon="10.274148912268615"><ele>621.0</ele><time>2026-05-02T14:07:21.001Z</time></trkpt><trkpt lat="45.95839236523697" lon="10.27424049891301"><ele>619.0</ele><time>2026-05-02T14:07:22.001Z</time></trkpt><trkpt lat="45.958376474735076" lon="10.274340645028836"><ele>617.0</ele><time>2026-05-02T14:07:23.001Z</time></trkpt><trkpt lat="45.95836652174324" lon="10.274449883108076"><ele>615.0</ele><time>2026-05-02T14:07:24.001Z</time></trkpt><trkpt lat="45.958328923625096" lon="10.274549006437743"><ele>613.0</ele><time>2026-05-02T14:07:25.001Z</time></trkpt><trkpt lat="45.958283993565" lon="10.274660687229506"><ele>613.0</ele><time>2026-05-02T14:07:26.001Z</time></trkpt><trkpt lat="45.9582417488739" lon="10.274740870862408"><ele>613.0</ele><time>2026-05-02T14:07:27.001Z</time></trkpt><trkpt lat="45.95820554190541" lon="10.27486795284365"><ele>613.0</ele><time>2026-05-02T14:07:29.001Z</time></trkpt><trkpt lat="45.95822760111931" lon="10.275018815088476"><ele>613.0</ele><time>2026-05-02T14:07:32.001Z</time></trkpt><trkpt lat="45.95831129488475" lon="10.275094979151488"><ele>613.0</ele><time>2026-05-02T14:07:34.001Z</time></trkpt><trkpt lat="45.95840430336702" lon="10.27511367127261"><ele>627.4</ele><time>2026-05-02T14:07:36.001Z</time></trkpt><trkpt lat="45.95845509669094" lon="10.275233761860807"><ele>641.8</ele><time>2026-05-02T14:07:39.001Z</time></trkpt><trkpt lat="45.95846845310691" lon="10.275372303774063"><ele>656.2</ele><time>2026-05-02T14:07:41.001Z</time></trkpt><trkpt lat="45.9584768936509" lon="10.275475012617784"><ele>670.6</ele><time>2026-05-02T14:07:43.001Z</time></trkpt><trkpt lat="45.95847493727269" lon="10.27560155603426"><ele>685.0</ele><time>2026-05-02T14:07:44.001Z</time></trkpt><trkpt lat="45.958501303940366" lon="10.27576507282668"><ele>689.3333333333334</ele><time>2026-05-02T14:07:46.001Z</time></trkpt><trkpt lat="45.958485895571044" lon="10.275967188256361"><ele>693.6666666666667</ele><time>2026-05-02T14:07:48.001Z</time></trkpt><trkpt lat="45.95846182589512" lon="10.27608699472765"><ele>698.0</ele><time>2026-05-02T14:07:50.001Z</time></trkpt><trkpt lat="45.95840126031386" lon="10.276056387235453"><ele>702.3333333333334</ele><time>2026-05-02T14:07:53.001Z</time></trkpt><trkpt lat="45.958469518406766" lon="10.27607977116485"><ele>706.6666666666666</ele><time>2026-05-02T14:07:59.001Z</time></trkpt><trkpt lat="45.95851680597068" lon="10.276000468944355"><ele>711.0</ele><time>2026-05-02T14:08:04.001Z</time></trkpt><trkpt lat="45.95856370101415" lon="10.275898059898585"><ele>711.0</ele><time>2026-05-02T14:08:07.001Z</time></trkpt><trkpt lat="45.95858307389647" lon="10.275793351040685"><ele>711.0</ele><time>2026-05-02T14:08:10.001Z</time></trkpt><trkpt lat="45.95856659411426" lon="10.275688030002337"><ele>711.0</ele><time>2026-05-02T14:08:13.001Z</time></trkpt><trkpt lat="45.95856340087217" lon="10.275595354909074"><ele>711.0</ele><time>2026-05-02T14:08:15.001Z</time></trkpt><trkpt lat="45.95857560370931" lon="10.275493478391995"><ele>711.0</ele><time>2026-05-02T14:08:17.001Z</time></trkpt><trkpt lat="45.95856650220753" lon="10.275396763433937"><ele>711.0</ele><time>2026-05-02T14:08:19.001Z</time></trkpt><trkpt lat="45.95856096645537" lon="10.275253253436238"><ele>706.6666666666666</ele><time>2026-05-02T14:08:22.001Z</time></trkpt><trkpt lat="45.958538936008324" lon="10.275163083951755"><ele>702.3333333333334</ele><time>2026-05-02T14:08:24.001Z</time></trkpt><trkpt lat="45.95846031194509" lon="10.275128364620153"><ele>698.0</ele><time>2026-05-02T14:08:27.001Z</time></trkpt><trkpt lat="45.958372174489355" lon="10.275117223151097"><ele>693.6666666666667</ele><time>2026-05-02T14:08:29.001Z</time></trkpt><trkpt lat="45.958302510919864" lon="10.275070060615477"><ele>689.3333333333334</ele><time>2026-05-02T14:08:32.001Z</time></trkpt><trkpt lat="45.95822801166872" lon="10.274979096578738"><ele>685.0</ele><time>2026-05-02T14:08:34.001Z</time></trkpt><trkpt lat="45.95821776395727" lon="10.274868177252488"><ele>680.1666666666667</ele><time>2026-05-02T14:08:36.001Z</time></trkpt><trkpt lat="45.958295574979516" lon="10.274772518329769"><ele>675.3333333333334</ele><time>2026-05-02T14:08:38.001Z</time></trkpt><trkpt lat="45.95834154094538" lon="10.27470165919123"><ele>670.5</ele><time>2026-05-02T14:08:39.001Z</time></trkpt><trkpt lat="45.95838900108175" lon="10.274639084921853"><ele>665.6666666666666</ele><time>2026-05-02T14:08:40.001Z</time></trkpt><trkpt lat="45.95841881854171" lon="10.274552706922544"><ele>660.8333333333333</ele><time>2026-05-02T14:08:41.001Z</time></trkpt><trkpt lat="45.9584401133896" lon="10.274428514600991"><ele>656.0</ele><time>2026-05-02T14:08:42.001Z</time></trkpt><trkpt lat="45.95844595749765" lon="10.274311932379385"><ele>656.0</ele><time>2026-05-02T14:08:43.001Z</time></trkpt><trkpt lat="45.958459156469495" lon="10.27418346843724"><ele>656.0</ele><time>2026-05-02T14:08:44.001Z</time></trkpt><trkpt lat="45.958486416554315" lon="10.274060703411621"><ele>656.0</ele><time>2026-05-02T14:08:45.001Z</time></trkpt><trkpt lat="45.95849332394465" lon="10.2739226799348"><ele>656.0</ele><time>2026-05-02T14:08:46.001Z</time></trkpt><trkpt lat="45.95848220833752" lon="10.273805943840522"><ele>656.0</ele><time>2026-05-02T14:08:47.001Z</time></trkpt><trkpt lat="45.958468009349104" lon="10.273703063626368"><ele>656.0</ele><time>2026-05-02T14:08:48.001Z</time></trkpt><trkpt lat="45.95848113079604" lon="10.273584514155942"><ele>651.1666666666666</ele><time>2026-05-02T14:08:49.001Z</time></trkpt><trkpt lat="45.95849058697304" lon="10.273489832020408"><ele>646.3333333333333</ele><time>2026-05-02T14:08:50.001Z</time></trkpt><trkpt lat="45.9585002869569" lon="10.273368685467847"><ele>641.5</ele><time>2026-05-02T14:08:52.001Z</time></trkpt><trkpt lat="45.958580161977125" lon="10.27336432481911"><ele>636.6666666666666</ele><time>2026-05-02T14:08:56.001Z</time></trkpt><trkpt lat="45.95868628664288" lon="10.273348537425115"><ele>631.8333333333334</ele><time>2026-05-02T14:08:58.001Z</time></trkpt><trkpt lat="45.9587836811702" lon="10.273288317865628"><ele>627.0</ele><time>2026-05-02T14:09:00.001Z</time></trkpt><trkpt lat="45.9588468407889" lon="10.27326633925638"><ele>627.0</ele><time>2026-05-02T14:09:01.001Z</time></trkpt><trkpt lat="45.95890816217232" lon="10.273243666135837"><ele>627.0</ele><time>2026-05-02T14:09:02.001Z</time></trkpt><trkpt lat="45.9589719534744" lon="10.273196143476868"><ele>627.0</ele><time>2026-05-02T14:09:03.001Z</time></trkpt><trkpt lat="45.959026964887855" lon="10.273126187940646"><ele>627.0</ele><time>2026-05-02T14:09:04.001Z</time></trkpt><trkpt lat="45.959128478557325" lon="10.27305216331318"><ele>627.0</ele><time>2026-05-02T14:09:06.001Z</time></trkpt><trkpt lat="45.95923259545974" lon="10.272999953829538"><ele>627.0</ele><time>2026-05-02T14:09:08.001Z</time></trkpt><trkpt lat="45.9593383199966" lon="10.272965561883991"><ele>625.6</ele><time>2026-05-02T14:09:10.001Z</time></trkpt><trkpt lat="45.959423758530534" lon="10.272962423807597"><ele>624.2</ele><time>2026-05-02T14:09:12.001Z</time></trkpt><trkpt lat="45.95951687319009" lon="10.272944303374874"><ele>622.8</ele><time>2026-05-02T14:09:14.001Z</time></trkpt><trkpt lat="45.9596230879438" lon="10.27286757971329"><ele>621.4</ele><time>2026-05-02T14:09:16Z</time></trkpt><trkpt lat="45.9597250477874" lon="10.272814409494215"><ele>620.0</ele><time>2026-05-02T14:09:18Z</time></trkpt><trkpt lat="45.95979037650215" lon="10.272803683235356"><ele>620.0</ele><time>2026-05-02T14:09:19Z</time></trkpt><trkpt lat="45.95987785867257" lon="10.272806911847407"><ele>620.0</ele><time>2026-05-02T14:09:20Z</time></trkpt><trkpt lat="45.959950710662" lon="10.272796924251761"><ele>620.0</ele><time>2026-05-02T14:09:21Z</time></trkpt><trkpt lat="45.960023521906656" lon="10.272798236699916"><ele>620.0</ele><time>2026-05-02T14:09:23Z</time></trkpt><trkpt lat="45.96012233142287" lon="10.27279516646504"><ele>620.0</ele><time>2026-05-02T14:09:25Z</time></trkpt><trkpt lat="45.960192406217296" lon="10.272805678760323"><ele>620.0</ele><time>2026-05-02T14:09:26Z</time></trkpt><trkpt lat="45.960276705413364" lon="10.272840253224093"><ele>623.5</ele><time>2026-05-02T14:09:28Z</time></trkpt><trkpt lat="45.9602786297152" lon="10.2729397713756"><ele>627.0</ele><time>2026-05-02T14:09:32Z</time></trkpt><trkpt lat="45.96029541792708" lon="10.273028797172875"><ele>630.5</ele><time>2026-05-02T14:09:35Z</time></trkpt><trkpt lat="45.96027675102286" lon="10.273162207519402"><ele>634.0</ele><time>2026-05-02T14:09:39Z</time></trkpt><trkpt lat="45.96020779089343" lon="10.273201600121185"><ele>637.5</ele><time>2026-05-02T14:09:42.001Z</time></trkpt><trkpt lat="45.960160988083075" lon="10.273265132652908"><ele>641.0</ele><time>2026-05-02T14:09:44.001Z</time></trkpt><trkpt lat="45.960114122063274" lon="10.273376461651784"><ele>647.6666666666666</ele><time>2026-05-02T14:09:51.001Z</time></trkpt><trkpt lat="45.960107193926845" lon="10.273478352583272"><ele>654.3333333333333</ele><time>2026-05-02T14:10:01.001Z</time></trkpt><trkpt lat="45.96008517867902" lon="10.273581919014156"><ele>661.0</ele><time>2026-05-02T14:10:05.001Z</time></trkpt><trkpt lat="45.96007689583032" lon="10.273717719555194"><ele>667.6666666666666</ele><time>2026-05-02T14:10:08.001Z</time></trkpt><trkpt lat="45.960106242236336" lon="10.273853990572158"><ele>674.3333333333334</ele><time>2026-05-02T14:10:10.001Z</time></trkpt><trkpt lat="45.96013608355841" lon="10.273982840020317"><ele>681.0</ele><time>2026-05-02T14:10:11.001Z</time></trkpt><trkpt lat="45.96015936608335" lon="10.27388797969993"><ele>681.0000000000001</ele><time>2026-05-02T14:10:17.001Z</time></trkpt><trkpt lat="45.96018047008901" lon="10.273792770478595"><ele>681.0</ele><time>2026-05-02T14:10:47.001Z</time></trkpt><trkpt lat="45.960129573965915" lon="10.27385932545614"><ele>681.0</ele><time>2026-05-02T14:11:16.001Z</time></trkpt><trkpt lat="45.9600723340404" lon="10.273921848305296"><ele>681.0</ele><time>2026-05-02T14:11:19.001Z</time></trkpt><trkpt lat="45.96004183171578" lon="10.27403494098202"><ele>681.0</ele><time>2026-05-02T14:11:21Z</time></trkpt><trkpt lat="45.96006684114639" lon="10.273942944679746"><ele>681.0000000000001</ele><time>2026-05-02T14:11:42Z</time></trkpt><trkpt lat="45.96013168091778" lon="10.273925336578747"><ele>681.0</ele><time>2026-05-02T14:12:24Z</time></trkpt><trkpt lat="45.96013762699984" lon="10.273832438149148"><ele>681.0000000000001</ele><time>2026-05-02T14:12:43Z</time></trkpt><trkpt lat="45.96005670690876" lon="10.273860154661486"><ele>681.0</ele><time>2026-05-02T14:13:21.001Z</time></trkpt><trkpt lat="45.96001878832564" lon="10.273963446088633"><ele>681.0</ele><time>2026-05-02T14:13:23.001Z</time></trkpt><trkpt lat="45.95998630304509" lon="10.27406837385846"><ele>681.0</ele><time>2026-05-02T14:13:26.001Z</time></trkpt><trkpt lat="45.959943338567186" lon="10.274137692728754"><ele>681.0</ele><time>2026-05-02T14:13:27.999Z</time></trkpt><trkpt lat="45.95990705319684" lon="10.274216705761724"><ele>681.0000000000001</ele><time>2026-05-02T14:13:33.999Z</time></trkpt><trkpt lat="45.95996870371077" lon="10.274166589887924"><ele>681.0</ele><time>2026-05-02T14:14:14Z</time></trkpt><trkpt lat="45.960013723011116" lon="10.274074347515846"><ele>681.0000000000001</ele><time>2026-05-02T14:14:19Z</time></trkpt><trkpt lat="45.96005602455915" lon="10.273993525387253"><ele>681.0</ele><time>2026-05-02T14:14:22Z</time></trkpt><trkpt lat="45.96008497610481" lon="10.2738876782996"><ele>681.0</ele><time>2026-05-02T14:14:26Z</time></trkpt><trkpt lat="45.96014324861476" lon="10.273815547798014"><ele>681.0</ele><time>2026-05-02T14:14:35Z</time></trkpt><trkpt lat="45.960204800686896" lon="10.273847460243589"><ele>681.0</ele><time>2026-05-02T14:14:47Z</time></trkpt><trkpt lat="45.9601503124101" lon="10.27376611945727"><ele>681.0000000000001</ele><time>2026-05-02T14:15:06Z</time></trkpt><trkpt lat="45.96015061372534" lon="10.2738581142259"><ele>681.0</ele><time>2026-05-02T14:15:18Z</time></trkpt><trkpt lat="45.96006877962798" lon="10.273784802434234"><ele>683.0</ele><time>2026-05-02T14:16:18Z</time></trkpt><trkpt lat="45.96001384392936" lon="10.273904958064465"><ele>685.0</ele><time>2026-05-02T14:16:21Z</time></trkpt><trkpt lat="45.960004208612126" lon="10.27402732816499"><ele>687.0</ele><time>2026-05-02T14:16:24Z</time></trkpt><trkpt lat="45.95994572115945" lon="10.274066931058329"><ele>689.0</ele><time>2026-05-02T14:16:32Z</time></trkpt><trkpt lat="45.95993412705463" lon="10.274179323662345"><ele>691.0</ele><time>2026-05-02T14:17:30Z</time></trkpt><trkpt lat="45.95999642161711" lon="10.274160130710026"><ele>693.0</ele><time>2026-05-02T14:19:31Z</time></trkpt><trkpt lat="45.96001825468715" lon="10.274057828868239"><ele>691.2857142857143</ele><time>2026-05-02T14:19:36Z</time></trkpt><trkpt lat="45.96007235119761" lon="10.273974868871866"><ele>689.5714285714286</ele><time>2026-05-02T14:19:39Z</time></trkpt><trkpt lat="45.960098368783626" lon="10.273882236462"><ele>687.8571428571429</ele><time>2026-05-02T14:19:44Z</time></trkpt><trkpt lat="45.960168452236324" lon="10.273871635178036"><ele>686.1428571428571</ele><time>2026-05-02T14:19:50.999Z</time></trkpt><trkpt lat="45.960229617203275" lon="10.273835128667224"><ele>684.4285714285714</ele><time>2026-05-02T14:19:53.999Z</time></trkpt><trkpt lat="45.96015051302322" lon="10.273767171621527"><ele>682.7142857142858</ele><time>2026-05-02T14:20:33Z</time></trkpt><trkpt lat="45.96009460021482" lon="10.273831192995077"><ele>681.0</ele><time>2026-05-02T14:20:35Z</time></trkpt><trkpt lat="45.96004540655388" lon="10.273918166678044"><ele>682.7142857142858</ele><time>2026-05-02T14:20:38Z</time></trkpt><trkpt lat="45.960012318803" lon="10.273995675308639"><ele>684.4285714285714</ele><time>2026-05-02T14:20:40Z</time></trkpt><trkpt lat="45.959960652472205" lon="10.274051692559073"><ele>686.1428571428571</ele><time>2026-05-02T14:20:42Z</time></trkpt><trkpt lat="45.95991484955949" lon="10.274146700106895"><ele>687.8571428571429</ele><time>2026-05-02T14:20:45Z</time></trkpt><trkpt lat="45.959866894254674" lon="10.274214288540778"><ele>689.5714285714286</ele><time>2026-05-02T14:21:33.001Z</time></trkpt><trkpt lat="45.95982820109168" lon="10.274301767181594"><ele>691.2857142857143</ele><time>2026-05-02T14:21:41.001Z</time></trkpt><trkpt lat="45.95976544831259" lon="10.274325894886848"><ele>693.0</ele><time>2026-05-02T14:21:50.999Z</time></trkpt><trkpt lat="45.959700254611825" lon="10.27434159716928"><ele>693.0</ele><time>2026-05-02T14:21:54.999Z</time></trkpt><trkpt lat="45.959627379727436" lon="10.274369627210937"><ele>693.0</ele><time>2026-05-02T14:21:58.999Z</time></trkpt><trkpt lat="45.959588071700686" lon="10.274455990719533"><ele>693.0</ele><time>2026-05-02T14:22:01.999Z</time></trkpt><trkpt lat="45.959586352817844" lon="10.2745885628439"><ele>693.0</ele><time>2026-05-02T14:22:03.999Z</time></trkpt><trkpt lat="45.959612494296714" lon="10.274688347643092"><ele>693.0</ele><time>2026-05-02T14:22:06Z</time></trkpt><trkpt lat="45.95961762551848" lon="10.274784496179583"><ele>693.0</ele><time>2026-05-02T14:22:08Z</time></trkpt><trkpt lat="45.95955821879132" lon="10.274834019089012"><ele>693.0</ele><time>2026-05-02T14:22:11Z</time></trkpt><trkpt lat="45.95947214558997" lon="10.274881451235919"><ele>700.8</ele><time>2026-05-02T14:22:13Z</time></trkpt><trkpt lat="45.95939014072135" lon="10.274954128365467"><ele>708.5999999999999</ele><time>2026-05-02T14:22:15Z</time></trkpt><trkpt lat="45.9593271384053" lon="10.275044292969703"><ele>716.4000000000001</ele><time>2026-05-02T14:22:17Z</time></trkpt><trkpt lat="45.95931546039222" lon="10.275166911659932"><ele>724.2</ele><time>2026-05-02T14:22:19Z</time></trkpt><trkpt lat="45.95930800865369" lon="10.275273959161202"><ele>732.0</ele><time>2026-05-02T14:22:21Z</time></trkpt><trkpt lat="45.95926671819057" lon="10.275443670543837"><ele>732.0</ele><time>2026-05-02T14:22:23Z</time></trkpt><trkpt lat="45.9592296591643" lon="10.275519104061415"><ele>732.0</ele><time>2026-05-02T14:22:24Z</time></trkpt><trkpt lat="45.95919094927388" lon="10.275627206927194"><ele>732.0</ele><time>2026-05-02T14:22:25Z</time></trkpt><trkpt lat="45.95914151660734" lon="10.275711704511169"><ele>732.0</ele><time>2026-05-02T14:22:26Z</time></trkpt><trkpt lat="45.95905490968847" lon="10.27587526182465"><ele>732.0</ele><time>2026-05-02T14:22:28Z</time></trkpt><trkpt lat="45.95900897455542" lon="10.275976711448006"><ele>730.4000000000001</ele><time>2026-05-02T14:22:29Z</time></trkpt><trkpt lat="45.95893924442085" lon="10.276134849557065"><ele>728.8000000000001</ele><time>2026-05-02T14:22:31Z</time></trkpt><trkpt lat="45.958897076547004" lon="10.276211762069588"><ele>727.2</ele><time>2026-05-02T14:22:32Z</time></trkpt><trkpt lat="45.95886535979469" lon="10.27637300895237"><ele>725.6</ele><time>2026-05-02T14:22:34Z</time></trkpt><trkpt lat="45.958846659728614" lon="10.276485322571594"><ele>724.0</ele><time>2026-05-02T14:22:36Z</time></trkpt><trkpt lat="45.95881077900385" lon="10.276566253955334"><ele>724.0</ele><time>2026-05-02T14:22:39Z</time></trkpt><trkpt lat="45.958772631902114" lon="10.276469037792257"><ele>724.0</ele><time>2026-05-02T14:22:41Z</time></trkpt><trkpt lat="45.958753628072955" lon="10.276376004561605"><ele>724.0</ele><time>2026-05-02T14:22:43Z</time></trkpt><trkpt lat="45.958714660174294" lon="10.27627042957515"><ele>724.0</ele><time>2026-05-02T14:22:45Z</time></trkpt><trkpt lat="45.95866047304313" lon="10.276186489496531"><ele>724.0</ele><time>2026-05-02T14:22:48Z</time></trkpt><trkpt lat="45.95861310400195" lon="10.276092074741129"><ele>724.0</ele><time>2026-05-02T14:22:52Z</time></trkpt><trkpt lat="45.95861734181297" lon="10.276001557737503"><ele>721.8333333333334</ele><time>2026-05-02T14:22:55Z</time></trkpt><trkpt lat="45.95861075846845" lon="10.275878694787076"><ele>719.6666666666667</ele><time>2026-05-02T14:22:58Z</time></trkpt><trkpt lat="45.95859433411908" lon="10.27578687785218"><ele>717.5</ele><time>2026-05-02T14:23:00Z</time></trkpt><trkpt lat="45.95861300026048" lon="10.27569426168317"><ele>715.3333333333334</ele><time>2026-05-02T14:23:05Z</time></trkpt><trkpt lat="45.95860355168173" lon="10.275549472183538"><ele>713.1666666666666</ele><time>2026-05-02T14:23:07Z</time></trkpt><trkpt lat="45.958602161002624" lon="10.27541678981384"><ele>711.0</ele><time>2026-05-02T14:23:09Z</time></trkpt><trkpt lat="45.95860461984356" lon="10.275295263098608"><ele>706.6666666666666</ele><time>2026-05-02T14:23:11.001Z</time></trkpt><trkpt lat="45.95860469658262" lon="10.275194008657632"><ele>702.3333333333334</ele><time>2026-05-02T14:23:13.001Z</time></trkpt><trkpt lat="45.95854733705364" lon="10.275102271057424"><ele>698.0</ele><time>2026-05-02T14:23:15.001Z</time></trkpt><trkpt lat="45.95847046144754" lon="10.275109620998537"><ele>693.6666666666667</ele><time>2026-05-02T14:23:16.001Z</time></trkpt><trkpt lat="45.958404511675916" lon="10.275102514591028"><ele>689.3333333333334</ele><time>2026-05-02T14:23:17.001Z</time></trkpt><trkpt lat="45.958312644226275" lon="10.275069074960395"><ele>685.0</ele><time>2026-05-02T14:23:19.001Z</time></trkpt><trkpt lat="45.95821363489804" lon="10.27501250632749"><ele>679.2</ele><time>2026-05-02T14:23:21.001Z</time></trkpt><trkpt lat="45.958205223375515" lon="10.27491214512146"><ele>673.4</ele><time>2026-05-02T14:23:23.001Z</time></trkpt><trkpt lat="45.958202962540305" lon="10.274776002265936"><ele>667.5999999999999</ele><time>2026-05-02T14:23:25.001Z</time></trkpt><trkpt lat="45.95827319730404" lon="10.274652836357804"><ele>661.8</ele><time>2026-05-02T14:23:27.001Z</time></trkpt><trkpt lat="45.958356996954905" lon="10.274498319561173"><ele>656.0</ele><time>2026-05-02T14:23:29.001Z</time></trkpt><trkpt lat="45.95838553318646" lon="10.2743949762449"><ele>656.0</ele><time>2026-05-02T14:23:30.001Z</time></trkpt><trkpt lat="45.95834995711395" lon="10.27429629878978"><ele>656.0</ele><time>2026-05-02T14:23:31.001Z</time></trkpt><trkpt lat="45.95837323201585" lon="10.274159908069228"><ele>656.0</ele><time>2026-05-02T14:23:32.001Z</time></trkpt><trkpt lat="45.95841174866366" lon="10.274000330391127"><ele>656.0</ele><time>2026-05-02T14:23:33.001Z</time></trkpt><trkpt lat="45.95843679457191" lon="10.273828465453224"><ele>656.0</ele><time>2026-05-02T14:23:34.001Z</time></trkpt><trkpt lat="45.95846137227259" lon="10.273687795878946"><ele>650.1999999999999</ele><time>2026-05-02T14:23:35.001Z</time></trkpt><trkpt lat="45.95839830380273" lon="10.273629988685343"><ele>644.4</ele><time>2026-05-02T14:23:36.001Z</time></trkpt><trkpt lat="45.95846468029292" lon="10.273506186857327"><ele>638.6</ele><time>2026-05-02T14:23:38.001Z</time></trkpt><trkpt lat="45.95848649751501" lon="10.273375464143601"><ele>632.8</ele><time>2026-05-02T14:23:41.001Z</time></trkpt><trkpt lat="45.95844352079611" lon="10.273303717271594"><ele>627.0</ele><time>2026-05-02T14:23:45.001Z</time></trkpt><trkpt lat="45.95833613945462" lon="10.273403100303046"><ele>620.3333333333334</ele><time>2026-05-02T14:23:48.001Z</time></trkpt><trkpt lat="45.95828854157363" lon="10.273473306800748"><ele>613.6666666666666</ele><time>2026-05-02T14:23:49.001Z</time></trkpt><trkpt lat="45.95823525241404" lon="10.273579687175962"><ele>607.0</ele><time>2026-05-02T14:23:51.001Z</time></trkpt><trkpt lat="45.958214547603255" lon="10.273666707957702"><ele>600.3333333333333</ele><time>2026-05-02T14:23:53.001Z</time></trkpt><trkpt lat="45.95812651654227" lon="10.273737438466018"><ele>593.6666666666666</ele><time>2026-05-02T14:23:56.001Z</time></trkpt><trkpt lat="45.95804567178234" lon="10.273815696690825"><ele>587.0</ele><time>2026-05-02T14:23:58Z</time></trkpt><trkpt lat="45.957999768222294" lon="10.273751140052099"><ele>587.0</ele><time>2026-05-02T14:23:59Z</time></trkpt><trkpt lat="45.95789752390117" lon="10.273732725723555"><ele>587.0</ele><time>2026-05-02T14:24:01Z</time></trkpt><trkpt lat="45.9578139249914" lon="10.27362631349009"><ele>587.0</ele><time>2026-05-02T14:24:03Z</time></trkpt><trkpt lat="45.9577099017006" lon="10.273581582106626"><ele>587.0</ele><time>2026-05-02T14:24:05Z</time></trkpt><trkpt lat="45.95759364369108" lon="10.273523419414857"><ele>587.0</ele><time>2026-05-02T14:24:07Z</time></trkpt><trkpt lat="45.95748648804651" lon="10.27345576701242"><ele>583.1666666666666</ele><time>2026-05-02T14:24:09Z</time></trkpt><trkpt lat="45.95739235422292" lon="10.273437620153054"><ele>579.3333333333333</ele><time>2026-05-02T14:24:11Z</time></trkpt><trkpt lat="45.957317285231746" lon="10.273420484504376"><ele>575.5</ele><time>2026-05-02T14:24:13Z</time></trkpt><trkpt lat="45.9572603108302" lon="10.273339302991005"><ele>571.6666666666666</ele><time>2026-05-02T14:24:15Z</time></trkpt><trkpt lat="45.957209459132834" lon="10.273283249378737"><ele>567.8333333333334</ele><time>2026-05-02T14:24:16Z</time></trkpt><trkpt lat="45.957182632856515" lon="10.273177320991833"><ele>564.0</ele><time>2026-05-02T14:24:18Z</time></trkpt><trkpt lat="45.957204367739834" lon="10.273057826499024"><ele>564.0</ele><time>2026-05-02T14:24:21Z</time></trkpt><trkpt lat="45.95711850269221" lon="10.272967959227982"><ele>564.0</ele><time>2026-05-02T14:24:24Z</time></trkpt><trkpt lat="45.95703385411767" lon="10.272987449906584"><ele>564.0</ele><time>2026-05-02T14:24:26Z</time></trkpt><trkpt lat="45.95695447989218" lon="10.273048015591959"><ele>564.0</ele><time>2026-05-02T14:24:28Z</time></trkpt><trkpt lat="45.956883234885964" lon="10.27310115635993"><ele>564.0</ele><time>2026-05-02T14:24:31Z</time></trkpt><trkpt lat="45.95678495225837" lon="10.273117532142681"><ele>558.6</ele><time>2026-05-02T14:24:34Z</time></trkpt><trkpt lat="45.956721730175985" lon="10.273093214136445"><ele>553.2</ele><time>2026-05-02T14:24:36Z</time></trkpt><trkpt lat="45.956650631794666" lon="10.273022695102478"><ele>547.8000000000001</ele><time>2026-05-02T14:24:38Z</time></trkpt><trkpt lat="45.95657136811519" lon="10.272892308907613"><ele>542.4</ele><time>2026-05-02T14:24:40Z</time></trkpt><trkpt lat="45.95647869845011" lon="10.272801877066664"><ele>537.0</ele><time>2026-05-02T14:24:42Z</time></trkpt><trkpt lat="45.956428085527385" lon="10.27269155070936"><ele>536.5</ele><time>2026-05-02T14:24:44Z</time></trkpt><trkpt lat="45.956362977225126" lon="10.272667482604561"><ele>536.0</ele><time>2026-05-02T14:24:46.001Z</time></trkpt><trkpt lat="45.956305659569786" lon="10.272717616316871"><ele>535.5</ele><time>2026-05-02T14:24:47.001Z</time></trkpt><trkpt lat="45.956275534484874" lon="10.272812170186084"><ele>535.0</ele><time>2026-05-02T14:24:49.001Z</time></trkpt><trkpt lat="45.95626841598164" lon="10.272966957437053"><ele>534.5</ele><time>2026-05-02T14:24:51.001Z</time></trkpt><trkpt lat="45.95625084298072" lon="10.273087104390363"><ele>534.0</ele><time>2026-05-02T14:24:53.001Z</time></trkpt><trkpt lat="45.95617867785152" lon="10.273199758802978"><ele>538.2</ele><time>2026-05-02T14:24:55.001Z</time></trkpt><trkpt lat="45.956136179137815" lon="10.273329508458062"><ele>542.4</ele><time>2026-05-02T14:24:57.001Z</time></trkpt><trkpt lat="45.956088817017815" lon="10.273435047524407"><ele>546.6</ele><time>2026-05-02T14:24:59.001Z</time></trkpt><trkpt lat="45.95601049694068" lon="10.273442717121222"><ele>550.8</ele><time>2026-05-02T14:25:01.001Z</time></trkpt><trkpt lat="45.95591930751031" lon="10.27341343960573"><ele>555.0</ele><time>2026-05-02T14:25:04.001Z</time></trkpt><trkpt lat="45.95592952079844" lon="10.273272267857777"><ele>555.0</ele><time>2026-05-02T14:25:06.001Z</time></trkpt><trkpt lat="45.955900557464155" lon="10.273159148179584"><ele>555.0</ele><time>2026-05-02T14:25:09.001Z</time></trkpt><trkpt lat="45.95583049091897" lon="10.27317444151522"><ele>555.0</ele><time>2026-05-02T14:25:12.001Z</time></trkpt><trkpt lat="45.95578930094991" lon="10.273254921692695"><ele>555.0</ele><time>2026-05-02T14:25:14.001Z</time></trkpt><trkpt lat="45.95579146415957" lon="10.273377490268212"><ele>555.0</ele><time>2026-05-02T14:25:16.001Z</time></trkpt><trkpt lat="45.955772586653644" lon="10.273498755138483"><ele>555.0</ele><time>2026-05-02T14:25:19.001Z</time></trkpt><trkpt lat="45.95576559206747" lon="10.273633848447236"><ele>546.2</ele><time>2026-05-02T14:25:21.001Z</time></trkpt><trkpt lat="45.955675834843646" lon="10.273668082701748"><ele>537.4</ele><time>2026-05-02T14:25:23.001Z</time></trkpt><trkpt lat="45.95558267109946" lon="10.273746197968627"><ele>528.6</ele><time>2026-05-02T14:25:25.001Z</time></trkpt><trkpt lat="45.95557379597653" lon="10.273909414280245"><ele>519.8</ele><time>2026-05-02T14:25:27.001Z</time></trkpt><trkpt lat="45.95556596737889" lon="10.274011677117247"><ele>511.0</ele><time>2026-05-02T14:25:28.001Z</time></trkpt><trkpt lat="45.95554536673355" lon="10.274117036543196"><ele>510.6</ele><time>2026-05-02T14:25:29.001Z</time></trkpt><trkpt lat="45.95555190371976" lon="10.274294113453122"><ele>510.20000000000005</ele><time>2026-05-02T14:25:31.001Z</time></trkpt><trkpt lat="45.955616438445546" lon="10.27442902134329"><ele>509.79999999999995</ele><time>2026-05-02T14:25:33.001Z</time></trkpt><trkpt lat="45.95566772926275" lon="10.274601311878394"><ele>509.4</ele><time>2026-05-02T14:25:35.001Z</time></trkpt><trkpt lat="45.955734830811274" lon="10.274625733044383"><ele>509.0</ele><time>2026-05-02T14:25:36.001Z</time></trkpt><trkpt lat="45.95580850807924" lon="10.274768740308627"><ele>503.2</ele><time>2026-05-02T14:25:38.001Z</time></trkpt><trkpt lat="45.95584253821425" lon="10.27485546236234"><ele>497.4</ele><time>2026-05-02T14:25:39.001Z</time></trkpt><trkpt lat="45.955884126635894" lon="10.275042390031823"><ele>491.6</ele><time>2026-05-02T14:25:41.001Z</time></trkpt><trkpt lat="45.95591241678082" lon="10.275156899020379"><ele>485.8</ele><time>2026-05-02T14:25:42.001Z</time></trkpt><trkpt lat="45.95596586147096" lon="10.275269124210705"><ele>480.0</ele><time>2026-05-02T14:25:43.001Z</time></trkpt><trkpt lat="45.95601645132995" lon="10.275333918527519"><ele>487.6666666666667</ele><time>2026-05-02T14:25:44.001Z</time></trkpt><trkpt lat="45.956088381253835" lon="10.275416881986605"><ele>495.33333333333337</ele><time>2026-05-02T14:25:46.001Z</time></trkpt><trkpt lat="45.95612777389365" lon="10.275545189365392"><ele>503.0</ele><time>2026-05-02T14:25:48.001Z</time></trkpt><trkpt lat="45.95610680917224" lon="10.275645433783152"><ele>510.6666666666667</ele><time>2026-05-02T14:25:52.001Z</time></trkpt><trkpt lat="45.95606010810603" lon="10.275549265792256"><ele>518.3333333333334</ele><time>2026-05-02T14:25:58.001Z</time></trkpt><trkpt lat="45.95610502144333" lon="10.275630167891109"><ele>526.0</ele><time>2026-05-02T14:26:01.001Z</time></trkpt><trkpt lat="45.956093281804975" lon="10.275742533937255"><ele>526.0</ele><time>2026-05-02T14:26:04.001Z</time></trkpt><trkpt lat="45.95610382422024" lon="10.275860731448397"><ele>526.0</ele><time>2026-05-02T14:26:06.001Z</time></trkpt><trkpt lat="45.956098658583734" lon="10.275993456253786"><ele>526.0</ele><time>2026-05-02T14:26:08.001Z</time></trkpt><trkpt lat="45.956161392115085" lon="10.276139343757004"><ele>526.0</ele><time>2026-05-02T14:26:10.001Z</time></trkpt><trkpt lat="45.95619995104418" lon="10.276276597312151"><ele>526.0</ele><time>2026-05-02T14:26:12.001Z</time></trkpt><trkpt lat="45.95619796238444" lon="10.27639226018184"><ele>526.0</ele><time>2026-05-02T14:26:14.001Z</time></trkpt><trkpt lat="45.95620397247895" lon="10.276494348876659"><ele>526.0</ele><time>2026-05-02T14:26:17.001Z</time></trkpt><trkpt lat="45.95613101356865" lon="10.276475648537616"><ele>526.0</ele><time>2026-05-02T14:26:19.001Z</time></trkpt><trkpt lat="45.95605408281618" lon="10.276384916183341"><ele>526.0</ele><time>2026-05-02T14:26:20.001Z</time></trkpt><trkpt lat="45.95598139816542" lon="10.27627883795142"><ele>526.0</ele><time>2026-05-02T14:26:21.001Z</time></trkpt><trkpt lat="45.95589833022081" lon="10.276052905111033"><ele>514.5</ele><time>2026-05-02T14:26:23.001Z</time></trkpt><trkpt lat="45.95579550823325" lon="10.275916025074757"><ele>503.0</ele><time>2026-05-02T14:26:24.001Z</time></trkpt><trkpt lat="45.95573172052576" lon="10.27575770524465"><ele>491.5</ele><time>2026-05-02T14:26:25.001Z</time></trkpt><trkpt lat="45.955637081906445" lon="10.2755859588118"><ele>480.0</ele><time>2026-05-02T14:26:26.001Z</time></trkpt><trkpt lat="45.95557515626126" lon="10.275472732241221"><ele>480.0</ele><time>2026-05-02T14:26:27.001Z</time></trkpt><trkpt lat="45.955499896073434" lon="10.27532741758375"><ele>480.0</ele><time>2026-05-02T14:26:28.001Z</time></trkpt><trkpt lat="45.95546077475944" lon="10.27518377692567"><ele>480.0</ele><time>2026-05-02T14:26:29.001Z</time></trkpt><trkpt lat="45.95541371484196" lon="10.275065722339544"><ele>480.0</ele><time>2026-05-02T14:26:30.001Z</time></trkpt><trkpt lat="45.955371227824465" lon="10.274959635070653"><ele>480.0</ele><time>2026-05-02T14:26:31.001Z</time></trkpt><trkpt lat="45.95530551926772" lon="10.274882880621375"><ele>480.0</ele><time>2026-05-02T14:26:32.001Z</time></trkpt><trkpt lat="45.95525429796612" lon="10.274822450720222"><ele>480.0</ele><time>2026-05-02T14:26:33.001Z</time></trkpt><trkpt lat="45.95518705262776" lon="10.274710741294307"><ele>480.0</ele><time>2026-05-02T14:26:35.001Z</time></trkpt><trkpt lat="45.95513867125364" lon="10.274625964670939"><ele>480.0</ele><time>2026-05-02T14:26:36.001Z</time></trkpt><trkpt lat="45.95510282351503" lon="10.274535664258423"><ele>480.0</ele><time>2026-05-02T14:26:37.001Z</time></trkpt><trkpt lat="45.95505894128573" lon="10.274462020794287"><ele>480.0</ele><time>2026-05-02T14:26:38.001Z</time></trkpt><trkpt lat="45.955008497907095" lon="10.274394273108955"><ele>476.5</ele><time>2026-05-02T14:26:39.001Z</time></trkpt><trkpt lat="45.95494850607591" lon="10.274340039787871"><ele>473.0</ele><time>2026-05-02T14:26:40.001Z</time></trkpt><trkpt lat="45.95488496135317" lon="10.274274637824025"><ele>469.5</ele><time>2026-05-02T14:26:41.001Z</time></trkpt><trkpt lat="45.954812098128144" lon="10.274220683716937"><ele>466.0</ele><time>2026-05-02T14:26:42.001Z</time></trkpt><trkpt lat="45.9547468589991" lon="10.274143462038873"><ele>462.5</ele><time>2026-05-02T14:26:43.001Z</time></trkpt><trkpt lat="45.95469477967445" lon="10.274040489216164"><ele>459.0</ele><time>2026-05-02T14:26:44.001Z</time></trkpt><trkpt lat="45.95465190393265" lon="10.273930858073786"><ele>459.0</ele><time>2026-05-02T14:26:45.001Z</time></trkpt><trkpt lat="45.95463124454972" lon="10.273813477889979"><ele>459.0</ele><time>2026-05-02T14:26:46.001Z</time></trkpt><trkpt lat="45.954608619271276" lon="10.273705781680123"><ele>459.0</ele><time>2026-05-02T14:26:47.001Z</time></trkpt><trkpt lat="45.954564702706925" lon="10.273608603936252"><ele>459.0</ele><time>2026-05-02T14:26:48.001Z</time></trkpt><trkpt lat="45.954532966695645" lon="10.273515988533594"><ele>459.0</ele><time>2026-05-02T14:26:49.001Z</time></trkpt><trkpt lat="45.954495990840364" lon="10.273437960869915"><ele>459.0</ele><time>2026-05-02T14:26:50.001Z</time></trkpt><trkpt lat="45.95446782979529" lon="10.273353474654979"><ele>459.0</ele><time>2026-05-02T14:26:51.001Z</time></trkpt><trkpt lat="45.95442345798473" lon="10.273228948458392"><ele>459.0</ele><time>2026-05-02T14:26:53.001Z</time></trkpt><trkpt lat="45.95436013922759" lon="10.273222244611153"><ele>459.0</ele><time>2026-05-02T14:26:55.001Z</time></trkpt><trkpt lat="45.954296176966864" lon="10.273276450113102"><ele>459.0</ele><time>2026-05-02T14:26:57.001Z</time></trkpt><trkpt lat="45.95426367067676" lon="10.273354977613739"><ele>459.0</ele><time>2026-05-02T14:26:58.001Z</time></trkpt><trkpt lat="45.954247815474034" lon="10.273563406127403"><ele>459.0</ele><time>2026-05-02T14:27:00.001Z</time></trkpt><trkpt lat="45.954251635050966" lon="10.273688208400756"><ele>459.0</ele><time>2026-05-02T14:27:01.001Z</time></trkpt><trkpt lat="45.95424748904669" lon="10.273813345732393"><ele>459.0</ele><time>2026-05-02T14:27:02.001Z</time></trkpt><trkpt lat="45.95427104862736" lon="10.273934869353054"><ele>459.0</ele><time>2026-05-02T14:27:03.001Z</time></trkpt><trkpt lat="45.954298229767105" lon="10.274056776335751"><ele>459.0</ele><time>2026-05-02T14:27:04.001Z</time></trkpt><trkpt lat="45.95430360538351" lon="10.274181860312076"><ele>459.0</ele><time>2026-05-02T14:27:05.001Z</time></trkpt><trkpt lat="45.95431940145659" lon="10.274316317017897"><ele>459.0</ele><time>2026-05-02T14:27:06.001Z</time></trkpt><trkpt lat="45.95433620556177" lon="10.274440898811223"><ele>459.0</ele><time>2026-05-02T14:27:07.001Z</time></trkpt><trkpt lat="45.954355125194" lon="10.274564719567383"><ele>457.0</ele><time>2026-05-02T14:27:08.001Z</time></trkpt><trkpt lat="45.95437447435881" lon="10.274685898726588"><ele>455.0</ele><time>2026-05-02T14:27:09.001Z</time></trkpt><trkpt lat="45.954393686259195" lon="10.274803585803731"><ele>453.0</ele><time>2026-05-02T14:27:10.001Z</time></trkpt><trkpt lat="45.95441391577632" lon="10.274925556787394"><ele>451.0</ele><time>2026-05-02T14:27:11.001Z</time></trkpt><trkpt lat="45.95443470805053" lon="10.275043060782162"><ele>449.0</ele><time>2026-05-02T14:27:12.001Z</time></trkpt><trkpt lat="45.95445803572637" lon="10.275174893507788"><ele>447.0</ele><time>2026-05-02T14:27:13.001Z</time></trkpt><trkpt lat="45.95448170790984" lon="10.2753089802817"><ele>441.40000000000003</ele><time>2026-05-02T14:27:14.001Z</time></trkpt><trkpt lat="45.954502858422806" lon="10.275452099847454"><ele>435.80000000000007</ele><time>2026-05-02T14:27:15.001Z</time></trkpt><trkpt lat="45.95452367821077" lon="10.275595719233173"><ele>430.2</ele><time>2026-05-02T14:27:16.001Z</time></trkpt><trkpt lat="45.954545566443684" lon="10.275744132431246"><ele>424.6</ele><time>2026-05-02T14:27:17.001Z</time></trkpt><trkpt lat="45.95456096866651" lon="10.27586926727986"><ele>419.0</ele><time>2026-05-02T14:27:18.001Z</time></trkpt><trkpt lat="45.954534672636356" lon="10.27599860685173"><ele>414.99999999999994</ele><time>2026-05-02T14:27:19.001Z</time></trkpt><trkpt lat="45.954554985967036" lon="10.276165623976532"><ele>411.0</ele><time>2026-05-02T14:27:21.001Z</time></trkpt><trkpt lat="45.95465195191805" lon="10.27623816351649"><ele>407.0</ele><time>2026-05-02T14:27:22.001Z</time></trkpt><trkpt lat="45.9546891137912" lon="10.27633172984666"><ele>403.0</ele><time>2026-05-02T14:27:23.001Z</time></trkpt><trkpt lat="45.954612034016954" lon="10.276364872992525"><ele>398.99999999999994</ele><time>2026-05-02T14:27:25.001Z</time></trkpt><trkpt lat="45.95454878019731" lon="10.276345414896554"><ele>395.0</ele><time>2026-05-02T14:27:27.001Z</time></trkpt><trkpt lat="45.95449193231533" lon="10.276303785027745"><ele>394.99999999999994</ele><time>2026-05-02T14:27:28.001Z</time></trkpt><trkpt lat="45.95442417970458" lon="10.276258311256807"><ele>395.0</ele><time>2026-05-02T14:27:29.001Z</time></trkpt><trkpt lat="45.954379803534984" lon="10.27618252458264"><ele>395.0</ele><time>2026-05-02T14:27:30.001Z</time></trkpt><trkpt lat="45.95434022790863" lon="10.276084168708321"><ele>395.0</ele><time>2026-05-02T14:27:31.001Z</time></trkpt><trkpt lat="45.95429849412488" lon="10.27597498562258"><ele>394.99999999999994</ele><time>2026-05-02T14:27:32.001Z</time></trkpt><trkpt lat="45.9542462045642" lon="10.275881653009586"><ele>395.0</ele><time>2026-05-02T14:27:33.001Z</time></trkpt><trkpt lat="45.95419831718533" lon="10.275794860192924"><ele>389.99999999999994</ele><time>2026-05-02T14:27:34.001Z</time></trkpt><trkpt lat="45.954145346567344" lon="10.275685593365488"><ele>385.0</ele><time>2026-05-02T14:27:35.001Z</time></trkpt><trkpt lat="45.95413055606769" lon="10.275580089541156"><ele>380.0</ele><time>2026-05-02T14:27:36.001Z</time></trkpt><trkpt lat="45.954133126346235" lon="10.275482573815477"><ele>375.0</ele><time>2026-05-02T14:27:37.001Z</time></trkpt><trkpt lat="45.954146278978875" lon="10.275353273286854"><ele>370.0</ele><time>2026-05-02T14:27:38.001Z</time></trkpt><trkpt lat="45.954141270652116" lon="10.275225511805932"><ele>365.0</ele><time>2026-05-02T14:27:39.001Z</time></trkpt><trkpt lat="45.954151776246185" lon="10.275088327624122"><ele>365.0</ele><time>2026-05-02T14:27:40.001Z</time></trkpt><trkpt lat="45.95415906237162" lon="10.274947389480042"><ele>365.0</ele><time>2026-05-02T14:27:41.001Z</time></trkpt><trkpt lat="45.95416678866983" lon="10.274824079324377"><ele>365.0</ele><time>2026-05-02T14:27:42.001Z</time></trkpt><trkpt lat="45.95414080805175" lon="10.274706840912538"><ele>365.0</ele><time>2026-05-02T14:27:43.001Z</time></trkpt><trkpt lat="45.9541205247805" lon="10.274605753624753"><ele>365.0</ele><time>2026-05-02T14:27:44.001Z</time></trkpt><trkpt lat="45.9540619452799" lon="10.274494906721584"><ele>365.0</ele><time>2026-05-02T14:27:45.001Z</time></trkpt><trkpt lat="45.95402799506423" lon="10.274352457979383"><ele>368.0</ele><time>2026-05-02T14:27:46.001Z</time></trkpt><trkpt lat="45.953997393513454" lon="10.27419460773003"><ele>371.0</ele><time>2026-05-02T14:27:47.001Z</time></trkpt><trkpt lat="45.95395799690936" lon="10.274048218927343"><ele>374.0</ele><time>2026-05-02T14:27:48.001Z</time></trkpt><trkpt lat="45.95391579783954" lon="10.273891416600222"><ele>377.0</ele><time>2026-05-02T14:27:49.001Z</time></trkpt><trkpt lat="45.9538752104011" lon="10.273740834031297"><ele>379.8</ele><time>2026-05-02T14:27:50.001Z</time></trkpt><trkpt lat="45.95383698521185" lon="10.273599050044869"><ele>382.6</ele><time>2026-05-02T14:27:51.001Z</time></trkpt><trkpt lat="45.95380403442663" lon="10.273476095027009"><ele>385.40000000000003</ele><time>2026-05-02T14:27:52.001Z</time></trkpt><trkpt lat="45.953770460696745" lon="10.273350459373127"><ele>388.20000000000005</ele><time>2026-05-02T14:27:53.001Z</time></trkpt><trkpt lat="45.95373717380127" lon="10.273231596905559"><ele>391.0</ele><time>2026-05-02T14:27:54.001Z</time></trkpt><trkpt lat="45.9536986362097" lon="10.27311806752223"><ele>389.0</ele><time>2026-05-02T14:27:55.001Z</time></trkpt><trkpt lat="45.953645119699665" lon="10.272992512881299"><ele>387.0</ele><time>2026-05-02T14:27:56.001Z</time></trkpt><trkpt lat="45.953600676829794" lon="10.272874048825726"><ele>385.0</ele><time>2026-05-02T14:27:57.001Z</time></trkpt><trkpt lat="45.95358215656085" lon="10.272725760460494"><ele>383.0</ele><time>2026-05-02T14:27:58.001Z</time></trkpt><trkpt lat="45.95354938532892" lon="10.27261239911801"><ele>381.0</ele><time>2026-05-02T14:27:59.001Z</time></trkpt><trkpt lat="45.95351725134035" lon="10.272514462387349"><ele>381.0</ele><time>2026-05-02T14:28:00.001Z</time></trkpt><trkpt lat="45.95349564532909" lon="10.272400787357748"><ele>381.0</ele><time>2026-05-02T14:28:01.001Z</time></trkpt><trkpt lat="45.95344955708193" lon="10.272273089822608"><ele>381.0</ele><time>2026-05-02T14:28:02.001Z</time></trkpt><trkpt lat="45.953398007101455" lon="10.272139117949074"><ele>381.0</ele><time>2026-05-02T14:28:03.001Z</time></trkpt><trkpt lat="45.953369080389336" lon="10.27200320920669"><ele>381.0</ele><time>2026-05-02T14:28:04.001Z</time></trkpt><trkpt lat="45.953378384162654" lon="10.271864392708897"><ele>380.6</ele><time>2026-05-02T14:28:05.001Z</time></trkpt><trkpt lat="45.95338374245313" lon="10.271725562699713"><ele>380.20000000000005</ele><time>2026-05-02T14:28:06.001Z</time></trkpt><trkpt lat="45.95342394808206" lon="10.271604735717258"><ele>379.79999999999995</ele><time>2026-05-02T14:28:07.001Z</time></trkpt><trkpt lat="45.95345213464405" lon="10.271481575193704"><ele>379.4</ele><time>2026-05-02T14:28:08.001Z</time></trkpt><trkpt lat="45.95345347066299" lon="10.271350594805597"><ele>379.0</ele><time>2026-05-02T14:28:09.001Z</time></trkpt><trkpt lat="45.953437481077636" lon="10.271235900737052"><ele>379.66666666666663</ele><time>2026-05-02T14:28:10.001Z</time></trkpt><trkpt lat="45.953379175233714" lon="10.271164959443942"><ele>380.3333333333333</ele><time>2026-05-02T14:28:11.001Z</time></trkpt><trkpt lat="45.95332455552006" lon="10.27105230341603"><ele>381.0</ele><time>2026-05-02T14:28:12.001Z</time></trkpt><trkpt lat="45.95327246518665" lon="10.270962628819555"><ele>381.6666666666667</ele><time>2026-05-02T14:28:13.001Z</time></trkpt><trkpt lat="45.95322239834597" lon="10.270865951473843"><ele>382.33333333333337</ele><time>2026-05-02T14:28:14.001Z</time></trkpt><trkpt lat="45.95316624370474" lon="10.270796961986687"><ele>383.0</ele><time>2026-05-02T14:28:15.001Z</time></trkpt><trkpt lat="45.95307184530142" lon="10.270723943631314"><ele>375.1666666666667</ele><time>2026-05-02T14:28:17.001Z</time></trkpt><trkpt lat="45.95299414299483" lon="10.270761296900902"><ele>367.33333333333337</ele><time>2026-05-02T14:28:18.001Z</time></trkpt><trkpt lat="45.95289573211131" lon="10.270768293931411"><ele>359.5</ele><time>2026-05-02T14:28:20.001Z</time></trkpt><trkpt lat="45.952830388790815" lon="10.270783588471899"><ele>351.6666666666667</ele><time>2026-05-02T14:28:21.001Z</time></trkpt><trkpt lat="45.95275996661867" lon="10.270786353413042"><ele>343.8333333333333</ele><time>2026-05-02T14:28:23.001Z</time></trkpt><trkpt lat="45.952694869397824" lon="10.270782941346464"><ele>336.0</ele><time>2026-05-02T14:28:24.001Z</time></trkpt><trkpt lat="45.95258204068376" lon="10.270813178231812"><ele>336.0</ele><time>2026-05-02T14:28:26.001Z</time></trkpt><trkpt lat="45.95266024926513" lon="10.271170618278108"><ele>336.0</ele><time>2026-05-02T14:28:27.001Z</time></trkpt><trkpt lat="45.952708079024255" lon="10.271269153826097"><ele>336.0</ele><time>2026-05-02T14:28:28.001Z</time></trkpt><trkpt lat="45.952693543044944" lon="10.27136223771706"><ele>336.0</ele><time>2026-05-02T14:28:30.001Z</time></trkpt><trkpt lat="45.952644012981686" lon="10.27143966049793"><ele>335.14285714285717</ele><time>2026-05-02T14:28:31.001Z</time></trkpt><trkpt lat="45.95258842391166" lon="10.271519534556829"><ele>334.2857142857143</ele><time>2026-05-02T14:28:35.001Z</time></trkpt><trkpt lat="45.95252061717224" lon="10.271578128983316"><ele>333.42857142857144</ele><time>2026-05-02T14:28:37.001Z</time></trkpt><trkpt lat="45.95244995283851" lon="10.271624412867485"><ele>332.57142857142856</ele><time>2026-05-02T14:28:39.001Z</time></trkpt><trkpt lat="45.95238526655249" lon="10.27164503767612"><ele>331.7142857142857</ele><time>2026-05-02T14:28:41.001Z</time></trkpt><trkpt lat="45.9523294860825" lon="10.271714177882787"><ele>330.8571428571429</ele><time>2026-05-02T14:28:44.001Z</time></trkpt><trkpt lat="45.95227813440152" lon="10.271771514888705"><ele>330.0</ele><time>2026-05-02T14:28:46.001Z</time></trkpt><trkpt lat="45.95225006562605" lon="10.271867057295928"><ele>326.6</ele><time>2026-05-02T14:28:48.001Z</time></trkpt><trkpt lat="45.95223260611301" lon="10.272081262177563"><ele>323.2</ele><time>2026-05-02T14:28:50.001Z</time></trkpt><trkpt lat="45.9521823213445" lon="10.272224698357943"><ele>319.8</ele><time>2026-05-02T14:28:51.001Z</time></trkpt><trkpt lat="45.952102168582336" lon="10.272319076933396"><ele>316.4</ele><time>2026-05-02T14:28:52.001Z</time></trkpt><trkpt lat="45.9520648393985" lon="10.272416269093801"><ele>313.0</ele><time>2026-05-02T14:28:53.001Z</time></trkpt><trkpt lat="45.95198304503414" lon="10.272544319342392"><ele>313.6</ele><time>2026-05-02T14:28:55.001Z</time></trkpt><trkpt lat="45.951863112135776" lon="10.272601976839594"><ele>314.20000000000005</ele><time>2026-05-02T14:28:57.001Z</time></trkpt><trkpt lat="45.95178975579924" lon="10.272617142921522"><ele>314.8</ele><time>2026-05-02T14:28:58.001Z</time></trkpt><trkpt lat="45.95169161011469" lon="10.272585072513495"><ele>315.40000000000003</ele><time>2026-05-02T14:29:00.001Z</time></trkpt><trkpt lat="45.951610399233154" lon="10.272525560966608"><ele>316.0</ele><time>2026-05-02T14:29:03.001Z</time></trkpt><trkpt lat="45.95152384761146" lon="10.272455228268003"><ele>316.0</ele><time>2026-05-02T14:29:06.001Z</time></trkpt><trkpt lat="45.951458608802206" lon="10.272414645868679"><ele>316.0</ele><time>2026-05-02T14:29:08.001Z</time></trkpt><trkpt lat="45.95137005378617" lon="10.272571900197654"><ele>316.0</ele><time>2026-05-02T14:29:11.001Z</time></trkpt><trkpt lat="45.951212239828614" lon="10.272694548541494"><ele>316.0</ele><time>2026-05-02T14:29:12.001Z</time></trkpt><trkpt lat="45.95118130702496" lon="10.272797228445995"><ele>316.0</ele><time>2026-05-02T14:29:13.001Z</time></trkpt><trkpt lat="45.95114871642175" lon="10.272905413782233"><ele>316.0</ele><time>2026-05-02T14:29:14.001Z</time></trkpt><trkpt lat="45.95111662211714" lon="10.273008453204909"><ele>316.0</ele><time>2026-05-02T14:29:15.001Z</time></trkpt><trkpt lat="45.9510797177128" lon="10.273119314895368"><ele>316.0</ele><time>2026-05-02T14:29:16.001Z</time></trkpt><trkpt lat="45.95104217064207" lon="10.273218130098147"><ele>316.0</ele><time>2026-05-02T14:29:17.001Z</time></trkpt><trkpt lat="45.95095235494609" lon="10.273377292955896"><ele>314.8333333333333</ele><time>2026-05-02T14:29:19.001Z</time></trkpt><trkpt lat="45.95090779447093" lon="10.27347377778801"><ele>313.66666666666663</ele><time>2026-05-02T14:29:20.001Z</time></trkpt><trkpt lat="45.95087137019662" lon="10.273590640127887"><ele>312.5</ele><time>2026-05-02T14:29:21.001Z</time></trkpt><trkpt lat="45.950846967904134" lon="10.273687909966908"><ele>311.3333333333333</ele><time>2026-05-02T14:29:22.001Z</time></trkpt><trkpt lat="45.950806649402494" lon="10.273786955845555"><ele>310.1666666666667</ele><time>2026-05-02T14:29:23.001Z</time></trkpt><trkpt lat="45.95076239459375" lon="10.27387960337118"><ele>309.0</ele><time>2026-05-02T14:29:24.001Z</time></trkpt><trkpt lat="45.95070116082008" lon="10.273953854218732"><ele>307.8333333333333</ele><time>2026-05-02T14:29:25.001Z</time></trkpt><trkpt lat="45.95065982686708" lon="10.274040955706488"><ele>306.6666666666667</ele><time>2026-05-02T14:29:26.001Z</time></trkpt><trkpt lat="45.95062501109441" lon="10.274146964887754"><ele>305.5</ele><time>2026-05-02T14:29:27.001Z</time></trkpt><trkpt lat="45.95058166567032" lon="10.274239074467193"><ele>304.33333333333337</ele><time>2026-05-02T14:29:28.001Z</time></trkpt><trkpt lat="45.95053178041427" lon="10.274335475645445"><ele>303.1666666666667</ele><time>2026-05-02T14:29:29.001Z</time></trkpt><trkpt lat="45.95048453189691" lon="10.274439129279251"><ele>302.0</ele><time>2026-05-02T14:29:30.001Z</time></trkpt><trkpt lat="45.95043745250925" lon="10.274541580036031"><ele>302.0</ele><time>2026-05-02T14:29:31.001Z</time></trkpt><trkpt lat="45.95039341935718" lon="10.274639466201336"><ele>302.0</ele><time>2026-05-02T14:29:32.001Z</time></trkpt><trkpt lat="45.950348665902474" lon="10.274735877038642"><ele>302.0</ele><time>2026-05-02T14:29:33.001Z</time></trkpt><trkpt lat="45.95029111623508" lon="10.2748092325628"><ele>302.0</ele><time>2026-05-02T14:29:34.001Z</time></trkpt><trkpt lat="45.950260673320265" lon="10.274912488538337"><ele>302.0</ele><time>2026-05-02T14:29:35.001Z</time></trkpt><trkpt lat="45.95021062985892" lon="10.275007485988933"><ele>302.0</ele><time>2026-05-02T14:29:36.001Z</time></trkpt><trkpt lat="45.95016039352233" lon="10.275106197486924"><ele>300.75</ele><time>2026-05-02T14:29:37.001Z</time></trkpt><trkpt lat="45.95011957452589" lon="10.275193954021898"><ele>299.5</ele><time>2026-05-02T14:29:38.001Z</time></trkpt><trkpt lat="45.95006620818526" lon="10.27531113051913"><ele>298.25</ele><time>2026-05-02T14:29:40.001Z</time></trkpt><trkpt lat="45.950249944324696" lon="10.275080094661252"><ele>297.0</ele><time>2026-05-02T14:29:44.001Z</time></trkpt><trkpt lat="45.950191260438274" lon="10.275144331206377"><ele>297.0</ele><time>2026-05-02T14:29:45.001Z</time></trkpt><trkpt lat="45.950239775615394" lon="10.275071318036707"><ele>297.0</ele><time>2026-05-02T14:29:46.001Z</time></trkpt><trkpt lat="45.950275150647066" lon="10.274993770218325"><ele>297.0</ele><time>2026-05-02T14:29:47.001Z</time></trkpt><trkpt lat="45.95034289197597" lon="10.274878168208366"><ele>297.0</ele><time>2026-05-02T14:29:49.001Z</time></trkpt><trkpt lat="45.95041411874562" lon="10.274762510796034"><ele>297.0</ele><time>2026-05-02T14:29:51.001Z</time></trkpt><trkpt lat="45.95050651861391" lon="10.274670153042186"><ele>297.0</ele><time>2026-05-02T14:29:53.001Z</time></trkpt><trkpt lat="45.95056951818752" lon="10.27463034546381"><ele>297.0</ele><time>2026-05-02T14:29:55.001Z</time></trkpt><trkpt lat="45.950502923126564" lon="10.274655854953123"><ele>297.0</ele><time>2026-05-02T14:41:31.001Z</time></trkpt><trkpt lat="45.95042407643576" lon="10.274686890286313"><ele>297.0</ele><time>2026-05-02T14:41:34.001Z</time></trkpt><trkpt lat="45.950339930531726" lon="10.274713782096507"><ele>297.0</ele><time>2026-05-02T14:41:47.001Z</time></trkpt><trkpt lat="45.950243611237596" lon="10.274817817158798"><ele>297.0</ele><time>2026-05-02T14:41:49.001Z</time></trkpt><trkpt lat="45.95021339188659" lon="10.274902273732911"><ele>297.0</ele><time>2026-05-02T14:41:50.001Z</time></trkpt><trkpt lat="45.950141678659826" lon="10.275048212868015"><ele>297.0</ele><time>2026-05-02T14:41:52.001Z</time></trkpt><trkpt lat="45.95009581303026" lon="10.275117155541789"><ele>297.0</ele><time>2026-05-02T14:41:53.001Z</time></trkpt><trkpt lat="45.950020436365996" lon="10.275264953900844"><ele>297.0</ele><time>2026-05-02T14:41:55.001Z</time></trkpt><trkpt lat="45.94996381652926" lon="10.27540606588375"><ele>297.0</ele><time>2026-05-02T14:41:57.001Z</time></trkpt><trkpt lat="45.94992765318869" lon="10.275481567811651"><ele>297.0</ele><time>2026-05-02T14:41:58.001Z</time></trkpt><trkpt lat="45.949882148826056" lon="10.275545158673744"><ele>297.0</ele><time>2026-05-02T14:41:59.001Z</time></trkpt><trkpt lat="45.94981407124228" lon="10.275689651950593"><ele>297.0</ele><time>2026-05-02T14:42:01.001Z</time></trkpt><trkpt lat="45.949738062956655" lon="10.27582267717822"><ele>297.0</ele><time>2026-05-02T14:42:03.001Z</time></trkpt><trkpt lat="45.94966081613642" lon="10.275957631253183"><ele>297.0</ele><time>2026-05-02T14:42:05.001Z</time></trkpt><trkpt lat="45.9496196371503" lon="10.27602842016481"><ele>296.0</ele><time>2026-05-02T14:42:06.001Z</time></trkpt><trkpt lat="45.94953489492487" lon="10.276154471726803"><ele>295.0</ele><time>2026-05-02T14:42:08.001Z</time></trkpt><trkpt lat="45.949463993570554" lon="10.276220729124653"><ele>294.0</ele><time>2026-05-02T14:42:10.001Z</time></trkpt><trkpt lat="45.94938345863244" lon="10.276323937359866"><ele>293.0</ele><time>2026-05-02T14:42:12.001Z</time></trkpt><trkpt lat="45.949327988678746" lon="10.276395583830388"><ele>292.0</ele><time>2026-05-02T14:42:13.001Z</time></trkpt><trkpt lat="45.94924994345189" lon="10.276484382065235"><ele>290.66666666666663</ele><time>2026-05-02T14:42:14.001Z</time></trkpt><trkpt lat="45.9491801888315" lon="10.276568926479008"><ele>289.3333333333333</ele><time>2026-05-02T14:42:15.001Z</time></trkpt><trkpt lat="45.94911783918881" lon="10.276643859599126"><ele>288.0</ele><time>2026-05-02T14:42:16.001Z</time></trkpt><trkpt lat="45.94905031064326" lon="10.2767224121105"><ele>286.6666666666667</ele><time>2026-05-02T14:42:17.001Z</time></trkpt><trkpt lat="45.94898335366736" lon="10.276813860191556"><ele>285.33333333333337</ele><time>2026-05-02T14:42:18.001Z</time></trkpt><trkpt lat="45.94891558575074" lon="10.276898980892707"><ele>284.0</ele><time>2026-05-02T14:42:19.001Z</time></trkpt><trkpt lat="45.94885887024074" lon="10.276984430381148"><ele>284.0</ele><time>2026-05-02T14:42:20.001Z</time></trkpt><trkpt lat="45.94880862161513" lon="10.277058008524223"><ele>284.0</ele><time>2026-05-02T14:42:21.001Z</time></trkpt><trkpt lat="45.948728442803244" lon="10.277138378103873"><ele>284.0</ele><time>2026-05-02T14:42:23.001Z</time></trkpt><trkpt lat="45.948625159365456" lon="10.277102416529557"><ele>284.0</ele><time>2026-05-02T14:42:24.001Z</time></trkpt><trkpt lat="45.9485477439775" lon="10.2770972407893"><ele>284.0</ele><time>2026-05-02T14:42:25.001Z</time></trkpt><trkpt lat="45.94846546929824" lon="10.27707281481885"><ele>284.0</ele><time>2026-05-02T14:42:26.001Z</time></trkpt><trkpt lat="45.94837833809763" lon="10.277048692341795"><ele>283.59999999999997</ele><time>2026-05-02T14:42:27.001Z</time></trkpt><trkpt lat="45.94829494452828" lon="10.276999550957756"><ele>283.2</ele><time>2026-05-02T14:42:28.001Z</time></trkpt><trkpt lat="45.948198067184066" lon="10.27697430746123"><ele>282.79999999999995</ele><time>2026-05-02T14:42:29.001Z</time></trkpt><trkpt lat="45.94811803376748" lon="10.27693929150122"><ele>282.4</ele><time>2026-05-02T14:42:30.001Z</time></trkpt><trkpt lat="45.94803208118035" lon="10.276899116975878"><ele>282.0</ele><time>2026-05-02T14:42:31.001Z</time></trkpt><trkpt lat="45.9479385248724" lon="10.276840862091957"><ele>282.0</ele><time>2026-05-02T14:42:32.001Z</time></trkpt><trkpt lat="45.94784763810594" lon="10.27680222530305"><ele>282.0</ele><time>2026-05-02T14:42:33.001Z</time></trkpt><trkpt lat="45.94775392166985" lon="10.276793082960157"><ele>282.0</ele><time>2026-05-02T14:42:34.001Z</time></trkpt><trkpt lat="45.94766129023922" lon="10.276772858539339"><ele>282.0</ele><time>2026-05-02T14:42:35.001Z</time></trkpt><trkpt lat="45.94756654990522" lon="10.276784668860273"><ele>282.0</ele><time>2026-05-02T14:42:36.001Z</time></trkpt><trkpt lat="45.94747279804919" lon="10.276805383589057"><ele>281.5</ele><time>2026-05-02T14:42:37.001Z</time></trkpt><trkpt lat="45.9473821948536" lon="10.276827164583919"><ele>281.0</ele><time>2026-05-02T14:42:38.001Z</time></trkpt><trkpt lat="45.94729159285073" lon="10.27686403490883"><ele>280.5</ele><time>2026-05-02T14:42:39.001Z</time></trkpt><trkpt lat="45.947209978792195" lon="10.276892373286719"><ele>280.0</ele><time>2026-05-02T14:42:40.001Z</time></trkpt><trkpt lat="45.94711377044301" lon="10.2769104712134"><ele>279.5</ele><time>2026-05-02T14:42:41.001Z</time></trkpt><trkpt lat="45.94704000084075" lon="10.276934372234118"><ele>279.0</ele><time>2026-05-02T14:42:42.001Z</time></trkpt><trkpt lat="45.94700171660969" lon="10.277131988698919"><ele>279.0</ele><time>2026-05-02T14:42:43.001Z</time></trkpt><trkpt lat="45.94693083062896" lon="10.277210235834708"><ele>279.0</ele><time>2026-05-02T14:42:44.001Z</time></trkpt><trkpt lat="45.94687357099505" lon="10.277301516886668"><ele>279.0</ele><time>2026-05-02T14:42:45.001Z</time></trkpt><trkpt lat="45.94680492965026" lon="10.277385744892053"><ele>279.0</ele><time>2026-05-02T14:42:46.001Z</time></trkpt><trkpt lat="45.94672292562905" lon="10.277459173547099"><ele>279.0</ele><time>2026-05-02T14:42:47.001Z</time></trkpt><trkpt lat="45.946647301655645" lon="10.27753185609479"><ele>278.4</ele><time>2026-05-02T14:42:48.001Z</time></trkpt><trkpt lat="45.94656449929648" lon="10.277609051570673"><ele>277.79999999999995</ele><time>2026-05-02T14:42:49.001Z</time></trkpt><trkpt lat="45.94649162290203" lon="10.277713434152538"><ele>277.20000000000005</ele><time>2026-05-02T14:42:50Z</time></trkpt><trkpt lat="45.94641681204523" lon="10.277788453190727"><ele>276.6</ele><time>2026-05-02T14:42:51Z</time></trkpt><trkpt lat="45.94635430466599" lon="10.27786858757215"><ele>276.0</ele><time>2026-05-02T14:42:52Z</time></trkpt><trkpt lat="45.94629555570171" lon="10.277940739757131"><ele>276.0</ele><time>2026-05-02T14:42:53Z</time></trkpt><trkpt lat="45.94625118283738" lon="10.278008197915284"><ele>276.0</ele><time>2026-05-02T14:42:54Z</time></trkpt><trkpt lat="45.946205428280976" lon="10.278085081676291"><ele>276.0</ele><time>2026-05-02T14:42:55Z</time></trkpt><trkpt lat="45.94615228031087" lon="10.278147397442956"><ele>276.0</ele><time>2026-05-02T14:42:56Z</time></trkpt><trkpt lat="45.94604614205882" lon="10.278273628616835"><ele>276.0</ele><time>2026-05-02T14:42:58Z</time></trkpt><trkpt lat="45.945966052246625" lon="10.278253461592403"><ele>276.0</ele><time>2026-05-02T14:42:59Z</time></trkpt><trkpt lat="45.945898331944065" lon="10.278171116652379"><ele>274.5</ele><time>2026-05-02T14:43:00Z</time></trkpt><trkpt lat="45.945839838044904" lon="10.278080485652188"><ele>273.0</ele><time>2026-05-02T14:43:01Z</time></trkpt><trkpt lat="45.945778069489705" lon="10.277949009551431"><ele>271.5</ele><time>2026-05-02T14:43:03Z</time></trkpt><trkpt lat="45.94579945797871" lon="10.278093350364532"><ele>270.0</ele><time>2026-05-02T14:43:05Z</time></trkpt><trkpt lat="45.94557439049035" lon="10.277894087408036"><ele>270.0</ele><time>2026-05-02T14:43:06Z</time></trkpt><trkpt lat="45.945477271829226" lon="10.277983932450555"><ele>270.0</ele><time>2026-05-02T14:43:09Z</time></trkpt><trkpt lat="45.94536980240353" lon="10.278083497453688"><ele>270.0</ele><time>2026-05-02T14:43:11Z</time></trkpt><trkpt lat="45.94531327470059" lon="10.27813604610248"><ele>270.0</ele><time>2026-05-02T14:43:12Z</time></trkpt><trkpt lat="45.9452524087985" lon="10.278192615823668"><ele>270.0</ele><time>2026-05-02T14:43:14Z</time></trkpt><trkpt lat="45.94521028005212" lon="10.27799559360249"><ele>270.0</ele><time>2026-05-02T14:43:17Z</time></trkpt><trkpt lat="45.94516514820962" lon="10.277891706673314"><ele>270.0</ele><time>2026-05-02T14:43:18Z</time></trkpt><trkpt lat="45.945232309662174" lon="10.278139481221094"><ele>270.0</ele><time>2026-05-02T14:43:19Z</time></trkpt><trkpt lat="45.94518807509856" lon="10.278011651069573"><ele>270.0</ele><time>2026-05-02T14:43:20Z</time></trkpt><trkpt lat="45.94513483984247" lon="10.27786185599747"><ele>270.0</ele><time>2026-05-02T14:43:21Z</time></trkpt><trkpt lat="45.94509190687028" lon="10.277746830065459"><ele>270.0</ele><time>2026-05-02T14:43:22Z</time></trkpt><trkpt lat="45.94504224876233" lon="10.277622375558554"><ele>270.0</ele><time>2026-05-02T14:43:23Z</time></trkpt><trkpt lat="45.944992934580206" lon="10.277498782973606"><ele>270.0</ele><time>2026-05-02T14:43:24Z</time></trkpt><trkpt lat="45.944944227036686" lon="10.277376710633039"><ele>270.0</ele><time>2026-05-02T14:43:25Z</time></trkpt><trkpt lat="45.94489441735045" lon="10.27725187618013"><ele>269.25</ele><time>2026-05-02T14:43:26Z</time></trkpt><trkpt lat="45.94484337613628" lon="10.277123955218576"><ele>268.5</ele><time>2026-05-02T14:43:27Z</time></trkpt><trkpt lat="45.94479007198958" lon="10.276990363982534"><ele>267.75</ele><time>2026-05-02T14:43:28Z</time></trkpt><trkpt lat="45.944738112254754" lon="10.276858787204981"><ele>267.0</ele><time>2026-05-02T14:43:29Z</time></trkpt><trkpt lat="45.944608782916006" lon="10.276546776318561"><ele>267.0</ele><time>2026-05-02T14:43:30Z</time></trkpt><trkpt lat="45.94457641879416" lon="10.27643837809559"><ele>267.0</ele><time>2026-05-02T14:43:31Z</time></trkpt><trkpt lat="45.94452693281469" lon="10.276332222320711"><ele>267.0</ele><time>2026-05-02T14:43:32Z</time></trkpt><trkpt lat="45.9444707763062" lon="10.276237157805268"><ele>267.0</ele><time>2026-05-02T14:43:33Z</time></trkpt><trkpt lat="45.944421574559364" lon="10.27613910086762"><ele>267.0</ele><time>2026-05-02T14:43:34Z</time></trkpt><trkpt lat="45.94436533485714" lon="10.27605447103317"><ele>267.0</ele><time>2026-05-02T14:43:35Z</time></trkpt><trkpt lat="45.94431854821992" lon="10.275952651782589"><ele>267.0</ele><time>2026-05-02T14:43:36Z</time></trkpt><trkpt lat="45.94427459508864" lon="10.275851492114763"><ele>267.0</ele><time>2026-05-02T14:43:37Z</time></trkpt><trkpt lat="45.94424044695876" lon="10.275744970996278"><ele>267.0</ele><time>2026-05-02T14:43:38Z</time></trkpt><trkpt lat="45.94419810645072" lon="10.275628323970725"><ele>267.0</ele><time>2026-05-02T14:43:39Z</time></trkpt><trkpt lat="45.94415279274619" lon="10.275517391950755"><ele>267.0</ele><time>2026-05-02T14:43:40Z</time></trkpt><trkpt lat="45.944106580546986" lon="10.275406122364544"><ele>267.0</ele><time>2026-05-02T14:43:41Z</time></trkpt><trkpt lat="45.94407453507988" lon="10.275299420334743"><ele>267.0</ele><time>2026-05-02T14:43:42Z</time></trkpt><trkpt lat="45.9440334068891" lon="10.275203204923884"><ele>267.0</ele><time>2026-05-02T14:43:43Z</time></trkpt><trkpt lat="45.94399666694458" lon="10.275097637272285"><ele>267.0</ele><time>2026-05-02T14:43:44Z</time></trkpt><trkpt lat="45.94395171320159" lon="10.274998225171274"><ele>267.0</ele><time>2026-05-02T14:43:45Z</time></trkpt><trkpt lat="45.94390397411887" lon="10.274901614169526"><ele>267.0</ele><time>2026-05-02T14:43:46Z</time></trkpt><trkpt lat="45.94386837823405" lon="10.274791463344442"><ele>267.0</ele><time>2026-05-02T14:43:47Z</time></trkpt><trkpt lat="45.94383017706023" lon="10.274685267841832"><ele>268.1666666666667</ele><time>2026-05-02T14:43:48Z</time></trkpt><trkpt lat="45.943790454292795" lon="10.274591200320447"><ele>269.3333333333333</ele><time>2026-05-02T14:43:49Z</time></trkpt><trkpt lat="45.943743048770656" lon="10.274492695697667"><ele>270.5</ele><time>2026-05-02T14:43:50Z</time></trkpt><trkpt lat="45.94370154991849" lon="10.274392234177622"><ele>271.66666666666663</ele><time>2026-05-02T14:43:51.001Z</time></trkpt><trkpt lat="45.94363304625876" lon="10.274320343802914"><ele>272.8333333333333</ele><time>2026-05-02T14:43:52.001Z</time></trkpt><trkpt lat="45.94358132534033" lon="10.27422755281634"><ele>274.0</ele><time>2026-05-02T14:43:53.001Z</time></trkpt><trkpt lat="45.94351448898365" lon="10.274156928414639"><ele>274.0</ele><time>2026-05-02T14:43:54.001Z</time></trkpt><trkpt lat="45.94345788019307" lon="10.274072374534695"><ele>274.0</ele><time>2026-05-02T14:43:55.001Z</time></trkpt><trkpt lat="45.943416913429246" lon="10.273983248157593"><ele>274.0</ele><time>2026-05-02T14:43:56.001Z</time></trkpt><trkpt lat="45.9433531908715" lon="10.273902654314485"><ele>274.0</ele><time>2026-05-02T14:43:57.001Z</time></trkpt><trkpt lat="45.94329100924672" lon="10.27382162574603"><ele>274.0</ele><time>2026-05-02T14:43:58.001Z</time></trkpt><trkpt lat="45.943233177900694" lon="10.273740168974856"><ele>274.0</ele><time>2026-05-02T14:43:59.001Z</time></trkpt><trkpt lat="45.94316940923736" lon="10.273672056731963"><ele>272.66666666666663</ele><time>2026-05-02T14:44:00.001Z</time></trkpt><trkpt lat="45.94308795579561" lon="10.273618644731597"><ele>271.3333333333333</ele><time>2026-05-02T14:44:01.001Z</time></trkpt><trkpt lat="45.94300279682713" lon="10.27356493706888"><ele>270.0</ele><time>2026-05-02T14:44:02.001Z</time></trkpt><trkpt lat="45.9429387624966" lon="10.273468435631079"><ele>268.6666666666667</ele><time>2026-05-02T14:44:03.001Z</time></trkpt><trkpt lat="45.942885545632755" lon="10.27339639620341"><ele>267.33333333333337</ele><time>2026-05-02T14:44:04.001Z</time></trkpt><trkpt lat="45.94283876269546" lon="10.273316312013488"><ele>266.0</ele><time>2026-05-02T14:44:05.001Z</time></trkpt><trkpt lat="45.94278109528833" lon="10.2732356682111"><ele>266.0</ele><time>2026-05-02T14:44:06.001Z</time></trkpt><trkpt lat="45.94271789735583" lon="10.273165137945366"><ele>266.0</ele><time>2026-05-02T14:44:07.001Z</time></trkpt><trkpt lat="45.94265784662268" lon="10.273096640467735"><ele>266.0</ele><time>2026-05-02T14:44:08.001Z</time></trkpt><trkpt lat="45.94260966409589" lon="10.27300634012807"><ele>266.0</ele><time>2026-05-02T14:44:09.001Z</time></trkpt><trkpt lat="45.942572252629816" lon="10.272903469162761"><ele>266.0</ele><time>2026-05-02T14:44:10.001Z</time></trkpt><trkpt lat="45.94251725708157" lon="10.27282289474449"><ele>266.0</ele><time>2026-05-02T14:44:11.001Z</time></trkpt><trkpt lat="45.942482119589215" lon="10.272713711094465"><ele>265.83333333333337</ele><time>2026-05-02T14:44:12.001Z</time></trkpt><trkpt lat="45.942427766669404" lon="10.2726079947464"><ele>265.6666666666667</ele><time>2026-05-02T14:44:13.001Z</time></trkpt><trkpt lat="45.94239338908315" lon="10.272519176427625"><ele>265.5</ele><time>2026-05-02T14:44:14.001Z</time></trkpt><trkpt lat="45.94235115381912" lon="10.272430308813258"><ele>265.3333333333333</ele><time>2026-05-02T14:44:15.001Z</time></trkpt><trkpt lat="45.94229081272873" lon="10.272346462032207"><ele>265.16666666666663</ele><time>2026-05-02T14:44:16.001Z</time></trkpt><trkpt lat="45.94223929327131" lon="10.272256071870851"><ele>265.0</ele><time>2026-05-02T14:44:17.001Z</time></trkpt><trkpt lat="45.94220373538663" lon="10.272156878429566"><ele>265.0</ele><time>2026-05-02T14:44:18.001Z</time></trkpt><trkpt lat="45.942157216231266" lon="10.272067350661926"><ele>265.0</ele><time>2026-05-02T14:44:19.001Z</time></trkpt><trkpt lat="45.94210831389228" lon="10.271982366065936"><ele>265.0</ele><time>2026-05-02T14:44:20.001Z</time></trkpt><trkpt lat="45.94203887108037" lon="10.271925217847064"><ele>265.0</ele><time>2026-05-02T14:44:21.001Z</time></trkpt><trkpt lat="45.941977813993724" lon="10.271895709233396"><ele>265.0</ele><time>2026-05-02T14:44:22.001Z</time></trkpt><trkpt lat="45.94196765142814" lon="10.27172613026892"><ele>265.0</ele><time>2026-05-02T14:44:23.001Z</time></trkpt><trkpt lat="45.94194129610763" lon="10.271617184613973"><ele>265.0</ele><time>2026-05-02T14:44:24.001Z</time></trkpt><trkpt lat="45.94188715631468" lon="10.27153597342969"><ele>265.0</ele><time>2026-05-02T14:44:25.001Z</time></trkpt><trkpt lat="45.941841974572945" lon="10.27144169458695"><ele>265.0</ele><time>2026-05-02T14:44:26.001Z</time></trkpt><trkpt lat="45.941788780737134" lon="10.271363335931419"><ele>265.0</ele><time>2026-05-02T14:44:27.001Z</time></trkpt><trkpt lat="45.94173701846453" lon="10.271264468386741"><ele>265.0</ele><time>2026-05-02T14:44:28.001Z</time></trkpt><trkpt lat="45.94170455952968" lon="10.27116979620856"><ele>265.0</ele><time>2026-05-02T14:44:29.001Z</time></trkpt><trkpt lat="45.94165639673531" lon="10.271073232382507"><ele>265.0</ele><time>2026-05-02T14:44:30.001Z</time></trkpt><trkpt lat="45.941603539105905" lon="10.270985009667971"><ele>265.0</ele><time>2026-05-02T14:44:31.001Z</time></trkpt><trkpt lat="45.941554073500775" lon="10.27088871975528"><ele>265.0</ele><time>2026-05-02T14:44:32.001Z</time></trkpt><trkpt lat="45.94150253434456" lon="10.270815192642809"><ele>265.0</ele><time>2026-05-02T14:44:33.001Z</time></trkpt><trkpt lat="45.941453702426124" lon="10.270748583006986"><ele>265.0</ele><time>2026-05-02T14:44:34.001Z</time></trkpt><trkpt lat="45.941395584090714" lon="10.270677229723209"><ele>265.0</ele><time>2026-05-02T14:44:35.001Z</time></trkpt><trkpt lat="45.941338162425716" lon="10.270612505667103"><ele>264.85714285714283</ele><time>2026-05-02T14:44:36.001Z</time></trkpt><trkpt lat="45.941280735704815" lon="10.270549432071649"><ele>264.7142857142857</ele><time>2026-05-02T14:44:37.001Z</time></trkpt><trkpt lat="45.94123836582214" lon="10.270480413118525"><ele>264.57142857142856</ele><time>2026-05-02T14:44:38.001Z</time></trkpt><trkpt lat="45.94120063882423" lon="10.27039423617602"><ele>264.42857142857144</ele><time>2026-05-02T14:44:39.001Z</time></trkpt><trkpt lat="45.941158940054514" lon="10.270312578072632"><ele>264.2857142857143</ele><time>2026-05-02T14:44:40.001Z</time></trkpt><trkpt lat="45.94110879736975" lon="10.27024894748014"><ele>264.1428571428571</ele><time>2026-05-02T14:44:41.001Z</time></trkpt><trkpt lat="45.94105324298651" lon="10.27017675317698"><ele>264.0</ele><time>2026-05-02T14:44:42.001Z</time></trkpt><trkpt lat="45.941004255863895" lon="10.270100648382748"><ele>264.0</ele><time>2026-05-02T14:44:43.001Z</time></trkpt><trkpt lat="45.94094772179845" lon="10.270035819189552"><ele>264.0</ele><time>2026-05-02T14:44:44.001Z</time></trkpt><trkpt lat="45.940886198769284" lon="10.269990419834226"><ele>264.0</ele><time>2026-05-02T14:44:45.001Z</time></trkpt><trkpt lat="45.940828566155616" lon="10.26993229593177"><ele>264.0</ele><time>2026-05-02T14:44:46.001Z</time></trkpt><trkpt lat="45.94077504564907" lon="10.269873527610738"><ele>264.0</ele><time>2026-05-02T14:44:47.001Z</time></trkpt><trkpt lat="45.940718437014795" lon="10.269813380610584"><ele>264.0</ele><time>2026-05-02T14:44:48.001Z</time></trkpt><trkpt lat="45.94066247870362" lon="10.269755252136594"><ele>264.0</ele><time>2026-05-02T14:44:49.001Z</time></trkpt><trkpt lat="45.94059841915447" lon="10.269706586352576"><ele>263.8333333333333</ele><time>2026-05-02T14:44:50.001Z</time></trkpt><trkpt lat="45.94047740266526" lon="10.269610249066393"><ele>263.6666666666667</ele><time>2026-05-02T14:44:52.001Z</time></trkpt><trkpt lat="45.94041518612246" lon="10.269583043792027"><ele>263.5</ele><time>2026-05-02T14:44:53.001Z</time></trkpt><trkpt lat="45.940348008601035" lon="10.26956353469037"><ele>263.33333333333337</ele><time>2026-05-02T14:44:54.001Z</time></trkpt><trkpt lat="45.940281520728334" lon="10.269575104390915"><ele>263.1666666666667</ele><time>2026-05-02T14:44:55.001Z</time></trkpt><trkpt lat="45.94021468263159" lon="10.269593774035851"><ele>263.0</ele><time>2026-05-02T14:44:56Z</time></trkpt><trkpt lat="45.940151770550905" lon="10.269575009899116"><ele>263.0</ele><time>2026-05-02T14:44:57Z</time></trkpt><trkpt lat="45.94008840712897" lon="10.269578639350573"><ele>263.0</ele><time>2026-05-02T14:44:58Z</time></trkpt><trkpt lat="45.93996393378035" lon="10.26956555000689"><ele>263.0</ele><time>2026-05-02T14:45:00Z</time></trkpt><trkpt lat="45.939876174712616" lon="10.269553831690036"><ele>263.0</ele><time>2026-05-02T14:45:01Z</time></trkpt><trkpt lat="45.939825513347664" lon="10.269704454255985"><ele>263.0</ele><time>2026-05-02T14:45:04Z</time></trkpt><trkpt lat="45.9398309381577" lon="10.269828923949387"><ele>263.0</ele><time>2026-05-02T14:45:06Z</time></trkpt><trkpt lat="45.93984487887514" lon="10.26992087211981"><ele>263.0</ele><time>2026-05-02T14:45:26Z</time></trkpt><trkpt lat="45.93985210366735" lon="10.270047307743082"><ele>263.0</ele><time>2026-05-02T14:45:29Z</time></trkpt><trkpt lat="45.93991082368125" lon="10.270139515852271"><ele>263.0</ele><time>2026-05-02T14:45:31Z</time></trkpt><trkpt lat="45.93995468906329" lon="10.270239402339245"><ele>263.0</ele><time>2026-05-02T14:45:33Z</time></trkpt><trkpt lat="45.9400169008343" lon="10.270287959845724"><ele>263.0</ele><time>2026-05-02T14:45:36Z</time></trkpt><trkpt lat="45.94008685815344" lon="10.270367085815636"><ele>263.0</ele><time>2026-05-02T14:45:40Z</time></trkpt><trkpt lat="45.94011408507312" lon="10.270491607166436"><ele>263.0</ele><time>2026-05-02T14:45:41.062Z</time></trkpt><trkpt lat="45.93988818954495" lon="10.27026497797814"><ele>263.0</ele><time>2026-05-02T14:45:52.92Z</time></trkpt><trkpt lat="45.93977743381125" lon="10.270122300745216"><ele>263.0</ele><time>2026-05-02T14:51:29.859Z</time></trkpt><trkpt lat="45.93980097999627" lon="10.270023930049625"><ele>263.0</ele><time>2026-05-02T14:51:42.007Z</time></trkpt><trkpt lat="45.939912205123456" lon="10.270217586453276"><ele>263.0</ele><time>2026-05-02T14:52:16.643Z</time></trkpt><trkpt lat="45.93984982642193" lon="10.270152912495526"><ele>263.0</ele><time>2026-05-02T15:03:18.463Z</time></trkpt><trkpt lat="45.93979844492795" lon="10.2700994352514"><ele>263.0</ele><time>2026-05-02T15:03:24.773Z</time></trkpt><trkpt lat="45.93972400774325" lon="10.270022255552705"><ele>263.0</ele><time>2026-05-02T15:11:06.658Z</time></trkpt></trkseg></trk></gpx>